<?xml version="1.0" encoding="UTF-8" standalone="no" ?>
<gpx xmlns="http://www.topografix.com/GPX/1/1" xmlns:xsi="http://www.w3.org/2001/XMLSchema-instance" xsi:schemaLocation="http://www.topografix.com/GPX/1/1 http://www.topografix.com/GPX/1/1/gpx.xsd" version="1.1" creator="VisuGPX - https://www.visugpx.com">
  <metadata>
    <name>XMB Clans 2016</name>
    <desc><![CDATA[Et voila, on a le tracé pour demain !!!]]></desc>
  </metadata>
  <trk>
    <name><![CDATA[XMB Clans 2016]]></name>
    <trkseg>
      <trkpt lat="43.9973" lon="7.17585">
        <ele>766.410156</ele>
        <time>2016-04-24T08:20:59Z</time>
      </trkpt>
      <trkpt lat="43.9973" lon="7.17586">
        <ele>766.481812</ele>
        <time>2016-04-24T08:21:00Z</time>
      </trkpt>
      <trkpt lat="43.99721" lon="7.17587">
        <ele>772.099976</ele>
        <time>2016-04-24T08:21:14Z</time>
      </trkpt>
      <trkpt lat="43.99714" lon="7.17585">
        <ele>774.280701</ele>
        <time>2016-04-24T08:21:17Z</time>
      </trkpt>
      <trkpt lat="43.99712" lon="7.17583">
        <ele>774.341553</ele>
        <time>2016-04-24T08:21:18Z</time>
      </trkpt>
      <trkpt lat="43.99704" lon="7.17572">
        <ele>771.778442</ele>
        <time>2016-04-24T08:21:21Z</time>
      </trkpt>
      <trkpt lat="43.99698" lon="7.1756">
        <ele>769.251221</ele>
        <time>2016-04-24T08:21:24Z</time>
      </trkpt>
      <trkpt lat="43.99691" lon="7.17554">
        <ele>772.06073</ele>
        <time>2016-04-24T08:21:27Z</time>
      </trkpt>
      <trkpt lat="43.99684" lon="7.1755">
        <ele>775.055969</ele>
        <time>2016-04-24T08:21:29Z</time>
      </trkpt>
      <trkpt lat="43.99676" lon="7.17544">
        <ele>778.265625</ele>
        <time>2016-04-24T08:21:32Z</time>
      </trkpt>
      <trkpt lat="43.9967" lon="7.17538">
        <ele>779.40094</ele>
        <time>2016-04-24T08:21:34Z</time>
      </trkpt>
      <trkpt lat="43.99657" lon="7.17532">
        <ele>784.606262</ele>
        <time>2016-04-24T08:21:38Z</time>
      </trkpt>
      <trkpt lat="43.99646" lon="7.17525">
        <ele>787.744995</ele>
        <time>2016-04-24T08:21:41Z</time>
      </trkpt>
      <trkpt lat="43.99635" lon="7.17519">
        <ele>791.488892</ele>
        <time>2016-04-24T08:21:44Z</time>
      </trkpt>
      <trkpt lat="43.9963" lon="7.17513">
        <ele>792.010864</ele>
        <time>2016-04-24T08:21:46Z</time>
      </trkpt>
      <trkpt lat="43.99625" lon="7.17503">
        <ele>790.742371</ele>
        <time>2016-04-24T08:21:49Z</time>
      </trkpt>
      <trkpt lat="43.99618" lon="7.17493">
        <ele>791.188232</ele>
        <time>2016-04-24T08:21:52Z</time>
      </trkpt>
      <trkpt lat="43.99611" lon="7.17481">
        <ele>789.775085</ele>
        <time>2016-04-24T08:21:55Z</time>
      </trkpt>
      <trkpt lat="43.99605" lon="7.17468">
        <ele>785.917725</ele>
        <time>2016-04-24T08:21:58Z</time>
      </trkpt>
      <trkpt lat="43.99599" lon="7.17453">
        <ele>781.76123</ele>
        <time>2016-04-24T08:22:02Z</time>
      </trkpt>
      <trkpt lat="43.99592" lon="7.17439">
        <ele>779.95813</ele>
        <time>2016-04-24T08:22:06Z</time>
      </trkpt>
      <trkpt lat="43.99589" lon="7.17428">
        <ele>777.189026</ele>
        <time>2016-04-24T08:22:09Z</time>
      </trkpt>
      <trkpt lat="43.99586" lon="7.17419">
        <ele>775.97522</ele>
        <time>2016-04-24T08:22:12Z</time>
      </trkpt>
      <trkpt lat="43.99582" lon="7.17404">
        <ele>773.618774</ele>
        <time>2016-04-24T08:22:16Z</time>
      </trkpt>
      <trkpt lat="43.99576" lon="7.17394">
        <ele>774.409912</ele>
        <time>2016-04-24T08:22:20Z</time>
      </trkpt>
      <trkpt lat="43.99574" lon="7.17394">
        <ele>775.936218</ele>
        <time>2016-04-24T08:22:21Z</time>
      </trkpt>
      <trkpt lat="43.99569" lon="7.17394">
        <ele>776.747925</ele>
        <time>2016-04-24T08:22:24Z</time>
      </trkpt>
      <trkpt lat="43.99555" lon="7.17398">
        <ele>777.363525</ele>
        <time>2016-04-24T08:22:29Z</time>
      </trkpt>
      <trkpt lat="43.99548" lon="7.17404">
        <ele>780.195007</ele>
        <time>2016-04-24T08:22:33Z</time>
      </trkpt>
      <trkpt lat="43.9954" lon="7.17409">
        <ele>782.057739</ele>
        <time>2016-04-24T08:22:36Z</time>
      </trkpt>
      <trkpt lat="43.99535" lon="7.17416">
        <ele>785.256226</ele>
        <time>2016-04-24T08:22:39Z</time>
      </trkpt>
      <trkpt lat="43.99528" lon="7.17427">
        <ele>789.891968</ele>
        <time>2016-04-24T08:22:43Z</time>
      </trkpt>
      <trkpt lat="43.99525" lon="7.17435">
        <ele>792.793823</ele>
        <time>2016-04-24T08:22:46Z</time>
      </trkpt>
      <trkpt lat="43.99518" lon="7.17446">
        <ele>794.843445</ele>
        <time>2016-04-24T08:22:50Z</time>
      </trkpt>
      <trkpt lat="43.99513" lon="7.17457">
        <ele>798.33252</ele>
        <time>2016-04-24T08:22:54Z</time>
      </trkpt>
      <trkpt lat="43.99509" lon="7.17464">
        <ele>799.98053</ele>
        <time>2016-04-24T08:22:57Z</time>
      </trkpt>
      <trkpt lat="43.99502" lon="7.17473">
        <ele>801.876465</ele>
        <time>2016-04-24T08:23:01Z</time>
      </trkpt>
      <trkpt lat="43.99493" lon="7.1748">
        <ele>801.848938</ele>
        <time>2016-04-24T08:23:05Z</time>
      </trkpt>
      <trkpt lat="43.99483" lon="7.17482">
        <ele>798.839722</ele>
        <time>2016-04-24T08:23:10Z</time>
      </trkpt>
      <trkpt lat="43.99473" lon="7.17486">
        <ele>796.188232</ele>
        <time>2016-04-24T08:23:14Z</time>
      </trkpt>
      <trkpt lat="43.99466" lon="7.17489">
        <ele>793.73053</ele>
        <time>2016-04-24T08:23:17Z</time>
      </trkpt>
      <trkpt lat="43.99455" lon="7.17494">
        <ele>791.103271</ele>
        <time>2016-04-24T08:23:22Z</time>
      </trkpt>
      <trkpt lat="43.99453" lon="7.17499">
        <ele>791.852478</ele>
        <time>2016-04-24T08:23:24Z</time>
      </trkpt>
      <trkpt lat="43.99452" lon="7.17506">
        <ele>795.02594</ele>
        <time>2016-04-24T08:23:26Z</time>
      </trkpt>
      <trkpt lat="43.99449" lon="7.1752">
        <ele>800.9599</ele>
        <time>2016-04-24T08:23:30Z</time>
      </trkpt>
      <trkpt lat="43.99447" lon="7.1753">
        <ele>804.763184</ele>
        <time>2016-04-24T08:23:33Z</time>
      </trkpt>
      <trkpt lat="43.99443" lon="7.17536">
        <ele>805.773743</ele>
        <time>2016-04-24T08:23:36Z</time>
      </trkpt>
      <trkpt lat="43.99434" lon="7.17545">
        <ele>805.861267</ele>
        <time>2016-04-24T08:23:41Z</time>
      </trkpt>
      <trkpt lat="43.99429" lon="7.17552">
        <ele>807.710876</ele>
        <time>2016-04-24T08:23:44Z</time>
      </trkpt>
      <trkpt lat="43.99421" lon="7.17564">
        <ele>812.833801</ele>
        <time>2016-04-24T08:23:49Z</time>
      </trkpt>
      <trkpt lat="43.99415" lon="7.17573">
        <ele>815.822388</ele>
        <time>2016-04-24T08:23:53Z</time>
      </trkpt>
      <trkpt lat="43.99406" lon="7.1758">
        <ele>815.74939</ele>
        <time>2016-04-24T08:23:58Z</time>
      </trkpt>
      <trkpt lat="43.99396" lon="7.17587">
        <ele>814.71106</ele>
        <time>2016-04-24T08:24:03Z</time>
      </trkpt>
      <trkpt lat="43.99392" lon="7.17593">
        <ele>815.781494</ele>
        <time>2016-04-24T08:24:06Z</time>
      </trkpt>
      <trkpt lat="43.99385" lon="7.17599">
        <ele>816.843994</ele>
        <time>2016-04-24T08:24:09Z</time>
      </trkpt>
      <trkpt lat="43.99372" lon="7.17605">
        <ele>824.743103</ele>
        <time>2016-04-24T08:24:14Z</time>
      </trkpt>
      <trkpt lat="43.99359" lon="7.17599">
        <ele>827.909241</ele>
        <time>2016-04-24T08:24:20Z</time>
      </trkpt>
      <trkpt lat="43.99358" lon="7.1759">
        <ele>825.944885</ele>
        <time>2016-04-24T08:24:23Z</time>
      </trkpt>
      <trkpt lat="43.99363" lon="7.17573">
        <ele>821.260376</ele>
        <time>2016-04-24T08:24:27Z</time>
      </trkpt>
      <trkpt lat="43.99364" lon="7.17544">
        <ele>817.993774</ele>
        <time>2016-04-24T08:24:34Z</time>
      </trkpt>
      <trkpt lat="43.99366" lon="7.17536">
        <ele>815.631897</ele>
        <time>2016-04-24T08:24:36Z</time>
      </trkpt>
      <trkpt lat="43.9937" lon="7.17527">
        <ele>811.626221</ele>
        <time>2016-04-24T08:24:39Z</time>
      </trkpt>
      <trkpt lat="43.99371" lon="7.17521">
        <ele>810.19873</ele>
        <time>2016-04-24T08:24:41Z</time>
      </trkpt>
      <trkpt lat="43.9937" lon="7.17514">
        <ele>811.12854</ele>
        <time>2016-04-24T08:24:43Z</time>
      </trkpt>
      <trkpt lat="43.99367" lon="7.17504">
        <ele>814.968384</ele>
        <time>2016-04-24T08:24:46Z</time>
      </trkpt>
      <trkpt lat="43.99363" lon="7.17492">
        <ele>818.462402</ele>
        <time>2016-04-24T08:24:50Z</time>
      </trkpt>
      <trkpt lat="43.99367" lon="7.17479">
        <ele>814.943176</ele>
        <time>2016-04-24T08:24:54Z</time>
      </trkpt>
      <trkpt lat="43.99371" lon="7.17461">
        <ele>811.579468</ele>
        <time>2016-04-24T08:24:59Z</time>
      </trkpt>
      <trkpt lat="43.99371" lon="7.17448">
        <ele>812.928528</ele>
        <time>2016-04-24T08:25:03Z</time>
      </trkpt>
      <trkpt lat="43.99366" lon="7.17427">
        <ele>819.896606</ele>
        <time>2016-04-24T08:25:09Z</time>
      </trkpt>
      <trkpt lat="43.99366" lon="7.17423">
        <ele>820.738098</ele>
        <time>2016-04-24T08:25:10Z</time>
      </trkpt>
      <trkpt lat="43.99365" lon="7.17411">
        <ele>823.083313</ele>
        <time>2016-04-24T08:25:13Z</time>
      </trkpt>
      <trkpt lat="43.99366" lon="7.17391">
        <ele>824.781677</ele>
        <time>2016-04-24T08:25:18Z</time>
      </trkpt>
      <trkpt lat="43.99373" lon="7.17376">
        <ele>822.305542</ele>
        <time>2016-04-24T08:25:22Z</time>
      </trkpt>
      <trkpt lat="43.9938" lon="7.17365">
        <ele>818.58783</ele>
        <time>2016-04-24T08:25:26Z</time>
      </trkpt>
      <trkpt lat="43.99382" lon="7.17357">
        <ele>818.922363</ele>
        <time>2016-04-24T08:25:28Z</time>
      </trkpt>
      <trkpt lat="43.99384" lon="7.17345">
        <ele>819.298706</ele>
        <time>2016-04-24T08:25:31Z</time>
      </trkpt>
      <trkpt lat="43.99384" lon="7.17341">
        <ele>820.914978</ele>
        <time>2016-04-24T08:25:32Z</time>
      </trkpt>
      <trkpt lat="43.9938" lon="7.17333">
        <ele>824.155396</ele>
        <time>2016-04-24T08:25:34Z</time>
      </trkpt>
      <trkpt lat="43.99377" lon="7.17322">
        <ele>826.737488</ele>
        <time>2016-04-24T08:25:37Z</time>
      </trkpt>
      <trkpt lat="43.99376" lon="7.17305">
        <ele>827.894958</ele>
        <time>2016-04-24T08:25:41Z</time>
      </trkpt>
      <trkpt lat="43.99376" lon="7.17301">
        <ele>827.991821</ele>
        <time>2016-04-24T08:25:42Z</time>
      </trkpt>
      <trkpt lat="43.99374" lon="7.17297">
        <ele>829.517456</ele>
        <time>2016-04-24T08:25:43Z</time>
      </trkpt>
      <trkpt lat="43.99368" lon="7.17283">
        <ele>835.086609</ele>
        <time>2016-04-24T08:25:47Z</time>
      </trkpt>
      <trkpt lat="43.99357" lon="7.17264">
        <ele>845.830933</ele>
        <time>2016-04-24T08:25:52Z</time>
      </trkpt>
      <trkpt lat="43.99356" lon="7.1726">
        <ele>846.452026</ele>
        <time>2016-04-24T08:25:53Z</time>
      </trkpt>
      <trkpt lat="43.99355" lon="7.17242">
        <ele>846.930786</ele>
        <time>2016-04-24T08:25:57Z</time>
      </trkpt>
      <trkpt lat="43.99358" lon="7.1723">
        <ele>843.459229</ele>
        <time>2016-04-24T08:26:00Z</time>
      </trkpt>
      <trkpt lat="43.99365" lon="7.17217">
        <ele>835.779907</ele>
        <time>2016-04-24T08:26:04Z</time>
      </trkpt>
      <trkpt lat="43.99367" lon="7.1721">
        <ele>834.025513</ele>
        <time>2016-04-24T08:26:06Z</time>
      </trkpt>
      <trkpt lat="43.99356" lon="7.17201">
        <ele>844.592712</ele>
        <time>2016-04-24T08:26:08Z</time>
      </trkpt>
      <trkpt lat="43.99352" lon="7.17191">
        <ele>846.955688</ele>
        <time>2016-04-24T08:26:11Z</time>
      </trkpt>
      <trkpt lat="43.99349" lon="7.17186">
        <ele>848.144653</ele>
        <time>2016-04-24T08:26:13Z</time>
      </trkpt>
      <trkpt lat="43.99347" lon="7.17183">
        <ele>849.115967</ele>
        <time>2016-04-24T08:26:14Z</time>
      </trkpt>
      <trkpt lat="43.99338" lon="7.17169">
        <ele>851.856384</ele>
        <time>2016-04-24T08:26:19Z</time>
      </trkpt>
      <trkpt lat="43.99333" lon="7.17162">
        <ele>852.416382</ele>
        <time>2016-04-24T08:26:22Z</time>
      </trkpt>
      <trkpt lat="43.99328" lon="7.17156">
        <ele>853.030701</ele>
        <time>2016-04-24T08:26:25Z</time>
      </trkpt>
      <trkpt lat="43.99324" lon="7.17156">
        <ele>855.025696</ele>
        <time>2016-04-24T08:26:27Z</time>
      </trkpt>
      <trkpt lat="43.99309" lon="7.17162">
        <ele>862.065552</ele>
        <time>2016-04-24T08:26:32Z</time>
      </trkpt>
      <trkpt lat="43.99299" lon="7.17166">
        <ele>864.166809</ele>
        <time>2016-04-24T08:26:36Z</time>
      </trkpt>
      <trkpt lat="43.9929" lon="7.17166">
        <ele>865.154053</ele>
        <time>2016-04-24T08:26:40Z</time>
      </trkpt>
      <trkpt lat="43.9928" lon="7.17166">
        <ele>865.862366</ele>
        <time>2016-04-24T08:26:44Z</time>
      </trkpt>
      <trkpt lat="43.9927" lon="7.17165">
        <ele>865.939087</ele>
        <time>2016-04-24T08:26:49Z</time>
      </trkpt>
      <trkpt lat="43.99263" lon="7.17166">
        <ele>866.440186</ele>
        <time>2016-04-24T08:26:52Z</time>
      </trkpt>
      <trkpt lat="43.99251" lon="7.17168">
        <ele>867.194214</ele>
        <time>2016-04-24T08:26:56Z</time>
      </trkpt>
      <trkpt lat="43.99235" lon="7.17172">
        <ele>868.741211</ele>
        <time>2016-04-24T08:27:01Z</time>
      </trkpt>
      <trkpt lat="43.9922" lon="7.17179">
        <ele>872.147583</ele>
        <time>2016-04-24T08:27:06Z</time>
      </trkpt>
      <trkpt lat="43.99208" lon="7.17188">
        <ele>875.571411</ele>
        <time>2016-04-24T08:27:11Z</time>
      </trkpt>
      <trkpt lat="43.99195" lon="7.17193">
        <ele>876.681335</ele>
        <time>2016-04-24T08:27:16Z</time>
      </trkpt>
      <trkpt lat="43.99182" lon="7.17193">
        <ele>875.099609</ele>
        <time>2016-04-24T08:27:21Z</time>
      </trkpt>
      <trkpt lat="43.99175" lon="7.17198">
        <ele>877.141052</ele>
        <time>2016-04-24T08:27:24Z</time>
      </trkpt>
      <trkpt lat="43.99168" lon="7.17207">
        <ele>879.49884</ele>
        <time>2016-04-24T08:27:27Z</time>
      </trkpt>
      <trkpt lat="43.99156" lon="7.17221">
        <ele>883.421204</ele>
        <time>2016-04-24T08:27:32Z</time>
      </trkpt>
      <trkpt lat="43.99145" lon="7.17229">
        <ele>885.006897</ele>
        <time>2016-04-24T08:27:36Z</time>
      </trkpt>
      <trkpt lat="43.99128" lon="7.17224">
        <ele>877.764771</ele>
        <time>2016-04-24T08:27:42Z</time>
      </trkpt>
      <trkpt lat="43.99115" lon="7.17221">
        <ele>872.43158</ele>
        <time>2016-04-24T08:27:47Z</time>
      </trkpt>
      <trkpt lat="43.99105" lon="7.17228">
        <ele>874.746033</ele>
        <time>2016-04-24T08:27:51Z</time>
      </trkpt>
      <trkpt lat="43.99095" lon="7.17239">
        <ele>879.389465</ele>
        <time>2016-04-24T08:27:54Z</time>
      </trkpt>
      <trkpt lat="43.99092" lon="7.17244">
        <ele>881.88385</ele>
        <time>2016-04-24T08:27:55Z</time>
      </trkpt>
      <trkpt lat="43.99083" lon="7.17256">
        <ele>886.66626</ele>
        <time>2016-04-24T08:27:57Z</time>
      </trkpt>
      <trkpt lat="43.99071" lon="7.17259">
        <ele>881.914978</ele>
        <time>2016-04-24T08:27:59Z</time>
      </trkpt>
      <trkpt lat="43.99058" lon="7.17261">
        <ele>876.432495</ele>
        <time>2016-04-24T08:28:01Z</time>
      </trkpt>
      <trkpt lat="43.99048" lon="7.1727">
        <ele>876.039978</ele>
        <time>2016-04-24T08:28:03Z</time>
      </trkpt>
      <trkpt lat="43.99043" lon="7.17276">
        <ele>876.828735</ele>
        <time>2016-04-24T08:28:04Z</time>
      </trkpt>
      <trkpt lat="43.99031" lon="7.17293">
        <ele>882.737976</ele>
        <time>2016-04-24T08:28:07Z</time>
      </trkpt>
      <trkpt lat="43.99022" lon="7.17305">
        <ele>887.346985</ele>
        <time>2016-04-24T08:28:09Z</time>
      </trkpt>
      <trkpt lat="43.99004" lon="7.17313">
        <ele>887.795959</ele>
        <time>2016-04-24T08:28:12Z</time>
      </trkpt>
      <trkpt lat="43.98998" lon="7.1731">
        <ele>885.409241</ele>
        <time>2016-04-24T08:28:13Z</time>
      </trkpt>
      <trkpt lat="43.98992" lon="7.17304">
        <ele>881.568665</ele>
        <time>2016-04-24T08:28:14Z</time>
      </trkpt>
      <trkpt lat="43.98989" lon="7.17285">
        <ele>879.046021</ele>
        <time>2016-04-24T08:28:16Z</time>
      </trkpt>
      <trkpt lat="43.9899" lon="7.17277">
        <ele>876.74408</ele>
        <time>2016-04-24T08:28:17Z</time>
      </trkpt>
      <trkpt lat="43.9899" lon="7.17268">
        <ele>874.657043</ele>
        <time>2016-04-24T08:28:18Z</time>
      </trkpt>
      <trkpt lat="43.98992" lon="7.1726">
        <ele>871.860962</ele>
        <time>2016-04-24T08:28:19Z</time>
      </trkpt>
      <trkpt lat="43.98997" lon="7.17245">
        <ele>866.82251</ele>
        <time>2016-04-24T08:28:21Z</time>
      </trkpt>
      <trkpt lat="43.98997" lon="7.17238">
        <ele>864.238098</ele>
        <time>2016-04-24T08:28:22Z</time>
      </trkpt>
      <trkpt lat="43.98997" lon="7.17231">
        <ele>861.64679</ele>
        <time>2016-04-24T08:28:23Z</time>
      </trkpt>
      <trkpt lat="43.98995" lon="7.1722">
        <ele>858.48938</ele>
        <time>2016-04-24T08:28:25Z</time>
      </trkpt>
      <trkpt lat="43.98986" lon="7.17215">
        <ele>859.635925</ele>
        <time>2016-04-24T08:28:27Z</time>
      </trkpt>
      <trkpt lat="43.98983" lon="7.17214">
        <ele>860.329285</ele>
        <time>2016-04-24T08:28:28Z</time>
      </trkpt>
      <trkpt lat="43.98972" lon="7.17215">
        <ele>864.651123</ele>
        <time>2016-04-24T08:28:31Z</time>
      </trkpt>
      <trkpt lat="43.98969" lon="7.17216">
        <ele>866.064026</ele>
        <time>2016-04-24T08:28:32Z</time>
      </trkpt>
      <trkpt lat="43.98962" lon="7.17217">
        <ele>869.409851</ele>
        <time>2016-04-24T08:28:34Z</time>
      </trkpt>
      <trkpt lat="43.98948" lon="7.17225">
        <ele>879.44165</ele>
        <time>2016-04-24T08:28:38Z</time>
      </trkpt>
      <trkpt lat="43.98927" lon="7.17223">
        <ele>880.793579</ele>
        <time>2016-04-24T08:28:44Z</time>
      </trkpt>
      <trkpt lat="43.9892" lon="7.17215">
        <ele>877.268311</ele>
        <time>2016-04-24T08:28:46Z</time>
      </trkpt>
      <trkpt lat="43.98911" lon="7.17211">
        <ele>876.611206</ele>
        <time>2016-04-24T08:28:48Z</time>
      </trkpt>
      <trkpt lat="43.98906" lon="7.17211">
        <ele>877.254761</ele>
        <time>2016-04-24T08:28:49Z</time>
      </trkpt>
      <trkpt lat="43.98896" lon="7.17216">
        <ele>882.278198</ele>
        <time>2016-04-24T08:28:51Z</time>
      </trkpt>
      <trkpt lat="43.98884" lon="7.17224">
        <ele>888.007629</ele>
        <time>2016-04-24T08:28:53Z</time>
      </trkpt>
      <trkpt lat="43.98871" lon="7.17223">
        <ele>889.657471</ele>
        <time>2016-04-24T08:28:55Z</time>
      </trkpt>
      <trkpt lat="43.98865" lon="7.1721">
        <ele>887.222229</ele>
        <time>2016-04-24T08:28:57Z</time>
      </trkpt>
      <trkpt lat="43.98864" lon="7.17189">
        <ele>881.93866</ele>
        <time>2016-04-24T08:29:00Z</time>
      </trkpt>
      <trkpt lat="43.98866" lon="7.1717">
        <ele>876.606506</ele>
        <time>2016-04-24T08:29:02Z</time>
      </trkpt>
      <trkpt lat="43.98868" lon="7.17159">
        <ele>878.483765</ele>
        <time>2016-04-24T08:29:03Z</time>
      </trkpt>
      <trkpt lat="43.98875" lon="7.17145">
        <ele>878.470642</ele>
        <time>2016-04-24T08:29:05Z</time>
      </trkpt>
      <trkpt lat="43.98893" lon="7.17127">
        <ele>871.438416</ele>
        <time>2016-04-24T08:29:09Z</time>
      </trkpt>
      <trkpt lat="43.98901" lon="7.17116">
        <ele>868.625488</ele>
        <time>2016-04-24T08:29:11Z</time>
      </trkpt>
      <trkpt lat="43.98907" lon="7.17105">
        <ele>867.662415</ele>
        <time>2016-04-24T08:29:13Z</time>
      </trkpt>
      <trkpt lat="43.98909" lon="7.17099">
        <ele>868.524536</ele>
        <time>2016-04-24T08:29:14Z</time>
      </trkpt>
      <trkpt lat="43.98913" lon="7.17087">
        <ele>869.60675</ele>
        <time>2016-04-24T08:29:16Z</time>
      </trkpt>
      <trkpt lat="43.9892" lon="7.17075">
        <ele>869.3172</ele>
        <time>2016-04-24T08:29:18Z</time>
      </trkpt>
      <trkpt lat="43.98929" lon="7.17064">
        <ele>867.676025</ele>
        <time>2016-04-24T08:29:20Z</time>
      </trkpt>
      <trkpt lat="43.98924" lon="7.17062">
        <ele>871.598511</ele>
        <time>2016-04-24T08:29:21Z</time>
      </trkpt>
      <trkpt lat="43.98924" lon="7.17059">
        <ele>872.84613</ele>
        <time>2016-04-24T08:29:22Z</time>
      </trkpt>
      <trkpt lat="43.98927" lon="7.17051">
        <ele>874.182129</ele>
        <time>2016-04-24T08:29:24Z</time>
      </trkpt>
      <trkpt lat="43.98928" lon="7.17046">
        <ele>874.766602</ele>
        <time>2016-04-24T08:29:25Z</time>
      </trkpt>
      <trkpt lat="43.98931" lon="7.17036">
        <ele>876.444885</ele>
        <time>2016-04-24T08:29:27Z</time>
      </trkpt>
      <trkpt lat="43.98938" lon="7.17018">
        <ele>878.800049</ele>
        <time>2016-04-24T08:29:31Z</time>
      </trkpt>
      <trkpt lat="43.98954" lon="7.16996">
        <ele>877.527771</ele>
        <time>2016-04-24T08:29:37Z</time>
      </trkpt>
      <trkpt lat="43.98964" lon="7.16988">
        <ele>874.704041</ele>
        <time>2016-04-24T08:29:40Z</time>
      </trkpt>
      <trkpt lat="43.98977" lon="7.16967">
        <ele>873.097778</ele>
        <time>2016-04-24T08:29:46Z</time>
      </trkpt>
      <trkpt lat="43.98984" lon="7.16957">
        <ele>871.613281</ele>
        <time>2016-04-24T08:29:49Z</time>
      </trkpt>
      <trkpt lat="43.98987" lon="7.16937">
        <ele>876.379272</ele>
        <time>2016-04-24T08:29:53Z</time>
      </trkpt>
      <trkpt lat="43.98986" lon="7.16913">
        <ele>883.559998</ele>
        <time>2016-04-24T08:29:58Z</time>
      </trkpt>
      <trkpt lat="43.98989" lon="7.16894">
        <ele>886.414001</ele>
        <time>2016-04-24T08:30:02Z</time>
      </trkpt>
      <trkpt lat="43.98993" lon="7.16875">
        <ele>888.738403</ele>
        <time>2016-04-24T08:30:06Z</time>
      </trkpt>
      <trkpt lat="43.99004" lon="7.16848">
        <ele>889.342529</ele>
        <time>2016-04-24T08:30:12Z</time>
      </trkpt>
      <trkpt lat="43.99015" lon="7.16832">
        <ele>886.421692</ele>
        <time>2016-04-24T08:30:16Z</time>
      </trkpt>
      <trkpt lat="43.99015" lon="7.16827">
        <ele>887.55249</ele>
        <time>2016-04-24T08:30:17Z</time>
      </trkpt>
      <trkpt lat="43.99015" lon="7.16815">
        <ele>890.379517</ele>
        <time>2016-04-24T08:30:20Z</time>
      </trkpt>
      <trkpt lat="43.9902" lon="7.16795">
        <ele>893.866882</ele>
        <time>2016-04-24T08:30:26Z</time>
      </trkpt>
      <trkpt lat="43.99029" lon="7.16787">
        <ele>892.112976</ele>
        <time>2016-04-24T08:30:29Z</time>
      </trkpt>
      <trkpt lat="43.99038" lon="7.16773">
        <ele>892.375</ele>
        <time>2016-04-24T08:30:33Z</time>
      </trkpt>
      <trkpt lat="43.99059" lon="7.1675">
        <ele>891.090027</ele>
        <time>2016-04-24T08:30:40Z</time>
      </trkpt>
      <trkpt lat="43.99074" lon="7.16724">
        <ele>890.839966</ele>
        <time>2016-04-24T08:30:46Z</time>
      </trkpt>
      <trkpt lat="43.99079" lon="7.16694">
        <ele>896.946045</ele>
        <time>2016-04-24T08:30:52Z</time>
      </trkpt>
      <trkpt lat="43.99079" lon="7.16689">
        <ele>898.071777</ele>
        <time>2016-04-24T08:30:53Z</time>
      </trkpt>
      <trkpt lat="43.99088" lon="7.16675">
        <ele>895.169617</ele>
        <time>2016-04-24T08:30:57Z</time>
      </trkpt>
      <trkpt lat="43.99093" lon="7.16666">
        <ele>893.749207</ele>
        <time>2016-04-24T08:31:00Z</time>
      </trkpt>
      <trkpt lat="43.99098" lon="7.16652">
        <ele>893.097046</ele>
        <time>2016-04-24T08:31:04Z</time>
      </trkpt>
      <trkpt lat="43.99097" lon="7.16641">
        <ele>894.915894</ele>
        <time>2016-04-24T08:31:08Z</time>
      </trkpt>
      <trkpt lat="43.99089" lon="7.16625">
        <ele>900.749146</ele>
        <time>2016-04-24T08:31:13Z</time>
      </trkpt>
      <trkpt lat="43.9908" lon="7.16612">
        <ele>904.185791</ele>
        <time>2016-04-24T08:31:17Z</time>
      </trkpt>
      <trkpt lat="43.99075" lon="7.16601">
        <ele>906.017761</ele>
        <time>2016-04-24T08:31:21Z</time>
      </trkpt>
      <trkpt lat="43.99068" lon="7.16591">
        <ele>908.409973</ele>
        <time>2016-04-24T08:31:25Z</time>
      </trkpt>
      <trkpt lat="43.99061" lon="7.16577">
        <ele>910.684998</ele>
        <time>2016-04-24T08:31:30Z</time>
      </trkpt>
      <trkpt lat="43.99053" lon="7.16568">
        <ele>913.152527</ele>
        <time>2016-04-24T08:31:34Z</time>
      </trkpt>
      <trkpt lat="43.99046" lon="7.16561">
        <ele>915.924622</ele>
        <time>2016-04-24T08:31:38Z</time>
      </trkpt>
      <trkpt lat="43.99039" lon="7.16555">
        <ele>917.153503</ele>
        <time>2016-04-24T08:31:42Z</time>
      </trkpt>
      <trkpt lat="43.99029" lon="7.16546">
        <ele>918.872009</ele>
        <time>2016-04-24T08:31:48Z</time>
      </trkpt>
      <trkpt lat="43.9902" lon="7.1654">
        <ele>920.898621</ele>
        <time>2016-04-24T08:31:52Z</time>
      </trkpt>
      <trkpt lat="43.9901" lon="7.16532">
        <ele>923.126404</ele>
        <time>2016-04-24T08:31:56Z</time>
      </trkpt>
      <trkpt lat="43.99" lon="7.16516">
        <ele>922.461609</ele>
        <time>2016-04-24T08:32:01Z</time>
      </trkpt>
      <trkpt lat="43.98993" lon="7.16506">
        <ele>922.557922</ele>
        <time>2016-04-24T08:32:05Z</time>
      </trkpt>
      <trkpt lat="43.98982" lon="7.16495">
        <ele>924.157471</ele>
        <time>2016-04-24T08:32:10Z</time>
      </trkpt>
      <trkpt lat="43.98975" lon="7.16491">
        <ele>926.569885</ele>
        <time>2016-04-24T08:32:14Z</time>
      </trkpt>
      <trkpt lat="43.98965" lon="7.16483">
        <ele>928.751831</ele>
        <time>2016-04-24T08:32:19Z</time>
      </trkpt>
      <trkpt lat="43.98957" lon="7.16476">
        <ele>930.680908</ele>
        <time>2016-04-24T08:32:24Z</time>
      </trkpt>
      <trkpt lat="43.9895" lon="7.16464">
        <ele>930.840088</ele>
        <time>2016-04-24T08:32:29Z</time>
      </trkpt>
      <trkpt lat="43.9895" lon="7.16453">
        <ele>927.460754</ele>
        <time>2016-04-24T08:32:33Z</time>
      </trkpt>
      <trkpt lat="43.98949" lon="7.16441">
        <ele>924.108154</ele>
        <time>2016-04-24T08:32:36Z</time>
      </trkpt>
      <trkpt lat="43.98946" lon="7.16421">
        <ele>922.258057</ele>
        <time>2016-04-24T08:32:41Z</time>
      </trkpt>
      <trkpt lat="43.98942" lon="7.16401">
        <ele>923.523865</ele>
        <time>2016-04-24T08:32:46Z</time>
      </trkpt>
      <trkpt lat="43.98942" lon="7.16394">
        <ele>923.022278</ele>
        <time>2016-04-24T08:32:48Z</time>
      </trkpt>
      <trkpt lat="43.98943" lon="7.16386">
        <ele>921.92749</ele>
        <time>2016-04-24T08:32:50Z</time>
      </trkpt>
      <trkpt lat="43.98945" lon="7.16365">
        <ele>919.851318</ele>
        <time>2016-04-24T08:32:55Z</time>
      </trkpt>
      <trkpt lat="43.98946" lon="7.16361">
        <ele>918.520691</ele>
        <time>2016-04-24T08:32:56Z</time>
      </trkpt>
      <trkpt lat="43.98949" lon="7.16344">
        <ele>916.232605</ele>
        <time>2016-04-24T08:33:00Z</time>
      </trkpt>
      <trkpt lat="43.9895" lon="7.16329">
        <ele>915.267151</ele>
        <time>2016-04-24T08:33:04Z</time>
      </trkpt>
      <trkpt lat="43.98948" lon="7.16315">
        <ele>916.915344</ele>
        <time>2016-04-24T08:33:08Z</time>
      </trkpt>
      <trkpt lat="43.98946" lon="7.16301">
        <ele>917.632507</ele>
        <time>2016-04-24T08:33:12Z</time>
      </trkpt>
      <trkpt lat="43.98944" lon="7.16286">
        <ele>918.637573</ele>
        <time>2016-04-24T08:33:16Z</time>
      </trkpt>
      <trkpt lat="43.9894" lon="7.16271">
        <ele>920.975159</ele>
        <time>2016-04-24T08:33:20Z</time>
      </trkpt>
      <trkpt lat="43.98935" lon="7.16257">
        <ele>923.925354</ele>
        <time>2016-04-24T08:33:24Z</time>
      </trkpt>
      <trkpt lat="43.98928" lon="7.1624">
        <ele>927.112244</ele>
        <time>2016-04-24T08:33:29Z</time>
      </trkpt>
      <trkpt lat="43.98921" lon="7.16223">
        <ele>930.147217</ele>
        <time>2016-04-24T08:33:34Z</time>
      </trkpt>
      <trkpt lat="43.98907" lon="7.16201">
        <ele>936.903015</ele>
        <time>2016-04-24T08:33:40Z</time>
      </trkpt>
      <trkpt lat="43.98896" lon="7.16178">
        <ele>940.608337</ele>
        <time>2016-04-24T08:33:46Z</time>
      </trkpt>
      <trkpt lat="43.98887" lon="7.16157">
        <ele>941.820007</ele>
        <time>2016-04-24T08:33:51Z</time>
      </trkpt>
      <trkpt lat="43.98872" lon="7.16137">
        <ele>946.467529</ele>
        <time>2016-04-24T08:33:56Z</time>
      </trkpt>
      <trkpt lat="43.98866" lon="7.16125">
        <ele>947.815002</ele>
        <time>2016-04-24T08:34:00Z</time>
      </trkpt>
      <trkpt lat="43.98862" lon="7.16117">
        <ele>947.864075</ele>
        <time>2016-04-24T08:34:03Z</time>
      </trkpt>
      <trkpt lat="43.98857" lon="7.16109">
        <ele>947.764832</ele>
        <time>2016-04-24T08:34:06Z</time>
      </trkpt>
      <trkpt lat="43.9885" lon="7.16103">
        <ele>947.551941</ele>
        <time>2016-04-24T08:34:09Z</time>
      </trkpt>
      <trkpt lat="43.98842" lon="7.16097">
        <ele>947.371887</ele>
        <time>2016-04-24T08:34:14Z</time>
      </trkpt>
      <trkpt lat="43.98828" lon="7.16097">
        <ele>950.571899</ele>
        <time>2016-04-24T08:34:19Z</time>
      </trkpt>
      <trkpt lat="43.98825" lon="7.16099">
        <ele>951.674072</ele>
        <time>2016-04-24T08:34:20Z</time>
      </trkpt>
      <trkpt lat="43.98814" lon="7.16104">
        <ele>955.094971</ele>
        <time>2016-04-24T08:34:24Z</time>
      </trkpt>
      <trkpt lat="43.9881" lon="7.16106">
        <ele>955.539307</ele>
        <time>2016-04-24T08:34:25Z</time>
      </trkpt>
      <trkpt lat="43.98792" lon="7.16116">
        <ele>958.722351</ele>
        <time>2016-04-24T08:34:31Z</time>
      </trkpt>
      <trkpt lat="43.98779" lon="7.16119">
        <ele>960.434998</ele>
        <time>2016-04-24T08:34:36Z</time>
      </trkpt>
      <trkpt lat="43.98769" lon="7.16118">
        <ele>961.359985</ele>
        <time>2016-04-24T08:34:40Z</time>
      </trkpt>
      <trkpt lat="43.98761" lon="7.16117">
        <ele>962.804993</ele>
        <time>2016-04-24T08:34:43Z</time>
      </trkpt>
      <trkpt lat="43.98749" lon="7.16114">
        <ele>964.387512</ele>
        <time>2016-04-24T08:34:48Z</time>
      </trkpt>
      <trkpt lat="43.98741" lon="7.16112">
        <ele>965.342529</ele>
        <time>2016-04-24T08:34:51Z</time>
      </trkpt>
      <trkpt lat="43.98732" lon="7.16108">
        <ele>965.835022</ele>
        <time>2016-04-24T08:34:55Z</time>
      </trkpt>
      <trkpt lat="43.98722" lon="7.16104">
        <ele>966.98999</ele>
        <time>2016-04-24T08:34:59Z</time>
      </trkpt>
      <trkpt lat="43.98712" lon="7.16097">
        <ele>966.764282</ele>
        <time>2016-04-24T08:35:05Z</time>
      </trkpt>
      <trkpt lat="43.9871" lon="7.16096">
        <ele>966.894714</ele>
        <time>2016-04-24T08:35:06Z</time>
      </trkpt>
      <trkpt lat="43.98703" lon="7.16091">
        <ele>966.937073</ele>
        <time>2016-04-24T08:35:09Z</time>
      </trkpt>
      <trkpt lat="43.98696" lon="7.16085">
        <ele>966.50177</ele>
        <time>2016-04-24T08:35:12Z</time>
      </trkpt>
      <trkpt lat="43.98681" lon="7.16074">
        <ele>966.725525</ele>
        <time>2016-04-24T08:35:18Z</time>
      </trkpt>
      <trkpt lat="43.98671" lon="7.16066">
        <ele>966.947144</ele>
        <time>2016-04-24T08:35:22Z</time>
      </trkpt>
      <trkpt lat="43.98659" lon="7.1606">
        <ele>968.547424</ele>
        <time>2016-04-24T08:35:27Z</time>
      </trkpt>
      <trkpt lat="43.98645" lon="7.16052">
        <ele>970.453796</ele>
        <time>2016-04-24T08:35:33Z</time>
      </trkpt>
      <trkpt lat="43.98637" lon="7.16048">
        <ele>972.081604</ele>
        <time>2016-04-24T08:35:36Z</time>
      </trkpt>
      <trkpt lat="43.9863" lon="7.16046">
        <ele>973.617432</ele>
        <time>2016-04-24T08:35:39Z</time>
      </trkpt>
      <trkpt lat="43.98614" lon="7.16041">
        <ele>977.560181</ele>
        <time>2016-04-24T08:35:45Z</time>
      </trkpt>
      <trkpt lat="43.98605" lon="7.16033">
        <ele>977.599243</ele>
        <time>2016-04-24T08:35:50Z</time>
      </trkpt>
      <trkpt lat="43.98598" lon="7.16029">
        <ele>978.775208</ele>
        <time>2016-04-24T08:35:53Z</time>
      </trkpt>
      <trkpt lat="43.98589" lon="7.16027">
        <ele>980.357422</ele>
        <time>2016-04-24T08:35:57Z</time>
      </trkpt>
      <trkpt lat="43.9858" lon="7.16025">
        <ele>982.202454</ele>
        <time>2016-04-24T08:36:01Z</time>
      </trkpt>
      <trkpt lat="43.98565" lon="7.16022">
        <ele>985.008179</ele>
        <time>2016-04-24T08:36:07Z</time>
      </trkpt>
      <trkpt lat="43.98552" lon="7.16023">
        <ele>987.980713</ele>
        <time>2016-04-24T08:36:16Z</time>
      </trkpt>
      <trkpt lat="43.98548" lon="7.16023">
        <ele>987.080566</ele>
        <time>2016-04-24T08:36:20Z</time>
      </trkpt>
      <trkpt lat="43.98545" lon="7.16024">
        <ele>986.466248</ele>
        <time>2016-04-24T08:36:24Z</time>
      </trkpt>
      <trkpt lat="43.98543" lon="7.16026">
        <ele>986.251953</ele>
        <time>2016-04-24T08:36:28Z</time>
      </trkpt>
      <trkpt lat="43.98541" lon="7.16029">
        <ele>986.385254</ele>
        <time>2016-04-24T08:36:32Z</time>
      </trkpt>
      <trkpt lat="43.98538" lon="7.16034">
        <ele>986.282776</ele>
        <time>2016-04-24T08:36:37Z</time>
      </trkpt>
      <trkpt lat="43.98538" lon="7.16036">
        <ele>986.549622</ele>
        <time>2016-04-24T08:36:39Z</time>
      </trkpt>
      <trkpt lat="43.98539" lon="7.16039">
        <ele>987.428894</ele>
        <time>2016-04-24T08:36:43Z</time>
      </trkpt>
      <trkpt lat="43.98541" lon="7.16043">
        <ele>989.120422</ele>
        <time>2016-04-24T08:36:49Z</time>
      </trkpt>
      <trkpt lat="43.98543" lon="7.16046">
        <ele>990.305725</ele>
        <time>2016-04-24T08:36:52Z</time>
      </trkpt>
      <trkpt lat="43.98545" lon="7.1605">
        <ele>992.130127</ele>
        <time>2016-04-24T08:36:57Z</time>
      </trkpt>
      <trkpt lat="43.98546" lon="7.16052">
        <ele>993.356262</ele>
        <time>2016-04-24T08:37:00Z</time>
      </trkpt>
      <trkpt lat="43.98549" lon="7.16054">
        <ele>995.184326</ele>
        <time>2016-04-24T08:37:04Z</time>
      </trkpt>
      <trkpt lat="43.9855" lon="7.16058">
        <ele>996.723938</ele>
        <time>2016-04-24T08:37:08Z</time>
      </trkpt>
      <trkpt lat="43.98552" lon="7.16061">
        <ele>998.160522</ele>
        <time>2016-04-24T08:37:12Z</time>
      </trkpt>
      <trkpt lat="43.98553" lon="7.16064">
        <ele>998.766602</ele>
        <time>2016-04-24T08:37:16Z</time>
      </trkpt>
      <trkpt lat="43.98554" lon="7.16067">
        <ele>999.326904</ele>
        <time>2016-04-24T08:37:21Z</time>
      </trkpt>
      <trkpt lat="43.98555" lon="7.16067">
        <ele>999.408264</ele>
        <time>2016-04-24T08:37:22Z</time>
      </trkpt>
      <trkpt lat="43.98555" lon="7.16068">
        <ele>999.490906</ele>
        <time>2016-04-24T08:37:23Z</time>
      </trkpt>
      <trkpt lat="43.98556" lon="7.16068">
        <ele>999.61731</ele>
        <time>2016-04-24T08:37:24Z</time>
      </trkpt>
      <trkpt lat="43.98556" lon="7.16069">
        <ele>999.829834</ele>
        <time>2016-04-24T08:37:25Z</time>
      </trkpt>
      <trkpt lat="43.98556" lon="7.1607">
        <ele>1000.053528</ele>
        <time>2016-04-24T08:37:26Z</time>
      </trkpt>
      <trkpt lat="43.98556" lon="7.16071">
        <ele>1000.215881</ele>
        <time>2016-04-24T08:37:27Z</time>
      </trkpt>
      <trkpt lat="43.98557" lon="7.16071">
        <ele>1000.348938</ele>
        <time>2016-04-24T08:37:28Z</time>
      </trkpt>
      <trkpt lat="43.98558" lon="7.16073">
        <ele>1000.72821</ele>
        <time>2016-04-24T08:37:31Z</time>
      </trkpt>
      <trkpt lat="43.98559" lon="7.16074">
        <ele>1000.949768</ele>
        <time>2016-04-24T08:37:33Z</time>
      </trkpt>
      <trkpt lat="43.9856" lon="7.16076">
        <ele>1001.373901</ele>
        <time>2016-04-24T08:37:35Z</time>
      </trkpt>
      <trkpt lat="43.98562" lon="7.1608">
        <ele>1002.242065</ele>
        <time>2016-04-24T08:37:40Z</time>
      </trkpt>
      <trkpt lat="43.98564" lon="7.16081">
        <ele>1002.447754</ele>
        <time>2016-04-24T08:37:42Z</time>
      </trkpt>
      <trkpt lat="43.98565" lon="7.16083">
        <ele>1003.063904</ele>
        <time>2016-04-24T08:37:44Z</time>
      </trkpt>
      <trkpt lat="43.98566" lon="7.16088">
        <ele>1004.014648</ele>
        <time>2016-04-24T08:37:49Z</time>
      </trkpt>
      <trkpt lat="43.98567" lon="7.1609">
        <ele>1004.427124</ele>
        <time>2016-04-24T08:37:52Z</time>
      </trkpt>
      <trkpt lat="43.98569" lon="7.16092">
        <ele>1004.836121</ele>
        <time>2016-04-24T08:37:57Z</time>
      </trkpt>
      <trkpt lat="43.98571" lon="7.16096">
        <ele>1005.702881</ele>
        <time>2016-04-24T08:38:02Z</time>
      </trkpt>
      <trkpt lat="43.98573" lon="7.16098">
        <ele>1006.287415</ele>
        <time>2016-04-24T08:38:06Z</time>
      </trkpt>
      <trkpt lat="43.98573" lon="7.16102">
        <ele>1007.286011</ele>
        <time>2016-04-24T08:38:10Z</time>
      </trkpt>
      <trkpt lat="43.98574" lon="7.16105">
        <ele>1008.134094</ele>
        <time>2016-04-24T08:38:14Z</time>
      </trkpt>
      <trkpt lat="43.98575" lon="7.16106">
        <ele>1008.44165</ele>
        <time>2016-04-24T08:38:15Z</time>
      </trkpt>
      <trkpt lat="43.98575" lon="7.1611">
        <ele>1009.514221</ele>
        <time>2016-04-24T08:38:20Z</time>
      </trkpt>
      <trkpt lat="43.98576" lon="7.16115">
        <ele>1010.88501</ele>
        <time>2016-04-24T08:38:25Z</time>
      </trkpt>
      <trkpt lat="43.98577" lon="7.16118">
        <ele>1011.692383</ele>
        <time>2016-04-24T08:38:28Z</time>
      </trkpt>
      <trkpt lat="43.98578" lon="7.16122">
        <ele>1012.872437</ele>
        <time>2016-04-24T08:38:32Z</time>
      </trkpt>
      <trkpt lat="43.98579" lon="7.16127">
        <ele>1014.492065</ele>
        <time>2016-04-24T08:38:37Z</time>
      </trkpt>
      <trkpt lat="43.98581" lon="7.16132">
        <ele>1016.234436</ele>
        <time>2016-04-24T08:38:42Z</time>
      </trkpt>
      <trkpt lat="43.98582" lon="7.16136">
        <ele>1017.598145</ele>
        <time>2016-04-24T08:38:46Z</time>
      </trkpt>
      <trkpt lat="43.98582" lon="7.1614">
        <ele>1018.999146</ele>
        <time>2016-04-24T08:38:50Z</time>
      </trkpt>
      <trkpt lat="43.98583" lon="7.16144">
        <ele>1020.218628</ele>
        <time>2016-04-24T08:38:54Z</time>
      </trkpt>
      <trkpt lat="43.98583" lon="7.16145">
        <ele>1020.63324</ele>
        <time>2016-04-24T08:38:55Z</time>
      </trkpt>
      <trkpt lat="43.98584" lon="7.16147">
        <ele>1021.514343</ele>
        <time>2016-04-24T08:38:58Z</time>
      </trkpt>
      <trkpt lat="43.98585" lon="7.1615">
        <ele>1022.450378</ele>
        <time>2016-04-24T08:39:01Z</time>
      </trkpt>
      <trkpt lat="43.98586" lon="7.16154">
        <ele>1023.648743</ele>
        <time>2016-04-24T08:39:05Z</time>
      </trkpt>
      <trkpt lat="43.98586" lon="7.16158">
        <ele>1024.68042</ele>
        <time>2016-04-24T08:39:09Z</time>
      </trkpt>
      <trkpt lat="43.98587" lon="7.16159">
        <ele>1025.01416</ele>
        <time>2016-04-24T08:39:10Z</time>
      </trkpt>
      <trkpt lat="43.98587" lon="7.16163">
        <ele>1026.145386</ele>
        <time>2016-04-24T08:39:14Z</time>
      </trkpt>
      <trkpt lat="43.98587" lon="7.16165">
        <ele>1026.726929</ele>
        <time>2016-04-24T08:39:16Z</time>
      </trkpt>
      <trkpt lat="43.98588" lon="7.16168">
        <ele>1027.469116</ele>
        <time>2016-04-24T08:39:18Z</time>
      </trkpt>
      <trkpt lat="43.98588" lon="7.1617">
        <ele>1028.326782</ele>
        <time>2016-04-24T08:39:21Z</time>
      </trkpt>
      <trkpt lat="43.9859" lon="7.16174">
        <ele>1029.677856</ele>
        <time>2016-04-24T08:39:25Z</time>
      </trkpt>
      <trkpt lat="43.98592" lon="7.16178">
        <ele>1030.973145</ele>
        <time>2016-04-24T08:39:29Z</time>
      </trkpt>
      <trkpt lat="43.98594" lon="7.16184">
        <ele>1031.915161</ele>
        <time>2016-04-24T08:39:34Z</time>
      </trkpt>
      <trkpt lat="43.98595" lon="7.1619">
        <ele>1033.099487</ele>
        <time>2016-04-24T08:39:39Z</time>
      </trkpt>
      <trkpt lat="43.98597" lon="7.16195">
        <ele>1034.025513</ele>
        <time>2016-04-24T08:39:43Z</time>
      </trkpt>
      <trkpt lat="43.98598" lon="7.16199">
        <ele>1034.821533</ele>
        <time>2016-04-24T08:39:46Z</time>
      </trkpt>
      <trkpt lat="43.98599" lon="7.16204">
        <ele>1035.874146</ele>
        <time>2016-04-24T08:39:50Z</time>
      </trkpt>
      <trkpt lat="43.98604" lon="7.16217">
        <ele>1037.336792</ele>
        <time>2016-04-24T08:39:57Z</time>
      </trkpt>
      <trkpt lat="43.98609" lon="7.16227">
        <ele>1037.090576</ele>
        <time>2016-04-24T08:40:02Z</time>
      </trkpt>
      <trkpt lat="43.98617" lon="7.16241">
        <ele>1037.411987</ele>
        <time>2016-04-24T08:40:09Z</time>
      </trkpt>
      <trkpt lat="43.98634" lon="7.16267">
        <ele>1040.554077</ele>
        <time>2016-04-24T08:40:19Z</time>
      </trkpt>
      <trkpt lat="43.98639" lon="7.16273">
        <ele>1041.30542</ele>
        <time>2016-04-24T08:40:22Z</time>
      </trkpt>
      <trkpt lat="43.98641" lon="7.16275">
        <ele>1041.536621</ele>
        <time>2016-04-24T08:40:23Z</time>
      </trkpt>
      <trkpt lat="43.98649" lon="7.16281">
        <ele>1041.950073</ele>
        <time>2016-04-24T08:40:27Z</time>
      </trkpt>
      <trkpt lat="43.98658" lon="7.16294">
        <ele>1042.234009</ele>
        <time>2016-04-24T08:40:34Z</time>
      </trkpt>
      <trkpt lat="43.98663" lon="7.16303">
        <ele>1042.795532</ele>
        <time>2016-04-24T08:40:39Z</time>
      </trkpt>
      <trkpt lat="43.98668" lon="7.1631">
        <ele>1043.563843</ele>
        <time>2016-04-24T08:40:43Z</time>
      </trkpt>
      <trkpt lat="43.98675" lon="7.16319">
        <ele>1044.964478</ele>
        <time>2016-04-24T08:40:48Z</time>
      </trkpt>
      <trkpt lat="43.98681" lon="7.16327">
        <ele>1045.557495</ele>
        <time>2016-04-24T08:40:54Z</time>
      </trkpt>
      <trkpt lat="43.98682" lon="7.16328">
        <ele>1045.694702</ele>
        <time>2016-04-24T08:40:55Z</time>
      </trkpt>
      <trkpt lat="43.98687" lon="7.16338">
        <ele>1046.637085</ele>
        <time>2016-04-24T08:41:00Z</time>
      </trkpt>
      <trkpt lat="43.9869" lon="7.16345">
        <ele>1047.371948</ele>
        <time>2016-04-24T08:41:04Z</time>
      </trkpt>
      <trkpt lat="43.98691" lon="7.16347">
        <ele>1047.428101</ele>
        <time>2016-04-24T08:41:05Z</time>
      </trkpt>
      <trkpt lat="43.98693" lon="7.16352">
        <ele>1047.625854</ele>
        <time>2016-04-24T08:41:08Z</time>
      </trkpt>
      <trkpt lat="43.98698" lon="7.16362">
        <ele>1048.170166</ele>
        <time>2016-04-24T08:41:13Z</time>
      </trkpt>
      <trkpt lat="43.98702" lon="7.16366">
        <ele>1048.606812</ele>
        <time>2016-04-24T08:41:16Z</time>
      </trkpt>
      <trkpt lat="43.98707" lon="7.16372">
        <ele>1049.290771</ele>
        <time>2016-04-24T08:41:20Z</time>
      </trkpt>
      <trkpt lat="43.98711" lon="7.16379">
        <ele>1050.017822</ele>
        <time>2016-04-24T08:41:24Z</time>
      </trkpt>
      <trkpt lat="43.98714" lon="7.16383">
        <ele>1050.631592</ele>
        <time>2016-04-24T08:41:27Z</time>
      </trkpt>
      <trkpt lat="43.98722" lon="7.16389">
        <ele>1050.724365</ele>
        <time>2016-04-24T08:41:32Z</time>
      </trkpt>
      <trkpt lat="43.98723" lon="7.16392">
        <ele>1050.677368</ele>
        <time>2016-04-24T08:41:34Z</time>
      </trkpt>
      <trkpt lat="43.98725" lon="7.16394">
        <ele>1050.664429</ele>
        <time>2016-04-24T08:41:36Z</time>
      </trkpt>
      <trkpt lat="43.9873" lon="7.16402">
        <ele>1050.714722</ele>
        <time>2016-04-24T08:41:40Z</time>
      </trkpt>
      <trkpt lat="43.98732" lon="7.16409">
        <ele>1051.08606</ele>
        <time>2016-04-24T08:41:44Z</time>
      </trkpt>
      <trkpt lat="43.98734" lon="7.16426">
        <ele>1051.989746</ele>
        <time>2016-04-24T08:41:50Z</time>
      </trkpt>
      <trkpt lat="43.98735" lon="7.16446">
        <ele>1053.397339</ele>
        <time>2016-04-24T08:41:57Z</time>
      </trkpt>
      <trkpt lat="43.98736" lon="7.16466">
        <ele>1054.885498</ele>
        <time>2016-04-24T08:42:03Z</time>
      </trkpt>
      <trkpt lat="43.9874" lon="7.16492">
        <ele>1058.453125</ele>
        <time>2016-04-24T08:42:10Z</time>
      </trkpt>
      <trkpt lat="43.98742" lon="7.16511">
        <ele>1061.697021</ele>
        <time>2016-04-24T08:42:16Z</time>
      </trkpt>
      <trkpt lat="43.98743" lon="7.16523">
        <ele>1063.628418</ele>
        <time>2016-04-24T08:42:20Z</time>
      </trkpt>
      <trkpt lat="43.98744" lon="7.16532">
        <ele>1065.327515</ele>
        <time>2016-04-24T08:42:24Z</time>
      </trkpt>
      <trkpt lat="43.98743" lon="7.16543">
        <ele>1066.639893</ele>
        <time>2016-04-24T08:42:29Z</time>
      </trkpt>
      <trkpt lat="43.98741" lon="7.16552">
        <ele>1067.506958</ele>
        <time>2016-04-24T08:42:33Z</time>
      </trkpt>
      <trkpt lat="43.9874" lon="7.16561">
        <ele>1068.47876</ele>
        <time>2016-04-24T08:42:38Z</time>
      </trkpt>
      <trkpt lat="43.9874" lon="7.16568">
        <ele>1069.235229</ele>
        <time>2016-04-24T08:42:42Z</time>
      </trkpt>
      <trkpt lat="43.98739" lon="7.16575">
        <ele>1070.104004</ele>
        <time>2016-04-24T08:42:46Z</time>
      </trkpt>
      <trkpt lat="43.98739" lon="7.16581">
        <ele>1070.74292</ele>
        <time>2016-04-24T08:42:49Z</time>
      </trkpt>
      <trkpt lat="43.9874" lon="7.16587">
        <ele>1071.320679</ele>
        <time>2016-04-24T08:42:52Z</time>
      </trkpt>
      <trkpt lat="43.9874" lon="7.16593">
        <ele>1072.041626</ele>
        <time>2016-04-24T08:42:56Z</time>
      </trkpt>
      <trkpt lat="43.98741" lon="7.166">
        <ele>1072.620361</ele>
        <time>2016-04-24T08:43:04Z</time>
      </trkpt>
      <trkpt lat="43.98742" lon="7.16609">
        <ele>1072.983887</ele>
        <time>2016-04-24T08:43:08Z</time>
      </trkpt>
      <trkpt lat="43.98741" lon="7.16616">
        <ele>1073.338867</ele>
        <time>2016-04-24T08:43:12Z</time>
      </trkpt>
      <trkpt lat="43.98739" lon="7.16623">
        <ele>1073.786133</ele>
        <time>2016-04-24T08:43:16Z</time>
      </trkpt>
      <trkpt lat="43.98737" lon="7.16629">
        <ele>1074.264038</ele>
        <time>2016-04-24T08:43:20Z</time>
      </trkpt>
      <trkpt lat="43.98736" lon="7.16633">
        <ele>1074.590942</ele>
        <time>2016-04-24T08:43:22Z</time>
      </trkpt>
      <trkpt lat="43.98728" lon="7.16651">
        <ele>1076.381836</ele>
        <time>2016-04-24T08:43:31Z</time>
      </trkpt>
      <trkpt lat="43.98726" lon="7.16663">
        <ele>1077.052612</ele>
        <time>2016-04-24T08:43:36Z</time>
      </trkpt>
      <trkpt lat="43.98723" lon="7.16677">
        <ele>1077.087158</ele>
        <time>2016-04-24T08:43:42Z</time>
      </trkpt>
      <trkpt lat="43.9872" lon="7.16691">
        <ele>1077.20459</ele>
        <time>2016-04-24T08:43:48Z</time>
      </trkpt>
      <trkpt lat="43.98715" lon="7.16706">
        <ele>1078.016479</ele>
        <time>2016-04-24T08:43:55Z</time>
      </trkpt>
      <trkpt lat="43.9871" lon="7.16717">
        <ele>1079.019409</ele>
        <time>2016-04-24T08:44:00Z</time>
      </trkpt>
      <trkpt lat="43.98706" lon="7.16731">
        <ele>1079.853638</ele>
        <time>2016-04-24T08:44:06Z</time>
      </trkpt>
      <trkpt lat="43.98704" lon="7.16741">
        <ele>1080.617676</ele>
        <time>2016-04-24T08:44:10Z</time>
      </trkpt>
      <trkpt lat="43.98702" lon="7.16746">
        <ele>1081.009155</ele>
        <time>2016-04-24T08:44:12Z</time>
      </trkpt>
      <trkpt lat="43.98702" lon="7.16748">
        <ele>1081.191406</ele>
        <time>2016-04-24T08:44:13Z</time>
      </trkpt>
      <trkpt lat="43.987" lon="7.16755">
        <ele>1081.56189</ele>
        <time>2016-04-24T08:44:16Z</time>
      </trkpt>
      <trkpt lat="43.98694" lon="7.16768">
        <ele>1082.037598</ele>
        <time>2016-04-24T08:44:22Z</time>
      </trkpt>
      <trkpt lat="43.98688" lon="7.16783">
        <ele>1083.087158</ele>
        <time>2016-04-24T08:44:28Z</time>
      </trkpt>
      <trkpt lat="43.98681" lon="7.16792">
        <ele>1084.369995</ele>
        <time>2016-04-24T08:44:32Z</time>
      </trkpt>
      <trkpt lat="43.98672" lon="7.168">
        <ele>1085.94397</ele>
        <time>2016-04-24T08:44:36Z</time>
      </trkpt>
      <trkpt lat="43.98665" lon="7.16804">
        <ele>1087.34375</ele>
        <time>2016-04-24T08:44:39Z</time>
      </trkpt>
      <trkpt lat="43.98654" lon="7.1681">
        <ele>1089.453491</ele>
        <time>2016-04-24T08:44:43Z</time>
      </trkpt>
      <trkpt lat="43.98637" lon="7.16816">
        <ele>1090.129883</ele>
        <time>2016-04-24T08:44:49Z</time>
      </trkpt>
      <trkpt lat="43.98622" lon="7.1682">
        <ele>1090.627808</ele>
        <time>2016-04-24T08:44:55Z</time>
      </trkpt>
      <trkpt lat="43.9861" lon="7.16821">
        <ele>1090.768921</ele>
        <time>2016-04-24T08:44:59Z</time>
      </trkpt>
      <trkpt lat="43.98597" lon="7.16827">
        <ele>1090.317261</ele>
        <time>2016-04-24T08:45:04Z</time>
      </trkpt>
      <trkpt lat="43.98594" lon="7.16832">
        <ele>1090.591553</ele>
        <time>2016-04-24T08:45:06Z</time>
      </trkpt>
      <trkpt lat="43.986" lon="7.16904">
        <ele>1091.665283</ele>
        <time>2016-04-24T08:45:19Z</time>
      </trkpt>
      <trkpt lat="43.98597" lon="7.16933">
        <ele>1089.643555</ele>
        <time>2016-04-24T08:45:23Z</time>
      </trkpt>
      <trkpt lat="43.98593" lon="7.16948">
        <ele>1088.580078</ele>
        <time>2016-04-24T08:45:25Z</time>
      </trkpt>
      <trkpt lat="43.9858" lon="7.16979">
        <ele>1085.455322</ele>
        <time>2016-04-24T08:45:30Z</time>
      </trkpt>
      <trkpt lat="43.98567" lon="7.17002">
        <ele>1086.652222</ele>
        <time>2016-04-24T08:45:35Z</time>
      </trkpt>
      <trkpt lat="43.98564" lon="7.17007">
        <ele>1087.598999</ele>
        <time>2016-04-24T08:45:36Z</time>
      </trkpt>
      <trkpt lat="43.98558" lon="7.17016">
        <ele>1089.743652</ele>
        <time>2016-04-24T08:45:38Z</time>
      </trkpt>
      <trkpt lat="43.98554" lon="7.17023">
        <ele>1092.405029</ele>
        <time>2016-04-24T08:45:40Z</time>
      </trkpt>
      <trkpt lat="43.98545" lon="7.17033">
        <ele>1093.979126</ele>
        <time>2016-04-24T08:45:43Z</time>
      </trkpt>
      <trkpt lat="43.98538" lon="7.1704">
        <ele>1096.346802</ele>
        <time>2016-04-24T08:45:46Z</time>
      </trkpt>
      <trkpt lat="43.98535" lon="7.17041">
        <ele>1097.150391</ele>
        <time>2016-04-24T08:45:47Z</time>
      </trkpt>
      <trkpt lat="43.98532" lon="7.17043">
        <ele>1097.965454</ele>
        <time>2016-04-24T08:45:48Z</time>
      </trkpt>
      <trkpt lat="43.98526" lon="7.17046">
        <ele>1100.318359</ele>
        <time>2016-04-24T08:45:51Z</time>
      </trkpt>
      <trkpt lat="43.98521" lon="7.17048">
        <ele>1102.310791</ele>
        <time>2016-04-24T08:45:54Z</time>
      </trkpt>
      <trkpt lat="43.98517" lon="7.17053">
        <ele>1105.147095</ele>
        <time>2016-04-24T08:45:57Z</time>
      </trkpt>
      <trkpt lat="43.9851" lon="7.17062">
        <ele>1111.300049</ele>
        <time>2016-04-24T08:46:01Z</time>
      </trkpt>
      <trkpt lat="43.9849" lon="7.1709">
        <ele>1120.254883</ele>
        <time>2016-04-24T08:46:11Z</time>
      </trkpt>
      <trkpt lat="43.98487" lon="7.17093">
        <ele>1121.128906</ele>
        <time>2016-04-24T08:46:12Z</time>
      </trkpt>
      <trkpt lat="43.9848" lon="7.17101">
        <ele>1123.866211</ele>
        <time>2016-04-24T08:46:15Z</time>
      </trkpt>
      <trkpt lat="43.98468" lon="7.17107">
        <ele>1125.474365</ele>
        <time>2016-04-24T08:46:20Z</time>
      </trkpt>
      <trkpt lat="43.98455" lon="7.17112">
        <ele>1125.22522</ele>
        <time>2016-04-24T08:46:26Z</time>
      </trkpt>
      <trkpt lat="43.98448" lon="7.17116">
        <ele>1124.184937</ele>
        <time>2016-04-24T08:46:30Z</time>
      </trkpt>
      <trkpt lat="43.98443" lon="7.17122">
        <ele>1124.453857</ele>
        <time>2016-04-24T08:46:34Z</time>
      </trkpt>
      <trkpt lat="43.9844" lon="7.17127">
        <ele>1125.69165</ele>
        <time>2016-04-24T08:46:37Z</time>
      </trkpt>
      <trkpt lat="43.98439" lon="7.17138">
        <ele>1127.912476</ele>
        <time>2016-04-24T08:46:41Z</time>
      </trkpt>
      <trkpt lat="43.98441" lon="7.1715">
        <ele>1127.162231</ele>
        <time>2016-04-24T08:46:46Z</time>
      </trkpt>
      <trkpt lat="43.98451" lon="7.17166">
        <ele>1132.731079</ele>
        <time>2016-04-24T08:46:53Z</time>
      </trkpt>
      <trkpt lat="43.98455" lon="7.17172">
        <ele>1135.36084</ele>
        <time>2016-04-24T08:46:56Z</time>
      </trkpt>
      <trkpt lat="43.98457" lon="7.17174">
        <ele>1136.508301</ele>
        <time>2016-04-24T08:46:57Z</time>
      </trkpt>
      <trkpt lat="43.98459" lon="7.17178">
        <ele>1136.375</ele>
        <time>2016-04-24T08:46:59Z</time>
      </trkpt>
      <trkpt lat="43.98461" lon="7.17186">
        <ele>1135.969971</ele>
        <time>2016-04-24T08:47:02Z</time>
      </trkpt>
      <trkpt lat="43.98462" lon="7.17188">
        <ele>1136.144043</ele>
        <time>2016-04-24T08:47:03Z</time>
      </trkpt>
      <trkpt lat="43.98463" lon="7.1719">
        <ele>1136.36438</ele>
        <time>2016-04-24T08:47:04Z</time>
      </trkpt>
      <trkpt lat="43.98464" lon="7.17191">
        <ele>1136.928467</ele>
        <time>2016-04-24T08:47:05Z</time>
      </trkpt>
      <trkpt lat="43.98472" lon="7.17199">
        <ele>1141.068481</ele>
        <time>2016-04-24T08:47:10Z</time>
      </trkpt>
      <trkpt lat="43.98478" lon="7.17207">
        <ele>1143.75415</ele>
        <time>2016-04-24T08:47:15Z</time>
      </trkpt>
      <trkpt lat="43.9848" lon="7.1721">
        <ele>1144.253174</ele>
        <time>2016-04-24T08:47:17Z</time>
      </trkpt>
      <trkpt lat="43.98482" lon="7.17214">
        <ele>1144.425903</ele>
        <time>2016-04-24T08:47:19Z</time>
      </trkpt>
      <trkpt lat="43.98486" lon="7.1722">
        <ele>1145.940796</ele>
        <time>2016-04-24T08:47:24Z</time>
      </trkpt>
      <trkpt lat="43.98489" lon="7.17225">
        <ele>1146.677246</ele>
        <time>2016-04-24T08:47:27Z</time>
      </trkpt>
      <trkpt lat="43.98489" lon="7.17236">
        <ele>1144.304565</ele>
        <time>2016-04-24T08:47:32Z</time>
      </trkpt>
      <trkpt lat="43.9849" lon="7.17238">
        <ele>1144.205566</ele>
        <time>2016-04-24T08:47:33Z</time>
      </trkpt>
      <trkpt lat="43.98494" lon="7.17245">
        <ele>1145.579102</ele>
        <time>2016-04-24T08:47:37Z</time>
      </trkpt>
      <trkpt lat="43.98497" lon="7.17247">
        <ele>1147.043823</ele>
        <time>2016-04-24T08:47:40Z</time>
      </trkpt>
      <trkpt lat="43.985" lon="7.17253">
        <ele>1146.645142</ele>
        <time>2016-04-24T08:47:47Z</time>
      </trkpt>
      <trkpt lat="43.98501" lon="7.17257">
        <ele>1145.362427</ele>
        <time>2016-04-24T08:47:54Z</time>
      </trkpt>
      <trkpt lat="43.98501" lon="7.17258">
        <ele>1144.882813</ele>
        <time>2016-04-24T08:47:55Z</time>
      </trkpt>
      <trkpt lat="43.98502" lon="7.17261">
        <ele>1144.095093</ele>
        <time>2016-04-24T08:47:57Z</time>
      </trkpt>
      <trkpt lat="43.98503" lon="7.17264">
        <ele>1143.251099</ele>
        <time>2016-04-24T08:47:59Z</time>
      </trkpt>
      <trkpt lat="43.98505" lon="7.17267">
        <ele>1143.160889</ele>
        <time>2016-04-24T08:48:04Z</time>
      </trkpt>
      <trkpt lat="43.98506" lon="7.17263">
        <ele>1142.828003</ele>
        <time>2016-04-24T08:48:08Z</time>
      </trkpt>
      <trkpt lat="43.98507" lon="7.17259">
        <ele>1143.438477</ele>
        <time>2016-04-24T08:48:12Z</time>
      </trkpt>
      <trkpt lat="43.98509" lon="7.17257">
        <ele>1143.471924</ele>
        <time>2016-04-24T08:48:16Z</time>
      </trkpt>
      <trkpt lat="43.9851" lon="7.17254">
        <ele>1143.731201</ele>
        <time>2016-04-24T08:48:20Z</time>
      </trkpt>
      <trkpt lat="43.98512" lon="7.17255">
        <ele>1143.160889</ele>
        <time>2016-04-24T08:48:23Z</time>
      </trkpt>
      <trkpt lat="43.98516" lon="7.17256">
        <ele>1142.113159</ele>
        <time>2016-04-24T08:48:28Z</time>
      </trkpt>
      <trkpt lat="43.98516" lon="7.17262">
        <ele>1141.221069</ele>
        <time>2016-04-24T08:48:33Z</time>
      </trkpt>
      <trkpt lat="43.98518" lon="7.17261">
        <ele>1141.00293</ele>
        <time>2016-04-24T08:48:36Z</time>
      </trkpt>
      <trkpt lat="43.9852" lon="7.1726">
        <ele>1140.587402</ele>
        <time>2016-04-24T08:48:40Z</time>
      </trkpt>
      <trkpt lat="43.98522" lon="7.17259">
        <ele>1140.206665</ele>
        <time>2016-04-24T08:48:44Z</time>
      </trkpt>
      <trkpt lat="43.98525" lon="7.17262">
        <ele>1139.520142</ele>
        <time>2016-04-24T08:48:49Z</time>
      </trkpt>
      <trkpt lat="43.98525" lon="7.17266">
        <ele>1139.160034</ele>
        <time>2016-04-24T08:48:54Z</time>
      </trkpt>
      <trkpt lat="43.98524" lon="7.17268">
        <ele>1139.602661</ele>
        <time>2016-04-24T08:48:56Z</time>
      </trkpt>
      <trkpt lat="43.98522" lon="7.1727">
        <ele>1140.358521</ele>
        <time>2016-04-24T08:49:00Z</time>
      </trkpt>
      <trkpt lat="43.98523" lon="7.17274">
        <ele>1140.841431</ele>
        <time>2016-04-24T08:49:05Z</time>
      </trkpt>
      <trkpt lat="43.98522" lon="7.17278">
        <ele>1141.381104</ele>
        <time>2016-04-24T08:49:10Z</time>
      </trkpt>
      <trkpt lat="43.98525" lon="7.17278">
        <ele>1140.958862</ele>
        <time>2016-04-24T08:49:12Z</time>
      </trkpt>
      <trkpt lat="43.98526" lon="7.17278">
        <ele>1140.766602</ele>
        <time>2016-04-24T08:49:14Z</time>
      </trkpt>
      <trkpt lat="43.98527" lon="7.1728">
        <ele>1140.90979</ele>
        <time>2016-04-24T08:49:15Z</time>
      </trkpt>
      <trkpt lat="43.98527" lon="7.17281">
        <ele>1141.094727</ele>
        <time>2016-04-24T08:49:16Z</time>
      </trkpt>
      <trkpt lat="43.98525" lon="7.17283">
        <ele>1141.727051</ele>
        <time>2016-04-24T08:49:19Z</time>
      </trkpt>
      <trkpt lat="43.98524" lon="7.17288">
        <ele>1142.725342</ele>
        <time>2016-04-24T08:49:24Z</time>
      </trkpt>
      <trkpt lat="43.98524" lon="7.1729">
        <ele>1142.93103</ele>
        <time>2016-04-24T08:49:25Z</time>
      </trkpt>
      <trkpt lat="43.98523" lon="7.17297">
        <ele>1144.294434</ele>
        <time>2016-04-24T08:49:31Z</time>
      </trkpt>
      <trkpt lat="43.98519" lon="7.17317">
        <ele>1148.008789</ele>
        <time>2016-04-24T08:49:43Z</time>
      </trkpt>
      <trkpt lat="43.98512" lon="7.17327">
        <ele>1151.199951</ele>
        <time>2016-04-24T08:49:48Z</time>
      </trkpt>
      <trkpt lat="43.98511" lon="7.1733">
        <ele>1151.844971</ele>
        <time>2016-04-24T08:49:49Z</time>
      </trkpt>
      <trkpt lat="43.9851" lon="7.17331">
        <ele>1152.36499</ele>
        <time>2016-04-24T08:49:50Z</time>
      </trkpt>
      <trkpt lat="43.9851" lon="7.17333">
        <ele>1152.790039</ele>
        <time>2016-04-24T08:49:51Z</time>
      </trkpt>
      <trkpt lat="43.98506" lon="7.17343">
        <ele>1155.530029</ele>
        <time>2016-04-24T08:49:58Z</time>
      </trkpt>
      <trkpt lat="43.98505" lon="7.17352">
        <ele>1157.290039</ele>
        <time>2016-04-24T08:50:04Z</time>
      </trkpt>
      <trkpt lat="43.98504" lon="7.17363">
        <ele>1159.48999</ele>
        <time>2016-04-24T08:50:12Z</time>
      </trkpt>
      <trkpt lat="43.98504" lon="7.17367">
        <ele>1160.51001</ele>
        <time>2016-04-24T08:50:16Z</time>
      </trkpt>
      <trkpt lat="43.98503" lon="7.17372">
        <ele>1161.449951</ele>
        <time>2016-04-24T08:50:20Z</time>
      </trkpt>
      <trkpt lat="43.98502" lon="7.17376">
        <ele>1162.47998</ele>
        <time>2016-04-24T08:50:24Z</time>
      </trkpt>
      <trkpt lat="43.98501" lon="7.17382">
        <ele>1163.72998</ele>
        <time>2016-04-24T08:50:29Z</time>
      </trkpt>
      <trkpt lat="43.98501" lon="7.17382">
        <ele>1163.935059</ele>
        <time>2016-04-24T08:50:30Z</time>
      </trkpt>
      <trkpt lat="43.985" lon="7.17386">
        <ele>1164.839966</ele>
        <time>2016-04-24T08:50:34Z</time>
      </trkpt>
      <trkpt lat="43.98498" lon="7.17389">
        <ele>1165.794922</ele>
        <time>2016-04-24T08:50:39Z</time>
      </trkpt>
      <trkpt lat="43.98498" lon="7.17393">
        <ele>1166.280029</ele>
        <time>2016-04-24T08:50:43Z</time>
      </trkpt>
      <trkpt lat="43.98498" lon="7.17399">
        <ele>1166.950073</ele>
        <time>2016-04-24T08:50:48Z</time>
      </trkpt>
      <trkpt lat="43.98498" lon="7.17403">
        <ele>1167.544922</ele>
        <time>2016-04-24T08:50:52Z</time>
      </trkpt>
      <trkpt lat="43.98498" lon="7.17404">
        <ele>1167.679932</ele>
        <time>2016-04-24T08:50:53Z</time>
      </trkpt>
      <trkpt lat="43.98498" lon="7.17407">
        <ele>1167.905029</ele>
        <time>2016-04-24T08:50:56Z</time>
      </trkpt>
      <trkpt lat="43.98498" lon="7.17413">
        <ele>1168.545044</ele>
        <time>2016-04-24T08:51:01Z</time>
      </trkpt>
      <trkpt lat="43.98499" lon="7.17418">
        <ele>1169.035034</ele>
        <time>2016-04-24T08:51:05Z</time>
      </trkpt>
      <trkpt lat="43.98499" lon="7.17421">
        <ele>1169.280029</ele>
        <time>2016-04-24T08:51:08Z</time>
      </trkpt>
      <trkpt lat="43.98499" lon="7.17422">
        <ele>1169.48999</ele>
        <time>2016-04-24T08:51:09Z</time>
      </trkpt>
      <trkpt lat="43.98499" lon="7.17428">
        <ele>1170.210083</ele>
        <time>2016-04-24T08:51:14Z</time>
      </trkpt>
      <trkpt lat="43.98499" lon="7.17433">
        <ele>1170.765015</ele>
        <time>2016-04-24T08:51:18Z</time>
      </trkpt>
      <trkpt lat="43.98499" lon="7.17435">
        <ele>1170.954956</ele>
        <time>2016-04-24T08:51:20Z</time>
      </trkpt>
      <trkpt lat="43.98499" lon="7.17436">
        <ele>1171.075073</ele>
        <time>2016-04-24T08:51:21Z</time>
      </trkpt>
      <trkpt lat="43.98499" lon="7.17437">
        <ele>1171.199951</ele>
        <time>2016-04-24T08:51:22Z</time>
      </trkpt>
      <trkpt lat="43.985" lon="7.17441">
        <ele>1171.609985</ele>
        <time>2016-04-24T08:51:26Z</time>
      </trkpt>
      <trkpt lat="43.985" lon="7.17444">
        <ele>1171.819946</ele>
        <time>2016-04-24T08:51:28Z</time>
      </trkpt>
      <trkpt lat="43.98501" lon="7.17446">
        <ele>1171.949951</ele>
        <time>2016-04-24T08:51:30Z</time>
      </trkpt>
      <trkpt lat="43.98502" lon="7.1745">
        <ele>1172.224976</ele>
        <time>2016-04-24T08:51:34Z</time>
      </trkpt>
      <trkpt lat="43.98502" lon="7.17454">
        <ele>1172.766113</ele>
        <time>2016-04-24T08:51:38Z</time>
      </trkpt>
      <trkpt lat="43.98502" lon="7.17455">
        <ele>1172.947388</ele>
        <time>2016-04-24T08:51:39Z</time>
      </trkpt>
      <trkpt lat="43.98503" lon="7.17461">
        <ele>1173.838379</ele>
        <time>2016-04-24T08:51:43Z</time>
      </trkpt>
      <trkpt lat="43.98505" lon="7.17469">
        <ele>1174.856689</ele>
        <time>2016-04-24T08:51:48Z</time>
      </trkpt>
      <trkpt lat="43.98506" lon="7.17476">
        <ele>1176.113037</ele>
        <time>2016-04-24T08:51:53Z</time>
      </trkpt>
      <trkpt lat="43.98505" lon="7.17482">
        <ele>1177.41687</ele>
        <time>2016-04-24T08:51:58Z</time>
      </trkpt>
      <trkpt lat="43.98506" lon="7.17489">
        <ele>1178.630371</ele>
        <time>2016-04-24T08:52:03Z</time>
      </trkpt>
      <trkpt lat="43.98505" lon="7.17496">
        <ele>1180.243164</ele>
        <time>2016-04-24T08:52:08Z</time>
      </trkpt>
      <trkpt lat="43.98504" lon="7.17501">
        <ele>1181.375977</ele>
        <time>2016-04-24T08:52:12Z</time>
      </trkpt>
      <trkpt lat="43.98504" lon="7.1751">
        <ele>1183.085938</ele>
        <time>2016-04-24T08:52:18Z</time>
      </trkpt>
      <trkpt lat="43.98503" lon="7.17518">
        <ele>1184.811157</ele>
        <time>2016-04-24T08:52:23Z</time>
      </trkpt>
      <trkpt lat="43.985" lon="7.17524">
        <ele>1187.086182</ele>
        <time>2016-04-24T08:52:27Z</time>
      </trkpt>
      <trkpt lat="43.98495" lon="7.17539">
        <ele>1191.077393</ele>
        <time>2016-04-24T08:52:34Z</time>
      </trkpt>
      <trkpt lat="43.98498" lon="7.17575">
        <ele>1195.678955</ele>
        <time>2016-04-24T08:52:45Z</time>
      </trkpt>
      <trkpt lat="43.98499" lon="7.17583">
        <ele>1196.452759</ele>
        <time>2016-04-24T08:52:48Z</time>
      </trkpt>
      <trkpt lat="43.98498" lon="7.17593">
        <ele>1198.329346</ele>
        <time>2016-04-24T08:52:52Z</time>
      </trkpt>
      <trkpt lat="43.98497" lon="7.17602">
        <ele>1199.908203</ele>
        <time>2016-04-24T08:52:56Z</time>
      </trkpt>
      <trkpt lat="43.98497" lon="7.17609">
        <ele>1201.220581</ele>
        <time>2016-04-24T08:52:59Z</time>
      </trkpt>
      <trkpt lat="43.98496" lon="7.17617">
        <ele>1202.767334</ele>
        <time>2016-04-24T08:53:02Z</time>
      </trkpt>
      <trkpt lat="43.98496" lon="7.17621">
        <ele>1203.397095</ele>
        <time>2016-04-24T08:53:04Z</time>
      </trkpt>
      <trkpt lat="43.98496" lon="7.17627">
        <ele>1204.389038</ele>
        <time>2016-04-24T08:53:07Z</time>
      </trkpt>
      <trkpt lat="43.985" lon="7.17635">
        <ele>1204.604614</ele>
        <time>2016-04-24T08:53:11Z</time>
      </trkpt>
      <trkpt lat="43.9851" lon="7.17648">
        <ele>1206.506714</ele>
        <time>2016-04-24T08:53:17Z</time>
      </trkpt>
      <trkpt lat="43.98516" lon="7.17658">
        <ele>1209.052002</ele>
        <time>2016-04-24T08:53:21Z</time>
      </trkpt>
      <trkpt lat="43.98522" lon="7.17668">
        <ele>1212.458862</ele>
        <time>2016-04-24T08:53:25Z</time>
      </trkpt>
      <trkpt lat="43.98546" lon="7.17702">
        <ele>1217.47998</ele>
        <time>2016-04-24T08:53:34Z</time>
      </trkpt>
      <trkpt lat="43.98565" lon="7.17726">
        <ele>1222.248779</ele>
        <time>2016-04-24T08:53:41Z</time>
      </trkpt>
      <trkpt lat="43.98568" lon="7.17728">
        <ele>1222.598999</ele>
        <time>2016-04-24T08:53:42Z</time>
      </trkpt>
      <trkpt lat="43.9857" lon="7.17731">
        <ele>1222.735718</ele>
        <time>2016-04-24T08:53:43Z</time>
      </trkpt>
      <trkpt lat="43.98573" lon="7.17732">
        <ele>1222.558594</ele>
        <time>2016-04-24T08:53:44Z</time>
      </trkpt>
      <trkpt lat="43.98576" lon="7.17734">
        <ele>1222.269287</ele>
        <time>2016-04-24T08:53:45Z</time>
      </trkpt>
      <trkpt lat="43.98595" lon="7.17742">
        <ele>1219.447754</ele>
        <time>2016-04-24T08:53:51Z</time>
      </trkpt>
      <trkpt lat="43.98619" lon="7.17752">
        <ele>1216.519653</ele>
        <time>2016-04-24T08:53:56Z</time>
      </trkpt>
      <trkpt lat="43.98632" lon="7.17767">
        <ele>1220.600708</ele>
        <time>2016-04-24T08:53:59Z</time>
      </trkpt>
      <trkpt lat="43.98639" lon="7.17786">
        <ele>1227.33252</ele>
        <time>2016-04-24T08:54:02Z</time>
      </trkpt>
      <trkpt lat="43.98645" lon="7.17798">
        <ele>1230.632446</ele>
        <time>2016-04-24T08:54:04Z</time>
      </trkpt>
      <trkpt lat="43.98666" lon="7.17824">
        <ele>1235.111084</ele>
        <time>2016-04-24T08:54:12Z</time>
      </trkpt>
      <trkpt lat="43.98672" lon="7.17831">
        <ele>1236.151123</ele>
        <time>2016-04-24T08:54:16Z</time>
      </trkpt>
      <trkpt lat="43.98686" lon="7.1784">
        <ele>1235.056152</ele>
        <time>2016-04-24T08:54:21Z</time>
      </trkpt>
      <trkpt lat="43.98694" lon="7.17846">
        <ele>1234.622925</ele>
        <time>2016-04-24T08:54:25Z</time>
      </trkpt>
      <trkpt lat="43.98702" lon="7.17854">
        <ele>1234.742188</ele>
        <time>2016-04-24T08:54:29Z</time>
      </trkpt>
      <trkpt lat="43.98708" lon="7.17866">
        <ele>1237.039551</ele>
        <time>2016-04-24T08:54:33Z</time>
      </trkpt>
      <trkpt lat="43.98715" lon="7.17872">
        <ele>1236.621338</ele>
        <time>2016-04-24T08:54:36Z</time>
      </trkpt>
      <trkpt lat="43.98724" lon="7.17885">
        <ele>1237.891968</ele>
        <time>2016-04-24T08:54:41Z</time>
      </trkpt>
      <trkpt lat="43.98735" lon="7.17898">
        <ele>1238.316284</ele>
        <time>2016-04-24T08:54:46Z</time>
      </trkpt>
      <trkpt lat="43.98739" lon="7.17904">
        <ele>1238.642944</ele>
        <time>2016-04-24T08:54:48Z</time>
      </trkpt>
      <trkpt lat="43.98759" lon="7.17926">
        <ele>1238.183594</ele>
        <time>2016-04-24T08:54:54Z</time>
      </trkpt>
      <trkpt lat="43.98784" lon="7.17959">
        <ele>1238.62561</ele>
        <time>2016-04-24T08:55:02Z</time>
      </trkpt>
      <trkpt lat="43.98793" lon="7.17976">
        <ele>1242.055908</ele>
        <time>2016-04-24T08:55:07Z</time>
      </trkpt>
      <trkpt lat="43.98796" lon="7.17982">
        <ele>1243.235229</ele>
        <time>2016-04-24T08:55:12Z</time>
      </trkpt>
      <trkpt lat="43.98796" lon="7.17982">
        <ele>1243.423584</ele>
        <time>2016-04-24T08:55:13Z</time>
      </trkpt>
      <trkpt lat="43.98803" lon="7.17983">
        <ele>1242.240234</ele>
        <time>2016-04-24T08:55:16Z</time>
      </trkpt>
      <trkpt lat="43.98809" lon="7.17984">
        <ele>1240.897827</ele>
        <time>2016-04-24T08:55:18Z</time>
      </trkpt>
      <trkpt lat="43.98811" lon="7.17984">
        <ele>1240.252686</ele>
        <time>2016-04-24T08:55:19Z</time>
      </trkpt>
      <trkpt lat="43.98814" lon="7.17984">
        <ele>1239.742432</ele>
        <time>2016-04-24T08:55:20Z</time>
      </trkpt>
      <trkpt lat="43.98826" lon="7.17987">
        <ele>1237.939819</ele>
        <time>2016-04-24T08:55:24Z</time>
      </trkpt>
      <trkpt lat="43.98833" lon="7.17989">
        <ele>1238.036865</ele>
        <time>2016-04-24T08:55:27Z</time>
      </trkpt>
      <trkpt lat="43.98834" lon="7.17991">
        <ele>1238.55603</ele>
        <time>2016-04-24T08:55:28Z</time>
      </trkpt>
      <trkpt lat="43.98842" lon="7.18001">
        <ele>1240.823486</ele>
        <time>2016-04-24T08:55:32Z</time>
      </trkpt>
      <trkpt lat="43.98851" lon="7.18014">
        <ele>1243.019409</ele>
        <time>2016-04-24T08:55:37Z</time>
      </trkpt>
      <trkpt lat="43.98861" lon="7.18025">
        <ele>1244.242065</ele>
        <time>2016-04-24T08:55:41Z</time>
      </trkpt>
      <trkpt lat="43.98871" lon="7.18039">
        <ele>1245.120728</ele>
        <time>2016-04-24T08:55:45Z</time>
      </trkpt>
      <trkpt lat="43.9888" lon="7.1806">
        <ele>1246.336182</ele>
        <time>2016-04-24T08:55:50Z</time>
      </trkpt>
      <trkpt lat="43.98886" lon="7.18082">
        <ele>1248.557007</ele>
        <time>2016-04-24T08:55:56Z</time>
      </trkpt>
      <trkpt lat="43.98886" lon="7.18086">
        <ele>1249.090088</ele>
        <time>2016-04-24T08:55:57Z</time>
      </trkpt>
      <trkpt lat="43.98889" lon="7.18094">
        <ele>1249.675293</ele>
        <time>2016-04-24T08:55:59Z</time>
      </trkpt>
      <trkpt lat="43.9889" lon="7.18098">
        <ele>1249.921509</ele>
        <time>2016-04-24T08:56:00Z</time>
      </trkpt>
      <trkpt lat="43.98896" lon="7.1812">
        <ele>1252.730469</ele>
        <time>2016-04-24T08:56:06Z</time>
      </trkpt>
      <trkpt lat="43.98897" lon="7.18128">
        <ele>1254.246582</ele>
        <time>2016-04-24T08:56:08Z</time>
      </trkpt>
      <trkpt lat="43.98898" lon="7.18136">
        <ele>1255.75415</ele>
        <time>2016-04-24T08:56:10Z</time>
      </trkpt>
      <trkpt lat="43.989" lon="7.18144">
        <ele>1256.965698</ele>
        <time>2016-04-24T08:56:12Z</time>
      </trkpt>
      <trkpt lat="43.98902" lon="7.18152">
        <ele>1258.257568</ele>
        <time>2016-04-24T08:56:14Z</time>
      </trkpt>
      <trkpt lat="43.98905" lon="7.1816">
        <ele>1259.280151</ele>
        <time>2016-04-24T08:56:16Z</time>
      </trkpt>
      <trkpt lat="43.98908" lon="7.18165">
        <ele>1259.355835</ele>
        <time>2016-04-24T08:56:17Z</time>
      </trkpt>
      <trkpt lat="43.98924" lon="7.18191">
        <ele>1258.166504</ele>
        <time>2016-04-24T08:56:23Z</time>
      </trkpt>
      <trkpt lat="43.9894" lon="7.18209">
        <ele>1254.135864</ele>
        <time>2016-04-24T08:56:28Z</time>
      </trkpt>
      <trkpt lat="43.98949" lon="7.1822">
        <ele>1252.021973</ele>
        <time>2016-04-24T08:56:32Z</time>
      </trkpt>
      <trkpt lat="43.98954" lon="7.18239">
        <ele>1251.182739</ele>
        <time>2016-04-24T08:56:37Z</time>
      </trkpt>
      <trkpt lat="43.98954" lon="7.18273">
        <ele>1243.613403</ele>
        <time>2016-04-24T08:56:46Z</time>
      </trkpt>
      <trkpt lat="43.98935" lon="7.18327">
        <ele>1243.900146</ele>
        <time>2016-04-24T08:57:00Z</time>
      </trkpt>
      <trkpt lat="43.98935" lon="7.18343">
        <ele>1241.869385</ele>
        <time>2016-04-24T08:57:04Z</time>
      </trkpt>
      <trkpt lat="43.98935" lon="7.18353">
        <ele>1240.504761</ele>
        <time>2016-04-24T08:57:07Z</time>
      </trkpt>
      <trkpt lat="43.98934" lon="7.18356">
        <ele>1240.38147</ele>
        <time>2016-04-24T08:57:08Z</time>
      </trkpt>
      <trkpt lat="43.98933" lon="7.18361">
        <ele>1240.666626</ele>
        <time>2016-04-24T08:57:10Z</time>
      </trkpt>
      <trkpt lat="43.98932" lon="7.18364">
        <ele>1241.037476</ele>
        <time>2016-04-24T08:57:11Z</time>
      </trkpt>
      <trkpt lat="43.98931" lon="7.18371">
        <ele>1241.004517</ele>
        <time>2016-04-24T08:57:14Z</time>
      </trkpt>
      <trkpt lat="43.98928" lon="7.18378">
        <ele>1242.767822</ele>
        <time>2016-04-24T08:57:16Z</time>
      </trkpt>
      <trkpt lat="43.98926" lon="7.18393">
        <ele>1243.751221</ele>
        <time>2016-04-24T08:57:20Z</time>
      </trkpt>
      <trkpt lat="43.98925" lon="7.18421">
        <ele>1243.650391</ele>
        <time>2016-04-24T08:57:25Z</time>
      </trkpt>
      <trkpt lat="43.98924" lon="7.18436">
        <ele>1245.850952</ele>
        <time>2016-04-24T08:57:27Z</time>
      </trkpt>
      <trkpt lat="43.98918" lon="7.1846">
        <ele>1252.598267</ele>
        <time>2016-04-24T08:57:30Z</time>
      </trkpt>
      <trkpt lat="43.98914" lon="7.18476">
        <ele>1257.177734</ele>
        <time>2016-04-24T08:57:32Z</time>
      </trkpt>
      <trkpt lat="43.98918" lon="7.18492">
        <ele>1258.877686</ele>
        <time>2016-04-24T08:57:34Z</time>
      </trkpt>
      <trkpt lat="43.98932" lon="7.18525">
        <ele>1263.617798</ele>
        <time>2016-04-24T08:57:38Z</time>
      </trkpt>
      <trkpt lat="43.98956" lon="7.18541">
        <ele>1257.507446</ele>
        <time>2016-04-24T08:57:41Z</time>
      </trkpt>
      <trkpt lat="43.98976" lon="7.1857">
        <ele>1259.298584</ele>
        <time>2016-04-24T08:57:46Z</time>
      </trkpt>
      <trkpt lat="43.9898" lon="7.18576">
        <ele>1260.269409</ele>
        <time>2016-04-24T08:57:47Z</time>
      </trkpt>
      <trkpt lat="43.98982" lon="7.18582">
        <ele>1261.722046</ele>
        <time>2016-04-24T08:57:48Z</time>
      </trkpt>
      <trkpt lat="43.9899" lon="7.18614">
        <ele>1271.016113</ele>
        <time>2016-04-24T08:57:53Z</time>
      </trkpt>
      <trkpt lat="43.98994" lon="7.18618">
        <ele>1269.712891</ele>
        <time>2016-04-24T08:57:54Z</time>
      </trkpt>
      <trkpt lat="43.98994" lon="7.18633">
        <ele>1272.50354</ele>
        <time>2016-04-24T08:57:57Z</time>
      </trkpt>
      <trkpt lat="43.98995" lon="7.18636">
        <ele>1272.415771</ele>
        <time>2016-04-24T08:57:58Z</time>
      </trkpt>
      <trkpt lat="43.98998" lon="7.18645">
        <ele>1271.493896</ele>
        <time>2016-04-24T08:58:01Z</time>
      </trkpt>
      <trkpt lat="43.99" lon="7.18648">
        <ele>1271.098022</ele>
        <time>2016-04-24T08:58:02Z</time>
      </trkpt>
      <trkpt lat="43.99001" lon="7.1865">
        <ele>1269.938354</ele>
        <time>2016-04-24T08:58:03Z</time>
      </trkpt>
      <trkpt lat="43.99003" lon="7.18653">
        <ele>1269.155762</ele>
        <time>2016-04-24T08:58:04Z</time>
      </trkpt>
      <trkpt lat="43.99007" lon="7.18659">
        <ele>1266.920044</ele>
        <time>2016-04-24T08:58:06Z</time>
      </trkpt>
      <trkpt lat="43.99008" lon="7.18662">
        <ele>1266.457153</ele>
        <time>2016-04-24T08:58:07Z</time>
      </trkpt>
      <trkpt lat="43.99008" lon="7.18665">
        <ele>1266.760742</ele>
        <time>2016-04-24T08:58:08Z</time>
      </trkpt>
      <trkpt lat="43.99006" lon="7.18675">
        <ele>1269.473999</ele>
        <time>2016-04-24T08:58:11Z</time>
      </trkpt>
      <trkpt lat="43.99005" lon="7.18678">
        <ele>1271.045166</ele>
        <time>2016-04-24T08:58:12Z</time>
      </trkpt>
      <trkpt lat="43.99" lon="7.18697">
        <ele>1272.882813</ele>
        <time>2016-04-24T08:58:17Z</time>
      </trkpt>
      <trkpt lat="43.99" lon="7.187">
        <ele>1272.822144</ele>
        <time>2016-04-24T08:58:18Z</time>
      </trkpt>
      <trkpt lat="43.98994" lon="7.18719">
        <ele>1275.275757</ele>
        <time>2016-04-24T08:58:24Z</time>
      </trkpt>
      <trkpt lat="43.98993" lon="7.18728">
        <ele>1275.173218</ele>
        <time>2016-04-24T08:58:27Z</time>
      </trkpt>
      <trkpt lat="43.98993" lon="7.18736">
        <ele>1273.954468</ele>
        <time>2016-04-24T08:58:30Z</time>
      </trkpt>
      <trkpt lat="43.98992" lon="7.18739">
        <ele>1274.516479</ele>
        <time>2016-04-24T08:58:31Z</time>
      </trkpt>
      <trkpt lat="43.98989" lon="7.18745">
        <ele>1276.565796</ele>
        <time>2016-04-24T08:58:34Z</time>
      </trkpt>
      <trkpt lat="43.98988" lon="7.18747">
        <ele>1277.050781</ele>
        <time>2016-04-24T08:58:35Z</time>
      </trkpt>
      <trkpt lat="43.98988" lon="7.18753">
        <ele>1276.773071</ele>
        <time>2016-04-24T08:58:37Z</time>
      </trkpt>
      <trkpt lat="43.98986" lon="7.18756">
        <ele>1277.800049</ele>
        <time>2016-04-24T08:58:38Z</time>
      </trkpt>
      <trkpt lat="43.98988" lon="7.18762">
        <ele>1275.430176</ele>
        <time>2016-04-24T08:58:40Z</time>
      </trkpt>
      <trkpt lat="43.98988" lon="7.1877">
        <ele>1275.214722</ele>
        <time>2016-04-24T08:58:43Z</time>
      </trkpt>
      <trkpt lat="43.98986" lon="7.18773">
        <ele>1276.207764</ele>
        <time>2016-04-24T08:58:44Z</time>
      </trkpt>
      <trkpt lat="43.98988" lon="7.18775">
        <ele>1274.671387</ele>
        <time>2016-04-24T08:58:45Z</time>
      </trkpt>
      <trkpt lat="43.98986" lon="7.18788">
        <ele>1274.660767</ele>
        <time>2016-04-24T08:58:49Z</time>
      </trkpt>
      <trkpt lat="43.98982" lon="7.18796">
        <ele>1277.716064</ele>
        <time>2016-04-24T08:58:52Z</time>
      </trkpt>
      <trkpt lat="43.98982" lon="7.188">
        <ele>1277.277588</ele>
        <time>2016-04-24T08:58:54Z</time>
      </trkpt>
      <trkpt lat="43.98981" lon="7.18802">
        <ele>1277.274536</ele>
        <time>2016-04-24T08:58:55Z</time>
      </trkpt>
      <trkpt lat="43.98982" lon="7.18804">
        <ele>1277.106934</ele>
        <time>2016-04-24T08:58:56Z</time>
      </trkpt>
      <trkpt lat="43.98985" lon="7.1881">
        <ele>1276.089355</ele>
        <time>2016-04-24T08:58:59Z</time>
      </trkpt>
      <trkpt lat="43.98986" lon="7.18811">
        <ele>1275.878784</ele>
        <time>2016-04-24T08:59:00Z</time>
      </trkpt>
      <trkpt lat="43.98986" lon="7.18817">
        <ele>1276.812134</ele>
        <time>2016-04-24T08:59:03Z</time>
      </trkpt>
      <trkpt lat="43.98984" lon="7.18823">
        <ele>1279.041382</ele>
        <time>2016-04-24T08:59:05Z</time>
      </trkpt>
      <trkpt lat="43.98983" lon="7.18826">
        <ele>1280.352783</ele>
        <time>2016-04-24T08:59:07Z</time>
      </trkpt>
      <trkpt lat="43.98984" lon="7.18829">
        <ele>1280.295044</ele>
        <time>2016-04-24T08:59:08Z</time>
      </trkpt>
      <trkpt lat="43.98993" lon="7.18838">
        <ele>1278.389404</ele>
        <time>2016-04-24T08:59:12Z</time>
      </trkpt>
      <trkpt lat="43.99001" lon="7.18847">
        <ele>1277.867554</ele>
        <time>2016-04-24T08:59:16Z</time>
      </trkpt>
      <trkpt lat="43.99014" lon="7.18851">
        <ele>1274.719604</ele>
        <time>2016-04-24T08:59:19Z</time>
      </trkpt>
      <trkpt lat="43.99024" lon="7.1886">
        <ele>1275.828369</ele>
        <time>2016-04-24T08:59:24Z</time>
      </trkpt>
      <trkpt lat="43.9903" lon="7.18865">
        <ele>1276.835205</ele>
        <time>2016-04-24T08:59:28Z</time>
      </trkpt>
      <trkpt lat="43.99039" lon="7.18869">
        <ele>1276.160645</ele>
        <time>2016-04-24T08:59:32Z</time>
      </trkpt>
      <trkpt lat="43.99038" lon="7.18871">
        <ele>1277.088623</ele>
        <time>2016-04-24T08:59:37Z</time>
      </trkpt>
      <trkpt lat="43.99039" lon="7.18877">
        <ele>1279.286499</ele>
        <time>2016-04-24T08:59:41Z</time>
      </trkpt>
      <trkpt lat="43.9904" lon="7.18884">
        <ele>1281.764893</ele>
        <time>2016-04-24T08:59:44Z</time>
      </trkpt>
      <trkpt lat="43.99046" lon="7.18894">
        <ele>1283.148438</ele>
        <time>2016-04-24T08:59:48Z</time>
      </trkpt>
      <trkpt lat="43.99041" lon="7.18908">
        <ele>1290.233154</ele>
        <time>2016-04-24T08:59:52Z</time>
      </trkpt>
      <trkpt lat="43.99034" lon="7.18924">
        <ele>1300.071533</ele>
        <time>2016-04-24T08:59:57Z</time>
      </trkpt>
      <trkpt lat="43.99035" lon="7.18935">
        <ele>1303.367065</ele>
        <time>2016-04-24T09:00:01Z</time>
      </trkpt>
      <trkpt lat="43.99038" lon="7.18947">
        <ele>1303.953491</ele>
        <time>2016-04-24T09:00:05Z</time>
      </trkpt>
      <trkpt lat="43.99024" lon="7.1897">
        <ele>1318.030884</ele>
        <time>2016-04-24T09:00:12Z</time>
      </trkpt>
      <trkpt lat="43.99027" lon="7.18985">
        <ele>1319.411011</ele>
        <time>2016-04-24T09:00:18Z</time>
      </trkpt>
      <trkpt lat="43.99038" lon="7.18995">
        <ele>1313.714722</ele>
        <time>2016-04-24T09:00:22Z</time>
      </trkpt>
      <trkpt lat="43.99041" lon="7.18999">
        <ele>1313.614258</ele>
        <time>2016-04-24T09:00:24Z</time>
      </trkpt>
      <trkpt lat="43.99044" lon="7.19006">
        <ele>1314.686646</ele>
        <time>2016-04-24T09:00:27Z</time>
      </trkpt>
      <trkpt lat="43.99045" lon="7.19016">
        <ele>1319.311646</ele>
        <time>2016-04-24T09:00:30Z</time>
      </trkpt>
      <trkpt lat="43.99047" lon="7.19028">
        <ele>1323.872803</ele>
        <time>2016-04-24T09:00:34Z</time>
      </trkpt>
      <trkpt lat="43.99051" lon="7.19041">
        <ele>1326.497803</ele>
        <time>2016-04-24T09:00:38Z</time>
      </trkpt>
      <trkpt lat="43.99056" lon="7.1905">
        <ele>1326.739014</ele>
        <time>2016-04-24T09:00:42Z</time>
      </trkpt>
      <trkpt lat="43.9906" lon="7.19059">
        <ele>1326.485352</ele>
        <time>2016-04-24T09:00:46Z</time>
      </trkpt>
      <trkpt lat="43.99069" lon="7.19066">
        <ele>1319.14502</ele>
        <time>2016-04-24T09:00:50Z</time>
      </trkpt>
      <trkpt lat="43.99073" lon="7.19073">
        <ele>1316.321899</ele>
        <time>2016-04-24T09:00:54Z</time>
      </trkpt>
      <trkpt lat="43.99079" lon="7.1908">
        <ele>1312.472412</ele>
        <time>2016-04-24T09:00:59Z</time>
      </trkpt>
      <trkpt lat="43.9909" lon="7.19087">
        <ele>1303.133545</ele>
        <time>2016-04-24T09:01:03Z</time>
      </trkpt>
      <trkpt lat="43.99098" lon="7.19099">
        <ele>1302.351196</ele>
        <time>2016-04-24T09:01:08Z</time>
      </trkpt>
      <trkpt lat="43.99101" lon="7.19113">
        <ele>1305.843018</ele>
        <time>2016-04-24T09:01:12Z</time>
      </trkpt>
      <trkpt lat="43.99097" lon="7.19132">
        <ele>1313.454834</ele>
        <time>2016-04-24T09:01:17Z</time>
      </trkpt>
      <trkpt lat="43.99097" lon="7.19143">
        <ele>1318.853027</ele>
        <time>2016-04-24T09:01:21Z</time>
      </trkpt>
      <trkpt lat="43.99099" lon="7.19151">
        <ele>1322.273193</ele>
        <time>2016-04-24T09:01:24Z</time>
      </trkpt>
      <trkpt lat="43.991" lon="7.19154">
        <ele>1323.707031</ele>
        <time>2016-04-24T09:01:26Z</time>
      </trkpt>
      <trkpt lat="43.99103" lon="7.19156">
        <ele>1324.685181</ele>
        <time>2016-04-24T09:01:28Z</time>
      </trkpt>
      <trkpt lat="43.99105" lon="7.19157">
        <ele>1325.036499</ele>
        <time>2016-04-24T09:01:29Z</time>
      </trkpt>
      <trkpt lat="43.99121" lon="7.19157">
        <ele>1324.067139</ele>
        <time>2016-04-24T09:01:32Z</time>
      </trkpt>
      <trkpt lat="43.99123" lon="7.19158">
        <ele>1324.320313</ele>
        <time>2016-04-24T09:01:33Z</time>
      </trkpt>
      <trkpt lat="43.99123" lon="7.19159">
        <ele>1324.86499</ele>
        <time>2016-04-24T09:01:34Z</time>
      </trkpt>
      <trkpt lat="43.99123" lon="7.1916">
        <ele>1325.449463</ele>
        <time>2016-04-24T09:01:35Z</time>
      </trkpt>
      <trkpt lat="43.99123" lon="7.19162">
        <ele>1326.466064</ele>
        <time>2016-04-24T09:01:36Z</time>
      </trkpt>
      <trkpt lat="43.99123" lon="7.19163">
        <ele>1327.01123</ele>
        <time>2016-04-24T09:01:37Z</time>
      </trkpt>
      <trkpt lat="43.99124" lon="7.19164">
        <ele>1327.636597</ele>
        <time>2016-04-24T09:01:38Z</time>
      </trkpt>
      <trkpt lat="43.99124" lon="7.19166">
        <ele>1328.458008</ele>
        <time>2016-04-24T09:01:39Z</time>
      </trkpt>
      <trkpt lat="43.99125" lon="7.1917">
        <ele>1330.224731</ele>
        <time>2016-04-24T09:01:42Z</time>
      </trkpt>
      <trkpt lat="43.99126" lon="7.19171">
        <ele>1330.699463</ele>
        <time>2016-04-24T09:01:43Z</time>
      </trkpt>
      <trkpt lat="43.9913" lon="7.19172">
        <ele>1331.383545</ele>
        <time>2016-04-24T09:01:46Z</time>
      </trkpt>
      <trkpt lat="43.99137" lon="7.19175">
        <ele>1332.310303</ele>
        <time>2016-04-24T09:01:49Z</time>
      </trkpt>
      <trkpt lat="43.99142" lon="7.19176">
        <ele>1332.2948</ele>
        <time>2016-04-24T09:01:51Z</time>
      </trkpt>
      <trkpt lat="43.9915" lon="7.19179">
        <ele>1333.598145</ele>
        <time>2016-04-24T09:01:55Z</time>
      </trkpt>
      <trkpt lat="43.99159" lon="7.1918">
        <ele>1333.552612</ele>
        <time>2016-04-24T09:01:59Z</time>
      </trkpt>
      <trkpt lat="43.99169" lon="7.1918">
        <ele>1332.797974</ele>
        <time>2016-04-24T09:02:03Z</time>
      </trkpt>
      <trkpt lat="43.99186" lon="7.19184">
        <ele>1332.726074</ele>
        <time>2016-04-24T09:02:09Z</time>
      </trkpt>
      <trkpt lat="43.99201" lon="7.19187">
        <ele>1332.261963</ele>
        <time>2016-04-24T09:02:15Z</time>
      </trkpt>
      <trkpt lat="43.99215" lon="7.19192">
        <ele>1332.626099</ele>
        <time>2016-04-24T09:02:20Z</time>
      </trkpt>
      <trkpt lat="43.99223" lon="7.19202">
        <ele>1335.833374</ele>
        <time>2016-04-24T09:02:23Z</time>
      </trkpt>
      <trkpt lat="43.99227" lon="7.1921">
        <ele>1337.962158</ele>
        <time>2016-04-24T09:02:25Z</time>
      </trkpt>
      <trkpt lat="43.99252" lon="7.19252">
        <ele>1350.268066</ele>
        <time>2016-04-24T09:02:34Z</time>
      </trkpt>
      <trkpt lat="43.99259" lon="7.19257">
        <ele>1350.616211</ele>
        <time>2016-04-24T09:02:36Z</time>
      </trkpt>
      <trkpt lat="43.9929" lon="7.19258">
        <ele>1343.665405</ele>
        <time>2016-04-24T09:02:44Z</time>
      </trkpt>
      <trkpt lat="43.99303" lon="7.19261">
        <ele>1342.401123</ele>
        <time>2016-04-24T09:02:47Z</time>
      </trkpt>
      <trkpt lat="43.99311" lon="7.19262">
        <ele>1341.121338</ele>
        <time>2016-04-24T09:02:49Z</time>
      </trkpt>
      <trkpt lat="43.99338" lon="7.19261">
        <ele>1336.704956</ele>
        <time>2016-04-24T09:02:55Z</time>
      </trkpt>
      <trkpt lat="43.99362" lon="7.1926">
        <ele>1333.702881</ele>
        <time>2016-04-24T09:03:01Z</time>
      </trkpt>
      <trkpt lat="43.99383" lon="7.19262">
        <ele>1333.831909</ele>
        <time>2016-04-24T09:03:06Z</time>
      </trkpt>
      <trkpt lat="43.99398" lon="7.19271">
        <ele>1338.316406</ele>
        <time>2016-04-24T09:03:11Z</time>
      </trkpt>
      <trkpt lat="43.99411" lon="7.19272">
        <ele>1339.390991</ele>
        <time>2016-04-24T09:03:14Z</time>
      </trkpt>
      <trkpt lat="43.99471" lon="7.19264">
        <ele>1338.553955</ele>
        <time>2016-04-24T09:03:24Z</time>
      </trkpt>
      <trkpt lat="43.995" lon="7.1926">
        <ele>1337.859375</ele>
        <time>2016-04-24T09:03:28Z</time>
      </trkpt>
      <trkpt lat="43.99527" lon="7.19265">
        <ele>1341.099121</ele>
        <time>2016-04-24T09:03:32Z</time>
      </trkpt>
      <trkpt lat="43.99559" lon="7.19258">
        <ele>1337.91748</ele>
        <time>2016-04-24T09:03:38Z</time>
      </trkpt>
      <trkpt lat="43.9957" lon="7.1926">
        <ele>1338.974731</ele>
        <time>2016-04-24T09:03:40Z</time>
      </trkpt>
      <trkpt lat="43.9958" lon="7.19265">
        <ele>1340.863281</ele>
        <time>2016-04-24T09:03:42Z</time>
      </trkpt>
      <trkpt lat="43.99589" lon="7.19273">
        <ele>1341.505981</ele>
        <time>2016-04-24T09:03:44Z</time>
      </trkpt>
      <trkpt lat="43.99601" lon="7.19289">
        <ele>1342.80957</ele>
        <time>2016-04-24T09:03:47Z</time>
      </trkpt>
      <trkpt lat="43.99608" lon="7.19297">
        <ele>1343.703857</ele>
        <time>2016-04-24T09:03:49Z</time>
      </trkpt>
      <trkpt lat="43.9963" lon="7.1932">
        <ele>1344.291748</ele>
        <time>2016-04-24T09:03:55Z</time>
      </trkpt>
      <trkpt lat="43.99637" lon="7.19329">
        <ele>1344.305054</ele>
        <time>2016-04-24T09:03:57Z</time>
      </trkpt>
      <trkpt lat="43.99645" lon="7.19339">
        <ele>1344.666748</ele>
        <time>2016-04-24T09:03:59Z</time>
      </trkpt>
      <trkpt lat="43.99679" lon="7.19371">
        <ele>1344.960205</ele>
        <time>2016-04-24T09:04:07Z</time>
      </trkpt>
      <trkpt lat="43.99689" lon="7.19382">
        <ele>1346.735107</ele>
        <time>2016-04-24T09:04:09Z</time>
      </trkpt>
      <trkpt lat="43.9973" lon="7.19424">
        <ele>1348.355225</ele>
        <time>2016-04-24T09:04:16Z</time>
      </trkpt>
      <trkpt lat="43.99748" lon="7.19465">
        <ele>1350.043213</ele>
        <time>2016-04-24T09:04:20Z</time>
      </trkpt>
      <trkpt lat="43.9975" lon="7.19476">
        <ele>1351.399902</ele>
        <time>2016-04-24T09:04:21Z</time>
      </trkpt>
      <trkpt lat="43.9976" lon="7.19512">
        <ele>1350.389038</ele>
        <time>2016-04-24T09:04:24Z</time>
      </trkpt>
      <trkpt lat="43.99763" lon="7.19524">
        <ele>1349.818359</ele>
        <time>2016-04-24T09:04:25Z</time>
      </trkpt>
      <trkpt lat="43.99782" lon="7.19551">
        <ele>1345.512329</ele>
        <time>2016-04-24T09:04:28Z</time>
      </trkpt>
      <trkpt lat="43.99787" lon="7.19558">
        <ele>1345.144653</ele>
        <time>2016-04-24T09:04:29Z</time>
      </trkpt>
      <trkpt lat="43.998" lon="7.19574">
        <ele>1348.816772</ele>
        <time>2016-04-24T09:04:32Z</time>
      </trkpt>
      <trkpt lat="43.99806" lon="7.19578">
        <ele>1349.744995</ele>
        <time>2016-04-24T09:04:33Z</time>
      </trkpt>
      <trkpt lat="43.99811" lon="7.19582">
        <ele>1350.584229</ele>
        <time>2016-04-24T09:04:34Z</time>
      </trkpt>
      <trkpt lat="43.99814" lon="7.19585">
        <ele>1351.559937</ele>
        <time>2016-04-24T09:04:35Z</time>
      </trkpt>
      <trkpt lat="43.99829" lon="7.19592">
        <ele>1352.199219</ele>
        <time>2016-04-24T09:04:38Z</time>
      </trkpt>
      <trkpt lat="43.99846" lon="7.19592">
        <ele>1350.038208</ele>
        <time>2016-04-24T09:04:41Z</time>
      </trkpt>
      <trkpt lat="43.99856" lon="7.19592">
        <ele>1348.849365</ele>
        <time>2016-04-24T09:04:43Z</time>
      </trkpt>
      <trkpt lat="43.99866" lon="7.19594">
        <ele>1348.417969</ele>
        <time>2016-04-24T09:04:45Z</time>
      </trkpt>
      <trkpt lat="43.9988" lon="7.19604">
        <ele>1349.938232</ele>
        <time>2016-04-24T09:04:49Z</time>
      </trkpt>
      <trkpt lat="43.99899" lon="7.19624">
        <ele>1353.133179</ele>
        <time>2016-04-24T09:04:54Z</time>
      </trkpt>
      <trkpt lat="43.99915" lon="7.19643">
        <ele>1355.900879</ele>
        <time>2016-04-24T09:04:59Z</time>
      </trkpt>
      <trkpt lat="43.99933" lon="7.19654">
        <ele>1357.805054</ele>
        <time>2016-04-24T09:05:04Z</time>
      </trkpt>
      <trkpt lat="43.9995" lon="7.1965">
        <ele>1355.768677</ele>
        <time>2016-04-24T09:05:06Z</time>
      </trkpt>
      <trkpt lat="44.0001" lon="7.1964">
        <ele>1351.314941</ele>
        <time>2016-04-24T09:05:13Z</time>
      </trkpt>
      <trkpt lat="44.00019" lon="7.1964">
        <ele>1350.3396</ele>
        <time>2016-04-24T09:05:14Z</time>
      </trkpt>
      <trkpt lat="44.00046" lon="7.19646">
        <ele>1347.916748</ele>
        <time>2016-04-24T09:05:18Z</time>
      </trkpt>
      <trkpt lat="44.00065" lon="7.19657">
        <ele>1347.723877</ele>
        <time>2016-04-24T09:05:21Z</time>
      </trkpt>
      <trkpt lat="44.00082" lon="7.19679">
        <ele>1348.81543</ele>
        <time>2016-04-24T09:05:24Z</time>
      </trkpt>
      <trkpt lat="44.00088" lon="7.19692">
        <ele>1350.361572</ele>
        <time>2016-04-24T09:05:26Z</time>
      </trkpt>
      <trkpt lat="44.00095" lon="7.19715">
        <ele>1353.12146</ele>
        <time>2016-04-24T09:05:29Z</time>
      </trkpt>
      <trkpt lat="44.00103" lon="7.19744">
        <ele>1356.57251</ele>
        <time>2016-04-24T09:05:33Z</time>
      </trkpt>
      <trkpt lat="44.00104" lon="7.19752">
        <ele>1357.972534</ele>
        <time>2016-04-24T09:05:34Z</time>
      </trkpt>
      <trkpt lat="44.00105" lon="7.19759">
        <ele>1359.122437</ele>
        <time>2016-04-24T09:05:35Z</time>
      </trkpt>
      <trkpt lat="44.0011" lon="7.19772">
        <ele>1360.420044</ele>
        <time>2016-04-24T09:05:37Z</time>
      </trkpt>
      <trkpt lat="44.00117" lon="7.19782">
        <ele>1362.614136</ele>
        <time>2016-04-24T09:05:39Z</time>
      </trkpt>
      <trkpt lat="44.00125" lon="7.19792">
        <ele>1364.576904</ele>
        <time>2016-04-24T09:05:41Z</time>
      </trkpt>
      <trkpt lat="44.00129" lon="7.19796">
        <ele>1365.178711</ele>
        <time>2016-04-24T09:05:42Z</time>
      </trkpt>
      <trkpt lat="44.00145" lon="7.19812">
        <ele>1367.291504</ele>
        <time>2016-04-24T09:05:47Z</time>
      </trkpt>
      <trkpt lat="44.00161" lon="7.1982">
        <ele>1366.75</ele>
        <time>2016-04-24T09:05:52Z</time>
      </trkpt>
      <trkpt lat="44.0017" lon="7.19822">
        <ele>1365.610596</ele>
        <time>2016-04-24T09:05:54Z</time>
      </trkpt>
      <trkpt lat="44.00176" lon="7.19822">
        <ele>1364.237061</ele>
        <time>2016-04-24T09:05:55Z</time>
      </trkpt>
      <trkpt lat="44.00184" lon="7.19821">
        <ele>1362.061279</ele>
        <time>2016-04-24T09:05:56Z</time>
      </trkpt>
      <trkpt lat="44.0019" lon="7.19821">
        <ele>1361.535645</ele>
        <time>2016-04-24T09:05:57Z</time>
      </trkpt>
      <trkpt lat="44.00195" lon="7.1982">
        <ele>1361.412476</ele>
        <time>2016-04-24T09:05:58Z</time>
      </trkpt>
      <trkpt lat="44.00201" lon="7.19819">
        <ele>1361.023193</ele>
        <time>2016-04-24T09:05:59Z</time>
      </trkpt>
      <trkpt lat="44.00212" lon="7.19817">
        <ele>1360.06189</ele>
        <time>2016-04-24T09:06:01Z</time>
      </trkpt>
      <trkpt lat="44.00246" lon="7.19805">
        <ele>1357.057373</ele>
        <time>2016-04-24T09:06:07Z</time>
      </trkpt>
      <trkpt lat="44.00256" lon="7.19802">
        <ele>1356.617188</ele>
        <time>2016-04-24T09:06:08Z</time>
      </trkpt>
      <trkpt lat="44.00272" lon="7.19794">
        <ele>1355.215576</ele>
        <time>2016-04-24T09:06:11Z</time>
      </trkpt>
      <trkpt lat="44.0031" lon="7.19794">
        <ele>1353.912476</ele>
        <time>2016-04-24T09:06:16Z</time>
      </trkpt>
      <trkpt lat="44.00324" lon="7.198">
        <ele>1354.829956</ele>
        <time>2016-04-24T09:06:18Z</time>
      </trkpt>
      <trkpt lat="44.0036" lon="7.19835">
        <ele>1357.754028</ele>
        <time>2016-04-24T09:06:24Z</time>
      </trkpt>
      <trkpt lat="44.00398" lon="7.1988">
        <ele>1357.977783</ele>
        <time>2016-04-24T09:06:31Z</time>
      </trkpt>
      <trkpt lat="44.00417" lon="7.19902">
        <ele>1356.717407</ele>
        <time>2016-04-24T09:06:35Z</time>
      </trkpt>
      <trkpt lat="44.00438" lon="7.19928">
        <ele>1355.301758</ele>
        <time>2016-04-24T09:06:40Z</time>
      </trkpt>
      <trkpt lat="44.00449" lon="7.19952">
        <ele>1354.85144</ele>
        <time>2016-04-24T09:06:44Z</time>
      </trkpt>
      <trkpt lat="44.00453" lon="7.19973">
        <ele>1356.142944</ele>
        <time>2016-04-24T09:06:47Z</time>
      </trkpt>
      <trkpt lat="44.00462" lon="7.19993">
        <ele>1356.751953</ele>
        <time>2016-04-24T09:06:50Z</time>
      </trkpt>
      <trkpt lat="44.00494" lon="7.2003">
        <ele>1356.995605</ele>
        <time>2016-04-24T09:06:57Z</time>
      </trkpt>
      <trkpt lat="44.00505" lon="7.20041">
        <ele>1357.721436</ele>
        <time>2016-04-24T09:06:59Z</time>
      </trkpt>
      <trkpt lat="44.00538" lon="7.2008">
        <ele>1357.764038</ele>
        <time>2016-04-24T09:07:06Z</time>
      </trkpt>
      <trkpt lat="44.00549" lon="7.20098">
        <ele>1354.641113</ele>
        <time>2016-04-24T09:07:09Z</time>
      </trkpt>
      <trkpt lat="44.0056" lon="7.20124">
        <ele>1351.780029</ele>
        <time>2016-04-24T09:07:12Z</time>
      </trkpt>
      <trkpt lat="44.00562" lon="7.20134">
        <ele>1349.959961</ele>
        <time>2016-04-24T09:07:13Z</time>
      </trkpt>
      <trkpt lat="44.00566" lon="7.20146">
        <ele>1347.439941</ele>
        <time>2016-04-24T09:07:14Z</time>
      </trkpt>
      <trkpt lat="44.00571" lon="7.2017">
        <ele>1343.589966</ele>
        <time>2016-04-24T09:07:16Z</time>
      </trkpt>
      <trkpt lat="44.00573" lon="7.2018">
        <ele>1341.910034</ele>
        <time>2016-04-24T09:07:17Z</time>
      </trkpt>
      <trkpt lat="44.00575" lon="7.20189">
        <ele>1340.016846</ele>
        <time>2016-04-24T09:07:18Z</time>
      </trkpt>
      <trkpt lat="44.00576" lon="7.20197">
        <ele>1337.955811</ele>
        <time>2016-04-24T09:07:19Z</time>
      </trkpt>
      <trkpt lat="44.00575" lon="7.20203">
        <ele>1336.797485</ele>
        <time>2016-04-24T09:07:20Z</time>
      </trkpt>
      <trkpt lat="44.00574" lon="7.20209">
        <ele>1336.346313</ele>
        <time>2016-04-24T09:07:21Z</time>
      </trkpt>
      <trkpt lat="44.00572" lon="7.20215">
        <ele>1336.451782</ele>
        <time>2016-04-24T09:07:22Z</time>
      </trkpt>
      <trkpt lat="44.00571" lon="7.20223">
        <ele>1335.283325</ele>
        <time>2016-04-24T09:07:23Z</time>
      </trkpt>
      <trkpt lat="44.0057" lon="7.2024">
        <ele>1332.192383</ele>
        <time>2016-04-24T09:07:25Z</time>
      </trkpt>
      <trkpt lat="44.0057" lon="7.20257">
        <ele>1329.240479</ele>
        <time>2016-04-24T09:07:27Z</time>
      </trkpt>
      <trkpt lat="44.00571" lon="7.20267">
        <ele>1327.493774</ele>
        <time>2016-04-24T09:07:28Z</time>
      </trkpt>
      <trkpt lat="44.00572" lon="7.20276">
        <ele>1325.945801</ele>
        <time>2016-04-24T09:07:29Z</time>
      </trkpt>
      <trkpt lat="44.00573" lon="7.20284">
        <ele>1324.425659</ele>
        <time>2016-04-24T09:07:30Z</time>
      </trkpt>
      <trkpt lat="44.00572" lon="7.20291">
        <ele>1324.136597</ele>
        <time>2016-04-24T09:07:31Z</time>
      </trkpt>
      <trkpt lat="44.00572" lon="7.20296">
        <ele>1323.445923</ele>
        <time>2016-04-24T09:07:32Z</time>
      </trkpt>
      <trkpt lat="44.00573" lon="7.203">
        <ele>1322.545898</ele>
        <time>2016-04-24T09:07:33Z</time>
      </trkpt>
      <trkpt lat="44.00573" lon="7.20304">
        <ele>1322.302002</ele>
        <time>2016-04-24T09:07:34Z</time>
      </trkpt>
      <trkpt lat="44.00572" lon="7.20308">
        <ele>1322.019897</ele>
        <time>2016-04-24T09:07:35Z</time>
      </trkpt>
      <trkpt lat="44.00573" lon="7.20314">
        <ele>1321.619141</ele>
        <time>2016-04-24T09:07:36Z</time>
      </trkpt>
      <trkpt lat="44.00575" lon="7.2032">
        <ele>1321.315308</ele>
        <time>2016-04-24T09:07:37Z</time>
      </trkpt>
      <trkpt lat="44.00578" lon="7.20328">
        <ele>1321.348755</ele>
        <time>2016-04-24T09:07:38Z</time>
      </trkpt>
      <trkpt lat="44.0058" lon="7.20335">
        <ele>1321.126953</ele>
        <time>2016-04-24T09:07:39Z</time>
      </trkpt>
      <trkpt lat="44.00582" lon="7.20341">
        <ele>1321.260986</ele>
        <time>2016-04-24T09:07:40Z</time>
      </trkpt>
      <trkpt lat="44.00586" lon="7.20356">
        <ele>1321.811157</ele>
        <time>2016-04-24T09:07:42Z</time>
      </trkpt>
      <trkpt lat="44.00587" lon="7.20364">
        <ele>1322.587402</ele>
        <time>2016-04-24T09:07:43Z</time>
      </trkpt>
      <trkpt lat="44.00587" lon="7.20378">
        <ele>1324.529175</ele>
        <time>2016-04-24T09:07:45Z</time>
      </trkpt>
      <trkpt lat="44.00587" lon="7.20384">
        <ele>1323.948975</ele>
        <time>2016-04-24T09:07:46Z</time>
      </trkpt>
      <trkpt lat="44.00588" lon="7.20395">
        <ele>1322.771973</ele>
        <time>2016-04-24T09:07:48Z</time>
      </trkpt>
      <trkpt lat="44.00586" lon="7.20402">
        <ele>1323.342651</ele>
        <time>2016-04-24T09:07:49Z</time>
      </trkpt>
      <trkpt lat="44.00583" lon="7.20408">
        <ele>1325.046875</ele>
        <time>2016-04-24T09:07:50Z</time>
      </trkpt>
      <trkpt lat="44.0058" lon="7.20415">
        <ele>1326.342407</ele>
        <time>2016-04-24T09:07:51Z</time>
      </trkpt>
      <trkpt lat="44.00578" lon="7.20432">
        <ele>1326.498169</ele>
        <time>2016-04-24T09:07:53Z</time>
      </trkpt>
      <trkpt lat="44.00576" lon="7.20448">
        <ele>1327.080444</ele>
        <time>2016-04-24T09:07:55Z</time>
      </trkpt>
      <trkpt lat="44.00576" lon="7.20455">
        <ele>1326.933594</ele>
        <time>2016-04-24T09:07:56Z</time>
      </trkpt>
      <trkpt lat="44.0058" lon="7.20468">
        <ele>1322.877075</ele>
        <time>2016-04-24T09:07:58Z</time>
      </trkpt>
      <trkpt lat="44.00583" lon="7.20476">
        <ele>1320.506104</ele>
        <time>2016-04-24T09:07:59Z</time>
      </trkpt>
      <trkpt lat="44.00585" lon="7.20485">
        <ele>1319.030518</ele>
        <time>2016-04-24T09:08:00Z</time>
      </trkpt>
      <trkpt lat="44.00587" lon="7.20493">
        <ele>1317.258911</ele>
        <time>2016-04-24T09:08:01Z</time>
      </trkpt>
      <trkpt lat="44.00589" lon="7.20504">
        <ele>1315.602417</ele>
        <time>2016-04-24T09:08:02Z</time>
      </trkpt>
      <trkpt lat="44.00592" lon="7.20515">
        <ele>1313.467407</ele>
        <time>2016-04-24T09:08:03Z</time>
      </trkpt>
      <trkpt lat="44.00596" lon="7.20525">
        <ele>1311.558228</ele>
        <time>2016-04-24T09:08:04Z</time>
      </trkpt>
      <trkpt lat="44.006" lon="7.20534">
        <ele>1309.561157</ele>
        <time>2016-04-24T09:08:05Z</time>
      </trkpt>
      <trkpt lat="44.00605" lon="7.20548">
        <ele>1307.275757</ele>
        <time>2016-04-24T09:08:07Z</time>
      </trkpt>
      <trkpt lat="44.00607" lon="7.20554">
        <ele>1306.481812</ele>
        <time>2016-04-24T09:08:08Z</time>
      </trkpt>
      <trkpt lat="44.00609" lon="7.2056">
        <ele>1305.661865</ele>
        <time>2016-04-24T09:08:09Z</time>
      </trkpt>
      <trkpt lat="44.00611" lon="7.20573">
        <ele>1302.996582</ele>
        <time>2016-04-24T09:08:11Z</time>
      </trkpt>
      <trkpt lat="44.00607" lon="7.20588">
        <ele>1301.109253</ele>
        <time>2016-04-24T09:08:13Z</time>
      </trkpt>
      <trkpt lat="44.00603" lon="7.20596">
        <ele>1300.673462</ele>
        <time>2016-04-24T09:08:14Z</time>
      </trkpt>
      <trkpt lat="44.00599" lon="7.20605">
        <ele>1300.056274</ele>
        <time>2016-04-24T09:08:15Z</time>
      </trkpt>
      <trkpt lat="44.00594" lon="7.20614">
        <ele>1299.52478</ele>
        <time>2016-04-24T09:08:16Z</time>
      </trkpt>
      <trkpt lat="44.0059" lon="7.20622">
        <ele>1299.232666</ele>
        <time>2016-04-24T09:08:17Z</time>
      </trkpt>
      <trkpt lat="44.00586" lon="7.20629">
        <ele>1298.688354</ele>
        <time>2016-04-24T09:08:18Z</time>
      </trkpt>
      <trkpt lat="44.00583" lon="7.20638">
        <ele>1297.615601</ele>
        <time>2016-04-24T09:08:19Z</time>
      </trkpt>
      <trkpt lat="44.00579" lon="7.20646">
        <ele>1296.82251</ele>
        <time>2016-04-24T09:08:20Z</time>
      </trkpt>
      <trkpt lat="44.0057" lon="7.20659">
        <ele>1297.501221</ele>
        <time>2016-04-24T09:08:22Z</time>
      </trkpt>
      <trkpt lat="44.00565" lon="7.20664">
        <ele>1298.779175</ele>
        <time>2016-04-24T09:08:23Z</time>
      </trkpt>
      <trkpt lat="44.00559" lon="7.20669">
        <ele>1300.013184</ele>
        <time>2016-04-24T09:08:24Z</time>
      </trkpt>
      <trkpt lat="44.00555" lon="7.20674">
        <ele>1300.748779</ele>
        <time>2016-04-24T09:08:25Z</time>
      </trkpt>
      <trkpt lat="44.00555" lon="7.20679">
        <ele>1299.889526</ele>
        <time>2016-04-24T09:08:26Z</time>
      </trkpt>
      <trkpt lat="44.00557" lon="7.20686">
        <ele>1297.393555</ele>
        <time>2016-04-24T09:08:27Z</time>
      </trkpt>
      <trkpt lat="44.00559" lon="7.20695">
        <ele>1295.415649</ele>
        <time>2016-04-24T09:08:28Z</time>
      </trkpt>
      <trkpt lat="44.00564" lon="7.20713">
        <ele>1291.606689</ele>
        <time>2016-04-24T09:08:30Z</time>
      </trkpt>
      <trkpt lat="44.00568" lon="7.20721">
        <ele>1289.462036</ele>
        <time>2016-04-24T09:08:31Z</time>
      </trkpt>
      <trkpt lat="44.00569" lon="7.20728">
        <ele>1288.398804</ele>
        <time>2016-04-24T09:08:32Z</time>
      </trkpt>
      <trkpt lat="44.00569" lon="7.20734">
        <ele>1287.879883</ele>
        <time>2016-04-24T09:08:33Z</time>
      </trkpt>
      <trkpt lat="44.00568" lon="7.2074">
        <ele>1287.920166</ele>
        <time>2016-04-24T09:08:34Z</time>
      </trkpt>
      <trkpt lat="44.00567" lon="7.20747">
        <ele>1287.91272</ele>
        <time>2016-04-24T09:08:35Z</time>
      </trkpt>
      <trkpt lat="44.00567" lon="7.20755">
        <ele>1288.529419</ele>
        <time>2016-04-24T09:08:36Z</time>
      </trkpt>
      <trkpt lat="44.00566" lon="7.20761">
        <ele>1289.291992</ele>
        <time>2016-04-24T09:08:37Z</time>
      </trkpt>
      <trkpt lat="44.00563" lon="7.20765">
        <ele>1290.701538</ele>
        <time>2016-04-24T09:08:38Z</time>
      </trkpt>
      <trkpt lat="44.00559" lon="7.2077">
        <ele>1292.505127</ele>
        <time>2016-04-24T09:08:39Z</time>
      </trkpt>
      <trkpt lat="44.00557" lon="7.20774">
        <ele>1293.975952</ele>
        <time>2016-04-24T09:08:40Z</time>
      </trkpt>
      <trkpt lat="44.00555" lon="7.20779">
        <ele>1295.192871</ele>
        <time>2016-04-24T09:08:41Z</time>
      </trkpt>
      <trkpt lat="44.00555" lon="7.20783">
        <ele>1295.406494</ele>
        <time>2016-04-24T09:08:42Z</time>
      </trkpt>
      <trkpt lat="44.00556" lon="7.20785">
        <ele>1294.842773</ele>
        <time>2016-04-24T09:08:43Z</time>
      </trkpt>
      <trkpt lat="44.00562" lon="7.2079">
        <ele>1292.592163</ele>
        <time>2016-04-24T09:08:45Z</time>
      </trkpt>
      <trkpt lat="44.00569" lon="7.20799">
        <ele>1289.871704</ele>
        <time>2016-04-24T09:08:47Z</time>
      </trkpt>
      <trkpt lat="44.0057" lon="7.20803">
        <ele>1289.569458</ele>
        <time>2016-04-24T09:08:48Z</time>
      </trkpt>
      <trkpt lat="44.00571" lon="7.20811">
        <ele>1289.620972</ele>
        <time>2016-04-24T09:08:50Z</time>
      </trkpt>
      <trkpt lat="44.00577" lon="7.2082">
        <ele>1287.51123</ele>
        <time>2016-04-24T09:08:52Z</time>
      </trkpt>
      <trkpt lat="44.00587" lon="7.20824">
        <ele>1282.836182</ele>
        <time>2016-04-24T09:08:54Z</time>
      </trkpt>
      <trkpt lat="44.00595" lon="7.20826">
        <ele>1279.246826</ele>
        <time>2016-04-24T09:08:55Z</time>
      </trkpt>
      <trkpt lat="44.00611" lon="7.20829">
        <ele>1273.032715</ele>
        <time>2016-04-24T09:08:57Z</time>
      </trkpt>
      <trkpt lat="44.00615" lon="7.20832">
        <ele>1271.54126</ele>
        <time>2016-04-24T09:08:58Z</time>
      </trkpt>
      <trkpt lat="44.00615" lon="7.20838">
        <ele>1271.316406</ele>
        <time>2016-04-24T09:08:59Z</time>
      </trkpt>
      <trkpt lat="44.00614" lon="7.20851">
        <ele>1271.603149</ele>
        <time>2016-04-24T09:09:01Z</time>
      </trkpt>
      <trkpt lat="44.00608" lon="7.2087">
        <ele>1274.080933</ele>
        <time>2016-04-24T09:09:03Z</time>
      </trkpt>
      <trkpt lat="44.00604" lon="7.20888">
        <ele>1276.851685</ele>
        <time>2016-04-24T09:09:05Z</time>
      </trkpt>
      <trkpt lat="44.00601" lon="7.20905">
        <ele>1278.585449</ele>
        <time>2016-04-24T09:09:07Z</time>
      </trkpt>
      <trkpt lat="44.006" lon="7.20916">
        <ele>1279.067627</ele>
        <time>2016-04-24T09:09:09Z</time>
      </trkpt>
      <trkpt lat="44.00602" lon="7.2092">
        <ele>1278.398438</ele>
        <time>2016-04-24T09:09:11Z</time>
      </trkpt>
      <trkpt lat="44.00608" lon="7.20919">
        <ele>1276.520752</ele>
        <time>2016-04-24T09:09:12Z</time>
      </trkpt>
      <trkpt lat="44.00615" lon="7.20919">
        <ele>1273.939697</ele>
        <time>2016-04-24T09:09:13Z</time>
      </trkpt>
      <trkpt lat="44.00621" lon="7.20918">
        <ele>1271.648438</ele>
        <time>2016-04-24T09:09:14Z</time>
      </trkpt>
      <trkpt lat="44.00627" lon="7.20917">
        <ele>1269.445435</ele>
        <time>2016-04-24T09:09:15Z</time>
      </trkpt>
      <trkpt lat="44.00633" lon="7.20918">
        <ele>1267.165161</ele>
        <time>2016-04-24T09:09:16Z</time>
      </trkpt>
      <trkpt lat="44.00641" lon="7.2092">
        <ele>1263.806152</ele>
        <time>2016-04-24T09:09:17Z</time>
      </trkpt>
      <trkpt lat="44.00648" lon="7.20921">
        <ele>1260.533447</ele>
        <time>2016-04-24T09:09:18Z</time>
      </trkpt>
      <trkpt lat="44.00663" lon="7.20922">
        <ele>1253.582031</ele>
        <time>2016-04-24T09:09:20Z</time>
      </trkpt>
      <trkpt lat="44.00668" lon="7.20922">
        <ele>1251.068726</ele>
        <time>2016-04-24T09:09:21Z</time>
      </trkpt>
      <trkpt lat="44.00673" lon="7.20923">
        <ele>1249.191162</ele>
        <time>2016-04-24T09:09:22Z</time>
      </trkpt>
      <trkpt lat="44.00676" lon="7.20926">
        <ele>1248.351807</ele>
        <time>2016-04-24T09:09:23Z</time>
      </trkpt>
      <trkpt lat="44.0068" lon="7.20932">
        <ele>1247.757813</ele>
        <time>2016-04-24T09:09:24Z</time>
      </trkpt>
      <trkpt lat="44.00684" lon="7.20941">
        <ele>1247.727905</ele>
        <time>2016-04-24T09:09:25Z</time>
      </trkpt>
      <trkpt lat="44.00688" lon="7.20951">
        <ele>1247.305908</ele>
        <time>2016-04-24T09:09:26Z</time>
      </trkpt>
      <trkpt lat="44.00696" lon="7.20971">
        <ele>1244.00415</ele>
        <time>2016-04-24T09:09:28Z</time>
      </trkpt>
      <trkpt lat="44.007" lon="7.2098">
        <ele>1241.928711</ele>
        <time>2016-04-24T09:09:29Z</time>
      </trkpt>
      <trkpt lat="44.00702" lon="7.20988">
        <ele>1240.44104</ele>
        <time>2016-04-24T09:09:30Z</time>
      </trkpt>
      <trkpt lat="44.00704" lon="7.20995">
        <ele>1239.421997</ele>
        <time>2016-04-24T09:09:31Z</time>
      </trkpt>
      <trkpt lat="44.00705" lon="7.21001">
        <ele>1238.716064</ele>
        <time>2016-04-24T09:09:32Z</time>
      </trkpt>
      <trkpt lat="44.00705" lon="7.21008">
        <ele>1239.676514</ele>
        <time>2016-04-24T09:09:33Z</time>
      </trkpt>
      <trkpt lat="44.00704" lon="7.21015">
        <ele>1240.337524</ele>
        <time>2016-04-24T09:09:34Z</time>
      </trkpt>
      <trkpt lat="44.00703" lon="7.2102">
        <ele>1241.002441</ele>
        <time>2016-04-24T09:09:35Z</time>
      </trkpt>
      <trkpt lat="44.00701" lon="7.21025">
        <ele>1242.035034</ele>
        <time>2016-04-24T09:09:36Z</time>
      </trkpt>
      <trkpt lat="44.00701" lon="7.2103">
        <ele>1242.132446</ele>
        <time>2016-04-24T09:09:37Z</time>
      </trkpt>
      <trkpt lat="44.00702" lon="7.21031">
        <ele>1241.23999</ele>
        <time>2016-04-24T09:09:38Z</time>
      </trkpt>
      <trkpt lat="44.00704" lon="7.21029">
        <ele>1239.392456</ele>
        <time>2016-04-24T09:09:40Z</time>
      </trkpt>
      <trkpt lat="44.00706" lon="7.2102">
        <ele>1237.157471</ele>
        <time>2016-04-24T09:09:42Z</time>
      </trkpt>
      <trkpt lat="44.00708" lon="7.21014">
        <ele>1235.6875</ele>
        <time>2016-04-24T09:09:43Z</time>
      </trkpt>
      <trkpt lat="44.00711" lon="7.21003">
        <ele>1232.830322</ele>
        <time>2016-04-24T09:09:45Z</time>
      </trkpt>
      <trkpt lat="44.00714" lon="7.20992">
        <ele>1229.180054</ele>
        <time>2016-04-24T09:09:47Z</time>
      </trkpt>
      <trkpt lat="44.00715" lon="7.20984">
        <ele>1228.488525</ele>
        <time>2016-04-24T09:09:49Z</time>
      </trkpt>
      <trkpt lat="44.00713" lon="7.20977">
        <ele>1229.585693</ele>
        <time>2016-04-24T09:09:51Z</time>
      </trkpt>
      <trkpt lat="44.0071" lon="7.20968">
        <ele>1231.578247</ele>
        <time>2016-04-24T09:09:53Z</time>
      </trkpt>
      <trkpt lat="44.0071" lon="7.20954">
        <ele>1230.858032</ele>
        <time>2016-04-24T09:09:55Z</time>
      </trkpt>
      <trkpt lat="44.0071" lon="7.20936">
        <ele>1227.62561</ele>
        <time>2016-04-24T09:09:57Z</time>
      </trkpt>
      <trkpt lat="44.0071" lon="7.20928">
        <ele>1224.908325</ele>
        <time>2016-04-24T09:09:58Z</time>
      </trkpt>
      <trkpt lat="44.00711" lon="7.2092">
        <ele>1222.37854</ele>
        <time>2016-04-24T09:09:59Z</time>
      </trkpt>
      <trkpt lat="44.00712" lon="7.20913">
        <ele>1219.900635</ele>
        <time>2016-04-24T09:10:00Z</time>
      </trkpt>
      <trkpt lat="44.0071" lon="7.20906">
        <ele>1218.822754</ele>
        <time>2016-04-24T09:10:01Z</time>
      </trkpt>
      <trkpt lat="44.00709" lon="7.20901">
        <ele>1217.860474</ele>
        <time>2016-04-24T09:10:02Z</time>
      </trkpt>
      <trkpt lat="44.00708" lon="7.20895">
        <ele>1217.365112</ele>
        <time>2016-04-24T09:10:03Z</time>
      </trkpt>
      <trkpt lat="44.00705" lon="7.2089">
        <ele>1217.574951</ele>
        <time>2016-04-24T09:10:04Z</time>
      </trkpt>
      <trkpt lat="44.007" lon="7.2088">
        <ele>1219.928955</ele>
        <time>2016-04-24T09:10:06Z</time>
      </trkpt>
      <trkpt lat="44.00694" lon="7.20875">
        <ele>1224.210327</ele>
        <time>2016-04-24T09:10:08Z</time>
      </trkpt>
      <trkpt lat="44.0069" lon="7.20874">
        <ele>1227.077271</ele>
        <time>2016-04-24T09:10:10Z</time>
      </trkpt>
      <trkpt lat="44.00687" lon="7.20873">
        <ele>1228.889526</ele>
        <time>2016-04-24T09:10:11Z</time>
      </trkpt>
      <trkpt lat="44.00686" lon="7.20871">
        <ele>1230.306274</ele>
        <time>2016-04-24T09:10:12Z</time>
      </trkpt>
      <trkpt lat="44.00686" lon="7.20866">
        <ele>1230.915283</ele>
        <time>2016-04-24T09:10:13Z</time>
      </trkpt>
      <trkpt lat="44.00686" lon="7.20862">
        <ele>1231.630127</ele>
        <time>2016-04-24T09:10:14Z</time>
      </trkpt>
      <trkpt lat="44.00688" lon="7.20858">
        <ele>1231.599243</ele>
        <time>2016-04-24T09:10:15Z</time>
      </trkpt>
      <trkpt lat="44.0069" lon="7.20855">
        <ele>1230.717651</ele>
        <time>2016-04-24T09:10:16Z</time>
      </trkpt>
      <trkpt lat="44.00695" lon="7.20851">
        <ele>1228.555298</ele>
        <time>2016-04-24T09:10:17Z</time>
      </trkpt>
      <trkpt lat="44.00699" lon="7.20849">
        <ele>1225.944458</ele>
        <time>2016-04-24T09:10:18Z</time>
      </trkpt>
      <trkpt lat="44.00704" lon="7.20847">
        <ele>1222.896973</ele>
        <time>2016-04-24T09:10:19Z</time>
      </trkpt>
      <trkpt lat="44.0071" lon="7.20844">
        <ele>1219.658447</ele>
        <time>2016-04-24T09:10:20Z</time>
      </trkpt>
      <trkpt lat="44.00715" lon="7.2084">
        <ele>1216.887573</ele>
        <time>2016-04-24T09:10:21Z</time>
      </trkpt>
      <trkpt lat="44.00723" lon="7.20829">
        <ele>1212.67749</ele>
        <time>2016-04-24T09:10:23Z</time>
      </trkpt>
      <trkpt lat="44.0073" lon="7.20815">
        <ele>1208.122192</ele>
        <time>2016-04-24T09:10:25Z</time>
      </trkpt>
      <trkpt lat="44.00732" lon="7.20808">
        <ele>1206.14209</ele>
        <time>2016-04-24T09:10:26Z</time>
      </trkpt>
      <trkpt lat="44.00735" lon="7.20801">
        <ele>1204.658081</ele>
        <time>2016-04-24T09:10:27Z</time>
      </trkpt>
      <trkpt lat="44.00737" lon="7.20792">
        <ele>1203.326904</ele>
        <time>2016-04-24T09:10:28Z</time>
      </trkpt>
      <trkpt lat="44.0074" lon="7.20782">
        <ele>1201.97876</ele>
        <time>2016-04-24T09:10:29Z</time>
      </trkpt>
      <trkpt lat="44.00743" lon="7.20772">
        <ele>1200.731323</ele>
        <time>2016-04-24T09:10:30Z</time>
      </trkpt>
      <trkpt lat="44.00746" lon="7.20763">
        <ele>1199.955933</ele>
        <time>2016-04-24T09:10:31Z</time>
      </trkpt>
      <trkpt lat="44.00747" lon="7.20755">
        <ele>1199.082886</ele>
        <time>2016-04-24T09:10:32Z</time>
      </trkpt>
      <trkpt lat="44.00747" lon="7.20745">
        <ele>1198.823853</ele>
        <time>2016-04-24T09:10:34Z</time>
      </trkpt>
      <trkpt lat="44.00745" lon="7.20741">
        <ele>1200.270508</ele>
        <time>2016-04-24T09:10:35Z</time>
      </trkpt>
      <trkpt lat="44.00741" lon="7.20738">
        <ele>1202.147461</ele>
        <time>2016-04-24T09:10:36Z</time>
      </trkpt>
      <trkpt lat="44.00738" lon="7.20734">
        <ele>1203.810425</ele>
        <time>2016-04-24T09:10:37Z</time>
      </trkpt>
      <trkpt lat="44.00734" lon="7.2073">
        <ele>1205.504272</ele>
        <time>2016-04-24T09:10:38Z</time>
      </trkpt>
      <trkpt lat="44.00725" lon="7.20724">
        <ele>1209.297852</ele>
        <time>2016-04-24T09:10:40Z</time>
      </trkpt>
      <trkpt lat="44.00718" lon="7.20719">
        <ele>1212.153442</ele>
        <time>2016-04-24T09:10:42Z</time>
      </trkpt>
      <trkpt lat="44.00716" lon="7.20717">
        <ele>1212.845581</ele>
        <time>2016-04-24T09:10:43Z</time>
      </trkpt>
      <trkpt lat="44.00714" lon="7.20715">
        <ele>1213.341309</ele>
        <time>2016-04-24T09:10:44Z</time>
      </trkpt>
      <trkpt lat="44.00715" lon="7.20712">
        <ele>1212.677734</ele>
        <time>2016-04-24T09:10:47Z</time>
      </trkpt>
      <trkpt lat="44.00714" lon="7.20712">
        <ele>1212.884399</ele>
        <time>2016-04-24T09:10:50Z</time>
      </trkpt>
      <trkpt lat="44.00725" lon="7.20717">
        <ele>1208.198975</ele>
        <time>2016-04-24T09:10:54Z</time>
      </trkpt>
      <trkpt lat="44.00734" lon="7.2072">
        <ele>1204.466064</ele>
        <time>2016-04-24T09:10:57Z</time>
      </trkpt>
      <trkpt lat="44.00741" lon="7.20717">
        <ele>1201.09082</ele>
        <time>2016-04-24T09:10:58Z</time>
      </trkpt>
      <trkpt lat="44.00748" lon="7.20712">
        <ele>1197.779419</ele>
        <time>2016-04-24T09:11:00Z</time>
      </trkpt>
      <trkpt lat="44.00753" lon="7.20713">
        <ele>1195.86377</ele>
        <time>2016-04-24T09:11:03Z</time>
      </trkpt>
      <trkpt lat="44.00767" lon="7.2071">
        <ele>1190.671997</ele>
        <time>2016-04-24T09:11:12Z</time>
      </trkpt>
      <trkpt lat="44.00768" lon="7.20705">
        <ele>1190.405151</ele>
        <time>2016-04-24T09:11:15Z</time>
      </trkpt>
      <trkpt lat="44.0077" lon="7.20704">
        <ele>1190.100098</ele>
        <time>2016-04-24T09:11:16Z</time>
      </trkpt>
      <trkpt lat="44.00771" lon="7.20703">
        <ele>1189.913818</ele>
        <time>2016-04-24T09:11:17Z</time>
      </trkpt>
      <trkpt lat="44.00773" lon="7.20696">
        <ele>1191.863647</ele>
        <time>2016-04-24T09:11:20Z</time>
      </trkpt>
      <trkpt lat="44.00775" lon="7.20699">
        <ele>1190.122559</ele>
        <time>2016-04-24T09:11:23Z</time>
      </trkpt>
      <trkpt lat="44.00777" lon="7.20699">
        <ele>1189.223633</ele>
        <time>2016-04-24T09:11:27Z</time>
      </trkpt>
      <trkpt lat="44.0078" lon="7.20691">
        <ele>1190.484253</ele>
        <time>2016-04-24T09:11:32Z</time>
      </trkpt>
      <trkpt lat="44.00782" lon="7.20687">
        <ele>1190.823486</ele>
        <time>2016-04-24T09:11:35Z</time>
      </trkpt>
      <trkpt lat="44.00785" lon="7.20681">
        <ele>1191.058594</ele>
        <time>2016-04-24T09:11:40Z</time>
      </trkpt>
      <trkpt lat="44.00787" lon="7.20669">
        <ele>1193.992065</ele>
        <time>2016-04-24T09:11:43Z</time>
      </trkpt>
      <trkpt lat="44.00788" lon="7.20665">
        <ele>1194.99292</ele>
        <time>2016-04-24T09:11:44Z</time>
      </trkpt>
      <trkpt lat="44.0079" lon="7.20657">
        <ele>1196.478638</ele>
        <time>2016-04-24T09:11:48Z</time>
      </trkpt>
      <trkpt lat="44.0079" lon="7.2065">
        <ele>1198.320801</ele>
        <time>2016-04-24T09:11:51Z</time>
      </trkpt>
      <trkpt lat="44.00791" lon="7.20643">
        <ele>1200.385498</ele>
        <time>2016-04-24T09:11:54Z</time>
      </trkpt>
      <trkpt lat="44.00792" lon="7.20639">
        <ele>1200.587158</ele>
        <time>2016-04-24T09:11:56Z</time>
      </trkpt>
      <trkpt lat="44.00792" lon="7.20635">
        <ele>1200.588501</ele>
        <time>2016-04-24T09:11:58Z</time>
      </trkpt>
      <trkpt lat="44.00792" lon="7.20631">
        <ele>1200.919556</ele>
        <time>2016-04-24T09:12:01Z</time>
      </trkpt>
      <trkpt lat="44.00793" lon="7.20625">
        <ele>1200.938843</ele>
        <time>2016-04-24T09:12:04Z</time>
      </trkpt>
      <trkpt lat="44.00793" lon="7.20622">
        <ele>1201.307983</ele>
        <time>2016-04-24T09:12:06Z</time>
      </trkpt>
      <trkpt lat="44.00793" lon="7.20619">
        <ele>1201.959961</ele>
        <time>2016-04-24T09:12:08Z</time>
      </trkpt>
      <trkpt lat="44.00792" lon="7.20614">
        <ele>1203.526001</ele>
        <time>2016-04-24T09:12:12Z</time>
      </trkpt>
      <trkpt lat="44.00793" lon="7.20608">
        <ele>1203.46167</ele>
        <time>2016-04-24T09:12:17Z</time>
      </trkpt>
      <trkpt lat="44.00792" lon="7.20602">
        <ele>1204.899658</ele>
        <time>2016-04-24T09:12:22Z</time>
      </trkpt>
      <trkpt lat="44.00792" lon="7.20601">
        <ele>1205.310791</ele>
        <time>2016-04-24T09:12:23Z</time>
      </trkpt>
      <trkpt lat="44.00792" lon="7.20595">
        <ele>1205.989502</ele>
        <time>2016-04-24T09:12:27Z</time>
      </trkpt>
      <trkpt lat="44.00793" lon="7.20588">
        <ele>1205.918579</ele>
        <time>2016-04-24T09:12:32Z</time>
      </trkpt>
      <trkpt lat="44.0079" lon="7.20584">
        <ele>1208.69873</ele>
        <time>2016-04-24T09:12:37Z</time>
      </trkpt>
      <trkpt lat="44.00788" lon="7.20578">
        <ele>1210.726318</ele>
        <time>2016-04-24T09:12:41Z</time>
      </trkpt>
      <trkpt lat="44.00787" lon="7.20577">
        <ele>1211.238403</ele>
        <time>2016-04-24T09:12:42Z</time>
      </trkpt>
      <trkpt lat="44.00786" lon="7.20572">
        <ele>1210.83313</ele>
        <time>2016-04-24T09:12:46Z</time>
      </trkpt>
      <trkpt lat="44.00785" lon="7.2057">
        <ele>1211.91748</ele>
        <time>2016-04-24T09:12:48Z</time>
      </trkpt>
      <trkpt lat="44.00784" lon="7.20568">
        <ele>1211.807495</ele>
        <time>2016-04-24T09:12:50Z</time>
      </trkpt>
      <trkpt lat="44.00784" lon="7.20565">
        <ele>1211.289673</ele>
        <time>2016-04-24T09:12:52Z</time>
      </trkpt>
      <trkpt lat="44.00782" lon="7.2056">
        <ele>1211.889893</ele>
        <time>2016-04-24T09:12:57Z</time>
      </trkpt>
      <trkpt lat="44.0078" lon="7.20555">
        <ele>1211.795898</ele>
        <time>2016-04-24T09:13:02Z</time>
      </trkpt>
      <trkpt lat="44.00778" lon="7.2055">
        <ele>1211.618042</ele>
        <time>2016-04-24T09:13:06Z</time>
      </trkpt>
      <trkpt lat="44.00775" lon="7.20546">
        <ele>1212.852661</ele>
        <time>2016-04-24T09:13:10Z</time>
      </trkpt>
      <trkpt lat="44.00771" lon="7.20543">
        <ele>1214.69397</ele>
        <time>2016-04-24T09:13:15Z</time>
      </trkpt>
      <trkpt lat="44.00766" lon="7.20539">
        <ele>1216.878906</ele>
        <time>2016-04-24T09:13:20Z</time>
      </trkpt>
      <trkpt lat="44.00763" lon="7.20536">
        <ele>1218.486206</ele>
        <time>2016-04-24T09:13:25Z</time>
      </trkpt>
      <trkpt lat="44.00758" lon="7.20533">
        <ele>1220.924561</ele>
        <time>2016-04-24T09:13:30Z</time>
      </trkpt>
      <trkpt lat="44.00753" lon="7.20531">
        <ele>1223.482056</ele>
        <time>2016-04-24T09:13:35Z</time>
      </trkpt>
      <trkpt lat="44.00751" lon="7.2053">
        <ele>1224.640503</ele>
        <time>2016-04-24T09:13:39Z</time>
      </trkpt>
      <trkpt lat="44.0075" lon="7.20529">
        <ele>1225.150146</ele>
        <time>2016-04-24T09:13:40Z</time>
      </trkpt>
      <trkpt lat="44.00744" lon="7.20526">
        <ele>1228.060303</ele>
        <time>2016-04-24T09:13:44Z</time>
      </trkpt>
      <trkpt lat="44.00737" lon="7.20521">
        <ele>1230.835327</ele>
        <time>2016-04-24T09:13:51Z</time>
      </trkpt>
      <trkpt lat="44.00734" lon="7.20518">
        <ele>1231.564819</ele>
        <time>2016-04-24T09:13:55Z</time>
      </trkpt>
      <trkpt lat="44.0073" lon="7.20516">
        <ele>1233.440674</ele>
        <time>2016-04-24T09:14:01Z</time>
      </trkpt>
      <trkpt lat="44.00728" lon="7.20515">
        <ele>1233.925415</ele>
        <time>2016-04-24T09:14:03Z</time>
      </trkpt>
      <trkpt lat="44.00728" lon="7.20515">
        <ele>1234.378662</ele>
        <time>2016-04-24T09:14:05Z</time>
      </trkpt>
      <trkpt lat="44.00723" lon="7.20513">
        <ele>1236.294678</ele>
        <time>2016-04-24T09:14:09Z</time>
      </trkpt>
      <trkpt lat="44.00721" lon="7.20511">
        <ele>1236.911255</ele>
        <time>2016-04-24T09:14:15Z</time>
      </trkpt>
      <trkpt lat="44.00715" lon="7.20508">
        <ele>1239.768066</ele>
        <time>2016-04-24T09:14:21Z</time>
      </trkpt>
      <trkpt lat="44.00713" lon="7.20508">
        <ele>1240.272339</ele>
        <time>2016-04-24T09:14:22Z</time>
      </trkpt>
      <trkpt lat="44.00705" lon="7.20501">
        <ele>1242.872314</ele>
        <time>2016-04-24T09:14:28Z</time>
      </trkpt>
      <trkpt lat="44.00703" lon="7.20498">
        <ele>1243.263916</ele>
        <time>2016-04-24T09:14:31Z</time>
      </trkpt>
      <trkpt lat="44.00703" lon="7.20497">
        <ele>1243.238159</ele>
        <time>2016-04-24T09:14:32Z</time>
      </trkpt>
      <trkpt lat="44.007" lon="7.20495">
        <ele>1243.655151</ele>
        <time>2016-04-24T09:14:37Z</time>
      </trkpt>
      <trkpt lat="44.007" lon="7.20494">
        <ele>1243.786621</ele>
        <time>2016-04-24T09:14:39Z</time>
      </trkpt>
      <trkpt lat="44.00697" lon="7.20493">
        <ele>1244.869019</ele>
        <time>2016-04-24T09:14:42Z</time>
      </trkpt>
      <trkpt lat="44.00694" lon="7.2049">
        <ele>1246.196655</ele>
        <time>2016-04-24T09:14:45Z</time>
      </trkpt>
      <trkpt lat="44.00693" lon="7.2049">
        <ele>1246.856323</ele>
        <time>2016-04-24T09:14:46Z</time>
      </trkpt>
      <trkpt lat="44.00689" lon="7.20485">
        <ele>1248.116943</ele>
        <time>2016-04-24T09:14:51Z</time>
      </trkpt>
      <trkpt lat="44.00686" lon="7.20482">
        <ele>1249.631714</ele>
        <time>2016-04-24T09:14:55Z</time>
      </trkpt>
      <trkpt lat="44.00686" lon="7.2048">
        <ele>1249.536499</ele>
        <time>2016-04-24T09:15:00Z</time>
      </trkpt>
      <trkpt lat="44.00685" lon="7.20479">
        <ele>1249.621094</ele>
        <time>2016-04-24T09:15:03Z</time>
      </trkpt>
      <trkpt lat="44.00683" lon="7.20476">
        <ele>1250.20874</ele>
        <time>2016-04-24T09:15:08Z</time>
      </trkpt>
      <trkpt lat="44.0068" lon="7.20474">
        <ele>1251.858154</ele>
        <time>2016-04-24T09:15:12Z</time>
      </trkpt>
      <trkpt lat="44.00679" lon="7.20472">
        <ele>1252.686035</ele>
        <time>2016-04-24T09:15:14Z</time>
      </trkpt>
      <trkpt lat="44.00677" lon="7.20471">
        <ele>1253.890015</ele>
        <time>2016-04-24T09:15:16Z</time>
      </trkpt>
      <trkpt lat="44.00677" lon="7.2047">
        <ele>1253.745239</ele>
        <time>2016-04-24T09:15:17Z</time>
      </trkpt>
      <trkpt lat="44.00677" lon="7.20468">
        <ele>1253.173828</ele>
        <time>2016-04-24T09:15:19Z</time>
      </trkpt>
      <trkpt lat="44.00677" lon="7.20466">
        <ele>1252.906494</ele>
        <time>2016-04-24T09:15:21Z</time>
      </trkpt>
      <trkpt lat="44.00675" lon="7.20464">
        <ele>1253.88623</ele>
        <time>2016-04-24T09:15:23Z</time>
      </trkpt>
      <trkpt lat="44.00673" lon="7.20458">
        <ele>1254.09082</ele>
        <time>2016-04-24T09:15:26Z</time>
      </trkpt>
      <trkpt lat="44.00675" lon="7.20455">
        <ele>1251.786377</ele>
        <time>2016-04-24T09:15:28Z</time>
      </trkpt>
      <trkpt lat="44.00675" lon="7.20452">
        <ele>1251.41748</ele>
        <time>2016-04-24T09:15:30Z</time>
      </trkpt>
      <trkpt lat="44.00674" lon="7.20448">
        <ele>1250.918335</ele>
        <time>2016-04-24T09:15:32Z</time>
      </trkpt>
      <trkpt lat="44.00672" lon="7.20438">
        <ele>1252.911499</ele>
        <time>2016-04-24T09:15:38Z</time>
      </trkpt>
      <trkpt lat="44.00671" lon="7.20434">
        <ele>1253.96106</ele>
        <time>2016-04-24T09:15:43Z</time>
      </trkpt>
      <trkpt lat="44.00668" lon="7.20428">
        <ele>1256.871582</ele>
        <time>2016-04-24T09:15:47Z</time>
      </trkpt>
      <trkpt lat="44.00667" lon="7.20427">
        <ele>1257.944946</ele>
        <time>2016-04-24T09:15:48Z</time>
      </trkpt>
      <trkpt lat="44.00666" lon="7.2042">
        <ele>1259.343994</ele>
        <time>2016-04-24T09:15:53Z</time>
      </trkpt>
      <trkpt lat="44.00665" lon="7.20419">
        <ele>1259.754028</ele>
        <time>2016-04-24T09:15:54Z</time>
      </trkpt>
      <trkpt lat="44.00666" lon="7.20418">
        <ele>1259.500854</ele>
        <time>2016-04-24T09:15:55Z</time>
      </trkpt>
      <trkpt lat="44.00667" lon="7.20415">
        <ele>1258.559204</ele>
        <time>2016-04-24T09:15:58Z</time>
      </trkpt>
      <trkpt lat="44.00668" lon="7.2041">
        <ele>1258.25354</ele>
        <time>2016-04-24T09:16:03Z</time>
      </trkpt>
      <trkpt lat="44.00671" lon="7.20405">
        <ele>1256.09375</ele>
        <time>2016-04-24T09:16:07Z</time>
      </trkpt>
      <trkpt lat="44.00669" lon="7.20398">
        <ele>1257.966309</ele>
        <time>2016-04-24T09:16:13Z</time>
      </trkpt>
      <trkpt lat="44.00668" lon="7.20395">
        <ele>1258.758545</ele>
        <time>2016-04-24T09:16:16Z</time>
      </trkpt>
      <trkpt lat="44.00666" lon="7.2039">
        <ele>1261.581299</ele>
        <time>2016-04-24T09:16:20Z</time>
      </trkpt>
      <trkpt lat="44.00665" lon="7.20385">
        <ele>1262.982666</ele>
        <time>2016-04-24T09:16:23Z</time>
      </trkpt>
      <trkpt lat="44.00666" lon="7.2038">
        <ele>1262.105469</ele>
        <time>2016-04-24T09:16:27Z</time>
      </trkpt>
      <trkpt lat="44.00667" lon="7.20374">
        <ele>1260.427368</ele>
        <time>2016-04-24T09:16:31Z</time>
      </trkpt>
      <trkpt lat="44.00667" lon="7.20365">
        <ele>1258.998901</ele>
        <time>2016-04-24T09:16:36Z</time>
      </trkpt>
      <trkpt lat="44.00665" lon="7.20361">
        <ele>1260.373413</ele>
        <time>2016-04-24T09:16:39Z</time>
      </trkpt>
      <trkpt lat="44.00662" lon="7.20358">
        <ele>1262.134888</ele>
        <time>2016-04-24T09:16:41Z</time>
      </trkpt>
      <trkpt lat="44.0066" lon="7.20356">
        <ele>1263.936035</ele>
        <time>2016-04-24T09:16:43Z</time>
      </trkpt>
      <trkpt lat="44.00653" lon="7.20351">
        <ele>1268.972046</ele>
        <time>2016-04-24T09:16:47Z</time>
      </trkpt>
      <trkpt lat="44.00649" lon="7.20346">
        <ele>1271.233887</ele>
        <time>2016-04-24T09:16:51Z</time>
      </trkpt>
      <trkpt lat="44.00645" lon="7.20342">
        <ele>1273.636841</ele>
        <time>2016-04-24T09:16:55Z</time>
      </trkpt>
      <trkpt lat="44.00644" lon="7.20338">
        <ele>1273.671509</ele>
        <time>2016-04-24T09:16:57Z</time>
      </trkpt>
      <trkpt lat="44.00643" lon="7.20332">
        <ele>1273.870483</ele>
        <time>2016-04-24T09:17:01Z</time>
      </trkpt>
      <trkpt lat="44.00636" lon="7.20325">
        <ele>1277.958862</ele>
        <time>2016-04-24T09:17:05Z</time>
      </trkpt>
      <trkpt lat="44.00632" lon="7.20317">
        <ele>1278.943848</ele>
        <time>2016-04-24T09:17:10Z</time>
      </trkpt>
      <trkpt lat="44.00632" lon="7.20312">
        <ele>1280.266724</ele>
        <time>2016-04-24T09:17:14Z</time>
      </trkpt>
      <trkpt lat="44.00631" lon="7.20304">
        <ele>1282.008911</ele>
        <time>2016-04-24T09:17:18Z</time>
      </trkpt>
      <trkpt lat="44.00636" lon="7.20296">
        <ele>1280.31311</ele>
        <time>2016-04-24T09:17:23Z</time>
      </trkpt>
      <trkpt lat="44.00639" lon="7.20294">
        <ele>1278.699341</ele>
        <time>2016-04-24T09:17:29Z</time>
      </trkpt>
      <trkpt lat="44.00641" lon="7.20293">
        <ele>1277.926147</ele>
        <time>2016-04-24T09:17:33Z</time>
      </trkpt>
      <trkpt lat="44.00642" lon="7.20291">
        <ele>1277.445068</ele>
        <time>2016-04-24T09:17:38Z</time>
      </trkpt>
      <trkpt lat="44.00644" lon="7.20288">
        <ele>1277.228027</ele>
        <time>2016-04-24T09:17:41Z</time>
      </trkpt>
      <trkpt lat="44.00645" lon="7.20281">
        <ele>1277.627808</ele>
        <time>2016-04-24T09:17:44Z</time>
      </trkpt>
      <trkpt lat="44.00648" lon="7.20271">
        <ele>1278.529907</ele>
        <time>2016-04-24T09:17:50Z</time>
      </trkpt>
      <trkpt lat="44.00648" lon="7.20266">
        <ele>1279.500366</ele>
        <time>2016-04-24T09:17:54Z</time>
      </trkpt>
      <trkpt lat="44.00648" lon="7.2026">
        <ele>1280.922119</ele>
        <time>2016-04-24T09:17:58Z</time>
      </trkpt>
      <trkpt lat="44.0065" lon="7.20254">
        <ele>1281.332397</ele>
        <time>2016-04-24T09:18:02Z</time>
      </trkpt>
      <trkpt lat="44.0065" lon="7.20253">
        <ele>1281.577271</ele>
        <time>2016-04-24T09:18:03Z</time>
      </trkpt>
      <trkpt lat="44.00651" lon="7.20249">
        <ele>1281.51001</ele>
        <time>2016-04-24T09:18:06Z</time>
      </trkpt>
      <trkpt lat="44.00652" lon="7.20245">
        <ele>1281.856201</ele>
        <time>2016-04-24T09:18:08Z</time>
      </trkpt>
      <trkpt lat="44.00653" lon="7.20242">
        <ele>1281.988159</ele>
        <time>2016-04-24T09:18:10Z</time>
      </trkpt>
      <trkpt lat="44.00653" lon="7.20238">
        <ele>1282.720215</ele>
        <time>2016-04-24T09:18:13Z</time>
      </trkpt>
      <trkpt lat="44.00651" lon="7.20229">
        <ele>1285.510376</ele>
        <time>2016-04-24T09:18:19Z</time>
      </trkpt>
      <trkpt lat="44.0065" lon="7.20226">
        <ele>1287.229126</ele>
        <time>2016-04-24T09:18:23Z</time>
      </trkpt>
      <trkpt lat="44.00649" lon="7.20224">
        <ele>1288.322632</ele>
        <time>2016-04-24T09:18:27Z</time>
      </trkpt>
      <trkpt lat="44.00648" lon="7.20222">
        <ele>1289.230103</ele>
        <time>2016-04-24T09:18:29Z</time>
      </trkpt>
      <trkpt lat="44.00647" lon="7.20219">
        <ele>1290.12439</ele>
        <time>2016-04-24T09:18:32Z</time>
      </trkpt>
      <trkpt lat="44.00648" lon="7.20213">
        <ele>1290.978516</ele>
        <time>2016-04-24T09:18:37Z</time>
      </trkpt>
      <trkpt lat="44.00647" lon="7.2021">
        <ele>1292.631348</ele>
        <time>2016-04-24T09:18:41Z</time>
      </trkpt>
      <trkpt lat="44.00646" lon="7.20209">
        <ele>1293.205444</ele>
        <time>2016-04-24T09:18:42Z</time>
      </trkpt>
      <trkpt lat="44.00643" lon="7.20204">
        <ele>1296.10791</ele>
        <time>2016-04-24T09:18:47Z</time>
      </trkpt>
      <trkpt lat="44.00642" lon="7.20196">
        <ele>1298.359131</ele>
        <time>2016-04-24T09:18:52Z</time>
      </trkpt>
      <trkpt lat="44.00641" lon="7.20189">
        <ele>1300.075562</ele>
        <time>2016-04-24T09:18:57Z</time>
      </trkpt>
      <trkpt lat="44.0064" lon="7.20188">
        <ele>1300.420898</ele>
        <time>2016-04-24T09:18:58Z</time>
      </trkpt>
      <trkpt lat="44.00638" lon="7.20184">
        <ele>1302.251465</ele>
        <time>2016-04-24T09:19:04Z</time>
      </trkpt>
      <trkpt lat="44.00637" lon="7.20182">
        <ele>1302.803345</ele>
        <time>2016-04-24T09:19:07Z</time>
      </trkpt>
      <trkpt lat="44.00634" lon="7.20178">
        <ele>1304.799561</ele>
        <time>2016-04-24T09:19:12Z</time>
      </trkpt>
      <trkpt lat="44.00633" lon="7.20171">
        <ele>1305.605957</ele>
        <time>2016-04-24T09:19:17Z</time>
      </trkpt>
      <trkpt lat="44.00631" lon="7.20169">
        <ele>1306.784424</ele>
        <time>2016-04-24T09:19:19Z</time>
      </trkpt>
      <trkpt lat="44.0063" lon="7.20166">
        <ele>1307.732666</ele>
        <time>2016-04-24T09:19:22Z</time>
      </trkpt>
      <trkpt lat="44.00629" lon="7.20158">
        <ele>1308.105591</ele>
        <time>2016-04-24T09:19:27Z</time>
      </trkpt>
      <trkpt lat="44.00629" lon="7.20154">
        <ele>1308.53833</ele>
        <time>2016-04-24T09:19:29Z</time>
      </trkpt>
      <trkpt lat="44.00628" lon="7.20151">
        <ele>1309.51709</ele>
        <time>2016-04-24T09:19:32Z</time>
      </trkpt>
      <trkpt lat="44.00628" lon="7.20147">
        <ele>1309.255005</ele>
        <time>2016-04-24T09:19:35Z</time>
      </trkpt>
      <trkpt lat="44.00628" lon="7.20143">
        <ele>1309.379517</ele>
        <time>2016-04-24T09:19:38Z</time>
      </trkpt>
      <trkpt lat="44.00626" lon="7.20134">
        <ele>1311.221313</ele>
        <time>2016-04-24T09:19:44Z</time>
      </trkpt>
      <trkpt lat="44.00624" lon="7.20127">
        <ele>1312.398071</ele>
        <time>2016-04-24T09:19:49Z</time>
      </trkpt>
      <trkpt lat="44.00624" lon="7.20121">
        <ele>1312.236572</ele>
        <time>2016-04-24T09:19:54Z</time>
      </trkpt>
      <trkpt lat="44.00624" lon="7.2012">
        <ele>1312.815063</ele>
        <time>2016-04-24T09:19:55Z</time>
      </trkpt>
      <trkpt lat="44.0062" lon="7.20111">
        <ele>1315.056885</ele>
        <time>2016-04-24T09:20:01Z</time>
      </trkpt>
      <trkpt lat="44.00619" lon="7.20105">
        <ele>1315.280029</ele>
        <time>2016-04-24T09:20:06Z</time>
      </trkpt>
      <trkpt lat="44.00619" lon="7.20104">
        <ele>1314.928833</ele>
        <time>2016-04-24T09:20:07Z</time>
      </trkpt>
      <trkpt lat="44.00621" lon="7.20093">
        <ele>1313.677734</ele>
        <time>2016-04-24T09:20:13Z</time>
      </trkpt>
      <trkpt lat="44.0062" lon="7.2009">
        <ele>1314.298096</ele>
        <time>2016-04-24T09:20:16Z</time>
      </trkpt>
      <trkpt lat="44.0062" lon="7.20083">
        <ele>1313.796631</ele>
        <time>2016-04-24T09:20:20Z</time>
      </trkpt>
      <trkpt lat="44.0062" lon="7.2008">
        <ele>1313.941284</ele>
        <time>2016-04-24T09:20:22Z</time>
      </trkpt>
      <trkpt lat="44.0062" lon="7.20075">
        <ele>1313.949341</ele>
        <time>2016-04-24T09:20:24Z</time>
      </trkpt>
      <trkpt lat="44.00618" lon="7.20071">
        <ele>1314.697632</ele>
        <time>2016-04-24T09:20:26Z</time>
      </trkpt>
      <trkpt lat="44.00616" lon="7.20064">
        <ele>1315.629639</ele>
        <time>2016-04-24T09:20:30Z</time>
      </trkpt>
      <trkpt lat="44.00615" lon="7.20064">
        <ele>1315.847412</ele>
        <time>2016-04-24T09:20:31Z</time>
      </trkpt>
      <trkpt lat="44.00613" lon="7.20059">
        <ele>1316.555298</ele>
        <time>2016-04-24T09:20:34Z</time>
      </trkpt>
      <trkpt lat="44.00613" lon="7.20057">
        <ele>1316.417114</ele>
        <time>2016-04-24T09:20:36Z</time>
      </trkpt>
      <trkpt lat="44.00611" lon="7.20052">
        <ele>1317.247437</ele>
        <time>2016-04-24T09:20:41Z</time>
      </trkpt>
      <trkpt lat="44.0061" lon="7.20046">
        <ele>1316.98645</ele>
        <time>2016-04-24T09:20:45Z</time>
      </trkpt>
      <trkpt lat="44.00608" lon="7.20042">
        <ele>1317.468384</ele>
        <time>2016-04-24T09:20:49Z</time>
      </trkpt>
      <trkpt lat="44.00606" lon="7.20033">
        <ele>1317.335205</ele>
        <time>2016-04-24T09:20:57Z</time>
      </trkpt>
      <trkpt lat="44.00604" lon="7.20026">
        <ele>1317.551025</ele>
        <time>2016-04-24T09:21:00Z</time>
      </trkpt>
      <trkpt lat="44.00602" lon="7.20025">
        <ele>1317.863159</ele>
        <time>2016-04-24T09:21:01Z</time>
      </trkpt>
      <trkpt lat="44.00598" lon="7.20018">
        <ele>1318.415161</ele>
        <time>2016-04-24T09:21:05Z</time>
      </trkpt>
      <trkpt lat="44.00598" lon="7.20016">
        <ele>1318.248657</ele>
        <time>2016-04-24T09:21:06Z</time>
      </trkpt>
      <trkpt lat="44.00596" lon="7.20014">
        <ele>1318.370361</ele>
        <time>2016-04-24T09:21:08Z</time>
      </trkpt>
      <trkpt lat="44.00595" lon="7.20012">
        <ele>1318.648071</ele>
        <time>2016-04-24T09:21:10Z</time>
      </trkpt>
      <trkpt lat="44.00593" lon="7.2001">
        <ele>1318.874512</ele>
        <time>2016-04-24T09:21:12Z</time>
      </trkpt>
      <trkpt lat="44.00592" lon="7.20006">
        <ele>1318.358765</ele>
        <time>2016-04-24T09:21:14Z</time>
      </trkpt>
      <trkpt lat="44.00588" lon="7.19995">
        <ele>1317.013184</ele>
        <time>2016-04-24T09:21:18Z</time>
      </trkpt>
      <trkpt lat="44.00593" lon="7.19991">
        <ele>1314.72583</ele>
        <time>2016-04-24T09:21:20Z</time>
      </trkpt>
      <trkpt lat="44.00598" lon="7.19991">
        <ele>1313.165405</ele>
        <time>2016-04-24T09:21:22Z</time>
      </trkpt>
      <trkpt lat="44.00599" lon="7.1999">
        <ele>1312.592773</ele>
        <time>2016-04-24T09:21:23Z</time>
      </trkpt>
      <trkpt lat="44.00599" lon="7.19986">
        <ele>1311.597412</ele>
        <time>2016-04-24T09:21:24Z</time>
      </trkpt>
      <trkpt lat="44.00598" lon="7.19976">
        <ele>1309.073242</ele>
        <time>2016-04-24T09:21:26Z</time>
      </trkpt>
      <trkpt lat="44.00596" lon="7.19971">
        <ele>1308.105835</ele>
        <time>2016-04-24T09:21:27Z</time>
      </trkpt>
      <trkpt lat="44.00594" lon="7.19966">
        <ele>1307.728394</ele>
        <time>2016-04-24T09:21:28Z</time>
      </trkpt>
      <trkpt lat="44.00591" lon="7.19961">
        <ele>1307.107422</ele>
        <time>2016-04-24T09:21:29Z</time>
      </trkpt>
      <trkpt lat="44.00589" lon="7.19957">
        <ele>1306.397217</ele>
        <time>2016-04-24T09:21:30Z</time>
      </trkpt>
      <trkpt lat="44.00586" lon="7.19952">
        <ele>1305.758545</ele>
        <time>2016-04-24T09:21:31Z</time>
      </trkpt>
      <trkpt lat="44.00583" lon="7.19946">
        <ele>1304.823364</ele>
        <time>2016-04-24T09:21:32Z</time>
      </trkpt>
      <trkpt lat="44.00583" lon="7.19942">
        <ele>1303.717163</ele>
        <time>2016-04-24T09:21:33Z</time>
      </trkpt>
      <trkpt lat="44.00584" lon="7.1994">
        <ele>1303.037598</ele>
        <time>2016-04-24T09:21:34Z</time>
      </trkpt>
      <trkpt lat="44.00584" lon="7.19938">
        <ele>1302.315063</ele>
        <time>2016-04-24T09:21:35Z</time>
      </trkpt>
      <trkpt lat="44.00578" lon="7.19933">
        <ele>1302.124634</ele>
        <time>2016-04-24T09:21:37Z</time>
      </trkpt>
      <trkpt lat="44.00576" lon="7.19931">
        <ele>1301.741699</ele>
        <time>2016-04-24T09:21:38Z</time>
      </trkpt>
      <trkpt lat="44.00575" lon="7.19928">
        <ele>1301.082886</ele>
        <time>2016-04-24T09:21:39Z</time>
      </trkpt>
      <trkpt lat="44.00579" lon="7.19924">
        <ele>1298.790161</ele>
        <time>2016-04-24T09:21:41Z</time>
      </trkpt>
      <trkpt lat="44.00583" lon="7.19921">
        <ele>1296.841187</ele>
        <time>2016-04-24T09:21:42Z</time>
      </trkpt>
      <trkpt lat="44.00588" lon="7.19917">
        <ele>1294.202271</ele>
        <time>2016-04-24T09:21:43Z</time>
      </trkpt>
      <trkpt lat="44.00593" lon="7.19914">
        <ele>1291.938599</ele>
        <time>2016-04-24T09:21:44Z</time>
      </trkpt>
      <trkpt lat="44.00598" lon="7.19912">
        <ele>1289.689209</ele>
        <time>2016-04-24T09:21:45Z</time>
      </trkpt>
      <trkpt lat="44.00604" lon="7.19911">
        <ele>1287.704224</ele>
        <time>2016-04-24T09:21:46Z</time>
      </trkpt>
      <trkpt lat="44.00609" lon="7.19911">
        <ele>1286.191406</ele>
        <time>2016-04-24T09:21:47Z</time>
      </trkpt>
      <trkpt lat="44.00613" lon="7.19911">
        <ele>1285.171631</ele>
        <time>2016-04-24T09:21:48Z</time>
      </trkpt>
      <trkpt lat="44.00617" lon="7.1991">
        <ele>1283.88916</ele>
        <time>2016-04-24T09:21:49Z</time>
      </trkpt>
      <trkpt lat="44.0062" lon="7.1991">
        <ele>1283.026855</ele>
        <time>2016-04-24T09:21:50Z</time>
      </trkpt>
      <trkpt lat="44.00623" lon="7.1991">
        <ele>1282.376953</ele>
        <time>2016-04-24T09:21:51Z</time>
      </trkpt>
      <trkpt lat="44.00626" lon="7.1991">
        <ele>1281.40686</ele>
        <time>2016-04-24T09:21:52Z</time>
      </trkpt>
      <trkpt lat="44.00629" lon="7.19909">
        <ele>1280.099609</ele>
        <time>2016-04-24T09:21:53Z</time>
      </trkpt>
      <trkpt lat="44.00632" lon="7.19908">
        <ele>1278.655151</ele>
        <time>2016-04-24T09:21:54Z</time>
      </trkpt>
      <trkpt lat="44.00635" lon="7.19906">
        <ele>1277.208496</ele>
        <time>2016-04-24T09:21:55Z</time>
      </trkpt>
      <trkpt lat="44.00637" lon="7.19905">
        <ele>1276.353027</ele>
        <time>2016-04-24T09:21:56Z</time>
      </trkpt>
      <trkpt lat="44.00637" lon="7.19903">
        <ele>1275.672607</ele>
        <time>2016-04-24T09:21:57Z</time>
      </trkpt>
      <trkpt lat="44.00633" lon="7.19895">
        <ele>1273.72583</ele>
        <time>2016-04-24T09:21:59Z</time>
      </trkpt>
      <trkpt lat="44.0063" lon="7.19889">
        <ele>1272.359863</ele>
        <time>2016-04-24T09:22:00Z</time>
      </trkpt>
      <trkpt lat="44.00627" lon="7.19883">
        <ele>1271.132813</ele>
        <time>2016-04-24T09:22:01Z</time>
      </trkpt>
      <trkpt lat="44.00624" lon="7.19877">
        <ele>1269.64856</ele>
        <time>2016-04-24T09:22:02Z</time>
      </trkpt>
      <trkpt lat="44.00621" lon="7.19869">
        <ele>1267.918335</ele>
        <time>2016-04-24T09:22:03Z</time>
      </trkpt>
      <trkpt lat="44.00619" lon="7.19861">
        <ele>1265.939331</ele>
        <time>2016-04-24T09:22:04Z</time>
      </trkpt>
      <trkpt lat="44.00617" lon="7.19854">
        <ele>1264.095825</ele>
        <time>2016-04-24T09:22:05Z</time>
      </trkpt>
      <trkpt lat="44.00614" lon="7.19847">
        <ele>1262.912476</ele>
        <time>2016-04-24T09:22:06Z</time>
      </trkpt>
      <trkpt lat="44.00612" lon="7.19841">
        <ele>1261.594482</ele>
        <time>2016-04-24T09:22:07Z</time>
      </trkpt>
      <trkpt lat="44.00611" lon="7.19836">
        <ele>1260.118652</ele>
        <time>2016-04-24T09:22:08Z</time>
      </trkpt>
      <trkpt lat="44.00608" lon="7.1983">
        <ele>1259.265381</ele>
        <time>2016-04-24T09:22:09Z</time>
      </trkpt>
      <trkpt lat="44.00606" lon="7.19825">
        <ele>1258.174316</ele>
        <time>2016-04-24T09:22:10Z</time>
      </trkpt>
      <trkpt lat="44.00604" lon="7.1982">
        <ele>1257.324097</ele>
        <time>2016-04-24T09:22:11Z</time>
      </trkpt>
      <trkpt lat="44.00603" lon="7.19816">
        <ele>1256.70874</ele>
        <time>2016-04-24T09:22:12Z</time>
      </trkpt>
      <trkpt lat="44.00602" lon="7.19814">
        <ele>1256.138428</ele>
        <time>2016-04-24T09:22:13Z</time>
      </trkpt>
      <trkpt lat="44.00603" lon="7.19813">
        <ele>1255.358154</ele>
        <time>2016-04-24T09:22:14Z</time>
      </trkpt>
      <trkpt lat="44.00604" lon="7.1981">
        <ele>1254.283691</ele>
        <time>2016-04-24T09:22:15Z</time>
      </trkpt>
      <trkpt lat="44.00604" lon="7.19808">
        <ele>1253.358765</ele>
        <time>2016-04-24T09:22:16Z</time>
      </trkpt>
      <trkpt lat="44.00605" lon="7.19806">
        <ele>1252.704834</ele>
        <time>2016-04-24T09:22:17Z</time>
      </trkpt>
      <trkpt lat="44.00607" lon="7.19806">
        <ele>1251.889282</ele>
        <time>2016-04-24T09:22:18Z</time>
      </trkpt>
      <trkpt lat="44.0061" lon="7.19805">
        <ele>1250.60437</ele>
        <time>2016-04-24T09:22:19Z</time>
      </trkpt>
      <trkpt lat="44.00618" lon="7.19804">
        <ele>1247.499146</ele>
        <time>2016-04-24T09:22:21Z</time>
      </trkpt>
      <trkpt lat="44.0062" lon="7.19801">
        <ele>1246.09729</ele>
        <time>2016-04-24T09:22:22Z</time>
      </trkpt>
      <trkpt lat="44.00619" lon="7.19797">
        <ele>1245.046265</ele>
        <time>2016-04-24T09:22:23Z</time>
      </trkpt>
      <trkpt lat="44.00618" lon="7.19793">
        <ele>1244.236328</ele>
        <time>2016-04-24T09:22:24Z</time>
      </trkpt>
      <trkpt lat="44.00618" lon="7.19789">
        <ele>1243.082886</ele>
        <time>2016-04-24T09:22:25Z</time>
      </trkpt>
      <trkpt lat="44.00619" lon="7.19785">
        <ele>1241.56604</ele>
        <time>2016-04-24T09:22:26Z</time>
      </trkpt>
      <trkpt lat="44.00621" lon="7.19782">
        <ele>1239.66748</ele>
        <time>2016-04-24T09:22:27Z</time>
      </trkpt>
      <trkpt lat="44.00626" lon="7.19778">
        <ele>1237.102539</ele>
        <time>2016-04-24T09:22:28Z</time>
      </trkpt>
      <trkpt lat="44.00629" lon="7.19774">
        <ele>1234.548706</ele>
        <time>2016-04-24T09:22:29Z</time>
      </trkpt>
      <trkpt lat="44.00633" lon="7.19769">
        <ele>1232.100952</ele>
        <time>2016-04-24T09:22:30Z</time>
      </trkpt>
      <trkpt lat="44.00635" lon="7.19766">
        <ele>1230.376587</ele>
        <time>2016-04-24T09:22:31Z</time>
      </trkpt>
      <trkpt lat="44.00637" lon="7.19766">
        <ele>1229.786133</ele>
        <time>2016-04-24T09:22:32Z</time>
      </trkpt>
      <trkpt lat="44.00638" lon="7.19769">
        <ele>1230.191772</ele>
        <time>2016-04-24T09:22:33Z</time>
      </trkpt>
      <trkpt lat="44.00641" lon="7.19777">
        <ele>1231.083008</ele>
        <time>2016-04-24T09:22:35Z</time>
      </trkpt>
      <trkpt lat="44.00642" lon="7.19779">
        <ele>1231.219238</ele>
        <time>2016-04-24T09:22:36Z</time>
      </trkpt>
      <trkpt lat="44.00644" lon="7.19779">
        <ele>1230.599609</ele>
        <time>2016-04-24T09:22:37Z</time>
      </trkpt>
      <trkpt lat="44.00647" lon="7.19775">
        <ele>1228.159912</ele>
        <time>2016-04-24T09:22:39Z</time>
      </trkpt>
      <trkpt lat="44.0065" lon="7.19772">
        <ele>1226.074097</ele>
        <time>2016-04-24T09:22:41Z</time>
      </trkpt>
      <trkpt lat="44.00652" lon="7.19774">
        <ele>1225.445068</ele>
        <time>2016-04-24T09:22:43Z</time>
      </trkpt>
      <trkpt lat="44.00654" lon="7.19778">
        <ele>1225.881592</ele>
        <time>2016-04-24T09:22:45Z</time>
      </trkpt>
      <trkpt lat="44.00656" lon="7.19784">
        <ele>1226.822021</ele>
        <time>2016-04-24T09:22:47Z</time>
      </trkpt>
      <trkpt lat="44.00657" lon="7.19787">
        <ele>1226.849976</ele>
        <time>2016-04-24T09:22:48Z</time>
      </trkpt>
      <trkpt lat="44.0066" lon="7.19791">
        <ele>1226.827881</ele>
        <time>2016-04-24T09:22:50Z</time>
      </trkpt>
      <trkpt lat="44.00662" lon="7.19796">
        <ele>1227.423706</ele>
        <time>2016-04-24T09:22:52Z</time>
      </trkpt>
      <trkpt lat="44.00662" lon="7.198">
        <ele>1228.409912</ele>
        <time>2016-04-24T09:22:54Z</time>
      </trkpt>
      <trkpt lat="44.00665" lon="7.19806">
        <ele>1228.662109</ele>
        <time>2016-04-24T09:22:57Z</time>
      </trkpt>
      <trkpt lat="44.0067" lon="7.1981">
        <ele>1227.831421</ele>
        <time>2016-04-24T09:22:59Z</time>
      </trkpt>
      <trkpt lat="44.0068" lon="7.19816">
        <ele>1225.242554</ele>
        <time>2016-04-24T09:23:02Z</time>
      </trkpt>
      <trkpt lat="44.00684" lon="7.19818">
        <ele>1224.123413</ele>
        <time>2016-04-24T09:23:04Z</time>
      </trkpt>
      <trkpt lat="44.00688" lon="7.1982">
        <ele>1223.810059</ele>
        <time>2016-04-24T09:23:06Z</time>
      </trkpt>
      <trkpt lat="44.00708" lon="7.19823">
        <ele>1219.227417</ele>
        <time>2016-04-24T09:23:13Z</time>
      </trkpt>
      <trkpt lat="44.00729" lon="7.19824">
        <ele>1213.984741</ele>
        <time>2016-04-24T09:23:18Z</time>
      </trkpt>
      <trkpt lat="44.00737" lon="7.19824">
        <ele>1212.633057</ele>
        <time>2016-04-24T09:23:20Z</time>
      </trkpt>
      <trkpt lat="44.00748" lon="7.19828">
        <ele>1212.412354</ele>
        <time>2016-04-24T09:23:22Z</time>
      </trkpt>
      <trkpt lat="44.00754" lon="7.19831">
        <ele>1212.548096</ele>
        <time>2016-04-24T09:23:23Z</time>
      </trkpt>
      <trkpt lat="44.00765" lon="7.19832">
        <ele>1211.382202</ele>
        <time>2016-04-24T09:23:25Z</time>
      </trkpt>
      <trkpt lat="44.00775" lon="7.19833">
        <ele>1209.63562</ele>
        <time>2016-04-24T09:23:27Z</time>
      </trkpt>
      <trkpt lat="44.0078" lon="7.19834">
        <ele>1208.882935</ele>
        <time>2016-04-24T09:23:28Z</time>
      </trkpt>
      <trkpt lat="44.0079" lon="7.19836">
        <ele>1207.002441</ele>
        <time>2016-04-24T09:23:30Z</time>
      </trkpt>
      <trkpt lat="44.00798" lon="7.19838">
        <ele>1205.30835</ele>
        <time>2016-04-24T09:23:32Z</time>
      </trkpt>
      <trkpt lat="44.00804" lon="7.19841">
        <ele>1204.629761</ele>
        <time>2016-04-24T09:23:34Z</time>
      </trkpt>
      <trkpt lat="44.00809" lon="7.19844">
        <ele>1203.979492</ele>
        <time>2016-04-24T09:23:36Z</time>
      </trkpt>
      <trkpt lat="44.00814" lon="7.19844">
        <ele>1202.341309</ele>
        <time>2016-04-24T09:23:38Z</time>
      </trkpt>
      <trkpt lat="44.00819" lon="7.19847">
        <ele>1200.573486</ele>
        <time>2016-04-24T09:23:40Z</time>
      </trkpt>
      <trkpt lat="44.00823" lon="7.19849">
        <ele>1198.457886</ele>
        <time>2016-04-24T09:23:42Z</time>
      </trkpt>
      <trkpt lat="44.00824" lon="7.19847">
        <ele>1197.766479</ele>
        <time>2016-04-24T09:23:43Z</time>
      </trkpt>
      <trkpt lat="44.00825" lon="7.19845">
        <ele>1197.044434</ele>
        <time>2016-04-24T09:23:44Z</time>
      </trkpt>
      <trkpt lat="44.00826" lon="7.19844">
        <ele>1196.269043</ele>
        <time>2016-04-24T09:23:45Z</time>
      </trkpt>
      <trkpt lat="44.00828" lon="7.19844">
        <ele>1195.268433</ele>
        <time>2016-04-24T09:23:46Z</time>
      </trkpt>
      <trkpt lat="44.0083" lon="7.19845">
        <ele>1194.16748</ele>
        <time>2016-04-24T09:23:47Z</time>
      </trkpt>
      <trkpt lat="44.00832" lon="7.19847">
        <ele>1193.54248</ele>
        <time>2016-04-24T09:23:48Z</time>
      </trkpt>
      <trkpt lat="44.00834" lon="7.19851">
        <ele>1192.577148</ele>
        <time>2016-04-24T09:23:49Z</time>
      </trkpt>
      <trkpt lat="44.00835" lon="7.19856">
        <ele>1192.101563</ele>
        <time>2016-04-24T09:23:50Z</time>
      </trkpt>
      <trkpt lat="44.00838" lon="7.1986">
        <ele>1190.997559</ele>
        <time>2016-04-24T09:23:51Z</time>
      </trkpt>
      <trkpt lat="44.00839" lon="7.19865">
        <ele>1190.198486</ele>
        <time>2016-04-24T09:23:52Z</time>
      </trkpt>
      <trkpt lat="44.00841" lon="7.19871">
        <ele>1189.619873</ele>
        <time>2016-04-24T09:23:53Z</time>
      </trkpt>
      <trkpt lat="44.00841" lon="7.19876">
        <ele>1189.301147</ele>
        <time>2016-04-24T09:23:54Z</time>
      </trkpt>
      <trkpt lat="44.00842" lon="7.1988">
        <ele>1188.674805</ele>
        <time>2016-04-24T09:23:55Z</time>
      </trkpt>
      <trkpt lat="44.00844" lon="7.19884">
        <ele>1187.169922</ele>
        <time>2016-04-24T09:23:57Z</time>
      </trkpt>
      <trkpt lat="44.00845" lon="7.19883">
        <ele>1186.650391</ele>
        <time>2016-04-24T09:23:58Z</time>
      </trkpt>
      <trkpt lat="44.00846" lon="7.1988">
        <ele>1185.86731</ele>
        <time>2016-04-24T09:23:59Z</time>
      </trkpt>
      <trkpt lat="44.00849" lon="7.19873">
        <ele>1184.190552</ele>
        <time>2016-04-24T09:24:01Z</time>
      </trkpt>
      <trkpt lat="44.00852" lon="7.19862">
        <ele>1182.258545</ele>
        <time>2016-04-24T09:24:03Z</time>
      </trkpt>
      <trkpt lat="44.0086" lon="7.19847">
        <ele>1178.78418</ele>
        <time>2016-04-24T09:24:05Z</time>
      </trkpt>
      <trkpt lat="44.00863" lon="7.19841">
        <ele>1176.613647</ele>
        <time>2016-04-24T09:24:06Z</time>
      </trkpt>
      <trkpt lat="44.00867" lon="7.19835">
        <ele>1174.29834</ele>
        <time>2016-04-24T09:24:07Z</time>
      </trkpt>
      <trkpt lat="44.00871" lon="7.1983">
        <ele>1171.266968</ele>
        <time>2016-04-24T09:24:08Z</time>
      </trkpt>
      <trkpt lat="44.00875" lon="7.19824">
        <ele>1168.318481</ele>
        <time>2016-04-24T09:24:09Z</time>
      </trkpt>
      <trkpt lat="44.0088" lon="7.19818">
        <ele>1165.28418</ele>
        <time>2016-04-24T09:24:10Z</time>
      </trkpt>
      <trkpt lat="44.00884" lon="7.1981">
        <ele>1162.532471</ele>
        <time>2016-04-24T09:24:11Z</time>
      </trkpt>
      <trkpt lat="44.00887" lon="7.19803">
        <ele>1160.44519</ele>
        <time>2016-04-24T09:24:12Z</time>
      </trkpt>
      <trkpt lat="44.00889" lon="7.19796">
        <ele>1159.459106</ele>
        <time>2016-04-24T09:24:13Z</time>
      </trkpt>
      <trkpt lat="44.00891" lon="7.19788">
        <ele>1158.499512</ele>
        <time>2016-04-24T09:24:14Z</time>
      </trkpt>
      <trkpt lat="44.00892" lon="7.19779">
        <ele>1157.903687</ele>
        <time>2016-04-24T09:24:15Z</time>
      </trkpt>
      <trkpt lat="44.00893" lon="7.19772">
        <ele>1156.592773</ele>
        <time>2016-04-24T09:24:16Z</time>
      </trkpt>
      <trkpt lat="44.00892" lon="7.19768">
        <ele>1155.793091</ele>
        <time>2016-04-24T09:24:17Z</time>
      </trkpt>
      <trkpt lat="44.00893" lon="7.19764">
        <ele>1154.900024</ele>
        <time>2016-04-24T09:24:18Z</time>
      </trkpt>
      <trkpt lat="44.00895" lon="7.19763">
        <ele>1153.906494</ele>
        <time>2016-04-24T09:24:19Z</time>
      </trkpt>
      <trkpt lat="44.00898" lon="7.19764">
        <ele>1152.914185</ele>
        <time>2016-04-24T09:24:20Z</time>
      </trkpt>
      <trkpt lat="44.009" lon="7.19765">
        <ele>1152.293579</ele>
        <time>2016-04-24T09:24:21Z</time>
      </trkpt>
      <trkpt lat="44.00903" lon="7.19769">
        <ele>1151.77356</ele>
        <time>2016-04-24T09:24:22Z</time>
      </trkpt>
      <trkpt lat="44.00906" lon="7.19775">
        <ele>1151.492676</ele>
        <time>2016-04-24T09:24:23Z</time>
      </trkpt>
      <trkpt lat="44.00907" lon="7.1978">
        <ele>1151.241455</ele>
        <time>2016-04-24T09:24:24Z</time>
      </trkpt>
      <trkpt lat="44.00909" lon="7.19784">
        <ele>1150.251831</ele>
        <time>2016-04-24T09:24:25Z</time>
      </trkpt>
      <trkpt lat="44.0091" lon="7.19786">
        <ele>1149.481812</ele>
        <time>2016-04-24T09:24:26Z</time>
      </trkpt>
      <trkpt lat="44.00914" lon="7.19783">
        <ele>1147.0979</ele>
        <time>2016-04-24T09:24:28Z</time>
      </trkpt>
      <trkpt lat="44.0092" lon="7.19776">
        <ele>1143.073486</ele>
        <time>2016-04-24T09:24:31Z</time>
      </trkpt>
      <trkpt lat="44.00923" lon="7.19778">
        <ele>1141.525879</ele>
        <time>2016-04-24T09:24:33Z</time>
      </trkpt>
      <trkpt lat="44.00924" lon="7.19779">
        <ele>1141.09729</ele>
        <time>2016-04-24T09:24:35Z</time>
      </trkpt>
      <trkpt lat="44.00925" lon="7.19777">
        <ele>1140.372559</ele>
        <time>2016-04-24T09:24:37Z</time>
      </trkpt>
      <trkpt lat="44.00924" lon="7.19773">
        <ele>1140.435913</ele>
        <time>2016-04-24T09:24:38Z</time>
      </trkpt>
      <trkpt lat="44.00924" lon="7.19765">
        <ele>1139.554077</ele>
        <time>2016-04-24T09:24:40Z</time>
      </trkpt>
      <trkpt lat="44.00926" lon="7.19762">
        <ele>1138.505615</ele>
        <time>2016-04-24T09:24:41Z</time>
      </trkpt>
      <trkpt lat="44.00927" lon="7.19761">
        <ele>1137.570435</ele>
        <time>2016-04-24T09:24:42Z</time>
      </trkpt>
      <trkpt lat="44.0093" lon="7.19759">
        <ele>1135.592407</ele>
        <time>2016-04-24T09:24:43Z</time>
      </trkpt>
      <trkpt lat="44.00931" lon="7.19758">
        <ele>1134.997437</ele>
        <time>2016-04-24T09:24:44Z</time>
      </trkpt>
      <trkpt lat="44.00932" lon="7.19753">
        <ele>1134.061523</ele>
        <time>2016-04-24T09:24:46Z</time>
      </trkpt>
      <trkpt lat="44.00933" lon="7.19742">
        <ele>1133.064331</ele>
        <time>2016-04-24T09:24:48Z</time>
      </trkpt>
      <trkpt lat="44.00933" lon="7.19731">
        <ele>1132.234863</ele>
        <time>2016-04-24T09:24:50Z</time>
      </trkpt>
      <trkpt lat="44.00934" lon="7.19719">
        <ele>1131.317139</ele>
        <time>2016-04-24T09:24:52Z</time>
      </trkpt>
      <trkpt lat="44.00932" lon="7.19713">
        <ele>1130.191772</ele>
        <time>2016-04-24T09:24:53Z</time>
      </trkpt>
      <trkpt lat="44.00931" lon="7.19709">
        <ele>1129.084473</ele>
        <time>2016-04-24T09:24:54Z</time>
      </trkpt>
      <trkpt lat="44.00931" lon="7.19705">
        <ele>1128.061157</ele>
        <time>2016-04-24T09:24:55Z</time>
      </trkpt>
      <trkpt lat="44.0093" lon="7.19702">
        <ele>1127.190186</ele>
        <time>2016-04-24T09:24:56Z</time>
      </trkpt>
      <trkpt lat="44.00929" lon="7.19698">
        <ele>1126.384155</ele>
        <time>2016-04-24T09:24:57Z</time>
      </trkpt>
      <trkpt lat="44.00926" lon="7.19692">
        <ele>1125.646729</ele>
        <time>2016-04-24T09:24:59Z</time>
      </trkpt>
      <trkpt lat="44.00924" lon="7.19682">
        <ele>1122.945068</ele>
        <time>2016-04-24T09:25:01Z</time>
      </trkpt>
      <trkpt lat="44.00923" lon="7.19676">
        <ele>1121.26355</ele>
        <time>2016-04-24T09:25:02Z</time>
      </trkpt>
      <trkpt lat="44.00922" lon="7.1967">
        <ele>1119.907959</ele>
        <time>2016-04-24T09:25:03Z</time>
      </trkpt>
      <trkpt lat="44.00922" lon="7.19665">
        <ele>1118.005005</ele>
        <time>2016-04-24T09:25:04Z</time>
      </trkpt>
      <trkpt lat="44.00923" lon="7.1966">
        <ele>1115.81665</ele>
        <time>2016-04-24T09:25:05Z</time>
      </trkpt>
      <trkpt lat="44.00923" lon="7.19654">
        <ele>1113.588745</ele>
        <time>2016-04-24T09:25:06Z</time>
      </trkpt>
      <trkpt lat="44.00922" lon="7.19648">
        <ele>1111.44458</ele>
        <time>2016-04-24T09:25:07Z</time>
      </trkpt>
      <trkpt lat="44.00919" lon="7.19642">
        <ele>1110.270508</ele>
        <time>2016-04-24T09:25:08Z</time>
      </trkpt>
      <trkpt lat="44.00915" lon="7.19637">
        <ele>1109.105225</ele>
        <time>2016-04-24T09:25:09Z</time>
      </trkpt>
      <trkpt lat="44.00912" lon="7.19633">
        <ele>1107.900879</ele>
        <time>2016-04-24T09:25:10Z</time>
      </trkpt>
      <trkpt lat="44.00911" lon="7.1963">
        <ele>1106.824341</ele>
        <time>2016-04-24T09:25:11Z</time>
      </trkpt>
      <trkpt lat="44.00909" lon="7.19627">
        <ele>1105.183838</ele>
        <time>2016-04-24T09:25:12Z</time>
      </trkpt>
      <trkpt lat="44.00909" lon="7.19625">
        <ele>1104.313477</ele>
        <time>2016-04-24T09:25:13Z</time>
      </trkpt>
      <trkpt lat="44.0091" lon="7.19624">
        <ele>1103.689087</ele>
        <time>2016-04-24T09:25:14Z</time>
      </trkpt>
      <trkpt lat="44.00913" lon="7.19621">
        <ele>1101.221558</ele>
        <time>2016-04-24T09:25:16Z</time>
      </trkpt>
      <trkpt lat="44.00916" lon="7.1962">
        <ele>1099.595947</ele>
        <time>2016-04-24T09:25:17Z</time>
      </trkpt>
      <trkpt lat="44.0092" lon="7.19619">
        <ele>1097.11853</ele>
        <time>2016-04-24T09:25:18Z</time>
      </trkpt>
      <trkpt lat="44.00925" lon="7.19618">
        <ele>1094.479858</ele>
        <time>2016-04-24T09:25:19Z</time>
      </trkpt>
      <trkpt lat="44.00933" lon="7.19615">
        <ele>1089.42627</ele>
        <time>2016-04-24T09:25:21Z</time>
      </trkpt>
      <trkpt lat="44.00936" lon="7.19614">
        <ele>1087.623169</ele>
        <time>2016-04-24T09:25:22Z</time>
      </trkpt>
      <trkpt lat="44.00937" lon="7.19612">
        <ele>1085.949219</ele>
        <time>2016-04-24T09:25:23Z</time>
      </trkpt>
      <trkpt lat="44.00938" lon="7.1961">
        <ele>1084.459473</ele>
        <time>2016-04-24T09:25:24Z</time>
      </trkpt>
      <trkpt lat="44.00937" lon="7.19607">
        <ele>1083.732178</ele>
        <time>2016-04-24T09:25:25Z</time>
      </trkpt>
      <trkpt lat="44.00935" lon="7.19605">
        <ele>1083.677856</ele>
        <time>2016-04-24T09:25:26Z</time>
      </trkpt>
      <trkpt lat="44.00928" lon="7.19598">
        <ele>1083.128296</ele>
        <time>2016-04-24T09:25:28Z</time>
      </trkpt>
      <trkpt lat="44.00918" lon="7.19589">
        <ele>1082.805298</ele>
        <time>2016-04-24T09:25:30Z</time>
      </trkpt>
      <trkpt lat="44.00913" lon="7.19582">
        <ele>1082.063721</ele>
        <time>2016-04-24T09:25:31Z</time>
      </trkpt>
      <trkpt lat="44.00907" lon="7.19575">
        <ele>1081.002808</ele>
        <time>2016-04-24T09:25:32Z</time>
      </trkpt>
      <trkpt lat="44.00903" lon="7.19569">
        <ele>1079.774536</ele>
        <time>2016-04-24T09:25:33Z</time>
      </trkpt>
      <trkpt lat="44.00899" lon="7.19565">
        <ele>1079.166016</ele>
        <time>2016-04-24T09:25:34Z</time>
      </trkpt>
      <trkpt lat="44.00896" lon="7.19561">
        <ele>1078.358276</ele>
        <time>2016-04-24T09:25:35Z</time>
      </trkpt>
      <trkpt lat="44.00895" lon="7.19558">
        <ele>1077.50061</ele>
        <time>2016-04-24T09:25:36Z</time>
      </trkpt>
      <trkpt lat="44.00895" lon="7.19557">
        <ele>1076.915527</ele>
        <time>2016-04-24T09:25:37Z</time>
      </trkpt>
      <trkpt lat="44.00896" lon="7.19556">
        <ele>1076.260254</ele>
        <time>2016-04-24T09:25:38Z</time>
      </trkpt>
      <trkpt lat="44.00901" lon="7.19557">
        <ele>1075.6073</ele>
        <time>2016-04-24T09:25:40Z</time>
      </trkpt>
      <trkpt lat="44.00906" lon="7.19558">
        <ele>1074.766479</ele>
        <time>2016-04-24T09:25:42Z</time>
      </trkpt>
      <trkpt lat="44.0091" lon="7.19558">
        <ele>1073.314941</ele>
        <time>2016-04-24T09:25:44Z</time>
      </trkpt>
      <trkpt lat="44.00912" lon="7.19557">
        <ele>1072.582397</ele>
        <time>2016-04-24T09:25:45Z</time>
      </trkpt>
      <trkpt lat="44.00913" lon="7.19556">
        <ele>1071.850464</ele>
        <time>2016-04-24T09:25:46Z</time>
      </trkpt>
      <trkpt lat="44.00913" lon="7.19554">
        <ele>1071.153809</ele>
        <time>2016-04-24T09:25:48Z</time>
      </trkpt>
      <trkpt lat="44.00911" lon="7.19548">
        <ele>1069.425415</ele>
        <time>2016-04-24T09:25:50Z</time>
      </trkpt>
      <trkpt lat="44.0091" lon="7.19545">
        <ele>1068.475098</ele>
        <time>2016-04-24T09:25:51Z</time>
      </trkpt>
      <trkpt lat="44.00909" lon="7.19542">
        <ele>1067.496216</ele>
        <time>2016-04-24T09:25:52Z</time>
      </trkpt>
      <trkpt lat="44.00906" lon="7.19536">
        <ele>1065.966431</ele>
        <time>2016-04-24T09:25:54Z</time>
      </trkpt>
      <trkpt lat="44.00901" lon="7.19532">
        <ele>1065.657593</ele>
        <time>2016-04-24T09:25:56Z</time>
      </trkpt>
      <trkpt lat="44.00897" lon="7.19528">
        <ele>1065.127441</ele>
        <time>2016-04-24T09:25:58Z</time>
      </trkpt>
      <trkpt lat="44.00895" lon="7.19524">
        <ele>1064.047607</ele>
        <time>2016-04-24T09:25:59Z</time>
      </trkpt>
      <trkpt lat="44.00895" lon="7.19521">
        <ele>1062.801514</ele>
        <time>2016-04-24T09:26:00Z</time>
      </trkpt>
      <trkpt lat="44.00895" lon="7.19518">
        <ele>1061.521362</ele>
        <time>2016-04-24T09:26:01Z</time>
      </trkpt>
      <trkpt lat="44.00896" lon="7.19516">
        <ele>1060.324219</ele>
        <time>2016-04-24T09:26:02Z</time>
      </trkpt>
      <trkpt lat="44.00903" lon="7.19513">
        <ele>1057.224976</ele>
        <time>2016-04-24T09:26:04Z</time>
      </trkpt>
      <trkpt lat="44.0091" lon="7.19512">
        <ele>1054.588013</ele>
        <time>2016-04-24T09:26:06Z</time>
      </trkpt>
      <trkpt lat="44.00914" lon="7.19513">
        <ele>1054.046265</ele>
        <time>2016-04-24T09:26:07Z</time>
      </trkpt>
      <trkpt lat="44.00917" lon="7.19515">
        <ele>1054.048584</ele>
        <time>2016-04-24T09:26:08Z</time>
      </trkpt>
      <trkpt lat="44.00918" lon="7.19516">
        <ele>1053.771851</ele>
        <time>2016-04-24T09:26:09Z</time>
      </trkpt>
      <trkpt lat="44.00919" lon="7.19515">
        <ele>1053.449341</ele>
        <time>2016-04-24T09:26:10Z</time>
      </trkpt>
      <trkpt lat="44.0092" lon="7.19514">
        <ele>1052.638672</ele>
        <time>2016-04-24T09:26:12Z</time>
      </trkpt>
      <trkpt lat="44.0092" lon="7.19514">
        <ele>1052.599976</ele>
        <time>2016-04-24T09:26:22Z</time>
      </trkpt>
      <trkpt lat="44.00924" lon="7.19514">
        <ele>1051.029541</ele>
        <time>2016-04-24T09:26:25Z</time>
      </trkpt>
      <trkpt lat="44.00926" lon="7.19509">
        <ele>1047.955566</ele>
        <time>2016-04-24T09:26:28Z</time>
      </trkpt>
      <trkpt lat="44.00926" lon="7.19506">
        <ele>1046.777832</ele>
        <time>2016-04-24T09:26:29Z</time>
      </trkpt>
      <trkpt lat="44.00925" lon="7.19504">
        <ele>1046.092773</ele>
        <time>2016-04-24T09:26:30Z</time>
      </trkpt>
      <trkpt lat="44.00923" lon="7.195">
        <ele>1045.197876</ele>
        <time>2016-04-24T09:26:32Z</time>
      </trkpt>
      <trkpt lat="44.00922" lon="7.19496">
        <ele>1043.446655</ele>
        <time>2016-04-24T09:26:34Z</time>
      </trkpt>
      <trkpt lat="44.00923" lon="7.19494">
        <ele>1042.456665</ele>
        <time>2016-04-24T09:26:36Z</time>
      </trkpt>
      <trkpt lat="44.00927" lon="7.19496">
        <ele>1041.94043</ele>
        <time>2016-04-24T09:26:38Z</time>
      </trkpt>
      <trkpt lat="44.00928" lon="7.19496">
        <ele>1041.377075</ele>
        <time>2016-04-24T09:26:39Z</time>
      </trkpt>
      <trkpt lat="44.00929" lon="7.19496">
        <ele>1040.742065</ele>
        <time>2016-04-24T09:26:40Z</time>
      </trkpt>
      <trkpt lat="44.0093" lon="7.19495">
        <ele>1040.054565</ele>
        <time>2016-04-24T09:26:41Z</time>
      </trkpt>
      <trkpt lat="44.0093" lon="7.19495">
        <ele>1039.74939</ele>
        <time>2016-04-24T09:26:42Z</time>
      </trkpt>
      <trkpt lat="44.00929" lon="7.19493">
        <ele>1039.290283</ele>
        <time>2016-04-24T09:26:44Z</time>
      </trkpt>
      <trkpt lat="44.00929" lon="7.19492">
        <ele>1039.135986</ele>
        <time>2016-04-24T09:26:45Z</time>
      </trkpt>
      <trkpt lat="44.00927" lon="7.19488">
        <ele>1038.119141</ele>
        <time>2016-04-24T09:26:47Z</time>
      </trkpt>
      <trkpt lat="44.00928" lon="7.19485">
        <ele>1036.44519</ele>
        <time>2016-04-24T09:26:50Z</time>
      </trkpt>
      <trkpt lat="44.00929" lon="7.19485">
        <ele>1035.789551</ele>
        <time>2016-04-24T09:26:51Z</time>
      </trkpt>
      <trkpt lat="44.00931" lon="7.19486">
        <ele>1035.391968</ele>
        <time>2016-04-24T09:26:53Z</time>
      </trkpt>
      <trkpt lat="44.00932" lon="7.19487">
        <ele>1035.522827</ele>
        <time>2016-04-24T09:26:56Z</time>
      </trkpt>
      <trkpt lat="44.00931" lon="7.19486">
        <ele>1035.682251</ele>
        <time>2016-04-24T09:26:57Z</time>
      </trkpt>
      <trkpt lat="44.0093" lon="7.19484">
        <ele>1035.168823</ele>
        <time>2016-04-24T09:26:58Z</time>
      </trkpt>
      <trkpt lat="44.00929" lon="7.19477">
        <ele>1032.182373</ele>
        <time>2016-04-24T09:27:00Z</time>
      </trkpt>
      <trkpt lat="44.00928" lon="7.19473">
        <ele>1030.903564</ele>
        <time>2016-04-24T09:27:02Z</time>
      </trkpt>
      <trkpt lat="44.00927" lon="7.1947">
        <ele>1029.953247</ele>
        <time>2016-04-24T09:27:04Z</time>
      </trkpt>
      <trkpt lat="44.00927" lon="7.19466">
        <ele>1027.993652</ele>
        <time>2016-04-24T09:27:06Z</time>
      </trkpt>
      <trkpt lat="44.00928" lon="7.19464">
        <ele>1026.463989</ele>
        <time>2016-04-24T09:27:08Z</time>
      </trkpt>
      <trkpt lat="44.00928" lon="7.19463">
        <ele>1025.702148</ele>
        <time>2016-04-24T09:27:10Z</time>
      </trkpt>
      <trkpt lat="44.00927" lon="7.19461">
        <ele>1025.516968</ele>
        <time>2016-04-24T09:27:11Z</time>
      </trkpt>
      <trkpt lat="44.00921" lon="7.19459">
        <ele>1027.125122</ele>
        <time>2016-04-24T09:27:14Z</time>
      </trkpt>
      <trkpt lat="44.00915" lon="7.19458">
        <ele>1029.280273</ele>
        <time>2016-04-24T09:27:16Z</time>
      </trkpt>
      <trkpt lat="44.00912" lon="7.19459">
        <ele>1031.022705</ele>
        <time>2016-04-24T09:27:18Z</time>
      </trkpt>
      <trkpt lat="44.00912" lon="7.19457">
        <ele>1030.417603</ele>
        <time>2016-04-24T09:27:19Z</time>
      </trkpt>
      <trkpt lat="44.00913" lon="7.19456">
        <ele>1029.368408</ele>
        <time>2016-04-24T09:27:21Z</time>
      </trkpt>
      <trkpt lat="44.00913" lon="7.19455">
        <ele>1029.019897</ele>
        <time>2016-04-24T09:27:23Z</time>
      </trkpt>
      <trkpt lat="44.00913" lon="7.19453">
        <ele>1028.289307</ele>
        <time>2016-04-24T09:27:26Z</time>
      </trkpt>
      <trkpt lat="44.00911" lon="7.19452">
        <ele>1028.710571</ele>
        <time>2016-04-24T09:27:28Z</time>
      </trkpt>
      <trkpt lat="44.00909" lon="7.19451">
        <ele>1029.151001</ele>
        <time>2016-04-24T09:27:29Z</time>
      </trkpt>
      <trkpt lat="44.00909" lon="7.19451">
        <ele>1028.776855</ele>
        <time>2016-04-24T09:27:32Z</time>
      </trkpt>
      <trkpt lat="44.00911" lon="7.19447">
        <ele>1026.323975</ele>
        <time>2016-04-24T09:27:35Z</time>
      </trkpt>
      <trkpt lat="44.00912" lon="7.19445">
        <ele>1025.112549</ele>
        <time>2016-04-24T09:27:36Z</time>
      </trkpt>
      <trkpt lat="44.00918" lon="7.19439">
        <ele>1019.19751</ele>
        <time>2016-04-24T09:27:40Z</time>
      </trkpt>
      <trkpt lat="44.0092" lon="7.19435">
        <ele>1016.124146</ele>
        <time>2016-04-24T09:27:42Z</time>
      </trkpt>
      <trkpt lat="44.00921" lon="7.19431">
        <ele>1013.97699</ele>
        <time>2016-04-24T09:27:44Z</time>
      </trkpt>
      <trkpt lat="44.00925" lon="7.19429">
        <ele>1010.678589</ele>
        <time>2016-04-24T09:27:46Z</time>
      </trkpt>
      <trkpt lat="44.00927" lon="7.19427">
        <ele>1008.549866</ele>
        <time>2016-04-24T09:27:47Z</time>
      </trkpt>
      <trkpt lat="44.00929" lon="7.19424">
        <ele>1006.245056</ele>
        <time>2016-04-24T09:27:48Z</time>
      </trkpt>
      <trkpt lat="44.00931" lon="7.19422">
        <ele>1004.551697</ele>
        <time>2016-04-24T09:27:50Z</time>
      </trkpt>
      <trkpt lat="44.00935" lon="7.1942">
        <ele>1001.950256</ele>
        <time>2016-04-24T09:27:53Z</time>
      </trkpt>
      <trkpt lat="44.00934" lon="7.19418">
        <ele>1001.271423</ele>
        <time>2016-04-24T09:27:55Z</time>
      </trkpt>
      <trkpt lat="44.00932" lon="7.19417">
        <ele>1001.627808</ele>
        <time>2016-04-24T09:27:56Z</time>
      </trkpt>
      <trkpt lat="44.0093" lon="7.19416">
        <ele>1001.683899</ele>
        <time>2016-04-24T09:27:57Z</time>
      </trkpt>
      <trkpt lat="44.0093" lon="7.19413">
        <ele>1000.568604</ele>
        <time>2016-04-24T09:27:59Z</time>
      </trkpt>
      <trkpt lat="44.00932" lon="7.1941">
        <ele>998.306946</ele>
        <time>2016-04-24T09:28:01Z</time>
      </trkpt>
      <trkpt lat="44.00934" lon="7.19406">
        <ele>995.344971</ele>
        <time>2016-04-24T09:28:03Z</time>
      </trkpt>
      <trkpt lat="44.00934" lon="7.19404">
        <ele>994.797485</ele>
        <time>2016-04-24T09:28:06Z</time>
      </trkpt>
      <trkpt lat="44.00931" lon="7.19402">
        <ele>995.734985</ele>
        <time>2016-04-24T09:28:09Z</time>
      </trkpt>
      <trkpt lat="44.00929" lon="7.19401">
        <ele>995.997498</ele>
        <time>2016-04-24T09:28:11Z</time>
      </trkpt>
      <trkpt lat="44.00926" lon="7.19397">
        <ele>996.267517</ele>
        <time>2016-04-24T09:28:13Z</time>
      </trkpt>
      <trkpt lat="44.00922" lon="7.19388">
        <ele>996.253784</ele>
        <time>2016-04-24T09:28:15Z</time>
      </trkpt>
      <trkpt lat="44.00921" lon="7.19385">
        <ele>995.737122</ele>
        <time>2016-04-24T09:28:16Z</time>
      </trkpt>
      <trkpt lat="44.00922" lon="7.19382">
        <ele>994.849121</ele>
        <time>2016-04-24T09:28:17Z</time>
      </trkpt>
      <trkpt lat="44.00923" lon="7.19381">
        <ele>993.81604</ele>
        <time>2016-04-24T09:28:18Z</time>
      </trkpt>
      <trkpt lat="44.00925" lon="7.19385">
        <ele>993.180908</ele>
        <time>2016-04-24T09:28:19Z</time>
      </trkpt>
      <trkpt lat="44.0093" lon="7.19388">
        <ele>992.345032</ele>
        <time>2016-04-24T09:28:21Z</time>
      </trkpt>
      <trkpt lat="44.00937" lon="7.19387">
        <ele>989.080017</ele>
        <time>2016-04-24T09:28:24Z</time>
      </trkpt>
      <trkpt lat="44.00941" lon="7.19389">
        <ele>988.157471</ele>
        <time>2016-04-24T09:28:26Z</time>
      </trkpt>
      <trkpt lat="44.00942" lon="7.1939">
        <ele>987.67749</ele>
        <time>2016-04-24T09:28:27Z</time>
      </trkpt>
      <trkpt lat="44.00943" lon="7.1939">
        <ele>987.247498</ele>
        <time>2016-04-24T09:28:28Z</time>
      </trkpt>
      <trkpt lat="44.00943" lon="7.19389">
        <ele>987.047485</ele>
        <time>2016-04-24T09:28:30Z</time>
      </trkpt>
      <trkpt lat="44.00942" lon="7.19386">
        <ele>986.662476</ele>
        <time>2016-04-24T09:28:32Z</time>
      </trkpt>
      <trkpt lat="44.00943" lon="7.19385">
        <ele>986.137512</ele>
        <time>2016-04-24T09:28:33Z</time>
      </trkpt>
      <trkpt lat="44.00944" lon="7.19385">
        <ele>985.684998</ele>
        <time>2016-04-24T09:28:34Z</time>
      </trkpt>
      <trkpt lat="44.00945" lon="7.19385">
        <ele>985.19751</ele>
        <time>2016-04-24T09:28:35Z</time>
      </trkpt>
      <trkpt lat="44.00949" lon="7.19386">
        <ele>984.059998</ele>
        <time>2016-04-24T09:28:37Z</time>
      </trkpt>
      <trkpt lat="44.00957" lon="7.1939">
        <ele>981.88501</ele>
        <time>2016-04-24T09:28:40Z</time>
      </trkpt>
      <trkpt lat="44.00958" lon="7.19388">
        <ele>980.609985</ele>
        <time>2016-04-24T09:28:42Z</time>
      </trkpt>
      <trkpt lat="44.00958" lon="7.19386">
        <ele>980.267517</ele>
        <time>2016-04-24T09:28:43Z</time>
      </trkpt>
      <trkpt lat="44.00958" lon="7.19384">
        <ele>979.590027</ele>
        <time>2016-04-24T09:28:45Z</time>
      </trkpt>
      <trkpt lat="44.00957" lon="7.19378">
        <ele>978.52002</ele>
        <time>2016-04-24T09:28:48Z</time>
      </trkpt>
      <trkpt lat="44.00956" lon="7.19376">
        <ele>978.359985</ele>
        <time>2016-04-24T09:28:49Z</time>
      </trkpt>
      <trkpt lat="44.00956" lon="7.19374">
        <ele>977.75</ele>
        <time>2016-04-24T09:28:51Z</time>
      </trkpt>
      <trkpt lat="44.00957" lon="7.19373">
        <ele>977.142517</ele>
        <time>2016-04-24T09:28:53Z</time>
      </trkpt>
      <trkpt lat="44.00959" lon="7.19373">
        <ele>976.242493</ele>
        <time>2016-04-24T09:28:55Z</time>
      </trkpt>
      <trkpt lat="44.00961" lon="7.19372">
        <ele>975.422485</ele>
        <time>2016-04-24T09:28:56Z</time>
      </trkpt>
      <trkpt lat="44.00961" lon="7.1937">
        <ele>974.734985</ele>
        <time>2016-04-24T09:28:57Z</time>
      </trkpt>
      <trkpt lat="44.00962" lon="7.19367">
        <ele>973.772522</ele>
        <time>2016-04-24T09:28:59Z</time>
      </trkpt>
      <trkpt lat="44.00964" lon="7.19366">
        <ele>972.672485</ele>
        <time>2016-04-24T09:29:01Z</time>
      </trkpt>
      <trkpt lat="44.00965" lon="7.19366">
        <ele>972.17749</ele>
        <time>2016-04-24T09:29:02Z</time>
      </trkpt>
      <trkpt lat="44.00966" lon="7.19366">
        <ele>971.66748</ele>
        <time>2016-04-24T09:29:04Z</time>
      </trkpt>
      <trkpt lat="44.0097" lon="7.19371">
        <ele>971.445007</ele>
        <time>2016-04-24T09:29:07Z</time>
      </trkpt>
      <trkpt lat="44.00973" lon="7.19378">
        <ele>972.045288</ele>
        <time>2016-04-24T09:29:09Z</time>
      </trkpt>
      <trkpt lat="44.00976" lon="7.19383">
        <ele>972.488464</ele>
        <time>2016-04-24T09:29:11Z</time>
      </trkpt>
      <trkpt lat="44.00979" lon="7.19385">
        <ele>971.868713</ele>
        <time>2016-04-24T09:29:12Z</time>
      </trkpt>
      <trkpt lat="44.00983" lon="7.19387">
        <ele>970.973145</ele>
        <time>2016-04-24T09:29:13Z</time>
      </trkpt>
      <trkpt lat="44.00992" lon="7.19391">
        <ele>968.727173</ele>
        <time>2016-04-24T09:29:15Z</time>
      </trkpt>
      <trkpt lat="44.00998" lon="7.19395">
        <ele>967.4776</ele>
        <time>2016-04-24T09:29:16Z</time>
      </trkpt>
      <trkpt lat="44.01002" lon="7.194">
        <ele>966.65863</ele>
        <time>2016-04-24T09:29:17Z</time>
      </trkpt>
      <trkpt lat="44.0101" lon="7.19407">
        <ele>964.957581</ele>
        <time>2016-04-24T09:29:19Z</time>
      </trkpt>
      <trkpt lat="44.01014" lon="7.1941">
        <ele>963.795349</ele>
        <time>2016-04-24T09:29:20Z</time>
      </trkpt>
      <trkpt lat="44.01018" lon="7.19413">
        <ele>963.377625</ele>
        <time>2016-04-24T09:29:21Z</time>
      </trkpt>
      <trkpt lat="44.01021" lon="7.19418">
        <ele>964.212585</ele>
        <time>2016-04-24T09:29:22Z</time>
      </trkpt>
      <trkpt lat="44.01023" lon="7.19422">
        <ele>965.079529</ele>
        <time>2016-04-24T09:29:24Z</time>
      </trkpt>
      <trkpt lat="44.01023" lon="7.19423">
        <ele>965.312622</ele>
        <time>2016-04-24T09:29:26Z</time>
      </trkpt>
      <trkpt lat="44.01023" lon="7.19422">
        <ele>964.977417</ele>
        <time>2016-04-24T09:29:27Z</time>
      </trkpt>
      <trkpt lat="44.01021" lon="7.19417">
        <ele>963.896912</ele>
        <time>2016-04-24T09:29:29Z</time>
      </trkpt>
      <trkpt lat="44.01018" lon="7.19413">
        <ele>963.26001</ele>
        <time>2016-04-24T09:29:30Z</time>
      </trkpt>
      <trkpt lat="44.01017" lon="7.1941">
        <ele>963.045776</ele>
        <time>2016-04-24T09:29:31Z</time>
      </trkpt>
      <trkpt lat="44.01015" lon="7.19406">
        <ele>962.803101</ele>
        <time>2016-04-24T09:29:32Z</time>
      </trkpt>
      <trkpt lat="44.01015" lon="7.19403">
        <ele>962.299988</ele>
        <time>2016-04-24T09:29:33Z</time>
      </trkpt>
      <trkpt lat="44.01013" lon="7.19399">
        <ele>962.35553</ele>
        <time>2016-04-24T09:29:34Z</time>
      </trkpt>
      <trkpt lat="44.01012" lon="7.19397">
        <ele>962.276184</ele>
        <time>2016-04-24T09:29:35Z</time>
      </trkpt>
      <trkpt lat="44.01012" lon="7.19394">
        <ele>962.233704</ele>
        <time>2016-04-24T09:29:36Z</time>
      </trkpt>
      <trkpt lat="44.01012" lon="7.1939">
        <ele>961.481018</ele>
        <time>2016-04-24T09:29:37Z</time>
      </trkpt>
      <trkpt lat="44.01011" lon="7.19387">
        <ele>961.23822</ele>
        <time>2016-04-24T09:29:38Z</time>
      </trkpt>
      <trkpt lat="44.01012" lon="7.19385">
        <ele>960.903198</ele>
        <time>2016-04-24T09:29:39Z</time>
      </trkpt>
      <trkpt lat="44.01013" lon="7.19384">
        <ele>960.203125</ele>
        <time>2016-04-24T09:29:41Z</time>
      </trkpt>
      <trkpt lat="44.01014" lon="7.19383">
        <ele>959.750122</ele>
        <time>2016-04-24T09:29:42Z</time>
      </trkpt>
      <trkpt lat="44.01023" lon="7.19381">
        <ele>958.67334</ele>
        <time>2016-04-24T09:29:47Z</time>
      </trkpt>
      <trkpt lat="44.01026" lon="7.19381">
        <ele>958.612305</ele>
        <time>2016-04-24T09:29:49Z</time>
      </trkpt>
      <trkpt lat="44.01029" lon="7.19383">
        <ele>958.719666</ele>
        <time>2016-04-24T09:29:51Z</time>
      </trkpt>
      <trkpt lat="44.01032" lon="7.19386">
        <ele>958.850769</ele>
        <time>2016-04-24T09:29:54Z</time>
      </trkpt>
      <trkpt lat="44.01033" lon="7.19391">
        <ele>959.112549</ele>
        <time>2016-04-24T09:29:59Z</time>
      </trkpt>
      <trkpt lat="44.01035" lon="7.19394">
        <ele>959.1922</ele>
        <time>2016-04-24T09:30:02Z</time>
      </trkpt>
      <trkpt lat="44.01037" lon="7.19402">
        <ele>959.432373</ele>
        <time>2016-04-24T09:30:08Z</time>
      </trkpt>
      <trkpt lat="44.01037" lon="7.19404">
        <ele>959.49646</ele>
        <time>2016-04-24T09:30:09Z</time>
      </trkpt>
      <trkpt lat="44.01039" lon="7.19411">
        <ele>959.47113</ele>
        <time>2016-04-24T09:30:12Z</time>
      </trkpt>
      <trkpt lat="44.01048" lon="7.19426">
        <ele>959.861755</ele>
        <time>2016-04-24T09:30:19Z</time>
      </trkpt>
      <trkpt lat="44.01052" lon="7.19432">
        <ele>959.611755</ele>
        <time>2016-04-24T09:30:23Z</time>
      </trkpt>
      <trkpt lat="44.01053" lon="7.19437">
        <ele>960.229431</ele>
        <time>2016-04-24T09:30:26Z</time>
      </trkpt>
      <trkpt lat="44.01053" lon="7.19444">
        <ele>961.013428</ele>
        <time>2016-04-24T09:30:29Z</time>
      </trkpt>
      <trkpt lat="44.01056" lon="7.19447">
        <ele>960.521179</ele>
        <time>2016-04-24T09:30:32Z</time>
      </trkpt>
      <trkpt lat="44.01058" lon="7.19447">
        <ele>959.993408</ele>
        <time>2016-04-24T09:30:34Z</time>
      </trkpt>
      <trkpt lat="44.0106" lon="7.19447">
        <ele>960.085327</ele>
        <time>2016-04-24T09:30:36Z</time>
      </trkpt>
      <trkpt lat="44.01065" lon="7.19449">
        <ele>961.006714</ele>
        <time>2016-04-24T09:30:41Z</time>
      </trkpt>
      <trkpt lat="44.0107" lon="7.19452">
        <ele>961.794678</ele>
        <time>2016-04-24T09:30:45Z</time>
      </trkpt>
      <trkpt lat="44.01073" lon="7.19455">
        <ele>962.246399</ele>
        <time>2016-04-24T09:30:49Z</time>
      </trkpt>
      <trkpt lat="44.01077" lon="7.19457">
        <ele>962.639343</ele>
        <time>2016-04-24T09:30:54Z</time>
      </trkpt>
      <trkpt lat="44.01078" lon="7.19458">
        <ele>962.724304</ele>
        <time>2016-04-24T09:30:55Z</time>
      </trkpt>
      <trkpt lat="44.01079" lon="7.19458">
        <ele>962.827271</ele>
        <time>2016-04-24T09:30:56Z</time>
      </trkpt>
      <trkpt lat="44.01082" lon="7.19459">
        <ele>963.031616</ele>
        <time>2016-04-24T09:30:58Z</time>
      </trkpt>
      <trkpt lat="44.01082" lon="7.19456">
        <ele>963.088989</ele>
        <time>2016-04-24T09:31:01Z</time>
      </trkpt>
      <trkpt lat="44.01082" lon="7.19455">
        <ele>963.169128</ele>
        <time>2016-04-24T09:31:03Z</time>
      </trkpt>
      <trkpt lat="44.01077" lon="7.19431">
        <ele>962.220581</ele>
        <time>2016-04-24T09:31:12Z</time>
      </trkpt>
      <trkpt lat="44.01075" lon="7.19417">
        <ele>961.552734</ele>
        <time>2016-04-24T09:31:17Z</time>
      </trkpt>
      <trkpt lat="44.01061" lon="7.19369">
        <ele>959.058167</ele>
        <time>2016-04-24T09:31:29Z</time>
      </trkpt>
      <trkpt lat="44.01062" lon="7.19366">
        <ele>959.673645</ele>
        <time>2016-04-24T09:31:31Z</time>
      </trkpt>
      <trkpt lat="44.01065" lon="7.1936">
        <ele>961.661621</ele>
        <time>2016-04-24T09:31:33Z</time>
      </trkpt>
      <trkpt lat="44.01064" lon="7.19354">
        <ele>961.773926</ele>
        <time>2016-04-24T09:31:37Z</time>
      </trkpt>
      <trkpt lat="44.01063" lon="7.19339">
        <ele>965.173279</ele>
        <time>2016-04-24T09:31:45Z</time>
      </trkpt>
      <trkpt lat="44.01062" lon="7.19337">
        <ele>965.330078</ele>
        <time>2016-04-24T09:31:46Z</time>
      </trkpt>
      <trkpt lat="44.01061" lon="7.19336">
        <ele>965.500061</ele>
        <time>2016-04-24T09:31:50Z</time>
      </trkpt>
      <trkpt lat="44.0106" lon="7.19333">
        <ele>966.096436</ele>
        <time>2016-04-24T09:31:54Z</time>
      </trkpt>
      <trkpt lat="44.01059" lon="7.19333">
        <ele>965.985229</ele>
        <time>2016-04-24T09:31:55Z</time>
      </trkpt>
      <trkpt lat="44.01058" lon="7.1933">
        <ele>966.547974</ele>
        <time>2016-04-24T09:31:57Z</time>
      </trkpt>
      <trkpt lat="44.01057" lon="7.19327">
        <ele>966.776489</ele>
        <time>2016-04-24T09:31:59Z</time>
      </trkpt>
      <trkpt lat="44.01057" lon="7.19327">
        <ele>966.980957</ele>
        <time>2016-04-24T09:32:00Z</time>
      </trkpt>
      <trkpt lat="44.01057" lon="7.19325">
        <ele>967.579651</ele>
        <time>2016-04-24T09:32:02Z</time>
      </trkpt>
      <trkpt lat="44.01055" lon="7.19321">
        <ele>967.605957</ele>
        <time>2016-04-24T09:32:04Z</time>
      </trkpt>
      <trkpt lat="44.01053" lon="7.19316">
        <ele>968.062805</ele>
        <time>2016-04-24T09:32:08Z</time>
      </trkpt>
      <trkpt lat="44.0105" lon="7.1931">
        <ele>968.07666</ele>
        <time>2016-04-24T09:32:11Z</time>
      </trkpt>
      <trkpt lat="44.01047" lon="7.19307">
        <ele>967.557617</ele>
        <time>2016-04-24T09:32:15Z</time>
      </trkpt>
      <trkpt lat="44.01045" lon="7.19303">
        <ele>967.309753</ele>
        <time>2016-04-24T09:32:17Z</time>
      </trkpt>
      <trkpt lat="44.01044" lon="7.19299">
        <ele>967.737</ele>
        <time>2016-04-24T09:32:19Z</time>
      </trkpt>
      <trkpt lat="44.01043" lon="7.19295">
        <ele>967.713135</ele>
        <time>2016-04-24T09:32:21Z</time>
      </trkpt>
      <trkpt lat="44.01041" lon="7.19282">
        <ele>969.662842</ele>
        <time>2016-04-24T09:32:26Z</time>
      </trkpt>
      <trkpt lat="44.0104" lon="7.19275">
        <ele>970.431274</ele>
        <time>2016-04-24T09:32:29Z</time>
      </trkpt>
      <trkpt lat="44.01039" lon="7.19272">
        <ele>970.852539</ele>
        <time>2016-04-24T09:32:30Z</time>
      </trkpt>
      <trkpt lat="44.01036" lon="7.19256">
        <ele>972.249451</ele>
        <time>2016-04-24T09:32:35Z</time>
      </trkpt>
      <trkpt lat="44.01031" lon="7.19236">
        <ele>972.857483</ele>
        <time>2016-04-24T09:32:39Z</time>
      </trkpt>
      <trkpt lat="44.01028" lon="7.19215">
        <ele>976.720093</ele>
        <time>2016-04-24T09:32:42Z</time>
      </trkpt>
      <trkpt lat="44.01022" lon="7.19206">
        <ele>975.586548</ele>
        <time>2016-04-24T09:32:44Z</time>
      </trkpt>
      <trkpt lat="44.01018" lon="7.19203">
        <ele>974.130249</ele>
        <time>2016-04-24T09:32:45Z</time>
      </trkpt>
      <trkpt lat="44.0101" lon="7.19193">
        <ele>973.243408</ele>
        <time>2016-04-24T09:32:54Z</time>
      </trkpt>
      <trkpt lat="44.0101" lon="7.19192">
        <ele>973.312988</ele>
        <time>2016-04-24T09:32:55Z</time>
      </trkpt>
      <trkpt lat="44.01007" lon="7.19187">
        <ele>973.498413</ele>
        <time>2016-04-24T09:32:59Z</time>
      </trkpt>
      <trkpt lat="44.01007" lon="7.19185">
        <ele>973.767944</ele>
        <time>2016-04-24T09:33:00Z</time>
      </trkpt>
      <trkpt lat="44.01006" lon="7.19183">
        <ele>974.112244</ele>
        <time>2016-04-24T09:33:02Z</time>
      </trkpt>
      <trkpt lat="44.01005" lon="7.19181">
        <ele>974.347351</ele>
        <time>2016-04-24T09:33:04Z</time>
      </trkpt>
      <trkpt lat="44.01004" lon="7.19177">
        <ele>974.86261</ele>
        <time>2016-04-24T09:33:07Z</time>
      </trkpt>
      <trkpt lat="44.01004" lon="7.19176">
        <ele>975.465088</ele>
        <time>2016-04-24T09:33:08Z</time>
      </trkpt>
      <trkpt lat="44.01003" lon="7.19172">
        <ele>976.387024</ele>
        <time>2016-04-24T09:33:11Z</time>
      </trkpt>
      <trkpt lat="44.01002" lon="7.1917">
        <ele>976.567322</ele>
        <time>2016-04-24T09:33:13Z</time>
      </trkpt>
      <trkpt lat="44.01" lon="7.19167">
        <ele>976.236633</ele>
        <time>2016-04-24T09:33:16Z</time>
      </trkpt>
      <trkpt lat="44.00998" lon="7.19162">
        <ele>976.486633</ele>
        <time>2016-04-24T09:33:21Z</time>
      </trkpt>
      <trkpt lat="44.00997" lon="7.19156">
        <ele>977.368469</ele>
        <time>2016-04-24T09:33:26Z</time>
      </trkpt>
      <trkpt lat="44.00996" lon="7.19154">
        <ele>977.63269</ele>
        <time>2016-04-24T09:33:28Z</time>
      </trkpt>
      <trkpt lat="44.00996" lon="7.19152">
        <ele>978.179199</ele>
        <time>2016-04-24T09:33:30Z</time>
      </trkpt>
      <trkpt lat="44.00996" lon="7.19148">
        <ele>979.386414</ele>
        <time>2016-04-24T09:33:33Z</time>
      </trkpt>
      <trkpt lat="44.00996" lon="7.19145">
        <ele>979.970337</ele>
        <time>2016-04-24T09:33:35Z</time>
      </trkpt>
      <trkpt lat="44.00997" lon="7.1914">
        <ele>982.220703</ele>
        <time>2016-04-24T09:33:40Z</time>
      </trkpt>
      <trkpt lat="44.00998" lon="7.19135">
        <ele>984.452576</ele>
        <time>2016-04-24T09:33:43Z</time>
      </trkpt>
      <trkpt lat="44.00999" lon="7.19133">
        <ele>985.684631</ele>
        <time>2016-04-24T09:33:45Z</time>
      </trkpt>
      <trkpt lat="44.00999" lon="7.19131">
        <ele>986.62085</ele>
        <time>2016-04-24T09:33:47Z</time>
      </trkpt>
      <trkpt lat="44.00999" lon="7.19128">
        <ele>987.352844</ele>
        <time>2016-04-24T09:33:49Z</time>
      </trkpt>
      <trkpt lat="44.00999" lon="7.19127">
        <ele>987.942444</ele>
        <time>2016-04-24T09:33:50Z</time>
      </trkpt>
      <trkpt lat="44.01" lon="7.19125">
        <ele>988.787903</ele>
        <time>2016-04-24T09:33:51Z</time>
      </trkpt>
      <trkpt lat="44.01002" lon="7.19117">
        <ele>992.480164</ele>
        <time>2016-04-24T09:33:56Z</time>
      </trkpt>
      <trkpt lat="44.01001" lon="7.19109">
        <ele>994.277832</ele>
        <time>2016-04-24T09:34:01Z</time>
      </trkpt>
      <trkpt lat="44.00999" lon="7.19105">
        <ele>994.424011</ele>
        <time>2016-04-24T09:34:05Z</time>
      </trkpt>
      <trkpt lat="44.00994" lon="7.19099">
        <ele>993.044983</ele>
        <time>2016-04-24T09:34:09Z</time>
      </trkpt>
      <trkpt lat="44.00988" lon="7.19094">
        <ele>991.566284</ele>
        <time>2016-04-24T09:34:14Z</time>
      </trkpt>
      <trkpt lat="44.00977" lon="7.19085">
        <ele>989.46167</ele>
        <time>2016-04-24T09:34:22Z</time>
      </trkpt>
      <trkpt lat="44.00974" lon="7.19079">
        <ele>990.390564</ele>
        <time>2016-04-24T09:34:25Z</time>
      </trkpt>
      <trkpt lat="44.00973" lon="7.19077">
        <ele>991.097168</ele>
        <time>2016-04-24T09:34:26Z</time>
      </trkpt>
      <trkpt lat="44.00973" lon="7.19072">
        <ele>993.457153</ele>
        <time>2016-04-24T09:34:28Z</time>
      </trkpt>
      <trkpt lat="44.00972" lon="7.1907">
        <ele>994.079712</ele>
        <time>2016-04-24T09:34:29Z</time>
      </trkpt>
      <trkpt lat="44.00971" lon="7.19065">
        <ele>995.484375</ele>
        <time>2016-04-24T09:34:31Z</time>
      </trkpt>
      <trkpt lat="44.00971" lon="7.19063">
        <ele>996.216553</ele>
        <time>2016-04-24T09:34:32Z</time>
      </trkpt>
      <trkpt lat="44.0097" lon="7.19059">
        <ele>997.403931</ele>
        <time>2016-04-24T09:34:36Z</time>
      </trkpt>
      <trkpt lat="44.00969" lon="7.19056">
        <ele>998.342773</ele>
        <time>2016-04-24T09:34:39Z</time>
      </trkpt>
      <trkpt lat="44.00969" lon="7.19055">
        <ele>998.533508</ele>
        <time>2016-04-24T09:34:40Z</time>
      </trkpt>
      <trkpt lat="44.00968" lon="7.19053">
        <ele>999.059875</ele>
        <time>2016-04-24T09:34:42Z</time>
      </trkpt>
      <trkpt lat="44.00968" lon="7.19052">
        <ele>999.595276</ele>
        <time>2016-04-24T09:34:43Z</time>
      </trkpt>
      <trkpt lat="44.00967" lon="7.19049">
        <ele>1000.386963</ele>
        <time>2016-04-24T09:34:45Z</time>
      </trkpt>
      <trkpt lat="44.00964" lon="7.19045">
        <ele>1001.191162</ele>
        <time>2016-04-24T09:34:50Z</time>
      </trkpt>
      <trkpt lat="44.00962" lon="7.19042">
        <ele>1001.566895</ele>
        <time>2016-04-24T09:34:53Z</time>
      </trkpt>
      <trkpt lat="44.00961" lon="7.19041">
        <ele>1001.628479</ele>
        <time>2016-04-24T09:34:54Z</time>
      </trkpt>
      <trkpt lat="44.00957" lon="7.19037">
        <ele>1001.565552</ele>
        <time>2016-04-24T09:34:59Z</time>
      </trkpt>
      <trkpt lat="44.00954" lon="7.19033">
        <ele>1001.977905</ele>
        <time>2016-04-24T09:35:04Z</time>
      </trkpt>
      <trkpt lat="44.00952" lon="7.19028">
        <ele>1003.370483</ele>
        <time>2016-04-24T09:35:08Z</time>
      </trkpt>
      <trkpt lat="44.00952" lon="7.19027">
        <ele>1003.737305</ele>
        <time>2016-04-24T09:35:09Z</time>
      </trkpt>
      <trkpt lat="44.00948" lon="7.1902">
        <ele>1004.705872</ele>
        <time>2016-04-24T09:35:14Z</time>
      </trkpt>
      <trkpt lat="44.00947" lon="7.19019">
        <ele>1004.507202</ele>
        <time>2016-04-24T09:35:15Z</time>
      </trkpt>
      <trkpt lat="44.00946" lon="7.19018">
        <ele>1004.506409</ele>
        <time>2016-04-24T09:35:16Z</time>
      </trkpt>
      <trkpt lat="44.00942" lon="7.19014">
        <ele>1004.753662</ele>
        <time>2016-04-24T09:35:20Z</time>
      </trkpt>
      <trkpt lat="44.0094" lon="7.19008">
        <ele>1005.264709</ele>
        <time>2016-04-24T09:35:26Z</time>
      </trkpt>
      <trkpt lat="44.00938" lon="7.19004">
        <ele>1005.287354</ele>
        <time>2016-04-24T09:35:29Z</time>
      </trkpt>
      <trkpt lat="44.00936" lon="7.19002">
        <ele>1004.962097</ele>
        <time>2016-04-24T09:35:31Z</time>
      </trkpt>
      <trkpt lat="44.00935" lon="7.19001">
        <ele>1005.051025</ele>
        <time>2016-04-24T09:35:32Z</time>
      </trkpt>
      <trkpt lat="44.00935" lon="7.18996">
        <ele>1006.764526</ele>
        <time>2016-04-24T09:35:37Z</time>
      </trkpt>
      <trkpt lat="44.00933" lon="7.18993">
        <ele>1006.582886</ele>
        <time>2016-04-24T09:35:40Z</time>
      </trkpt>
      <trkpt lat="44.00931" lon="7.1899">
        <ele>1006.400757</ele>
        <time>2016-04-24T09:35:43Z</time>
      </trkpt>
      <trkpt lat="44.00928" lon="7.18984">
        <ele>1006.385437</ele>
        <time>2016-04-24T09:35:47Z</time>
      </trkpt>
      <trkpt lat="44.00926" lon="7.1898">
        <ele>1006.546631</ele>
        <time>2016-04-24T09:35:49Z</time>
      </trkpt>
      <trkpt lat="44.00923" lon="7.18971">
        <ele>1007.363281</ele>
        <time>2016-04-24T09:35:54Z</time>
      </trkpt>
      <trkpt lat="44.00919" lon="7.18948">
        <ele>1004.832825</ele>
        <time>2016-04-24T09:36:03Z</time>
      </trkpt>
      <trkpt lat="44.00921" lon="7.18942">
        <ele>1005.534546</ele>
        <time>2016-04-24T09:36:05Z</time>
      </trkpt>
      <trkpt lat="44.00921" lon="7.18938">
        <ele>1005.650696</ele>
        <time>2016-04-24T09:36:07Z</time>
      </trkpt>
      <trkpt lat="44.00922" lon="7.18936">
        <ele>1005.928101</ele>
        <time>2016-04-24T09:36:08Z</time>
      </trkpt>
      <trkpt lat="44.00924" lon="7.18927">
        <ele>1006.88623</ele>
        <time>2016-04-24T09:36:12Z</time>
      </trkpt>
      <trkpt lat="44.00925" lon="7.18925">
        <ele>1007.672852</ele>
        <time>2016-04-24T09:36:13Z</time>
      </trkpt>
      <trkpt lat="44.00931" lon="7.1891">
        <ele>1010.954285</ele>
        <time>2016-04-24T09:36:18Z</time>
      </trkpt>
      <trkpt lat="44.00952" lon="7.18882">
        <ele>1013.846619</ele>
        <time>2016-04-24T09:36:28Z</time>
      </trkpt>
      <trkpt lat="44.00974" lon="7.18851">
        <ele>1012.198975</ele>
        <time>2016-04-24T09:36:40Z</time>
      </trkpt>
      <trkpt lat="44.00977" lon="7.18845">
        <ele>1012.622681</ele>
        <time>2016-04-24T09:36:42Z</time>
      </trkpt>
      <trkpt lat="44.0098" lon="7.18842">
        <ele>1014.10022</ele>
        <time>2016-04-24T09:36:44Z</time>
      </trkpt>
      <trkpt lat="44.00981" lon="7.18841">
        <ele>1014.473083</ele>
        <time>2016-04-24T09:36:45Z</time>
      </trkpt>
      <trkpt lat="44.00983" lon="7.18845">
        <ele>1015.17572</ele>
        <time>2016-04-24T09:36:51Z</time>
      </trkpt>
      <trkpt lat="44.0098" lon="7.18848">
        <ele>1013.857056</ele>
        <time>2016-04-24T09:36:55Z</time>
      </trkpt>
      <trkpt lat="44.00977" lon="7.1885">
        <ele>1013.135559</ele>
        <time>2016-04-24T09:36:57Z</time>
      </trkpt>
      <trkpt lat="44.00976" lon="7.18851">
        <ele>1012.909851</ele>
        <time>2016-04-24T09:36:58Z</time>
      </trkpt>
      <trkpt lat="44.00971" lon="7.18856">
        <ele>1013.063721</ele>
        <time>2016-04-24T09:37:01Z</time>
      </trkpt>
      <trkpt lat="44.00971" lon="7.18857">
        <ele>1013.240967</ele>
        <time>2016-04-24T09:37:02Z</time>
      </trkpt>
      <trkpt lat="44.00969" lon="7.1886">
        <ele>1013.434387</ele>
        <time>2016-04-24T09:37:04Z</time>
      </trkpt>
      <trkpt lat="44.00965" lon="7.18864">
        <ele>1013.076477</ele>
        <time>2016-04-24T09:37:07Z</time>
      </trkpt>
      <trkpt lat="44.00962" lon="7.18871">
        <ele>1014.588135</ele>
        <time>2016-04-24T09:37:10Z</time>
      </trkpt>
      <trkpt lat="44.00958" lon="7.18878">
        <ele>1015.162842</ele>
        <time>2016-04-24T09:37:13Z</time>
      </trkpt>
      <trkpt lat="44.00953" lon="7.18887">
        <ele>1016.157104</ele>
        <time>2016-04-24T09:37:18Z</time>
      </trkpt>
      <trkpt lat="44.00951" lon="7.18888">
        <ele>1015.937622</ele>
        <time>2016-04-24T09:37:19Z</time>
      </trkpt>
      <trkpt lat="44.0095" lon="7.18891">
        <ele>1016.125977</ele>
        <time>2016-04-24T09:37:21Z</time>
      </trkpt>
      <trkpt lat="44.00948" lon="7.18898">
        <ele>1017.750122</ele>
        <time>2016-04-24T09:37:24Z</time>
      </trkpt>
      <trkpt lat="44.00946" lon="7.18902">
        <ele>1018.390137</ele>
        <time>2016-04-24T09:37:26Z</time>
      </trkpt>
      <trkpt lat="44.00946" lon="7.18904">
        <ele>1018.77533</ele>
        <time>2016-04-24T09:37:27Z</time>
      </trkpt>
      <trkpt lat="44.00945" lon="7.18906">
        <ele>1019.315002</ele>
        <time>2016-04-24T09:37:28Z</time>
      </trkpt>
      <trkpt lat="44.00944" lon="7.18908">
        <ele>1019.487</ele>
        <time>2016-04-24T09:37:29Z</time>
      </trkpt>
      <trkpt lat="44.00943" lon="7.18912">
        <ele>1018.743225</ele>
        <time>2016-04-24T09:37:31Z</time>
      </trkpt>
      <trkpt lat="44.00942" lon="7.18915">
        <ele>1018.054565</ele>
        <time>2016-04-24T09:37:33Z</time>
      </trkpt>
      <trkpt lat="44.0094" lon="7.18921">
        <ele>1016.908997</ele>
        <time>2016-04-24T09:37:36Z</time>
      </trkpt>
      <trkpt lat="44.00941" lon="7.18931">
        <ele>1018.362915</ele>
        <time>2016-04-24T09:37:41Z</time>
      </trkpt>
      <trkpt lat="44.00943" lon="7.18937">
        <ele>1019.771912</ele>
        <time>2016-04-24T09:37:46Z</time>
      </trkpt>
      <trkpt lat="44.00943" lon="7.18938">
        <ele>1019.791992</ele>
        <time>2016-04-24T09:37:47Z</time>
      </trkpt>
      <trkpt lat="44.00945" lon="7.18944">
        <ele>1021.354431</ele>
        <time>2016-04-24T09:37:51Z</time>
      </trkpt>
      <trkpt lat="44.00946" lon="7.18947">
        <ele>1022.367493</ele>
        <time>2016-04-24T09:37:53Z</time>
      </trkpt>
      <trkpt lat="44.00947" lon="7.18956">
        <ele>1023.232117</ele>
        <time>2016-04-24T09:37:58Z</time>
      </trkpt>
      <trkpt lat="44.00949" lon="7.18963">
        <ele>1024.543457</ele>
        <time>2016-04-24T09:38:03Z</time>
      </trkpt>
      <trkpt lat="44.00954" lon="7.1897">
        <ele>1027.20874</ele>
        <time>2016-04-24T09:38:09Z</time>
      </trkpt>
      <trkpt lat="44.00955" lon="7.1897">
        <ele>1027.692749</ele>
        <time>2016-04-24T09:38:10Z</time>
      </trkpt>
      <trkpt lat="44.00955" lon="7.18971">
        <ele>1028.117554</ele>
        <time>2016-04-24T09:38:11Z</time>
      </trkpt>
      <trkpt lat="44.00961" lon="7.18977">
        <ele>1029.093628</ele>
        <time>2016-04-24T09:38:16Z</time>
      </trkpt>
      <trkpt lat="44.00973" lon="7.18983">
        <ele>1032.831421</ele>
        <time>2016-04-24T09:38:24Z</time>
      </trkpt>
      <trkpt lat="44.00975" lon="7.18984">
        <ele>1033.907593</ele>
        <time>2016-04-24T09:38:26Z</time>
      </trkpt>
      <trkpt lat="44.00978" lon="7.18985">
        <ele>1034.725464</ele>
        <time>2016-04-24T09:38:28Z</time>
      </trkpt>
      <trkpt lat="44.00981" lon="7.18986">
        <ele>1035.713745</ele>
        <time>2016-04-24T09:38:31Z</time>
      </trkpt>
      <trkpt lat="44.00983" lon="7.18987">
        <ele>1036.377075</ele>
        <time>2016-04-24T09:38:32Z</time>
      </trkpt>
      <trkpt lat="44.00985" lon="7.18988">
        <ele>1036.960693</ele>
        <time>2016-04-24T09:38:33Z</time>
      </trkpt>
      <trkpt lat="44.00994" lon="7.18993">
        <ele>1039.508301</ele>
        <time>2016-04-24T09:38:38Z</time>
      </trkpt>
      <trkpt lat="44.01" lon="7.19">
        <ele>1039.417236</ele>
        <time>2016-04-24T09:38:43Z</time>
      </trkpt>
      <trkpt lat="44.01005" lon="7.19004">
        <ele>1040.050415</ele>
        <time>2016-04-24T09:38:47Z</time>
      </trkpt>
      <trkpt lat="44.0101" lon="7.19008">
        <ele>1041.326172</ele>
        <time>2016-04-24T09:38:51Z</time>
      </trkpt>
      <trkpt lat="44.01014" lon="7.19013">
        <ele>1040.682373</ele>
        <time>2016-04-24T09:38:54Z</time>
      </trkpt>
      <trkpt lat="44.01015" lon="7.19014">
        <ele>1040.660522</ele>
        <time>2016-04-24T09:38:55Z</time>
      </trkpt>
      <trkpt lat="44.01022" lon="7.19018">
        <ele>1042.698486</ele>
        <time>2016-04-24T09:39:00Z</time>
      </trkpt>
      <trkpt lat="44.01025" lon="7.19019">
        <ele>1043.411499</ele>
        <time>2016-04-24T09:39:01Z</time>
      </trkpt>
      <trkpt lat="44.01029" lon="7.19023">
        <ele>1043.855957</ele>
        <time>2016-04-24T09:39:05Z</time>
      </trkpt>
      <trkpt lat="44.01037" lon="7.19028">
        <ele>1045.987061</ele>
        <time>2016-04-24T09:39:11Z</time>
      </trkpt>
      <trkpt lat="44.01044" lon="7.19033">
        <ele>1049.289307</ele>
        <time>2016-04-24T09:39:16Z</time>
      </trkpt>
      <trkpt lat="44.01045" lon="7.19034">
        <ele>1049.423584</ele>
        <time>2016-04-24T09:39:17Z</time>
      </trkpt>
      <trkpt lat="44.0105" lon="7.19036">
        <ele>1051.093994</ele>
        <time>2016-04-24T09:39:20Z</time>
      </trkpt>
      <trkpt lat="44.01051" lon="7.19037">
        <ele>1051.434448</ele>
        <time>2016-04-24T09:39:21Z</time>
      </trkpt>
      <trkpt lat="44.01058" lon="7.19042">
        <ele>1054.037964</ele>
        <time>2016-04-24T09:39:26Z</time>
      </trkpt>
      <trkpt lat="44.01061" lon="7.19045">
        <ele>1055.515869</ele>
        <time>2016-04-24T09:39:28Z</time>
      </trkpt>
      <trkpt lat="44.01064" lon="7.19052">
        <ele>1055.569092</ele>
        <time>2016-04-24T09:39:31Z</time>
      </trkpt>
      <trkpt lat="44.0107" lon="7.19063">
        <ele>1056.452026</ele>
        <time>2016-04-24T09:39:36Z</time>
      </trkpt>
      <trkpt lat="44.01075" lon="7.19086">
        <ele>1053.318848</ele>
        <time>2016-04-24T09:39:43Z</time>
      </trkpt>
      <trkpt lat="44.01084" lon="7.19103">
        <ele>1052.129395</ele>
        <time>2016-04-24T09:39:49Z</time>
      </trkpt>
      <trkpt lat="44.01092" lon="7.19107">
        <ele>1054.93335</ele>
        <time>2016-04-24T09:39:54Z</time>
      </trkpt>
      <trkpt lat="44.01106" lon="7.19109">
        <ele>1060.786987</ele>
        <time>2016-04-24T09:40:01Z</time>
      </trkpt>
      <trkpt lat="44.0111" lon="7.1911">
        <ele>1061.90979</ele>
        <time>2016-04-24T09:40:03Z</time>
      </trkpt>
      <trkpt lat="44.01116" lon="7.19112">
        <ele>1064.612061</ele>
        <time>2016-04-24T09:40:07Z</time>
      </trkpt>
      <trkpt lat="44.01118" lon="7.19118">
        <ele>1064.053833</ele>
        <time>2016-04-24T09:40:11Z</time>
      </trkpt>
      <trkpt lat="44.01119" lon="7.1912">
        <ele>1063.437134</ele>
        <time>2016-04-24T09:40:12Z</time>
      </trkpt>
      <trkpt lat="44.01119" lon="7.19124">
        <ele>1062.612427</ele>
        <time>2016-04-24T09:40:14Z</time>
      </trkpt>
      <trkpt lat="44.01119" lon="7.19126">
        <ele>1062.01062</ele>
        <time>2016-04-24T09:40:15Z</time>
      </trkpt>
      <trkpt lat="44.01119" lon="7.19128">
        <ele>1061.314819</ele>
        <time>2016-04-24T09:40:16Z</time>
      </trkpt>
      <trkpt lat="44.0112" lon="7.19135">
        <ele>1059.945557</ele>
        <time>2016-04-24T09:40:19Z</time>
      </trkpt>
      <trkpt lat="44.01122" lon="7.1914">
        <ele>1059.746948</ele>
        <time>2016-04-24T09:40:21Z</time>
      </trkpt>
      <trkpt lat="44.01124" lon="7.19144">
        <ele>1059.779175</ele>
        <time>2016-04-24T09:40:23Z</time>
      </trkpt>
      <trkpt lat="44.01124" lon="7.19146">
        <ele>1059.457642</ele>
        <time>2016-04-24T09:40:24Z</time>
      </trkpt>
      <trkpt lat="44.01125" lon="7.1915">
        <ele>1058.792603</ele>
        <time>2016-04-24T09:40:26Z</time>
      </trkpt>
      <trkpt lat="44.01125" lon="7.19152">
        <ele>1058.571289</ele>
        <time>2016-04-24T09:40:27Z</time>
      </trkpt>
      <trkpt lat="44.01126" lon="7.19155">
        <ele>1058.523682</ele>
        <time>2016-04-24T09:40:28Z</time>
      </trkpt>
      <trkpt lat="44.01127" lon="7.19156">
        <ele>1058.503418</ele>
        <time>2016-04-24T09:40:29Z</time>
      </trkpt>
      <trkpt lat="44.01128" lon="7.19158">
        <ele>1058.608398</ele>
        <time>2016-04-24T09:40:30Z</time>
      </trkpt>
      <trkpt lat="44.0113" lon="7.19162">
        <ele>1059.048828</ele>
        <time>2016-04-24T09:40:32Z</time>
      </trkpt>
      <trkpt lat="44.01131" lon="7.19165">
        <ele>1059.297974</ele>
        <time>2016-04-24T09:40:34Z</time>
      </trkpt>
      <trkpt lat="44.01133" lon="7.19166">
        <ele>1060.060791</ele>
        <time>2016-04-24T09:40:36Z</time>
      </trkpt>
      <trkpt lat="44.01135" lon="7.19168">
        <ele>1060.849365</ele>
        <time>2016-04-24T09:40:38Z</time>
      </trkpt>
      <trkpt lat="44.01136" lon="7.19172">
        <ele>1060.778931</ele>
        <time>2016-04-24T09:40:40Z</time>
      </trkpt>
      <trkpt lat="44.0114" lon="7.19176">
        <ele>1061.728271</ele>
        <time>2016-04-24T09:40:43Z</time>
      </trkpt>
      <trkpt lat="44.01141" lon="7.19179">
        <ele>1062.024536</ele>
        <time>2016-04-24T09:40:45Z</time>
      </trkpt>
      <trkpt lat="44.01144" lon="7.19184">
        <ele>1061.958984</ele>
        <time>2016-04-24T09:40:49Z</time>
      </trkpt>
      <trkpt lat="44.01148" lon="7.19189">
        <ele>1062.875854</ele>
        <time>2016-04-24T09:40:53Z</time>
      </trkpt>
      <trkpt lat="44.01149" lon="7.19191">
        <ele>1062.849243</ele>
        <time>2016-04-24T09:40:55Z</time>
      </trkpt>
      <trkpt lat="44.0115" lon="7.19192">
        <ele>1063.252686</ele>
        <time>2016-04-24T09:40:57Z</time>
      </trkpt>
      <trkpt lat="44.01152" lon="7.19194">
        <ele>1064.018188</ele>
        <time>2016-04-24T09:40:59Z</time>
      </trkpt>
      <trkpt lat="44.01156" lon="7.19196">
        <ele>1065.241577</ele>
        <time>2016-04-24T09:41:02Z</time>
      </trkpt>
      <trkpt lat="44.01165" lon="7.19199">
        <ele>1068.347656</ele>
        <time>2016-04-24T09:41:09Z</time>
      </trkpt>
      <trkpt lat="44.01172" lon="7.19203">
        <ele>1068.971802</ele>
        <time>2016-04-24T09:41:16Z</time>
      </trkpt>
      <trkpt lat="44.01174" lon="7.19204">
        <ele>1069.43811</ele>
        <time>2016-04-24T09:41:19Z</time>
      </trkpt>
      <trkpt lat="44.01176" lon="7.19204">
        <ele>1070.340576</ele>
        <time>2016-04-24T09:41:21Z</time>
      </trkpt>
      <trkpt lat="44.01179" lon="7.19204">
        <ele>1071.329102</ele>
        <time>2016-04-24T09:41:26Z</time>
      </trkpt>
      <trkpt lat="44.0118" lon="7.19205">
        <ele>1071.522827</ele>
        <time>2016-04-24T09:41:31Z</time>
      </trkpt>
      <trkpt lat="44.01184" lon="7.19204">
        <ele>1073.048584</ele>
        <time>2016-04-24T09:41:35Z</time>
      </trkpt>
      <trkpt lat="44.01187" lon="7.19204">
        <ele>1074.46936</ele>
        <time>2016-04-24T09:41:39Z</time>
      </trkpt>
      <trkpt lat="44.01189" lon="7.19204">
        <ele>1074.817383</ele>
        <time>2016-04-24T09:41:40Z</time>
      </trkpt>
      <trkpt lat="44.0119" lon="7.19204">
        <ele>1075.101807</ele>
        <time>2016-04-24T09:41:41Z</time>
      </trkpt>
      <trkpt lat="44.01195" lon="7.19207">
        <ele>1075.965942</ele>
        <time>2016-04-24T09:41:45Z</time>
      </trkpt>
      <trkpt lat="44.01196" lon="7.19207">
        <ele>1076.010132</ele>
        <time>2016-04-24T09:41:46Z</time>
      </trkpt>
      <trkpt lat="44.01198" lon="7.19208">
        <ele>1076.692383</ele>
        <time>2016-04-24T09:41:50Z</time>
      </trkpt>
      <trkpt lat="44.01205" lon="7.19212">
        <ele>1077.346069</ele>
        <time>2016-04-24T09:41:56Z</time>
      </trkpt>
      <trkpt lat="44.01235" lon="7.19218">
        <ele>1080.93335</ele>
        <time>2016-04-24T09:42:10Z</time>
      </trkpt>
      <trkpt lat="44.01244" lon="7.19216">
        <ele>1083.327637</ele>
        <time>2016-04-24T09:42:15Z</time>
      </trkpt>
      <trkpt lat="44.01252" lon="7.19216">
        <ele>1084.395996</ele>
        <time>2016-04-24T09:42:19Z</time>
      </trkpt>
      <trkpt lat="44.01253" lon="7.19216">
        <ele>1084.373657</ele>
        <time>2016-04-24T09:42:20Z</time>
      </trkpt>
      <trkpt lat="44.01258" lon="7.19217">
        <ele>1084.041138</ele>
        <time>2016-04-24T09:42:23Z</time>
      </trkpt>
      <trkpt lat="44.01266" lon="7.19217">
        <ele>1084.526855</ele>
        <time>2016-04-24T09:42:28Z</time>
      </trkpt>
      <trkpt lat="44.01268" lon="7.19217">
        <ele>1084.498291</ele>
        <time>2016-04-24T09:42:30Z</time>
      </trkpt>
      <trkpt lat="44.01271" lon="7.19217">
        <ele>1084.548218</ele>
        <time>2016-04-24T09:42:32Z</time>
      </trkpt>
      <trkpt lat="44.01278" lon="7.19218">
        <ele>1084.253784</ele>
        <time>2016-04-24T09:42:38Z</time>
      </trkpt>
      <trkpt lat="44.01287" lon="7.19217">
        <ele>1085.255981</ele>
        <time>2016-04-24T09:42:44Z</time>
      </trkpt>
      <trkpt lat="44.01293" lon="7.19216">
        <ele>1086.167725</ele>
        <time>2016-04-24T09:42:48Z</time>
      </trkpt>
      <trkpt lat="44.01302" lon="7.19214">
        <ele>1088.14209</ele>
        <time>2016-04-24T09:42:54Z</time>
      </trkpt>
      <trkpt lat="44.01308" lon="7.19212">
        <ele>1089.227173</ele>
        <time>2016-04-24T09:42:57Z</time>
      </trkpt>
      <trkpt lat="44.01312" lon="7.19212">
        <ele>1089.579346</ele>
        <time>2016-04-24T09:42:59Z</time>
      </trkpt>
      <trkpt lat="44.01349" lon="7.19218">
        <ele>1092.497192</ele>
        <time>2016-04-24T09:43:11Z</time>
      </trkpt>
      <trkpt lat="44.01355" lon="7.1922">
        <ele>1093.812134</ele>
        <time>2016-04-24T09:43:13Z</time>
      </trkpt>
      <trkpt lat="44.01364" lon="7.19222">
        <ele>1096.293335</ele>
        <time>2016-04-24T09:43:16Z</time>
      </trkpt>
      <trkpt lat="44.01367" lon="7.19223">
        <ele>1096.846191</ele>
        <time>2016-04-24T09:43:18Z</time>
      </trkpt>
      <trkpt lat="44.01367" lon="7.19226">
        <ele>1095.81665</ele>
        <time>2016-04-24T09:43:20Z</time>
      </trkpt>
      <trkpt lat="44.01366" lon="7.19228">
        <ele>1094.930664</ele>
        <time>2016-04-24T09:43:21Z</time>
      </trkpt>
      <trkpt lat="44.01363" lon="7.19234">
        <ele>1092.125366</ele>
        <time>2016-04-24T09:43:23Z</time>
      </trkpt>
      <trkpt lat="44.01361" lon="7.19237">
        <ele>1090.528198</ele>
        <time>2016-04-24T09:43:24Z</time>
      </trkpt>
      <trkpt lat="44.01359" lon="7.19239">
        <ele>1089.25415</ele>
        <time>2016-04-24T09:43:25Z</time>
      </trkpt>
      <trkpt lat="44.01357" lon="7.19242">
        <ele>1087.702148</ele>
        <time>2016-04-24T09:43:26Z</time>
      </trkpt>
      <trkpt lat="44.01356" lon="7.19245">
        <ele>1086.060303</ele>
        <time>2016-04-24T09:43:27Z</time>
      </trkpt>
      <trkpt lat="44.01355" lon="7.19249">
        <ele>1084.922485</ele>
        <time>2016-04-24T09:43:28Z</time>
      </trkpt>
      <trkpt lat="44.01356" lon="7.19251">
        <ele>1084.182495</ele>
        <time>2016-04-24T09:43:29Z</time>
      </trkpt>
      <trkpt lat="44.01357" lon="7.19254">
        <ele>1083.709473</ele>
        <time>2016-04-24T09:43:30Z</time>
      </trkpt>
      <trkpt lat="44.01363" lon="7.1926">
        <ele>1086.098389</ele>
        <time>2016-04-24T09:43:33Z</time>
      </trkpt>
      <trkpt lat="44.01369" lon="7.19263">
        <ele>1088.78418</ele>
        <time>2016-04-24T09:43:35Z</time>
      </trkpt>
      <trkpt lat="44.01375" lon="7.19273">
        <ele>1092.258545</ele>
        <time>2016-04-24T09:43:38Z</time>
      </trkpt>
      <trkpt lat="44.01379" lon="7.19284">
        <ele>1094.419922</ele>
        <time>2016-04-24T09:43:41Z</time>
      </trkpt>
      <trkpt lat="44.0138" lon="7.19287">
        <ele>1095.443726</ele>
        <time>2016-04-24T09:43:42Z</time>
      </trkpt>
      <trkpt lat="44.01382" lon="7.19291">
        <ele>1096.985229</ele>
        <time>2016-04-24T09:43:44Z</time>
      </trkpt>
      <trkpt lat="44.01382" lon="7.19295">
        <ele>1096.793457</ele>
        <time>2016-04-24T09:43:46Z</time>
      </trkpt>
      <trkpt lat="44.0138" lon="7.19298">
        <ele>1096.218994</ele>
        <time>2016-04-24T09:43:47Z</time>
      </trkpt>
      <trkpt lat="44.01369" lon="7.19318">
        <ele>1091.489502</ele>
        <time>2016-04-24T09:43:54Z</time>
      </trkpt>
      <trkpt lat="44.01363" lon="7.19325">
        <ele>1090.901001</ele>
        <time>2016-04-24T09:43:56Z</time>
      </trkpt>
      <trkpt lat="44.01359" lon="7.19328">
        <ele>1089.913574</ele>
        <time>2016-04-24T09:43:57Z</time>
      </trkpt>
      <trkpt lat="44.01351" lon="7.19335">
        <ele>1087.730591</ele>
        <time>2016-04-24T09:43:59Z</time>
      </trkpt>
      <trkpt lat="44.01346" lon="7.19338">
        <ele>1086.423706</ele>
        <time>2016-04-24T09:44:00Z</time>
      </trkpt>
      <trkpt lat="44.01343" lon="7.19342">
        <ele>1085.775879</ele>
        <time>2016-04-24T09:44:01Z</time>
      </trkpt>
      <trkpt lat="44.01335" lon="7.1935">
        <ele>1084.591797</ele>
        <time>2016-04-24T09:44:03Z</time>
      </trkpt>
      <trkpt lat="44.01329" lon="7.19365">
        <ele>1085.835083</ele>
        <time>2016-04-24T09:44:07Z</time>
      </trkpt>
      <trkpt lat="44.01326" lon="7.1937">
        <ele>1086.052856</ele>
        <time>2016-04-24T09:44:10Z</time>
      </trkpt>
      <trkpt lat="44.01326" lon="7.19371">
        <ele>1086.194702</ele>
        <time>2016-04-24T09:44:11Z</time>
      </trkpt>
      <trkpt lat="44.01325" lon="7.19375">
        <ele>1086.820679</ele>
        <time>2016-04-24T09:44:14Z</time>
      </trkpt>
      <trkpt lat="44.01323" lon="7.19379">
        <ele>1086.60376</ele>
        <time>2016-04-24T09:44:16Z</time>
      </trkpt>
      <trkpt lat="44.01322" lon="7.19382">
        <ele>1086.732178</ele>
        <time>2016-04-24T09:44:17Z</time>
      </trkpt>
      <trkpt lat="44.01321" lon="7.19391">
        <ele>1088.679443</ele>
        <time>2016-04-24T09:44:20Z</time>
      </trkpt>
      <trkpt lat="44.01321" lon="7.19394">
        <ele>1089.16748</ele>
        <time>2016-04-24T09:44:21Z</time>
      </trkpt>
      <trkpt lat="44.0132" lon="7.194">
        <ele>1089.636597</ele>
        <time>2016-04-24T09:44:24Z</time>
      </trkpt>
      <trkpt lat="44.01319" lon="7.19403">
        <ele>1089.743896</ele>
        <time>2016-04-24T09:44:26Z</time>
      </trkpt>
      <trkpt lat="44.01318" lon="7.19411">
        <ele>1090.948853</ele>
        <time>2016-04-24T09:44:30Z</time>
      </trkpt>
      <trkpt lat="44.01318" lon="7.19413">
        <ele>1091.580811</ele>
        <time>2016-04-24T09:44:31Z</time>
      </trkpt>
      <trkpt lat="44.01318" lon="7.19421">
        <ele>1093.78772</ele>
        <time>2016-04-24T09:44:35Z</time>
      </trkpt>
      <trkpt lat="44.01318" lon="7.19423">
        <ele>1094.439331</ele>
        <time>2016-04-24T09:44:36Z</time>
      </trkpt>
      <trkpt lat="44.01318" lon="7.19436">
        <ele>1097.648315</ele>
        <time>2016-04-24T09:44:42Z</time>
      </trkpt>
      <trkpt lat="44.0132" lon="7.19445">
        <ele>1099.649536</ele>
        <time>2016-04-24T09:44:46Z</time>
      </trkpt>
      <trkpt lat="44.0132" lon="7.1945">
        <ele>1099.689331</ele>
        <time>2016-04-24T09:44:49Z</time>
      </trkpt>
      <trkpt lat="44.01319" lon="7.19458">
        <ele>1098.772705</ele>
        <time>2016-04-24T09:44:56Z</time>
      </trkpt>
      <trkpt lat="44.0132" lon="7.19464">
        <ele>1099.024536</ele>
        <time>2016-04-24T09:45:02Z</time>
      </trkpt>
      <trkpt lat="44.0132" lon="7.19468">
        <ele>1098.942749</ele>
        <time>2016-04-24T09:45:06Z</time>
      </trkpt>
      <trkpt lat="44.0132" lon="7.19469">
        <ele>1099.188232</ele>
        <time>2016-04-24T09:45:07Z</time>
      </trkpt>
      <trkpt lat="44.01322" lon="7.19474">
        <ele>1100.051636</ele>
        <time>2016-04-24T09:45:11Z</time>
      </trkpt>
      <trkpt lat="44.01322" lon="7.19475">
        <ele>1100.190674</ele>
        <time>2016-04-24T09:45:12Z</time>
      </trkpt>
      <trkpt lat="44.01325" lon="7.19485">
        <ele>1102.46875</ele>
        <time>2016-04-24T09:45:18Z</time>
      </trkpt>
      <trkpt lat="44.0134" lon="7.1951">
        <ele>1107.489868</ele>
        <time>2016-04-24T09:45:29Z</time>
      </trkpt>
      <trkpt lat="44.01358" lon="7.19532">
        <ele>1110.647949</ele>
        <time>2016-04-24T09:45:38Z</time>
      </trkpt>
      <trkpt lat="44.0137" lon="7.19543">
        <ele>1112.962769</ele>
        <time>2016-04-24T09:45:42Z</time>
      </trkpt>
      <trkpt lat="44.01374" lon="7.19545">
        <ele>1113.549316</ele>
        <time>2016-04-24T09:45:43Z</time>
      </trkpt>
      <trkpt lat="44.01377" lon="7.19548">
        <ele>1113.565674</ele>
        <time>2016-04-24T09:45:44Z</time>
      </trkpt>
      <trkpt lat="44.01384" lon="7.19555">
        <ele>1113.730225</ele>
        <time>2016-04-24T09:45:48Z</time>
      </trkpt>
      <trkpt lat="44.01398" lon="7.19571">
        <ele>1112.07251</ele>
        <time>2016-04-24T09:45:53Z</time>
      </trkpt>
      <trkpt lat="44.01408" lon="7.19582">
        <ele>1110.254395</ele>
        <time>2016-04-24T09:45:57Z</time>
      </trkpt>
      <trkpt lat="44.01411" lon="7.19584">
        <ele>1110.406982</ele>
        <time>2016-04-24T09:45:58Z</time>
      </trkpt>
      <trkpt lat="44.01414" lon="7.19584">
        <ele>1110.934204</ele>
        <time>2016-04-24T09:45:59Z</time>
      </trkpt>
      <trkpt lat="44.01426" lon="7.19588">
        <ele>1111.614502</ele>
        <time>2016-04-24T09:46:03Z</time>
      </trkpt>
      <trkpt lat="44.01429" lon="7.1959">
        <ele>1111.211914</ele>
        <time>2016-04-24T09:46:04Z</time>
      </trkpt>
      <trkpt lat="44.01438" lon="7.19596">
        <ele>1110.640381</ele>
        <time>2016-04-24T09:46:07Z</time>
      </trkpt>
      <trkpt lat="44.01457" lon="7.19601">
        <ele>1112.25</ele>
        <time>2016-04-24T09:46:12Z</time>
      </trkpt>
      <trkpt lat="44.01476" lon="7.19606">
        <ele>1111.11499</ele>
        <time>2016-04-24T09:46:17Z</time>
      </trkpt>
      <trkpt lat="44.01493" lon="7.1961">
        <ele>1110.64502</ele>
        <time>2016-04-24T09:46:22Z</time>
      </trkpt>
      <trkpt lat="44.01524" lon="7.19623">
        <ele>1106.713745</ele>
        <time>2016-04-24T09:46:30Z</time>
      </trkpt>
      <trkpt lat="44.01529" lon="7.19624">
        <ele>1106.923218</ele>
        <time>2016-04-24T09:46:31Z</time>
      </trkpt>
      <trkpt lat="44.01542" lon="7.19624">
        <ele>1107.778564</ele>
        <time>2016-04-24T09:46:34Z</time>
      </trkpt>
      <trkpt lat="44.01554" lon="7.19618">
        <ele>1112.82251</ele>
        <time>2016-04-24T09:46:38Z</time>
      </trkpt>
      <trkpt lat="44.01557" lon="7.19623">
        <ele>1111.819336</ele>
        <time>2016-04-24T09:46:41Z</time>
      </trkpt>
      <trkpt lat="44.01566" lon="7.19631">
        <ele>1111.531128</ele>
        <time>2016-04-24T09:46:45Z</time>
      </trkpt>
      <trkpt lat="44.01589" lon="7.19653">
        <ele>1114.308716</ele>
        <time>2016-04-24T09:46:55Z</time>
      </trkpt>
      <trkpt lat="44.01589" lon="7.19659">
        <ele>1116.077881</ele>
        <time>2016-04-24T09:46:58Z</time>
      </trkpt>
      <trkpt lat="44.01588" lon="7.19664">
        <ele>1117.11438</ele>
        <time>2016-04-24T09:47:00Z</time>
      </trkpt>
      <trkpt lat="44.01588" lon="7.19666">
        <ele>1117.750854</ele>
        <time>2016-04-24T09:47:02Z</time>
      </trkpt>
      <trkpt lat="44.01584" lon="7.19675">
        <ele>1118.741455</ele>
        <time>2016-04-24T09:47:07Z</time>
      </trkpt>
      <trkpt lat="44.0158" lon="7.19691">
        <ele>1121.315552</ele>
        <time>2016-04-24T09:47:14Z</time>
      </trkpt>
      <trkpt lat="44.01574" lon="7.19696">
        <ele>1119.045898</ele>
        <time>2016-04-24T09:47:20Z</time>
      </trkpt>
      <trkpt lat="44.01569" lon="7.19699">
        <ele>1116.670776</ele>
        <time>2016-04-24T09:47:23Z</time>
      </trkpt>
      <trkpt lat="44.01557" lon="7.19711">
        <ele>1110.837524</ele>
        <time>2016-04-24T09:47:30Z</time>
      </trkpt>
      <trkpt lat="44.01554" lon="7.19721">
        <ele>1113.772461</ele>
        <time>2016-04-24T09:47:36Z</time>
      </trkpt>
      <trkpt lat="44.01554" lon="7.19722">
        <ele>1113.732544</ele>
        <time>2016-04-24T09:47:37Z</time>
      </trkpt>
      <trkpt lat="44.01552" lon="7.19729">
        <ele>1115.80249</ele>
        <time>2016-04-24T09:47:43Z</time>
      </trkpt>
      <trkpt lat="44.01551" lon="7.19731">
        <ele>1115.987549</ele>
        <time>2016-04-24T09:47:46Z</time>
      </trkpt>
      <trkpt lat="44.01551" lon="7.19737">
        <ele>1118.650024</ele>
        <time>2016-04-24T09:47:50Z</time>
      </trkpt>
      <trkpt lat="44.01549" lon="7.19745">
        <ele>1120.709961</ele>
        <time>2016-04-24T09:47:54Z</time>
      </trkpt>
      <trkpt lat="44.01546" lon="7.19751">
        <ele>1121.577515</ele>
        <time>2016-04-24T09:47:58Z</time>
      </trkpt>
      <trkpt lat="44.01545" lon="7.19752">
        <ele>1121.222534</ele>
        <time>2016-04-24T09:47:59Z</time>
      </trkpt>
      <trkpt lat="44.0154" lon="7.1976">
        <ele>1120.940063</ele>
        <time>2016-04-24T09:48:06Z</time>
      </trkpt>
      <trkpt lat="44.01539" lon="7.19761">
        <ele>1120.978271</ele>
        <time>2016-04-24T09:48:07Z</time>
      </trkpt>
      <trkpt lat="44.01538" lon="7.19764">
        <ele>1121.899536</ele>
        <time>2016-04-24T09:48:09Z</time>
      </trkpt>
      <trkpt lat="44.01537" lon="7.19767">
        <ele>1122.468506</ele>
        <time>2016-04-24T09:48:11Z</time>
      </trkpt>
      <trkpt lat="44.01536" lon="7.19772">
        <ele>1123.221558</ele>
        <time>2016-04-24T09:48:14Z</time>
      </trkpt>
      <trkpt lat="44.01536" lon="7.19778">
        <ele>1123.889893</ele>
        <time>2016-04-24T09:48:17Z</time>
      </trkpt>
      <trkpt lat="44.01535" lon="7.1978">
        <ele>1123.670044</ele>
        <time>2016-04-24T09:48:18Z</time>
      </trkpt>
      <trkpt lat="44.01533" lon="7.19785">
        <ele>1123.076416</ele>
        <time>2016-04-24T09:48:21Z</time>
      </trkpt>
      <trkpt lat="44.01532" lon="7.19789">
        <ele>1122.592407</ele>
        <time>2016-04-24T09:48:23Z</time>
      </trkpt>
      <trkpt lat="44.0153" lon="7.19802">
        <ele>1123.045166</ele>
        <time>2016-04-24T09:48:30Z</time>
      </trkpt>
      <trkpt lat="44.01531" lon="7.19821">
        <ele>1125.764648</ele>
        <time>2016-04-24T09:48:38Z</time>
      </trkpt>
      <trkpt lat="44.01534" lon="7.19828">
        <ele>1129.07666</ele>
        <time>2016-04-24T09:48:41Z</time>
      </trkpt>
      <trkpt lat="44.01538" lon="7.19838">
        <ele>1131.207886</ele>
        <time>2016-04-24T09:48:45Z</time>
      </trkpt>
      <trkpt lat="44.01542" lon="7.1985">
        <ele>1131.997925</ele>
        <time>2016-04-24T09:48:50Z</time>
      </trkpt>
      <trkpt lat="44.01546" lon="7.19862">
        <ele>1132.102905</ele>
        <time>2016-04-24T09:48:55Z</time>
      </trkpt>
      <trkpt lat="44.0155" lon="7.19874">
        <ele>1131.039551</ele>
        <time>2016-04-24T09:49:00Z</time>
      </trkpt>
      <trkpt lat="44.0158" lon="7.19893">
        <ele>1137.685547</ele>
        <time>2016-04-24T09:49:12Z</time>
      </trkpt>
      <trkpt lat="44.01589" lon="7.19893">
        <ele>1139.873779</ele>
        <time>2016-04-24T09:49:15Z</time>
      </trkpt>
      <trkpt lat="44.01592" lon="7.19893">
        <ele>1140.404541</ele>
        <time>2016-04-24T09:49:16Z</time>
      </trkpt>
      <trkpt lat="44.01607" lon="7.19893">
        <ele>1143.909912</ele>
        <time>2016-04-24T09:49:22Z</time>
      </trkpt>
      <trkpt lat="44.01614" lon="7.19894">
        <ele>1144.876343</ele>
        <time>2016-04-24T09:49:26Z</time>
      </trkpt>
      <trkpt lat="44.01618" lon="7.19897">
        <ele>1144.711426</ele>
        <time>2016-04-24T09:49:28Z</time>
      </trkpt>
      <trkpt lat="44.01622" lon="7.19901">
        <ele>1143.55957</ele>
        <time>2016-04-24T09:49:30Z</time>
      </trkpt>
      <trkpt lat="44.01665" lon="7.19938">
        <ele>1141.460205</ele>
        <time>2016-04-24T09:49:46Z</time>
      </trkpt>
      <trkpt lat="44.01672" lon="7.19941">
        <ele>1143.357544</ele>
        <time>2016-04-24T09:49:50Z</time>
      </trkpt>
      <trkpt lat="44.01678" lon="7.19945">
        <ele>1144.257446</ele>
        <time>2016-04-24T09:49:53Z</time>
      </trkpt>
      <trkpt lat="44.0168" lon="7.19947">
        <ele>1144.303711</ele>
        <time>2016-04-24T09:49:54Z</time>
      </trkpt>
      <trkpt lat="44.01682" lon="7.1995">
        <ele>1144.224976</ele>
        <time>2016-04-24T09:49:55Z</time>
      </trkpt>
      <trkpt lat="44.01684" lon="7.19951">
        <ele>1144.35376</ele>
        <time>2016-04-24T09:49:56Z</time>
      </trkpt>
      <trkpt lat="44.01686" lon="7.19953">
        <ele>1144.513794</ele>
        <time>2016-04-24T09:49:57Z</time>
      </trkpt>
      <trkpt lat="44.0169" lon="7.1996">
        <ele>1143.515015</ele>
        <time>2016-04-24T09:50:00Z</time>
      </trkpt>
      <trkpt lat="44.01695" lon="7.19971">
        <ele>1141.115479</ele>
        <time>2016-04-24T09:50:03Z</time>
      </trkpt>
      <trkpt lat="44.01698" lon="7.1998">
        <ele>1139.272705</ele>
        <time>2016-04-24T09:50:05Z</time>
      </trkpt>
      <trkpt lat="44.01701" lon="7.19987">
        <ele>1138.425659</ele>
        <time>2016-04-24T09:50:07Z</time>
      </trkpt>
      <trkpt lat="44.01704" lon="7.19989">
        <ele>1138.434326</ele>
        <time>2016-04-24T09:50:08Z</time>
      </trkpt>
      <trkpt lat="44.01706" lon="7.19992">
        <ele>1138.255615</ele>
        <time>2016-04-24T09:50:09Z</time>
      </trkpt>
      <trkpt lat="44.01708" lon="7.19996">
        <ele>1137.749878</ele>
        <time>2016-04-24T09:50:10Z</time>
      </trkpt>
      <trkpt lat="44.0171" lon="7.19999">
        <ele>1137.277954</ele>
        <time>2016-04-24T09:50:11Z</time>
      </trkpt>
      <trkpt lat="44.0172" lon="7.20018">
        <ele>1134.042358</ele>
        <time>2016-04-24T09:50:17Z</time>
      </trkpt>
      <trkpt lat="44.0173" lon="7.20033">
        <ele>1131.38208</ele>
        <time>2016-04-24T09:50:23Z</time>
      </trkpt>
      <trkpt lat="44.01734" lon="7.20036">
        <ele>1131.392212</ele>
        <time>2016-04-24T09:50:25Z</time>
      </trkpt>
      <trkpt lat="44.0174" lon="7.20038">
        <ele>1132.254395</ele>
        <time>2016-04-24T09:50:27Z</time>
      </trkpt>
      <trkpt lat="44.0175" lon="7.20041">
        <ele>1133.797363</ele>
        <time>2016-04-24T09:50:30Z</time>
      </trkpt>
      <trkpt lat="44.0176" lon="7.20046">
        <ele>1135.40564</ele>
        <time>2016-04-24T09:50:35Z</time>
      </trkpt>
      <trkpt lat="44.01767" lon="7.20046">
        <ele>1137.878296</ele>
        <time>2016-04-24T09:50:39Z</time>
      </trkpt>
      <trkpt lat="44.0177" lon="7.20044">
        <ele>1139.96167</ele>
        <time>2016-04-24T09:50:41Z</time>
      </trkpt>
      <trkpt lat="44.01777" lon="7.20042">
        <ele>1143.579224</ele>
        <time>2016-04-24T09:50:45Z</time>
      </trkpt>
      <trkpt lat="44.01779" lon="7.20042">
        <ele>1144.329834</ele>
        <time>2016-04-24T09:50:46Z</time>
      </trkpt>
      <trkpt lat="44.01782" lon="7.20041">
        <ele>1146.012939</ele>
        <time>2016-04-24T09:50:48Z</time>
      </trkpt>
      <trkpt lat="44.01787" lon="7.20042">
        <ele>1147.181763</ele>
        <time>2016-04-24T09:50:52Z</time>
      </trkpt>
      <trkpt lat="44.01792" lon="7.20045">
        <ele>1147.819702</ele>
        <time>2016-04-24T09:50:57Z</time>
      </trkpt>
      <trkpt lat="44.01796" lon="7.20051">
        <ele>1146.686279</ele>
        <time>2016-04-24T09:51:03Z</time>
      </trkpt>
      <trkpt lat="44.018" lon="7.20054">
        <ele>1147.213745</ele>
        <time>2016-04-24T09:51:06Z</time>
      </trkpt>
      <trkpt lat="44.01801" lon="7.20055">
        <ele>1147.373779</ele>
        <time>2016-04-24T09:51:07Z</time>
      </trkpt>
      <trkpt lat="44.01803" lon="7.20056">
        <ele>1147.732544</ele>
        <time>2016-04-24T09:51:09Z</time>
      </trkpt>
      <trkpt lat="44.01809" lon="7.20058">
        <ele>1149.251221</ele>
        <time>2016-04-24T09:51:14Z</time>
      </trkpt>
      <trkpt lat="44.01816" lon="7.20059">
        <ele>1152.241211</ele>
        <time>2016-04-24T09:51:19Z</time>
      </trkpt>
      <trkpt lat="44.01822" lon="7.20062">
        <ele>1153.813721</ele>
        <time>2016-04-24T09:51:24Z</time>
      </trkpt>
      <trkpt lat="44.01826" lon="7.20065">
        <ele>1154.13501</ele>
        <time>2016-04-24T09:51:28Z</time>
      </trkpt>
      <trkpt lat="44.0183" lon="7.20069">
        <ele>1154.453735</ele>
        <time>2016-04-24T09:51:32Z</time>
      </trkpt>
      <trkpt lat="44.01837" lon="7.20075">
        <ele>1154.942505</ele>
        <time>2016-04-24T09:51:37Z</time>
      </trkpt>
      <trkpt lat="44.01845" lon="7.20081">
        <ele>1155.076782</ele>
        <time>2016-04-24T09:51:43Z</time>
      </trkpt>
      <trkpt lat="44.01851" lon="7.20085">
        <ele>1154.806519</ele>
        <time>2016-04-24T09:51:50Z</time>
      </trkpt>
      <trkpt lat="44.01857" lon="7.20088">
        <ele>1154.850098</ele>
        <time>2016-04-24T09:51:55Z</time>
      </trkpt>
      <trkpt lat="44.01861" lon="7.20089">
        <ele>1155.255981</ele>
        <time>2016-04-24T09:51:57Z</time>
      </trkpt>
      <trkpt lat="44.01864" lon="7.2009">
        <ele>1155.534058</ele>
        <time>2016-04-24T09:52:00Z</time>
      </trkpt>
      <trkpt lat="44.01873" lon="7.20091">
        <ele>1157.536987</ele>
        <time>2016-04-24T09:52:06Z</time>
      </trkpt>
      <trkpt lat="44.01879" lon="7.20091">
        <ele>1159.161377</ele>
        <time>2016-04-24T09:52:11Z</time>
      </trkpt>
      <trkpt lat="44.01881" lon="7.20091">
        <ele>1159.608276</ele>
        <time>2016-04-24T09:52:12Z</time>
      </trkpt>
      <trkpt lat="44.01884" lon="7.2009">
        <ele>1161.094971</ele>
        <time>2016-04-24T09:52:14Z</time>
      </trkpt>
      <trkpt lat="44.01888" lon="7.20087">
        <ele>1162.931885</ele>
        <time>2016-04-24T09:52:17Z</time>
      </trkpt>
      <trkpt lat="44.01893" lon="7.20086">
        <ele>1164.029541</ele>
        <time>2016-04-24T09:52:22Z</time>
      </trkpt>
      <trkpt lat="44.01896" lon="7.20084">
        <ele>1164.85022</ele>
        <time>2016-04-24T09:52:25Z</time>
      </trkpt>
      <trkpt lat="44.01903" lon="7.20081">
        <ele>1166.932251</ele>
        <time>2016-04-24T09:52:30Z</time>
      </trkpt>
      <trkpt lat="44.0191" lon="7.20076">
        <ele>1169.71106</ele>
        <time>2016-04-24T09:52:37Z</time>
      </trkpt>
      <trkpt lat="44.01915" lon="7.20072">
        <ele>1172.22229</ele>
        <time>2016-04-24T09:52:41Z</time>
      </trkpt>
      <trkpt lat="44.0192" lon="7.2007">
        <ele>1173.920654</ele>
        <time>2016-04-24T09:52:45Z</time>
      </trkpt>
      <trkpt lat="44.01926" lon="7.20065">
        <ele>1176.756958</ele>
        <time>2016-04-24T09:52:50Z</time>
      </trkpt>
      <trkpt lat="44.0193" lon="7.20067">
        <ele>1175.911621</ele>
        <time>2016-04-24T09:52:53Z</time>
      </trkpt>
      <trkpt lat="44.01934" lon="7.20064">
        <ele>1177.978516</ele>
        <time>2016-04-24T09:52:57Z</time>
      </trkpt>
      <trkpt lat="44.01939" lon="7.20057">
        <ele>1182.178467</ele>
        <time>2016-04-24T09:53:01Z</time>
      </trkpt>
      <trkpt lat="44.01943" lon="7.20057">
        <ele>1181.910034</ele>
        <time>2016-04-24T09:53:05Z</time>
      </trkpt>
      <trkpt lat="44.01954" lon="7.20054">
        <ele>1183.117432</ele>
        <time>2016-04-24T09:53:10Z</time>
      </trkpt>
      <trkpt lat="44.01972" lon="7.20054">
        <ele>1182.607178</ele>
        <time>2016-04-24T09:53:20Z</time>
      </trkpt>
      <trkpt lat="44.01978" lon="7.20053">
        <ele>1182.873169</ele>
        <time>2016-04-24T09:53:25Z</time>
      </trkpt>
      <trkpt lat="44.01983" lon="7.20054">
        <ele>1182.487427</ele>
        <time>2016-04-24T09:53:29Z</time>
      </trkpt>
      <trkpt lat="44.01985" lon="7.20055">
        <ele>1181.999512</ele>
        <time>2016-04-24T09:53:30Z</time>
      </trkpt>
      <trkpt lat="44.01987" lon="7.20056">
        <ele>1181.358154</ele>
        <time>2016-04-24T09:53:31Z</time>
      </trkpt>
      <trkpt lat="44.01989" lon="7.20057">
        <ele>1180.561523</ele>
        <time>2016-04-24T09:53:32Z</time>
      </trkpt>
      <trkpt lat="44.01992" lon="7.20059">
        <ele>1179.69458</ele>
        <time>2016-04-24T09:53:33Z</time>
      </trkpt>
      <trkpt lat="44.02005" lon="7.20061">
        <ele>1178.784668</ele>
        <time>2016-04-24T09:53:39Z</time>
      </trkpt>
      <trkpt lat="44.02021" lon="7.20065">
        <ele>1177.364014</ele>
        <time>2016-04-24T09:53:46Z</time>
      </trkpt>
      <trkpt lat="44.0203" lon="7.20069">
        <ele>1175.898315</ele>
        <time>2016-04-24T09:53:52Z</time>
      </trkpt>
      <trkpt lat="44.02037" lon="7.20067">
        <ele>1176.296265</ele>
        <time>2016-04-24T09:53:57Z</time>
      </trkpt>
      <trkpt lat="44.02044" lon="7.20067">
        <ele>1175.821899</ele>
        <time>2016-04-24T09:54:01Z</time>
      </trkpt>
      <trkpt lat="44.02048" lon="7.20066">
        <ele>1176.026978</ele>
        <time>2016-04-24T09:54:04Z</time>
      </trkpt>
      <trkpt lat="44.02054" lon="7.20062">
        <ele>1177.531372</ele>
        <time>2016-04-24T09:54:10Z</time>
      </trkpt>
      <trkpt lat="44.02059" lon="7.20059">
        <ele>1179.362183</ele>
        <time>2016-04-24T09:54:14Z</time>
      </trkpt>
      <trkpt lat="44.02064" lon="7.20057">
        <ele>1180.581055</ele>
        <time>2016-04-24T09:54:18Z</time>
      </trkpt>
      <trkpt lat="44.02066" lon="7.20052">
        <ele>1183.757202</ele>
        <time>2016-04-24T09:54:21Z</time>
      </trkpt>
      <trkpt lat="44.02068" lon="7.2005">
        <ele>1185.506226</ele>
        <time>2016-04-24T09:54:23Z</time>
      </trkpt>
      <trkpt lat="44.02069" lon="7.20049">
        <ele>1185.980103</ele>
        <time>2016-04-24T09:54:24Z</time>
      </trkpt>
      <trkpt lat="44.02076" lon="7.20049">
        <ele>1186.594604</ele>
        <time>2016-04-24T09:54:28Z</time>
      </trkpt>
      <trkpt lat="44.02081" lon="7.20046">
        <ele>1188.229248</ele>
        <time>2016-04-24T09:54:31Z</time>
      </trkpt>
      <trkpt lat="44.02088" lon="7.20044">
        <ele>1189.671143</ele>
        <time>2016-04-24T09:54:34Z</time>
      </trkpt>
      <trkpt lat="44.0209" lon="7.20043">
        <ele>1190.682983</ele>
        <time>2016-04-24T09:54:35Z</time>
      </trkpt>
      <trkpt lat="44.02108" lon="7.20036">
        <ele>1194.412354</ele>
        <time>2016-04-24T09:54:42Z</time>
      </trkpt>
      <trkpt lat="44.02118" lon="7.20039">
        <ele>1193.617554</ele>
        <time>2016-04-24T09:54:45Z</time>
      </trkpt>
      <trkpt lat="44.02129" lon="7.20039">
        <ele>1195.060913</ele>
        <time>2016-04-24T09:54:48Z</time>
      </trkpt>
      <trkpt lat="44.02142" lon="7.20034">
        <ele>1198.540161</ele>
        <time>2016-04-24T09:54:52Z</time>
      </trkpt>
      <trkpt lat="44.02149" lon="7.20029">
        <ele>1200.505981</ele>
        <time>2016-04-24T09:54:55Z</time>
      </trkpt>
      <trkpt lat="44.02154" lon="7.2002">
        <ele>1202.888062</ele>
        <time>2016-04-24T09:55:00Z</time>
      </trkpt>
      <trkpt lat="44.02158" lon="7.20019">
        <ele>1203.052124</ele>
        <time>2016-04-24T09:55:05Z</time>
      </trkpt>
      <trkpt lat="44.02158" lon="7.20019">
        <ele>1203.184448</ele>
        <time>2016-04-24T09:55:09Z</time>
      </trkpt>
      <trkpt lat="44.02159" lon="7.20019">
        <ele>1203.178101</ele>
        <time>2016-04-24T09:55:15Z</time>
      </trkpt>
      <trkpt lat="44.02162" lon="7.20021">
        <ele>1202.973389</ele>
        <time>2016-04-24T09:55:19Z</time>
      </trkpt>
      <trkpt lat="44.02165" lon="7.20021">
        <ele>1202.991943</ele>
        <time>2016-04-24T09:55:24Z</time>
      </trkpt>
      <trkpt lat="44.02173" lon="7.20022">
        <ele>1203.328125</ele>
        <time>2016-04-24T09:55:29Z</time>
      </trkpt>
      <trkpt lat="44.02179" lon="7.20023">
        <ele>1203.450684</ele>
        <time>2016-04-24T09:55:33Z</time>
      </trkpt>
      <trkpt lat="44.02181" lon="7.20023">
        <ele>1203.458008</ele>
        <time>2016-04-24T09:55:34Z</time>
      </trkpt>
      <trkpt lat="44.02188" lon="7.20021">
        <ele>1204.118286</ele>
        <time>2016-04-24T09:55:39Z</time>
      </trkpt>
      <trkpt lat="44.02194" lon="7.20017">
        <ele>1204.626343</ele>
        <time>2016-04-24T09:55:43Z</time>
      </trkpt>
      <trkpt lat="44.02197" lon="7.20017">
        <ele>1204.740356</ele>
        <time>2016-04-24T09:55:48Z</time>
      </trkpt>
      <trkpt lat="44.02201" lon="7.20015">
        <ele>1204.966431</ele>
        <time>2016-04-24T09:55:53Z</time>
      </trkpt>
      <trkpt lat="44.02206" lon="7.20015">
        <ele>1205.340332</ele>
        <time>2016-04-24T09:55:58Z</time>
      </trkpt>
      <trkpt lat="44.02209" lon="7.20015">
        <ele>1205.660034</ele>
        <time>2016-04-24T09:56:00Z</time>
      </trkpt>
      <trkpt lat="44.0223" lon="7.20022">
        <ele>1208.457275</ele>
        <time>2016-04-24T09:56:07Z</time>
      </trkpt>
      <trkpt lat="44.02245" lon="7.20031">
        <ele>1210.752563</ele>
        <time>2016-04-24T09:56:11Z</time>
      </trkpt>
      <trkpt lat="44.02256" lon="7.20041">
        <ele>1213.727417</ele>
        <time>2016-04-24T09:56:14Z</time>
      </trkpt>
      <trkpt lat="44.0226" lon="7.20055">
        <ele>1215.380615</ele>
        <time>2016-04-24T09:56:19Z</time>
      </trkpt>
      <trkpt lat="44.02264" lon="7.20063">
        <ele>1216.769531</ele>
        <time>2016-04-24T09:56:25Z</time>
      </trkpt>
      <trkpt lat="44.02264" lon="7.20065">
        <ele>1216.664551</ele>
        <time>2016-04-24T09:56:36Z</time>
      </trkpt>
      <trkpt lat="44.02261" lon="7.20066">
        <ele>1216.017944</ele>
        <time>2016-04-24T09:56:41Z</time>
      </trkpt>
      <trkpt lat="44.02261" lon="7.20063">
        <ele>1215.693848</ele>
        <time>2016-04-24T09:56:45Z</time>
      </trkpt>
      <trkpt lat="44.02258" lon="7.20061">
        <ele>1214.900879</ele>
        <time>2016-04-24T09:56:48Z</time>
      </trkpt>
      <trkpt lat="44.0225" lon="7.20056">
        <ele>1212.581909</ele>
        <time>2016-04-24T09:56:52Z</time>
      </trkpt>
      <trkpt lat="44.02243" lon="7.20051">
        <ele>1210.731934</ele>
        <time>2016-04-24T09:57:03Z</time>
      </trkpt>
      <trkpt lat="44.02239" lon="7.20053">
        <ele>1210.110229</ele>
        <time>2016-04-24T09:57:05Z</time>
      </trkpt>
      <trkpt lat="44.02238" lon="7.20055">
        <ele>1209.82251</ele>
        <time>2016-04-24T09:57:06Z</time>
      </trkpt>
      <trkpt lat="44.02236" lon="7.20057">
        <ele>1209.431763</ele>
        <time>2016-04-24T09:57:08Z</time>
      </trkpt>
      <trkpt lat="44.02233" lon="7.20062">
        <ele>1208.818604</ele>
        <time>2016-04-24T09:57:10Z</time>
      </trkpt>
      <trkpt lat="44.0223" lon="7.20067">
        <ele>1208.20105</ele>
        <time>2016-04-24T09:57:12Z</time>
      </trkpt>
      <trkpt lat="44.02224" lon="7.20077">
        <ele>1206.760254</ele>
        <time>2016-04-24T09:57:16Z</time>
      </trkpt>
      <trkpt lat="44.02223" lon="7.20094">
        <ele>1214.62793</ele>
        <time>2016-04-24T09:57:22Z</time>
      </trkpt>
      <trkpt lat="44.0222" lon="7.20098">
        <ele>1216.478882</ele>
        <time>2016-04-24T09:57:27Z</time>
      </trkpt>
      <trkpt lat="44.02216" lon="7.20099">
        <ele>1216.282349</ele>
        <time>2016-04-24T09:57:31Z</time>
      </trkpt>
      <trkpt lat="44.02213" lon="7.20099">
        <ele>1215.694458</ele>
        <time>2016-04-24T09:57:33Z</time>
      </trkpt>
      <trkpt lat="44.02209" lon="7.20096">
        <ele>1212.89856</ele>
        <time>2016-04-24T09:57:37Z</time>
      </trkpt>
      <trkpt lat="44.02208" lon="7.20103">
        <ele>1216.56543</ele>
        <time>2016-04-24T09:57:43Z</time>
      </trkpt>
      <trkpt lat="44.02207" lon="7.20104">
        <ele>1216.645264</ele>
        <time>2016-04-24T09:57:44Z</time>
      </trkpt>
      <trkpt lat="44.02205" lon="7.20104">
        <ele>1216.560181</ele>
        <time>2016-04-24T09:57:45Z</time>
      </trkpt>
      <trkpt lat="44.02201" lon="7.2011">
        <ele>1218.48645</ele>
        <time>2016-04-24T09:57:51Z</time>
      </trkpt>
      <trkpt lat="44.02197" lon="7.20111">
        <ele>1217.824341</ele>
        <time>2016-04-24T09:57:54Z</time>
      </trkpt>
      <trkpt lat="44.02194" lon="7.20114">
        <ele>1218.597412</ele>
        <time>2016-04-24T09:57:56Z</time>
      </trkpt>
      <trkpt lat="44.02192" lon="7.20116">
        <ele>1219.125244</ele>
        <time>2016-04-24T09:57:58Z</time>
      </trkpt>
      <trkpt lat="44.0219" lon="7.20119">
        <ele>1219.869019</ele>
        <time>2016-04-24T09:58:01Z</time>
      </trkpt>
      <trkpt lat="44.02188" lon="7.2012">
        <ele>1219.806885</ele>
        <time>2016-04-24T09:58:03Z</time>
      </trkpt>
      <trkpt lat="44.02179" lon="7.20127">
        <ele>1219.668579</ele>
        <time>2016-04-24T09:58:09Z</time>
      </trkpt>
      <trkpt lat="44.02172" lon="7.20131">
        <ele>1218.979126</ele>
        <time>2016-04-24T09:58:13Z</time>
      </trkpt>
      <trkpt lat="44.02167" lon="7.20135">
        <ele>1219.084961</ele>
        <time>2016-04-24T09:58:15Z</time>
      </trkpt>
      <trkpt lat="44.02164" lon="7.20138">
        <ele>1218.719482</ele>
        <time>2016-04-24T09:58:17Z</time>
      </trkpt>
      <trkpt lat="44.02154" lon="7.20151">
        <ele>1220.031494</ele>
        <time>2016-04-24T09:58:22Z</time>
      </trkpt>
      <trkpt lat="44.02148" lon="7.20169">
        <ele>1224.544189</ele>
        <time>2016-04-24T09:58:27Z</time>
      </trkpt>
      <trkpt lat="44.02131" lon="7.20198">
        <ele>1228.351074</ele>
        <time>2016-04-24T09:58:36Z</time>
      </trkpt>
      <trkpt lat="44.02129" lon="7.20208">
        <ele>1229.642212</ele>
        <time>2016-04-24T09:58:39Z</time>
      </trkpt>
      <trkpt lat="44.02123" lon="7.2022">
        <ele>1229.550781</ele>
        <time>2016-04-24T09:58:42Z</time>
      </trkpt>
      <trkpt lat="44.02107" lon="7.20251">
        <ele>1229.742676</ele>
        <time>2016-04-24T09:58:52Z</time>
      </trkpt>
      <trkpt lat="44.02106" lon="7.20253">
        <ele>1229.641846</ele>
        <time>2016-04-24T09:58:53Z</time>
      </trkpt>
      <trkpt lat="44.02105" lon="7.20255">
        <ele>1229.68457</ele>
        <time>2016-04-24T09:58:54Z</time>
      </trkpt>
      <trkpt lat="44.02102" lon="7.20259">
        <ele>1230.38623</ele>
        <time>2016-04-24T09:58:56Z</time>
      </trkpt>
      <trkpt lat="44.02099" lon="7.20265">
        <ele>1231.445679</ele>
        <time>2016-04-24T09:58:59Z</time>
      </trkpt>
      <trkpt lat="44.02095" lon="7.20271">
        <ele>1233.042725</ele>
        <time>2016-04-24T09:59:03Z</time>
      </trkpt>
      <trkpt lat="44.02093" lon="7.20275">
        <ele>1234.013306</ele>
        <time>2016-04-24T09:59:06Z</time>
      </trkpt>
      <trkpt lat="44.0209" lon="7.20279">
        <ele>1234.955688</ele>
        <time>2016-04-24T09:59:09Z</time>
      </trkpt>
      <trkpt lat="44.02088" lon="7.20282">
        <ele>1235.549927</ele>
        <time>2016-04-24T09:59:14Z</time>
      </trkpt>
      <trkpt lat="44.02084" lon="7.20287">
        <ele>1236.370605</ele>
        <time>2016-04-24T09:59:19Z</time>
      </trkpt>
      <trkpt lat="44.02078" lon="7.20294">
        <ele>1237.8479</ele>
        <time>2016-04-24T09:59:23Z</time>
      </trkpt>
      <trkpt lat="44.02073" lon="7.20297">
        <ele>1238.125</ele>
        <time>2016-04-24T09:59:26Z</time>
      </trkpt>
      <trkpt lat="44.02068" lon="7.203">
        <ele>1238.399658</ele>
        <time>2016-04-24T09:59:29Z</time>
      </trkpt>
      <trkpt lat="44.02066" lon="7.20303">
        <ele>1239.214722</ele>
        <time>2016-04-24T09:59:31Z</time>
      </trkpt>
      <trkpt lat="44.0206" lon="7.20307">
        <ele>1239.482178</ele>
        <time>2016-04-24T09:59:36Z</time>
      </trkpt>
      <trkpt lat="44.02048" lon="7.20313">
        <ele>1239.755249</ele>
        <time>2016-04-24T09:59:42Z</time>
      </trkpt>
      <trkpt lat="44.02037" lon="7.20321">
        <ele>1240.244507</ele>
        <time>2016-04-24T09:59:48Z</time>
      </trkpt>
      <trkpt lat="44.02028" lon="7.20328">
        <ele>1241.094482</ele>
        <time>2016-04-24T09:59:53Z</time>
      </trkpt>
      <trkpt lat="44.02011" lon="7.2034">
        <ele>1242.061279</ele>
        <time>2016-04-24T10:00:01Z</time>
      </trkpt>
      <trkpt lat="44.01999" lon="7.20346">
        <ele>1241.020874</ele>
        <time>2016-04-24T10:00:06Z</time>
      </trkpt>
      <trkpt lat="44.01995" lon="7.20351">
        <ele>1242.258179</ele>
        <time>2016-04-24T10:00:08Z</time>
      </trkpt>
      <trkpt lat="44.01967" lon="7.20371">
        <ele>1241.934082</ele>
        <time>2016-04-24T10:00:18Z</time>
      </trkpt>
      <trkpt lat="44.01945" lon="7.20386">
        <ele>1238.953857</ele>
        <time>2016-04-24T10:00:27Z</time>
      </trkpt>
      <trkpt lat="44.01937" lon="7.20395">
        <ele>1240.844727</ele>
        <time>2016-04-24T10:00:32Z</time>
      </trkpt>
      <trkpt lat="44.01935" lon="7.20399">
        <ele>1241.999268</ele>
        <time>2016-04-24T10:00:34Z</time>
      </trkpt>
      <trkpt lat="44.01932" lon="7.20402">
        <ele>1243.088501</ele>
        <time>2016-04-24T10:00:36Z</time>
      </trkpt>
      <trkpt lat="44.01924" lon="7.20412">
        <ele>1247.568115</ele>
        <time>2016-04-24T10:00:42Z</time>
      </trkpt>
      <trkpt lat="44.01922" lon="7.20415">
        <ele>1249.104004</ele>
        <time>2016-04-24T10:00:44Z</time>
      </trkpt>
      <trkpt lat="44.01918" lon="7.2042">
        <ele>1252.225952</ele>
        <time>2016-04-24T10:00:47Z</time>
      </trkpt>
      <trkpt lat="44.01918" lon="7.20426">
        <ele>1255.107788</ele>
        <time>2016-04-24T10:00:50Z</time>
      </trkpt>
      <trkpt lat="44.0192" lon="7.20429">
        <ele>1253.933594</ele>
        <time>2016-04-24T10:00:52Z</time>
      </trkpt>
      <trkpt lat="44.01922" lon="7.2043">
        <ele>1252.79126</ele>
        <time>2016-04-24T10:00:54Z</time>
      </trkpt>
      <trkpt lat="44.01923" lon="7.2043">
        <ele>1252.630859</ele>
        <time>2016-04-24T10:00:55Z</time>
      </trkpt>
      <trkpt lat="44.01931" lon="7.20427">
        <ele>1252.959473</ele>
        <time>2016-04-24T10:01:01Z</time>
      </trkpt>
      <trkpt lat="44.01936" lon="7.20426">
        <ele>1251.267456</ele>
        <time>2016-04-24T10:01:05Z</time>
      </trkpt>
      <trkpt lat="44.01939" lon="7.20425">
        <ele>1250.615967</ele>
        <time>2016-04-24T10:01:06Z</time>
      </trkpt>
      <trkpt lat="44.01949" lon="7.20427">
        <ele>1249.359985</ele>
        <time>2016-04-24T10:01:11Z</time>
      </trkpt>
      <trkpt lat="44.01951" lon="7.20427">
        <ele>1249.079956</ele>
        <time>2016-04-24T10:01:13Z</time>
      </trkpt>
      <trkpt lat="44.01955" lon="7.20427">
        <ele>1248.239014</ele>
        <time>2016-04-24T10:01:17Z</time>
      </trkpt>
      <trkpt lat="44.01957" lon="7.20426">
        <ele>1247.950684</ele>
        <time>2016-04-24T10:01:18Z</time>
      </trkpt>
      <trkpt lat="44.0196" lon="7.20427">
        <ele>1247.532227</ele>
        <time>2016-04-24T10:01:20Z</time>
      </trkpt>
      <trkpt lat="44.01968" lon="7.20427">
        <ele>1250.21106</ele>
        <time>2016-04-24T10:01:25Z</time>
      </trkpt>
      <trkpt lat="44.01992" lon="7.20434">
        <ele>1259.18396</ele>
        <time>2016-04-24T10:01:37Z</time>
      </trkpt>
      <trkpt lat="44.01999" lon="7.20439">
        <ele>1260.108398</ele>
        <time>2016-04-24T10:01:39Z</time>
      </trkpt>
      <trkpt lat="44.02005" lon="7.20441">
        <ele>1261.244995</ele>
        <time>2016-04-24T10:01:40Z</time>
      </trkpt>
      <trkpt lat="44.0201" lon="7.20444">
        <ele>1263.197266</ele>
        <time>2016-04-24T10:01:41Z</time>
      </trkpt>
      <trkpt lat="44.02019" lon="7.20448">
        <ele>1266.684326</ele>
        <time>2016-04-24T10:01:43Z</time>
      </trkpt>
      <trkpt lat="44.02023" lon="7.20451">
        <ele>1267.575684</ele>
        <time>2016-04-24T10:01:44Z</time>
      </trkpt>
      <trkpt lat="44.02026" lon="7.20456">
        <ele>1267.845703</ele>
        <time>2016-04-24T10:01:45Z</time>
      </trkpt>
      <trkpt lat="44.0203" lon="7.20466">
        <ele>1266.451904</ele>
        <time>2016-04-24T10:01:47Z</time>
      </trkpt>
      <trkpt lat="44.02029" lon="7.20483">
        <ele>1260.35437</ele>
        <time>2016-04-24T10:01:51Z</time>
      </trkpt>
      <trkpt lat="44.02028" lon="7.20488">
        <ele>1257.989868</ele>
        <time>2016-04-24T10:01:52Z</time>
      </trkpt>
      <trkpt lat="44.02027" lon="7.20492">
        <ele>1256.04541</ele>
        <time>2016-04-24T10:01:53Z</time>
      </trkpt>
      <trkpt lat="44.02025" lon="7.20496">
        <ele>1253.5896</ele>
        <time>2016-04-24T10:01:54Z</time>
      </trkpt>
      <trkpt lat="44.02026" lon="7.20499">
        <ele>1252.818481</ele>
        <time>2016-04-24T10:01:55Z</time>
      </trkpt>
      <trkpt lat="44.02035" lon="7.20512">
        <ele>1253.407227</ele>
        <time>2016-04-24T10:01:59Z</time>
      </trkpt>
      <trkpt lat="44.02036" lon="7.20515">
        <ele>1253.665771</ele>
        <time>2016-04-24T10:02:00Z</time>
      </trkpt>
      <trkpt lat="44.02048" lon="7.20525">
        <ele>1257.168701</ele>
        <time>2016-04-24T10:02:05Z</time>
      </trkpt>
      <trkpt lat="44.02059" lon="7.20535">
        <ele>1260.166016</ele>
        <time>2016-04-24T10:02:10Z</time>
      </trkpt>
      <trkpt lat="44.0207" lon="7.20541">
        <ele>1264.44397</ele>
        <time>2016-04-24T10:02:14Z</time>
      </trkpt>
      <trkpt lat="44.02078" lon="7.20549">
        <ele>1266.623535</ele>
        <time>2016-04-24T10:02:18Z</time>
      </trkpt>
      <trkpt lat="44.02087" lon="7.20558">
        <ele>1269.927002</ele>
        <time>2016-04-24T10:02:23Z</time>
      </trkpt>
      <trkpt lat="44.02092" lon="7.20569">
        <ele>1270.193359</ele>
        <time>2016-04-24T10:02:27Z</time>
      </trkpt>
      <trkpt lat="44.02095" lon="7.20582">
        <ele>1272.283691</ele>
        <time>2016-04-24T10:02:31Z</time>
      </trkpt>
      <trkpt lat="44.02096" lon="7.20595">
        <ele>1273.071045</ele>
        <time>2016-04-24T10:02:35Z</time>
      </trkpt>
      <trkpt lat="44.02096" lon="7.20609">
        <ele>1273.129761</ele>
        <time>2016-04-24T10:02:40Z</time>
      </trkpt>
      <trkpt lat="44.02097" lon="7.20618">
        <ele>1273.873535</ele>
        <time>2016-04-24T10:02:43Z</time>
      </trkpt>
      <trkpt lat="44.02097" lon="7.20632">
        <ele>1273.547485</ele>
        <time>2016-04-24T10:02:48Z</time>
      </trkpt>
      <trkpt lat="44.02097" lon="7.20647">
        <ele>1274.290039</ele>
        <time>2016-04-24T10:02:53Z</time>
      </trkpt>
      <trkpt lat="44.02096" lon="7.20661">
        <ele>1274.02002</ele>
        <time>2016-04-24T10:02:58Z</time>
      </trkpt>
      <trkpt lat="44.02096" lon="7.20673">
        <ele>1274.222534</ele>
        <time>2016-04-24T10:03:02Z</time>
      </trkpt>
      <trkpt lat="44.02096" lon="7.20687">
        <ele>1274.762451</ele>
        <time>2016-04-24T10:03:07Z</time>
      </trkpt>
      <trkpt lat="44.02098" lon="7.207">
        <ele>1274.800293</ele>
        <time>2016-04-24T10:03:11Z</time>
      </trkpt>
      <trkpt lat="44.02103" lon="7.20713">
        <ele>1275.45105</ele>
        <time>2016-04-24T10:03:16Z</time>
      </trkpt>
      <trkpt lat="44.02105" lon="7.20721">
        <ele>1276.252075</ele>
        <time>2016-04-24T10:03:19Z</time>
      </trkpt>
      <trkpt lat="44.02109" lon="7.20731">
        <ele>1277.255127</ele>
        <time>2016-04-24T10:03:23Z</time>
      </trkpt>
      <trkpt lat="44.02111" lon="7.20741">
        <ele>1277.880981</ele>
        <time>2016-04-24T10:03:27Z</time>
      </trkpt>
      <trkpt lat="44.02118" lon="7.20755">
        <ele>1281.077759</ele>
        <time>2016-04-24T10:03:33Z</time>
      </trkpt>
      <trkpt lat="44.02124" lon="7.20764">
        <ele>1284.169434</ele>
        <time>2016-04-24T10:03:37Z</time>
      </trkpt>
      <trkpt lat="44.02129" lon="7.20774">
        <ele>1285.696533</ele>
        <time>2016-04-24T10:03:41Z</time>
      </trkpt>
      <trkpt lat="44.0214" lon="7.20783">
        <ele>1290.190186</ele>
        <time>2016-04-24T10:03:46Z</time>
      </trkpt>
      <trkpt lat="44.02151" lon="7.20799">
        <ele>1294.436768</ele>
        <time>2016-04-24T10:03:53Z</time>
      </trkpt>
      <trkpt lat="44.02154" lon="7.20818">
        <ele>1293.540405</ele>
        <time>2016-04-24T10:03:58Z</time>
      </trkpt>
      <trkpt lat="44.0215" lon="7.20835">
        <ele>1292.252563</ele>
        <time>2016-04-24T10:04:03Z</time>
      </trkpt>
      <trkpt lat="44.02146" lon="7.20851">
        <ele>1291.161011</ele>
        <time>2016-04-24T10:04:08Z</time>
      </trkpt>
      <trkpt lat="44.02144" lon="7.20872">
        <ele>1292.444702</ele>
        <time>2016-04-24T10:04:14Z</time>
      </trkpt>
      <trkpt lat="44.02144" lon="7.20887">
        <ele>1293.494507</ele>
        <time>2016-04-24T10:04:18Z</time>
      </trkpt>
      <trkpt lat="44.02144" lon="7.20906">
        <ele>1292.470947</ele>
        <time>2016-04-24T10:04:23Z</time>
      </trkpt>
      <trkpt lat="44.02145" lon="7.2093">
        <ele>1292.402954</ele>
        <time>2016-04-24T10:04:29Z</time>
      </trkpt>
      <trkpt lat="44.02162" lon="7.20968">
        <ele>1300.542236</ele>
        <time>2016-04-24T10:04:38Z</time>
      </trkpt>
      <trkpt lat="44.02168" lon="7.20983">
        <ele>1301.049194</ele>
        <time>2016-04-24T10:04:41Z</time>
      </trkpt>
      <trkpt lat="44.02171" lon="7.20999">
        <ele>1300.203979</ele>
        <time>2016-04-24T10:04:44Z</time>
      </trkpt>
      <trkpt lat="44.02177" lon="7.21025">
        <ele>1302.127441</ele>
        <time>2016-04-24T10:04:49Z</time>
      </trkpt>
      <trkpt lat="44.02182" lon="7.21046">
        <ele>1304.526489</ele>
        <time>2016-04-24T10:04:53Z</time>
      </trkpt>
      <trkpt lat="44.02181" lon="7.21059">
        <ele>1303.612793</ele>
        <time>2016-04-24T10:04:55Z</time>
      </trkpt>
      <trkpt lat="44.02177" lon="7.21071">
        <ele>1301.518188</ele>
        <time>2016-04-24T10:04:57Z</time>
      </trkpt>
      <trkpt lat="44.02156" lon="7.21098">
        <ele>1301.360352</ele>
        <time>2016-04-24T10:05:03Z</time>
      </trkpt>
      <trkpt lat="44.0215" lon="7.21105">
        <ele>1300.873047</ele>
        <time>2016-04-24T10:05:05Z</time>
      </trkpt>
      <trkpt lat="44.02132" lon="7.21114">
        <ele>1295.517578</ele>
        <time>2016-04-24T10:05:10Z</time>
      </trkpt>
      <trkpt lat="44.02122" lon="7.21131">
        <ele>1295.360596</ele>
        <time>2016-04-24T10:05:15Z</time>
      </trkpt>
      <trkpt lat="44.02118" lon="7.21151">
        <ele>1302.914429</ele>
        <time>2016-04-24T10:05:20Z</time>
      </trkpt>
      <trkpt lat="44.02112" lon="7.21163">
        <ele>1306.234253</ele>
        <time>2016-04-24T10:05:24Z</time>
      </trkpt>
      <trkpt lat="44.02104" lon="7.21177">
        <ele>1310.085938</ele>
        <time>2016-04-24T10:05:29Z</time>
      </trkpt>
      <trkpt lat="44.02097" lon="7.21186">
        <ele>1311.880249</ele>
        <time>2016-04-24T10:05:33Z</time>
      </trkpt>
      <trkpt lat="44.02087" lon="7.21197">
        <ele>1313.183838</ele>
        <time>2016-04-24T10:05:38Z</time>
      </trkpt>
      <trkpt lat="44.02079" lon="7.21204">
        <ele>1313.714966</ele>
        <time>2016-04-24T10:05:42Z</time>
      </trkpt>
      <trkpt lat="44.02065" lon="7.21213">
        <ele>1312.806396</ele>
        <time>2016-04-24T10:05:48Z</time>
      </trkpt>
      <trkpt lat="44.02051" lon="7.21219">
        <ele>1312.657593</ele>
        <time>2016-04-24T10:05:54Z</time>
      </trkpt>
      <trkpt lat="44.0202" lon="7.21236">
        <ele>1311.661743</ele>
        <time>2016-04-24T10:06:04Z</time>
      </trkpt>
      <trkpt lat="44.0201" lon="7.21249">
        <ele>1313.751953</ele>
        <time>2016-04-24T10:06:07Z</time>
      </trkpt>
      <trkpt lat="44.01997" lon="7.21272">
        <ele>1322.056152</ele>
        <time>2016-04-24T10:06:11Z</time>
      </trkpt>
      <trkpt lat="44.01986" lon="7.21277">
        <ele>1322.130737</ele>
        <time>2016-04-24T10:06:13Z</time>
      </trkpt>
      <trkpt lat="44.01978" lon="7.21266">
        <ele>1318.844849</ele>
        <time>2016-04-24T10:06:16Z</time>
      </trkpt>
      <trkpt lat="44.01972" lon="7.21251">
        <ele>1316.526611</ele>
        <time>2016-04-24T10:06:18Z</time>
      </trkpt>
      <trkpt lat="44.01971" lon="7.21238">
        <ele>1316.168945</ele>
        <time>2016-04-24T10:06:20Z</time>
      </trkpt>
      <trkpt lat="44.0197" lon="7.21223">
        <ele>1318.037476</ele>
        <time>2016-04-24T10:06:23Z</time>
      </trkpt>
      <trkpt lat="44.01972" lon="7.21205">
        <ele>1319.747314</ele>
        <time>2016-04-24T10:06:28Z</time>
      </trkpt>
      <trkpt lat="44.01975" lon="7.21196">
        <ele>1319.373779</ele>
        <time>2016-04-24T10:06:31Z</time>
      </trkpt>
      <trkpt lat="44.01977" lon="7.21189">
        <ele>1319.114746</ele>
        <time>2016-04-24T10:06:34Z</time>
      </trkpt>
      <trkpt lat="44.01977" lon="7.21186">
        <ele>1319.238647</ele>
        <time>2016-04-24T10:06:35Z</time>
      </trkpt>
      <trkpt lat="44.01979" lon="7.21178">
        <ele>1319.100586</ele>
        <time>2016-04-24T10:06:38Z</time>
      </trkpt>
      <trkpt lat="44.01983" lon="7.21167">
        <ele>1319.613403</ele>
        <time>2016-04-24T10:06:42Z</time>
      </trkpt>
      <trkpt lat="44.01985" lon="7.21162">
        <ele>1319.434326</ele>
        <time>2016-04-24T10:06:44Z</time>
      </trkpt>
      <trkpt lat="44.01988" lon="7.21154">
        <ele>1319.192139</ele>
        <time>2016-04-24T10:06:47Z</time>
      </trkpt>
      <trkpt lat="44.0199" lon="7.21143">
        <ele>1319.976196</ele>
        <time>2016-04-24T10:06:51Z</time>
      </trkpt>
      <trkpt lat="44.0199" lon="7.2113">
        <ele>1322.462646</ele>
        <time>2016-04-24T10:06:55Z</time>
      </trkpt>
      <trkpt lat="44.01992" lon="7.21119">
        <ele>1323.323608</ele>
        <time>2016-04-24T10:06:59Z</time>
      </trkpt>
      <trkpt lat="44.01992" lon="7.21105">
        <ele>1325.235962</ele>
        <time>2016-04-24T10:07:04Z</time>
      </trkpt>
      <trkpt lat="44.01993" lon="7.21089">
        <ele>1326.901245</ele>
        <time>2016-04-24T10:07:09Z</time>
      </trkpt>
      <trkpt lat="44.01996" lon="7.21071">
        <ele>1326.871948</ele>
        <time>2016-04-24T10:07:15Z</time>
      </trkpt>
      <trkpt lat="44.01998" lon="7.21059">
        <ele>1327.114136</ele>
        <time>2016-04-24T10:07:19Z</time>
      </trkpt>
      <trkpt lat="44.02002" lon="7.21044">
        <ele>1321.819214</ele>
        <time>2016-04-24T10:07:24Z</time>
      </trkpt>
      <trkpt lat="44.01998" lon="7.21029">
        <ele>1321.942383</ele>
        <time>2016-04-24T10:07:29Z</time>
      </trkpt>
      <trkpt lat="44.01992" lon="7.21015">
        <ele>1323.019043</ele>
        <time>2016-04-24T10:07:34Z</time>
      </trkpt>
      <trkpt lat="44.0199" lon="7.21012">
        <ele>1324.084351</ele>
        <time>2016-04-24T10:07:35Z</time>
      </trkpt>
      <trkpt lat="44.01981" lon="7.20998">
        <ele>1326.541992</ele>
        <time>2016-04-24T10:07:39Z</time>
      </trkpt>
      <trkpt lat="44.01966" lon="7.20989">
        <ele>1322.64563</ele>
        <time>2016-04-24T10:07:44Z</time>
      </trkpt>
      <trkpt lat="44.01956" lon="7.21004">
        <ele>1326.348389</ele>
        <time>2016-04-24T10:07:51Z</time>
      </trkpt>
      <trkpt lat="44.01951" lon="7.21026">
        <ele>1332.475342</ele>
        <time>2016-04-24T10:07:57Z</time>
      </trkpt>
      <trkpt lat="44.01941" lon="7.21041">
        <ele>1335.255005</ele>
        <time>2016-04-24T10:08:02Z</time>
      </trkpt>
      <trkpt lat="44.01928" lon="7.21063">
        <ele>1338.602539</ele>
        <time>2016-04-24T10:08:08Z</time>
      </trkpt>
      <trkpt lat="44.01911" lon="7.21096">
        <ele>1338.520142</ele>
        <time>2016-04-24T10:08:16Z</time>
      </trkpt>
      <trkpt lat="44.01899" lon="7.21127">
        <ele>1341.419678</ele>
        <time>2016-04-24T10:08:22Z</time>
      </trkpt>
      <trkpt lat="44.01886" lon="7.21138">
        <ele>1338.150757</ele>
        <time>2016-04-24T10:08:26Z</time>
      </trkpt>
      <trkpt lat="44.01871" lon="7.21146">
        <ele>1332.038696</ele>
        <time>2016-04-24T10:08:30Z</time>
      </trkpt>
      <trkpt lat="44.01866" lon="7.21163">
        <ele>1335.871338</ele>
        <time>2016-04-24T10:08:33Z</time>
      </trkpt>
      <trkpt lat="44.01869" lon="7.21196">
        <ele>1346.812988</ele>
        <time>2016-04-24T10:08:39Z</time>
      </trkpt>
      <trkpt lat="44.01855" lon="7.21242">
        <ele>1348.386841</ele>
        <time>2016-04-24T10:08:48Z</time>
      </trkpt>
      <trkpt lat="44.01844" lon="7.21261">
        <ele>1351.841309</ele>
        <time>2016-04-24T10:08:52Z</time>
      </trkpt>
      <trkpt lat="44.0184" lon="7.21264">
        <ele>1351.970459</ele>
        <time>2016-04-24T10:08:53Z</time>
      </trkpt>
      <trkpt lat="44.01836" lon="7.21267">
        <ele>1351.691528</ele>
        <time>2016-04-24T10:08:54Z</time>
      </trkpt>
      <trkpt lat="44.01826" lon="7.21277">
        <ele>1351.889771</ele>
        <time>2016-04-24T10:08:57Z</time>
      </trkpt>
      <trkpt lat="44.01809" lon="7.21298">
        <ele>1356.876099</ele>
        <time>2016-04-24T10:09:03Z</time>
      </trkpt>
      <trkpt lat="44.01789" lon="7.21315">
        <ele>1360.946045</ele>
        <time>2016-04-24T10:09:09Z</time>
      </trkpt>
      <trkpt lat="44.01762" lon="7.21332">
        <ele>1358.228149</ele>
        <time>2016-04-24T10:09:17Z</time>
      </trkpt>
      <trkpt lat="44.01746" lon="7.21346">
        <ele>1355.684082</ele>
        <time>2016-04-24T10:09:22Z</time>
      </trkpt>
      <trkpt lat="44.01731" lon="7.21368">
        <ele>1364.425415</ele>
        <time>2016-04-24T10:09:28Z</time>
      </trkpt>
      <trkpt lat="44.01725" lon="7.21375">
        <ele>1367.697876</ele>
        <time>2016-04-24T10:09:30Z</time>
      </trkpt>
      <trkpt lat="44.01721" lon="7.21378">
        <ele>1368.859741</ele>
        <time>2016-04-24T10:09:31Z</time>
      </trkpt>
      <trkpt lat="44.01718" lon="7.21379">
        <ele>1368.850098</ele>
        <time>2016-04-24T10:09:32Z</time>
      </trkpt>
      <trkpt lat="44.01711" lon="7.21383">
        <ele>1369.039795</ele>
        <time>2016-04-24T10:09:34Z</time>
      </trkpt>
      <trkpt lat="44.01694" lon="7.21395">
        <ele>1371.717163</ele>
        <time>2016-04-24T10:09:39Z</time>
      </trkpt>
      <trkpt lat="44.0167" lon="7.2139">
        <ele>1361.157349</ele>
        <time>2016-04-24T10:09:45Z</time>
      </trkpt>
      <trkpt lat="44.01657" lon="7.21385">
        <ele>1352.993774</ele>
        <time>2016-04-24T10:09:49Z</time>
      </trkpt>
      <trkpt lat="44.01645" lon="7.21381">
        <ele>1346.679199</ele>
        <time>2016-04-24T10:09:53Z</time>
      </trkpt>
      <trkpt lat="44.01632" lon="7.21387">
        <ele>1350.612549</ele>
        <time>2016-04-24T10:09:58Z</time>
      </trkpt>
      <trkpt lat="44.01616" lon="7.21389">
        <ele>1350.487061</ele>
        <time>2016-04-24T10:10:03Z</time>
      </trkpt>
      <trkpt lat="44.0159" lon="7.21405">
        <ele>1353.849854</ele>
        <time>2016-04-24T10:10:11Z</time>
      </trkpt>
      <trkpt lat="44.01592" lon="7.21457">
        <ele>1369.490723</ele>
        <time>2016-04-24T10:10:19Z</time>
      </trkpt>
      <trkpt lat="44.01592" lon="7.2147">
        <ele>1374.746948</ele>
        <time>2016-04-24T10:10:22Z</time>
      </trkpt>
      <trkpt lat="44.01587" lon="7.21475">
        <ele>1375.334717</ele>
        <time>2016-04-24T10:10:24Z</time>
      </trkpt>
      <trkpt lat="44.01584" lon="7.21476">
        <ele>1374.501831</ele>
        <time>2016-04-24T10:10:25Z</time>
      </trkpt>
      <trkpt lat="44.01573" lon="7.21474">
        <ele>1369.626953</ele>
        <time>2016-04-24T10:10:28Z</time>
      </trkpt>
      <trkpt lat="44.01555" lon="7.21482">
        <ele>1366.089355</ele>
        <time>2016-04-24T10:10:34Z</time>
      </trkpt>
      <trkpt lat="44.01548" lon="7.21493">
        <ele>1367.711182</ele>
        <time>2016-04-24T10:10:38Z</time>
      </trkpt>
      <trkpt lat="44.01545" lon="7.21495">
        <ele>1367.214111</ele>
        <time>2016-04-24T10:10:39Z</time>
      </trkpt>
      <trkpt lat="44.01543" lon="7.21498">
        <ele>1367.432007</ele>
        <time>2016-04-24T10:10:40Z</time>
      </trkpt>
      <trkpt lat="44.0154" lon="7.21518">
        <ele>1374.034668</ele>
        <time>2016-04-24T10:10:45Z</time>
      </trkpt>
      <trkpt lat="44.01529" lon="7.21537">
        <ele>1372.398315</ele>
        <time>2016-04-24T10:10:51Z</time>
      </trkpt>
      <trkpt lat="44.01526" lon="7.21557">
        <ele>1374.98938</ele>
        <time>2016-04-24T10:10:56Z</time>
      </trkpt>
      <trkpt lat="44.01523" lon="7.21571">
        <ele>1375.985596</ele>
        <time>2016-04-24T10:11:00Z</time>
      </trkpt>
      <trkpt lat="44.01519" lon="7.21589">
        <ele>1377.273926</ele>
        <time>2016-04-24T10:11:05Z</time>
      </trkpt>
      <trkpt lat="44.01514" lon="7.21611">
        <ele>1380.088013</ele>
        <time>2016-04-24T10:11:11Z</time>
      </trkpt>
      <trkpt lat="44.01508" lon="7.21632">
        <ele>1382.43042</ele>
        <time>2016-04-24T10:11:17Z</time>
      </trkpt>
      <trkpt lat="44.01499" lon="7.21644">
        <ele>1381.594482</ele>
        <time>2016-04-24T10:11:22Z</time>
      </trkpt>
      <trkpt lat="44.01492" lon="7.21654">
        <ele>1385.290161</ele>
        <time>2016-04-24T10:11:26Z</time>
      </trkpt>
      <trkpt lat="44.01486" lon="7.21665">
        <ele>1388.69397</ele>
        <time>2016-04-24T10:11:30Z</time>
      </trkpt>
      <trkpt lat="44.01477" lon="7.2168">
        <ele>1392.666748</ele>
        <time>2016-04-24T10:11:36Z</time>
      </trkpt>
      <trkpt lat="44.01472" lon="7.21678">
        <ele>1392.574707</ele>
        <time>2016-04-24T10:11:38Z</time>
      </trkpt>
      <trkpt lat="44.01469" lon="7.21673">
        <ele>1391.700928</ele>
        <time>2016-04-24T10:11:40Z</time>
      </trkpt>
      <trkpt lat="44.01467" lon="7.21661">
        <ele>1389.576416</ele>
        <time>2016-04-24T10:11:44Z</time>
      </trkpt>
      <trkpt lat="44.01465" lon="7.21643">
        <ele>1386.581299</ele>
        <time>2016-04-24T10:11:49Z</time>
      </trkpt>
      <trkpt lat="44.01465" lon="7.21632">
        <ele>1384.739502</ele>
        <time>2016-04-24T10:11:52Z</time>
      </trkpt>
      <trkpt lat="44.01466" lon="7.21623">
        <ele>1382.800049</ele>
        <time>2016-04-24T10:11:55Z</time>
      </trkpt>
      <trkpt lat="44.01463" lon="7.2161">
        <ele>1380.807617</ele>
        <time>2016-04-24T10:11:59Z</time>
      </trkpt>
      <trkpt lat="44.01459" lon="7.21595">
        <ele>1378.767944</ele>
        <time>2016-04-24T10:12:03Z</time>
      </trkpt>
      <trkpt lat="44.01453" lon="7.21578">
        <ele>1380.657959</ele>
        <time>2016-04-24T10:12:08Z</time>
      </trkpt>
      <trkpt lat="44.01448" lon="7.21565">
        <ele>1384.6073</ele>
        <time>2016-04-24T10:12:12Z</time>
      </trkpt>
      <trkpt lat="44.01439" lon="7.21545">
        <ele>1391.745361</ele>
        <time>2016-04-24T10:12:18Z</time>
      </trkpt>
      <trkpt lat="44.01434" lon="7.21535">
        <ele>1395.37146</ele>
        <time>2016-04-24T10:12:21Z</time>
      </trkpt>
      <trkpt lat="44.01431" lon="7.21525">
        <ele>1397.187134</ele>
        <time>2016-04-24T10:12:24Z</time>
      </trkpt>
      <trkpt lat="44.01431" lon="7.21506">
        <ele>1395.689087</ele>
        <time>2016-04-24T10:12:29Z</time>
      </trkpt>
      <trkpt lat="44.01433" lon="7.21491">
        <ele>1394.71814</ele>
        <time>2016-04-24T10:12:33Z</time>
      </trkpt>
      <trkpt lat="44.01435" lon="7.21475">
        <ele>1393.57373</ele>
        <time>2016-04-24T10:12:37Z</time>
      </trkpt>
      <trkpt lat="44.01436" lon="7.21461">
        <ele>1392.749878</ele>
        <time>2016-04-24T10:12:41Z</time>
      </trkpt>
      <trkpt lat="44.01436" lon="7.21439">
        <ele>1393.109253</ele>
        <time>2016-04-24T10:12:47Z</time>
      </trkpt>
      <trkpt lat="44.01435" lon="7.21421">
        <ele>1393.758423</ele>
        <time>2016-04-24T10:12:52Z</time>
      </trkpt>
      <trkpt lat="44.01428" lon="7.21397">
        <ele>1400.924805</ele>
        <time>2016-04-24T10:12:59Z</time>
      </trkpt>
      <trkpt lat="44.01423" lon="7.21374">
        <ele>1408.273071</ele>
        <time>2016-04-24T10:13:05Z</time>
      </trkpt>
      <trkpt lat="44.01424" lon="7.21364">
        <ele>1409.747192</ele>
        <time>2016-04-24T10:13:07Z</time>
      </trkpt>
      <trkpt lat="44.01429" lon="7.21345">
        <ele>1408.176025</ele>
        <time>2016-04-24T10:13:11Z</time>
      </trkpt>
      <trkpt lat="44.01436" lon="7.21331">
        <ele>1404.456177</ele>
        <time>2016-04-24T10:13:15Z</time>
      </trkpt>
      <trkpt lat="44.01443" lon="7.21318">
        <ele>1400.013184</ele>
        <time>2016-04-24T10:13:19Z</time>
      </trkpt>
      <trkpt lat="44.01443" lon="7.21304">
        <ele>1399.937256</ele>
        <time>2016-04-24T10:13:24Z</time>
      </trkpt>
      <trkpt lat="44.01438" lon="7.21293">
        <ele>1404.264893</ele>
        <time>2016-04-24T10:13:28Z</time>
      </trkpt>
      <trkpt lat="44.01431" lon="7.2127">
        <ele>1409.631592</ele>
        <time>2016-04-24T10:13:34Z</time>
      </trkpt>
      <trkpt lat="44.01429" lon="7.21253">
        <ele>1411.063354</ele>
        <time>2016-04-24T10:13:38Z</time>
      </trkpt>
      <trkpt lat="44.01429" lon="7.21241">
        <ele>1410.849243</ele>
        <time>2016-04-24T10:13:41Z</time>
      </trkpt>
      <trkpt lat="44.01427" lon="7.21223">
        <ele>1412.777832</ele>
        <time>2016-04-24T10:13:46Z</time>
      </trkpt>
      <trkpt lat="44.01433" lon="7.21192">
        <ele>1407.535034</ele>
        <time>2016-04-24T10:13:53Z</time>
      </trkpt>
      <trkpt lat="44.01438" lon="7.21176">
        <ele>1406.237427</ele>
        <time>2016-04-24T10:13:57Z</time>
      </trkpt>
      <trkpt lat="44.01446" lon="7.21161">
        <ele>1402.66748</ele>
        <time>2016-04-24T10:14:02Z</time>
      </trkpt>
      <trkpt lat="44.01451" lon="7.21145">
        <ele>1400.987549</ele>
        <time>2016-04-24T10:14:07Z</time>
      </trkpt>
      <trkpt lat="44.01451" lon="7.21142">
        <ele>1401.357544</ele>
        <time>2016-04-24T10:14:08Z</time>
      </trkpt>
      <trkpt lat="44.01446" lon="7.21134">
        <ele>1405.759766</ele>
        <time>2016-04-24T10:14:11Z</time>
      </trkpt>
      <trkpt lat="44.0144" lon="7.21126">
        <ele>1407.709229</ele>
        <time>2016-04-24T10:14:14Z</time>
      </trkpt>
      <trkpt lat="44.01441" lon="7.211">
        <ele>1401.864502</ele>
        <time>2016-04-24T10:14:20Z</time>
      </trkpt>
      <trkpt lat="44.01441" lon="7.21095">
        <ele>1400.771729</ele>
        <time>2016-04-24T10:14:21Z</time>
      </trkpt>
      <trkpt lat="44.01441" lon="7.21089">
        <ele>1399.484619</ele>
        <time>2016-04-24T10:14:22Z</time>
      </trkpt>
      <trkpt lat="44.0144" lon="7.21083">
        <ele>1398.385376</ele>
        <time>2016-04-24T10:14:23Z</time>
      </trkpt>
      <trkpt lat="44.0144" lon="7.21077">
        <ele>1396.967651</ele>
        <time>2016-04-24T10:14:24Z</time>
      </trkpt>
      <trkpt lat="44.01442" lon="7.21071">
        <ele>1394.851807</ele>
        <time>2016-04-24T10:14:25Z</time>
      </trkpt>
      <trkpt lat="44.01445" lon="7.21065">
        <ele>1392.418091</ele>
        <time>2016-04-24T10:14:26Z</time>
      </trkpt>
      <trkpt lat="44.01448" lon="7.21058">
        <ele>1389.780396</ele>
        <time>2016-04-24T10:14:27Z</time>
      </trkpt>
      <trkpt lat="44.01453" lon="7.2105">
        <ele>1386.622192</ele>
        <time>2016-04-24T10:14:28Z</time>
      </trkpt>
      <trkpt lat="44.01458" lon="7.21042">
        <ele>1383.739502</ele>
        <time>2016-04-24T10:14:29Z</time>
      </trkpt>
      <trkpt lat="44.01462" lon="7.21035">
        <ele>1381.624023</ele>
        <time>2016-04-24T10:14:30Z</time>
      </trkpt>
      <trkpt lat="44.01465" lon="7.2103">
        <ele>1380.264282</ele>
        <time>2016-04-24T10:14:31Z</time>
      </trkpt>
      <trkpt lat="44.01466" lon="7.21025">
        <ele>1379.797852</ele>
        <time>2016-04-24T10:14:32Z</time>
      </trkpt>
      <trkpt lat="44.01466" lon="7.21022">
        <ele>1379.911255</ele>
        <time>2016-04-24T10:14:33Z</time>
      </trkpt>
      <trkpt lat="44.01464" lon="7.21019">
        <ele>1380.393799</ele>
        <time>2016-04-24T10:14:34Z</time>
      </trkpt>
      <trkpt lat="44.0146" lon="7.21009">
        <ele>1381.729492</ele>
        <time>2016-04-24T10:14:36Z</time>
      </trkpt>
      <trkpt lat="44.01453" lon="7.20996">
        <ele>1384.43042</ele>
        <time>2016-04-24T10:14:38Z</time>
      </trkpt>
      <trkpt lat="44.01448" lon="7.20989">
        <ele>1386.977539</ele>
        <time>2016-04-24T10:14:39Z</time>
      </trkpt>
      <trkpt lat="44.01442" lon="7.20981">
        <ele>1389.702271</ele>
        <time>2016-04-24T10:14:40Z</time>
      </trkpt>
      <trkpt lat="44.01442" lon="7.20969">
        <ele>1390.861206</ele>
        <time>2016-04-24T10:14:42Z</time>
      </trkpt>
      <trkpt lat="44.01448" lon="7.20957">
        <ele>1388.66394</ele>
        <time>2016-04-24T10:14:44Z</time>
      </trkpt>
      <trkpt lat="44.01456" lon="7.2094">
        <ele>1384.14917</ele>
        <time>2016-04-24T10:14:46Z</time>
      </trkpt>
      <trkpt lat="44.01464" lon="7.20921">
        <ele>1378.530273</ele>
        <time>2016-04-24T10:14:48Z</time>
      </trkpt>
      <trkpt lat="44.01468" lon="7.20913">
        <ele>1376.20105</ele>
        <time>2016-04-24T10:14:49Z</time>
      </trkpt>
      <trkpt lat="44.0147" lon="7.20907">
        <ele>1374.392456</ele>
        <time>2016-04-24T10:14:50Z</time>
      </trkpt>
      <trkpt lat="44.01471" lon="7.20901">
        <ele>1373.386597</ele>
        <time>2016-04-24T10:14:51Z</time>
      </trkpt>
      <trkpt lat="44.01471" lon="7.20897">
        <ele>1372.998901</ele>
        <time>2016-04-24T10:14:52Z</time>
      </trkpt>
      <trkpt lat="44.01471" lon="7.20894">
        <ele>1373.151611</ele>
        <time>2016-04-24T10:14:53Z</time>
      </trkpt>
      <trkpt lat="44.01469" lon="7.20891">
        <ele>1373.992065</ele>
        <time>2016-04-24T10:14:54Z</time>
      </trkpt>
      <trkpt lat="44.01467" lon="7.20888">
        <ele>1375.335083</ele>
        <time>2016-04-24T10:14:55Z</time>
      </trkpt>
      <trkpt lat="44.01463" lon="7.20884">
        <ele>1375.799194</ele>
        <time>2016-04-24T10:14:56Z</time>
      </trkpt>
      <trkpt lat="44.01454" lon="7.20877">
        <ele>1378.277344</ele>
        <time>2016-04-24T10:14:58Z</time>
      </trkpt>
      <trkpt lat="44.01448" lon="7.20874">
        <ele>1380.557739</ele>
        <time>2016-04-24T10:14:59Z</time>
      </trkpt>
      <trkpt lat="44.01442" lon="7.20872">
        <ele>1383.116089</ele>
        <time>2016-04-24T10:15:00Z</time>
      </trkpt>
      <trkpt lat="44.01436" lon="7.2087">
        <ele>1385.531738</ele>
        <time>2016-04-24T10:15:01Z</time>
      </trkpt>
      <trkpt lat="44.0143" lon="7.20868">
        <ele>1387.935181</ele>
        <time>2016-04-24T10:15:02Z</time>
      </trkpt>
      <trkpt lat="44.01424" lon="7.20865">
        <ele>1389.40271</ele>
        <time>2016-04-24T10:15:03Z</time>
      </trkpt>
      <trkpt lat="44.01419" lon="7.2086">
        <ele>1390.192383</ele>
        <time>2016-04-24T10:15:04Z</time>
      </trkpt>
      <trkpt lat="44.01414" lon="7.20853">
        <ele>1389.952515</ele>
        <time>2016-04-24T10:15:05Z</time>
      </trkpt>
      <trkpt lat="44.0141" lon="7.20846">
        <ele>1389.342163</ele>
        <time>2016-04-24T10:15:06Z</time>
      </trkpt>
      <trkpt lat="44.01406" lon="7.20838">
        <ele>1388.604248</ele>
        <time>2016-04-24T10:15:07Z</time>
      </trkpt>
      <trkpt lat="44.01403" lon="7.20831">
        <ele>1387.437622</ele>
        <time>2016-04-24T10:15:08Z</time>
      </trkpt>
      <trkpt lat="44.014" lon="7.20823">
        <ele>1386.470947</ele>
        <time>2016-04-24T10:15:09Z</time>
      </trkpt>
      <trkpt lat="44.01395" lon="7.20816">
        <ele>1385.451904</ele>
        <time>2016-04-24T10:15:10Z</time>
      </trkpt>
      <trkpt lat="44.01391" lon="7.20809">
        <ele>1384.288086</ele>
        <time>2016-04-24T10:15:11Z</time>
      </trkpt>
      <trkpt lat="44.01385" lon="7.20792">
        <ele>1380.811768</ele>
        <time>2016-04-24T10:15:13Z</time>
      </trkpt>
      <trkpt lat="44.01384" lon="7.20774">
        <ele>1373.874756</ele>
        <time>2016-04-24T10:15:15Z</time>
      </trkpt>
      <trkpt lat="44.01383" lon="7.20767">
        <ele>1371.764648</ele>
        <time>2016-04-24T10:15:16Z</time>
      </trkpt>
      <trkpt lat="44.01381" lon="7.20761">
        <ele>1370.676025</ele>
        <time>2016-04-24T10:15:17Z</time>
      </trkpt>
      <trkpt lat="44.01381" lon="7.20755">
        <ele>1368.828125</ele>
        <time>2016-04-24T10:15:18Z</time>
      </trkpt>
      <trkpt lat="44.01382" lon="7.20748">
        <ele>1365.116699</ele>
        <time>2016-04-24T10:15:19Z</time>
      </trkpt>
      <trkpt lat="44.01384" lon="7.20733">
        <ele>1356.543701</ele>
        <time>2016-04-24T10:15:22Z</time>
      </trkpt>
      <trkpt lat="44.01377" lon="7.20728">
        <ele>1360.530762</ele>
        <time>2016-04-24T10:15:25Z</time>
      </trkpt>
      <trkpt lat="44.01373" lon="7.20721">
        <ele>1361.635742</ele>
        <time>2016-04-24T10:15:27Z</time>
      </trkpt>
      <trkpt lat="44.01371" lon="7.20715">
        <ele>1360.586548</ele>
        <time>2016-04-24T10:15:28Z</time>
      </trkpt>
      <trkpt lat="44.01367" lon="7.20699">
        <ele>1356.893799</ele>
        <time>2016-04-24T10:15:31Z</time>
      </trkpt>
      <trkpt lat="44.01366" lon="7.20696">
        <ele>1356.563354</ele>
        <time>2016-04-24T10:15:32Z</time>
      </trkpt>
      <trkpt lat="44.01363" lon="7.20692">
        <ele>1357.156128</ele>
        <time>2016-04-24T10:15:33Z</time>
      </trkpt>
      <trkpt lat="44.01357" lon="7.20682">
        <ele>1357.590332</ele>
        <time>2016-04-24T10:15:35Z</time>
      </trkpt>
      <trkpt lat="44.01351" lon="7.20665">
        <ele>1356.177002</ele>
        <time>2016-04-24T10:15:37Z</time>
      </trkpt>
      <trkpt lat="44.01347" lon="7.20655">
        <ele>1355.055542</ele>
        <time>2016-04-24T10:15:38Z</time>
      </trkpt>
      <trkpt lat="44.01347" lon="7.20647">
        <ele>1353.029907</ele>
        <time>2016-04-24T10:15:39Z</time>
      </trkpt>
      <trkpt lat="44.01346" lon="7.20639">
        <ele>1351.003784</ele>
        <time>2016-04-24T10:15:40Z</time>
      </trkpt>
      <trkpt lat="44.01345" lon="7.2063">
        <ele>1348.889526</ele>
        <time>2016-04-24T10:15:41Z</time>
      </trkpt>
      <trkpt lat="44.01345" lon="7.20622">
        <ele>1346.655762</ele>
        <time>2016-04-24T10:15:42Z</time>
      </trkpt>
      <trkpt lat="44.01344" lon="7.20615">
        <ele>1344.514038</ele>
        <time>2016-04-24T10:15:43Z</time>
      </trkpt>
      <trkpt lat="44.01344" lon="7.20606">
        <ele>1342.08667</ele>
        <time>2016-04-24T10:15:44Z</time>
      </trkpt>
      <trkpt lat="44.01344" lon="7.20597">
        <ele>1339.485229</ele>
        <time>2016-04-24T10:15:45Z</time>
      </trkpt>
      <trkpt lat="44.01345" lon="7.20588">
        <ele>1336.014038</ele>
        <time>2016-04-24T10:15:46Z</time>
      </trkpt>
      <trkpt lat="44.01345" lon="7.20578">
        <ele>1333.478271</ele>
        <time>2016-04-24T10:15:47Z</time>
      </trkpt>
      <trkpt lat="44.01345" lon="7.20571">
        <ele>1331.227905</ele>
        <time>2016-04-24T10:15:48Z</time>
      </trkpt>
      <trkpt lat="44.01344" lon="7.20565">
        <ele>1329.703857</ele>
        <time>2016-04-24T10:15:49Z</time>
      </trkpt>
      <trkpt lat="44.01342" lon="7.2056">
        <ele>1329.657715</ele>
        <time>2016-04-24T10:15:50Z</time>
      </trkpt>
      <trkpt lat="44.01338" lon="7.20557">
        <ele>1330.64856</ele>
        <time>2016-04-24T10:15:51Z</time>
      </trkpt>
      <trkpt lat="44.01333" lon="7.20552">
        <ele>1331.628052</ele>
        <time>2016-04-24T10:15:52Z</time>
      </trkpt>
      <trkpt lat="44.01329" lon="7.20547">
        <ele>1332.046143</ele>
        <time>2016-04-24T10:15:53Z</time>
      </trkpt>
      <trkpt lat="44.01324" lon="7.20542">
        <ele>1332.944214</ele>
        <time>2016-04-24T10:15:54Z</time>
      </trkpt>
      <trkpt lat="44.01318" lon="7.20538">
        <ele>1331.756714</ele>
        <time>2016-04-24T10:15:55Z</time>
      </trkpt>
      <trkpt lat="44.01314" lon="7.20536">
        <ele>1331.370972</ele>
        <time>2016-04-24T10:15:56Z</time>
      </trkpt>
      <trkpt lat="44.01309" lon="7.20537">
        <ele>1331.645996</ele>
        <time>2016-04-24T10:15:57Z</time>
      </trkpt>
      <trkpt lat="44.01304" lon="7.2054">
        <ele>1332.245972</ele>
        <time>2016-04-24T10:15:58Z</time>
      </trkpt>
      <trkpt lat="44.0129" lon="7.20548">
        <ele>1334.001831</ele>
        <time>2016-04-24T10:16:00Z</time>
      </trkpt>
      <trkpt lat="44.01275" lon="7.20557">
        <ele>1334.468262</ele>
        <time>2016-04-24T10:16:02Z</time>
      </trkpt>
      <trkpt lat="44.01268" lon="7.20561">
        <ele>1332.746216</ele>
        <time>2016-04-24T10:16:03Z</time>
      </trkpt>
      <trkpt lat="44.01262" lon="7.20563">
        <ele>1330.902466</ele>
        <time>2016-04-24T10:16:04Z</time>
      </trkpt>
      <trkpt lat="44.01255" lon="7.20566">
        <ele>1328.994873</ele>
        <time>2016-04-24T10:16:05Z</time>
      </trkpt>
      <trkpt lat="44.01247" lon="7.20571">
        <ele>1327.312622</ele>
        <time>2016-04-24T10:16:06Z</time>
      </trkpt>
      <trkpt lat="44.01239" lon="7.20577">
        <ele>1325.6521</ele>
        <time>2016-04-24T10:16:07Z</time>
      </trkpt>
      <trkpt lat="44.01232" lon="7.20584">
        <ele>1324.305176</ele>
        <time>2016-04-24T10:16:08Z</time>
      </trkpt>
      <trkpt lat="44.01225" lon="7.2059">
        <ele>1322.802856</ele>
        <time>2016-04-24T10:16:09Z</time>
      </trkpt>
      <trkpt lat="44.01219" lon="7.20597">
        <ele>1321.508789</ele>
        <time>2016-04-24T10:16:10Z</time>
      </trkpt>
      <trkpt lat="44.01212" lon="7.20605">
        <ele>1320.302124</ele>
        <time>2016-04-24T10:16:11Z</time>
      </trkpt>
      <trkpt lat="44.01207" lon="7.20613">
        <ele>1319.541138</ele>
        <time>2016-04-24T10:16:12Z</time>
      </trkpt>
      <trkpt lat="44.01203" lon="7.2062">
        <ele>1318.796143</ele>
        <time>2016-04-24T10:16:13Z</time>
      </trkpt>
      <trkpt lat="44.012" lon="7.20626">
        <ele>1318.110107</ele>
        <time>2016-04-24T10:16:14Z</time>
      </trkpt>
      <trkpt lat="44.01196" lon="7.20632">
        <ele>1317.042969</ele>
        <time>2016-04-24T10:16:15Z</time>
      </trkpt>
      <trkpt lat="44.01192" lon="7.20638">
        <ele>1315.753052</ele>
        <time>2016-04-24T10:16:16Z</time>
      </trkpt>
      <trkpt lat="44.01187" lon="7.20643">
        <ele>1314.224854</ele>
        <time>2016-04-24T10:16:17Z</time>
      </trkpt>
      <trkpt lat="44.01183" lon="7.20649">
        <ele>1312.719849</ele>
        <time>2016-04-24T10:16:18Z</time>
      </trkpt>
      <trkpt lat="44.01175" lon="7.20661">
        <ele>1310.044189</ele>
        <time>2016-04-24T10:16:20Z</time>
      </trkpt>
      <trkpt lat="44.01171" lon="7.20668">
        <ele>1308.502686</ele>
        <time>2016-04-24T10:16:21Z</time>
      </trkpt>
      <trkpt lat="44.01168" lon="7.20674">
        <ele>1307.230835</ele>
        <time>2016-04-24T10:16:22Z</time>
      </trkpt>
      <trkpt lat="44.01165" lon="7.2068">
        <ele>1305.76709</ele>
        <time>2016-04-24T10:16:23Z</time>
      </trkpt>
      <trkpt lat="44.01161" lon="7.20685">
        <ele>1303.825928</ele>
        <time>2016-04-24T10:16:24Z</time>
      </trkpt>
      <trkpt lat="44.01158" lon="7.20691">
        <ele>1301.994751</ele>
        <time>2016-04-24T10:16:25Z</time>
      </trkpt>
      <trkpt lat="44.01155" lon="7.20696">
        <ele>1300.350342</ele>
        <time>2016-04-24T10:16:26Z</time>
      </trkpt>
      <trkpt lat="44.01153" lon="7.207">
        <ele>1299.249756</ele>
        <time>2016-04-24T10:16:27Z</time>
      </trkpt>
      <trkpt lat="44.0115" lon="7.20704">
        <ele>1297.776245</ele>
        <time>2016-04-24T10:16:29Z</time>
      </trkpt>
      <trkpt lat="44.01147" lon="7.2071">
        <ele>1296.006836</ele>
        <time>2016-04-24T10:16:31Z</time>
      </trkpt>
      <trkpt lat="44.01143" lon="7.20721">
        <ele>1293.876587</ele>
        <time>2016-04-24T10:16:34Z</time>
      </trkpt>
      <trkpt lat="44.01142" lon="7.20725">
        <ele>1293.378174</ele>
        <time>2016-04-24T10:16:35Z</time>
      </trkpt>
      <trkpt lat="44.01143" lon="7.20728">
        <ele>1293.544922</ele>
        <time>2016-04-24T10:16:36Z</time>
      </trkpt>
      <trkpt lat="44.01144" lon="7.20734">
        <ele>1294.546753</ele>
        <time>2016-04-24T10:16:38Z</time>
      </trkpt>
      <trkpt lat="44.01146" lon="7.2075">
        <ele>1295.045044</ele>
        <time>2016-04-24T10:16:42Z</time>
      </trkpt>
      <trkpt lat="44.01163" lon="7.20797">
        <ele>1303.54248</ele>
        <time>2016-04-24T10:16:56Z</time>
      </trkpt>
      <trkpt lat="44.01165" lon="7.208">
        <ele>1304.541504</ele>
        <time>2016-04-24T10:16:57Z</time>
      </trkpt>
      <trkpt lat="44.01164" lon="7.20806">
        <ele>1303.776367</ele>
        <time>2016-04-24T10:16:59Z</time>
      </trkpt>
      <trkpt lat="44.01158" lon="7.20821">
        <ele>1299.638916</ele>
        <time>2016-04-24T10:17:03Z</time>
      </trkpt>
      <trkpt lat="44.01156" lon="7.20829">
        <ele>1297.393555</ele>
        <time>2016-04-24T10:17:05Z</time>
      </trkpt>
      <trkpt lat="44.01155" lon="7.20838">
        <ele>1296.761597</ele>
        <time>2016-04-24T10:17:07Z</time>
      </trkpt>
      <trkpt lat="44.01156" lon="7.20843">
        <ele>1297.595215</ele>
        <time>2016-04-24T10:17:08Z</time>
      </trkpt>
      <trkpt lat="44.01156" lon="7.20852">
        <ele>1296.882202</ele>
        <time>2016-04-24T10:17:10Z</time>
      </trkpt>
      <trkpt lat="44.01143" lon="7.20872">
        <ele>1288.012085</ele>
        <time>2016-04-24T10:17:16Z</time>
      </trkpt>
      <trkpt lat="44.01154" lon="7.20926">
        <ele>1299.770874</ele>
        <time>2016-04-24T10:17:29Z</time>
      </trkpt>
      <trkpt lat="44.01158" lon="7.20939">
        <ele>1306.812378</ele>
        <time>2016-04-24T10:17:36Z</time>
      </trkpt>
      <trkpt lat="44.01156" lon="7.20943">
        <ele>1307.833984</ele>
        <time>2016-04-24T10:17:44Z</time>
      </trkpt>
      <trkpt lat="44.01154" lon="7.20946">
        <ele>1308.54541</ele>
        <time>2016-04-24T10:17:49Z</time>
      </trkpt>
      <trkpt lat="44.01146" lon="7.20947">
        <ele>1306.860107</ele>
        <time>2016-04-24T10:17:54Z</time>
      </trkpt>
      <trkpt lat="44.01134" lon="7.2095">
        <ele>1305.199707</ele>
        <time>2016-04-24T10:18:01Z</time>
      </trkpt>
      <trkpt lat="44.01131" lon="7.20954">
        <ele>1306.883789</ele>
        <time>2016-04-24T10:18:03Z</time>
      </trkpt>
      <trkpt lat="44.0113" lon="7.20955">
        <ele>1307.439941</ele>
        <time>2016-04-24T10:18:04Z</time>
      </trkpt>
      <trkpt lat="44.01126" lon="7.20953">
        <ele>1305.25415</ele>
        <time>2016-04-24T10:18:06Z</time>
      </trkpt>
      <trkpt lat="44.01114" lon="7.20942">
        <ele>1296.891724</ele>
        <time>2016-04-24T10:18:10Z</time>
      </trkpt>
      <trkpt lat="44.01108" lon="7.2094">
        <ele>1295.02124</ele>
        <time>2016-04-24T10:18:12Z</time>
      </trkpt>
      <trkpt lat="44.011" lon="7.2094">
        <ele>1294.074585</ele>
        <time>2016-04-24T10:18:14Z</time>
      </trkpt>
      <trkpt lat="44.01091" lon="7.20946">
        <ele>1295.756226</ele>
        <time>2016-04-24T10:18:17Z</time>
      </trkpt>
      <trkpt lat="44.01077" lon="7.20961">
        <ele>1299.273804</ele>
        <time>2016-04-24T10:18:23Z</time>
      </trkpt>
      <trkpt lat="44.01061" lon="7.2095">
        <ele>1293.614746</ele>
        <time>2016-04-24T10:18:30Z</time>
      </trkpt>
      <trkpt lat="44.01058" lon="7.20947">
        <ele>1291.552368</ele>
        <time>2016-04-24T10:18:31Z</time>
      </trkpt>
      <trkpt lat="44.01055" lon="7.20943">
        <ele>1289.501587</ele>
        <time>2016-04-24T10:18:32Z</time>
      </trkpt>
      <trkpt lat="44.01048" lon="7.20934">
        <ele>1283.938232</ele>
        <time>2016-04-24T10:18:34Z</time>
      </trkpt>
      <trkpt lat="44.01043" lon="7.2093">
        <ele>1280.762817</ele>
        <time>2016-04-24T10:18:35Z</time>
      </trkpt>
      <trkpt lat="44.01039" lon="7.20927">
        <ele>1278.241089</ele>
        <time>2016-04-24T10:18:36Z</time>
      </trkpt>
      <trkpt lat="44.01035" lon="7.20924">
        <ele>1276.225098</ele>
        <time>2016-04-24T10:18:37Z</time>
      </trkpt>
      <trkpt lat="44.01029" lon="7.20921">
        <ele>1274.771362</ele>
        <time>2016-04-24T10:18:38Z</time>
      </trkpt>
      <trkpt lat="44.01025" lon="7.2092">
        <ele>1274.558228</ele>
        <time>2016-04-24T10:18:39Z</time>
      </trkpt>
      <trkpt lat="44.01011" lon="7.20916">
        <ele>1274.066895</ele>
        <time>2016-04-24T10:18:41Z</time>
      </trkpt>
      <trkpt lat="44.00995" lon="7.20914">
        <ele>1274.403442</ele>
        <time>2016-04-24T10:18:44Z</time>
      </trkpt>
      <trkpt lat="44.00987" lon="7.20915">
        <ele>1273.620972</ele>
        <time>2016-04-24T10:18:46Z</time>
      </trkpt>
      <trkpt lat="44.00974" lon="7.20927">
        <ele>1272.991699</ele>
        <time>2016-04-24T10:18:49Z</time>
      </trkpt>
      <trkpt lat="44.00969" lon="7.2094">
        <ele>1274.914307</ele>
        <time>2016-04-24T10:18:51Z</time>
      </trkpt>
      <trkpt lat="44.00961" lon="7.20953">
        <ele>1275.284668</ele>
        <time>2016-04-24T10:18:53Z</time>
      </trkpt>
      <trkpt lat="44.00955" lon="7.20959">
        <ele>1273.866455</ele>
        <time>2016-04-24T10:18:54Z</time>
      </trkpt>
      <trkpt lat="44.00948" lon="7.20965">
        <ele>1272.392822</ele>
        <time>2016-04-24T10:18:55Z</time>
      </trkpt>
      <trkpt lat="44.00944" lon="7.20969">
        <ele>1271.206543</ele>
        <time>2016-04-24T10:18:56Z</time>
      </trkpt>
      <trkpt lat="44.0094" lon="7.20972">
        <ele>1270.998901</ele>
        <time>2016-04-24T10:18:57Z</time>
      </trkpt>
      <trkpt lat="44.00939" lon="7.20976">
        <ele>1271.644897</ele>
        <time>2016-04-24T10:18:58Z</time>
      </trkpt>
      <trkpt lat="44.00938" lon="7.20979">
        <ele>1272.246826</ele>
        <time>2016-04-24T10:18:59Z</time>
      </trkpt>
      <trkpt lat="44.00935" lon="7.20982">
        <ele>1272.610352</ele>
        <time>2016-04-24T10:19:00Z</time>
      </trkpt>
      <trkpt lat="44.00933" lon="7.20984">
        <ele>1272.365601</ele>
        <time>2016-04-24T10:19:01Z</time>
      </trkpt>
      <trkpt lat="44.00929" lon="7.20984">
        <ele>1270.888062</ele>
        <time>2016-04-24T10:19:02Z</time>
      </trkpt>
      <trkpt lat="44.0092" lon="7.20981">
        <ele>1266.703125</ele>
        <time>2016-04-24T10:19:04Z</time>
      </trkpt>
      <trkpt lat="44.0091" lon="7.20977">
        <ele>1261.469971</ele>
        <time>2016-04-24T10:19:06Z</time>
      </trkpt>
      <trkpt lat="44.00905" lon="7.20976">
        <ele>1258.981201</ele>
        <time>2016-04-24T10:19:07Z</time>
      </trkpt>
      <trkpt lat="44.009" lon="7.20975">
        <ele>1256.875854</ele>
        <time>2016-04-24T10:19:08Z</time>
      </trkpt>
      <trkpt lat="44.00894" lon="7.20974">
        <ele>1254.780884</ele>
        <time>2016-04-24T10:19:09Z</time>
      </trkpt>
      <trkpt lat="44.00887" lon="7.20973">
        <ele>1252.071167</ele>
        <time>2016-04-24T10:19:10Z</time>
      </trkpt>
      <trkpt lat="44.00879" lon="7.20972">
        <ele>1249.872314</ele>
        <time>2016-04-24T10:19:11Z</time>
      </trkpt>
      <trkpt lat="44.00873" lon="7.20972">
        <ele>1248.08667</ele>
        <time>2016-04-24T10:19:12Z</time>
      </trkpt>
      <trkpt lat="44.00861" lon="7.20975">
        <ele>1245.250854</ele>
        <time>2016-04-24T10:19:14Z</time>
      </trkpt>
      <trkpt lat="44.00856" lon="7.20978">
        <ele>1244.599243</ele>
        <time>2016-04-24T10:19:15Z</time>
      </trkpt>
      <trkpt lat="44.00851" lon="7.2098">
        <ele>1242.69751</ele>
        <time>2016-04-24T10:19:16Z</time>
      </trkpt>
      <trkpt lat="44.00847" lon="7.20984">
        <ele>1240.637451</ele>
        <time>2016-04-24T10:19:17Z</time>
      </trkpt>
      <trkpt lat="44.00841" lon="7.20992">
        <ele>1238.38501</ele>
        <time>2016-04-24T10:19:19Z</time>
      </trkpt>
      <trkpt lat="44.00838" lon="7.21">
        <ele>1238.412476</ele>
        <time>2016-04-24T10:19:21Z</time>
      </trkpt>
      <trkpt lat="44.00837" lon="7.21011">
        <ele>1240.015015</ele>
        <time>2016-04-24T10:19:23Z</time>
      </trkpt>
      <trkpt lat="44.00836" lon="7.21026">
        <ele>1242.091309</ele>
        <time>2016-04-24T10:19:26Z</time>
      </trkpt>
      <trkpt lat="44.00838" lon="7.21038">
        <ele>1242.386719</ele>
        <time>2016-04-24T10:19:28Z</time>
      </trkpt>
      <trkpt lat="44.0084" lon="7.21044">
        <ele>1243.389893</ele>
        <time>2016-04-24T10:19:29Z</time>
      </trkpt>
      <trkpt lat="44.00842" lon="7.2105">
        <ele>1244.552002</ele>
        <time>2016-04-24T10:19:30Z</time>
      </trkpt>
      <trkpt lat="44.00847" lon="7.21065">
        <ele>1246.199219</ele>
        <time>2016-04-24T10:19:33Z</time>
      </trkpt>
      <trkpt lat="44.0085" lon="7.21077">
        <ele>1246.005859</ele>
        <time>2016-04-24T10:19:35Z</time>
      </trkpt>
      <trkpt lat="44.00851" lon="7.21088">
        <ele>1248.015381</ele>
        <time>2016-04-24T10:19:37Z</time>
      </trkpt>
      <trkpt lat="44.00852" lon="7.21093">
        <ele>1250.393921</ele>
        <time>2016-04-24T10:19:39Z</time>
      </trkpt>
      <trkpt lat="44.00851" lon="7.21099">
        <ele>1252.375366</ele>
        <time>2016-04-24T10:19:41Z</time>
      </trkpt>
      <trkpt lat="44.00849" lon="7.21101">
        <ele>1252.416504</ele>
        <time>2016-04-24T10:19:43Z</time>
      </trkpt>
      <trkpt lat="44.00848" lon="7.21101">
        <ele>1251.733643</ele>
        <time>2016-04-24T10:19:47Z</time>
      </trkpt>
      <trkpt lat="44.00848" lon="7.21104">
        <ele>1253.043335</ele>
        <time>2016-04-24T10:19:50Z</time>
      </trkpt>
      <trkpt lat="44.00841" lon="7.21095">
        <ele>1245.910278</ele>
        <time>2016-04-24T10:20:01Z</time>
      </trkpt>
      <trkpt lat="44.00819" lon="7.211">
        <ele>1237.871216</ele>
        <time>2016-04-24T10:20:09Z</time>
      </trkpt>
      <trkpt lat="44.00812" lon="7.21109">
        <ele>1236.630859</ele>
        <time>2016-04-24T10:20:12Z</time>
      </trkpt>
      <trkpt lat="44.00805" lon="7.21116">
        <ele>1235.407104</ele>
        <time>2016-04-24T10:20:15Z</time>
      </trkpt>
      <trkpt lat="44.00804" lon="7.21118">
        <ele>1235.078613</ele>
        <time>2016-04-24T10:20:17Z</time>
      </trkpt>
      <trkpt lat="44.00803" lon="7.2111">
        <ele>1232.911743</ele>
        <time>2016-04-24T10:20:20Z</time>
      </trkpt>
      <trkpt lat="44.00804" lon="7.21106">
        <ele>1232.370117</ele>
        <time>2016-04-24T10:20:21Z</time>
      </trkpt>
      <trkpt lat="44.00805" lon="7.21101">
        <ele>1231.579346</ele>
        <time>2016-04-24T10:20:23Z</time>
      </trkpt>
      <trkpt lat="44.00805" lon="7.21095">
        <ele>1229.650024</ele>
        <time>2016-04-24T10:20:25Z</time>
      </trkpt>
      <trkpt lat="44.00802" lon="7.21088">
        <ele>1227.46814</ele>
        <time>2016-04-24T10:20:28Z</time>
      </trkpt>
      <trkpt lat="44.00794" lon="7.21076">
        <ele>1223.138794</ele>
        <time>2016-04-24T10:20:31Z</time>
      </trkpt>
      <trkpt lat="44.00786" lon="7.21069">
        <ele>1220.016724</ele>
        <time>2016-04-24T10:20:33Z</time>
      </trkpt>
      <trkpt lat="44.00778" lon="7.21066">
        <ele>1217.34436</ele>
        <time>2016-04-24T10:20:35Z</time>
      </trkpt>
      <trkpt lat="44.00771" lon="7.21065">
        <ele>1215.188354</ele>
        <time>2016-04-24T10:20:37Z</time>
      </trkpt>
      <trkpt lat="44.0076" lon="7.21068">
        <ele>1213.44104</ele>
        <time>2016-04-24T10:20:40Z</time>
      </trkpt>
      <trkpt lat="44.0075" lon="7.21071">
        <ele>1216.6698</ele>
        <time>2016-04-24T10:20:42Z</time>
      </trkpt>
      <trkpt lat="44.00746" lon="7.21072">
        <ele>1217.986938</ele>
        <time>2016-04-24T10:20:43Z</time>
      </trkpt>
      <trkpt lat="44.00741" lon="7.21074">
        <ele>1219.245483</ele>
        <time>2016-04-24T10:20:44Z</time>
      </trkpt>
      <trkpt lat="44.00737" lon="7.21075">
        <ele>1220.331177</ele>
        <time>2016-04-24T10:20:45Z</time>
      </trkpt>
      <trkpt lat="44.00732" lon="7.21079">
        <ele>1222.504883</ele>
        <time>2016-04-24T10:20:47Z</time>
      </trkpt>
      <trkpt lat="44.00729" lon="7.21086">
        <ele>1224.75769</ele>
        <time>2016-04-24T10:20:49Z</time>
      </trkpt>
      <trkpt lat="44.00726" lon="7.21091">
        <ele>1226.291016</ele>
        <time>2016-04-24T10:20:51Z</time>
      </trkpt>
      <trkpt lat="44.00724" lon="7.21093">
        <ele>1226.981567</ele>
        <time>2016-04-24T10:20:53Z</time>
      </trkpt>
      <trkpt lat="44.00723" lon="7.21092">
        <ele>1226.873535</ele>
        <time>2016-04-24T10:20:56Z</time>
      </trkpt>
      <trkpt lat="44.00728" lon="7.21087">
        <ele>1224.979126</ele>
        <time>2016-04-24T10:21:05Z</time>
      </trkpt>
      <trkpt lat="44.00731" lon="7.21084">
        <ele>1223.975464</ele>
        <time>2016-04-24T10:21:10Z</time>
      </trkpt>
      <trkpt lat="44.00734" lon="7.21082">
        <ele>1222.915527</ele>
        <time>2016-04-24T10:21:12Z</time>
      </trkpt>
      <trkpt lat="44.00731" lon="7.21076">
        <ele>1221.623535</ele>
        <time>2016-04-24T10:21:14Z</time>
      </trkpt>
      <trkpt lat="44.00733" lon="7.21073">
        <ele>1220.820923</ele>
        <time>2016-04-24T10:21:15Z</time>
      </trkpt>
      <trkpt lat="44.00734" lon="7.21071">
        <ele>1220.327881</ele>
        <time>2016-04-24T10:21:16Z</time>
      </trkpt>
      <trkpt lat="44.00742" lon="7.21057">
        <ele>1216.484131</ele>
        <time>2016-04-24T10:21:23Z</time>
      </trkpt>
      <trkpt lat="44.00741" lon="7.21054">
        <ele>1216.224609</ele>
        <time>2016-04-24T10:21:26Z</time>
      </trkpt>
      <trkpt lat="44.00737" lon="7.21053">
        <ele>1217.641113</ele>
        <time>2016-04-24T10:21:29Z</time>
      </trkpt>
      <trkpt lat="44.00738" lon="7.2105">
        <ele>1216.876709</ele>
        <time>2016-04-24T10:21:33Z</time>
      </trkpt>
      <trkpt lat="44.00738" lon="7.21043">
        <ele>1215.940918</ele>
        <time>2016-04-24T10:21:36Z</time>
      </trkpt>
      <trkpt lat="44.00738" lon="7.21039">
        <ele>1215.585815</ele>
        <time>2016-04-24T10:21:39Z</time>
      </trkpt>
      <trkpt lat="44.00742" lon="7.21019">
        <ele>1211.480591</ele>
        <time>2016-04-24T10:21:47Z</time>
      </trkpt>
      <trkpt lat="44.00742" lon="7.21016">
        <ele>1210.935425</ele>
        <time>2016-04-24T10:21:49Z</time>
      </trkpt>
      <trkpt lat="44.00738" lon="7.21007">
        <ele>1212.364258</ele>
        <time>2016-04-24T10:21:54Z</time>
      </trkpt>
      <trkpt lat="44.00735" lon="7.21">
        <ele>1214.366821</ele>
        <time>2016-04-24T10:21:58Z</time>
      </trkpt>
      <trkpt lat="44.00735" lon="7.20998">
        <ele>1214.547485</ele>
        <time>2016-04-24T10:21:59Z</time>
      </trkpt>
      <trkpt lat="44.00734" lon="7.20991">
        <ele>1214.663696</ele>
        <time>2016-04-24T10:22:03Z</time>
      </trkpt>
      <trkpt lat="44.00734" lon="7.20988">
        <ele>1214.641235</ele>
        <time>2016-04-24T10:22:05Z</time>
      </trkpt>
      <trkpt lat="44.00729" lon="7.20982">
        <ele>1217.796387</ele>
        <time>2016-04-24T10:22:08Z</time>
      </trkpt>
      <trkpt lat="44.00728" lon="7.2098">
        <ele>1218.342773</ele>
        <time>2016-04-24T10:22:09Z</time>
      </trkpt>
      <trkpt lat="44.00724" lon="7.20974">
        <ele>1220.793335</ele>
        <time>2016-04-24T10:22:14Z</time>
      </trkpt>
      <trkpt lat="44.0072" lon="7.20968">
        <ele>1223.586426</ele>
        <time>2016-04-24T10:22:20Z</time>
      </trkpt>
      <trkpt lat="44.0072" lon="7.2097">
        <ele>1224.001099</ele>
        <time>2016-04-24T10:22:22Z</time>
      </trkpt>
      <trkpt lat="44.00718" lon="7.2098">
        <ele>1225.756592</ele>
        <time>2016-04-24T10:22:27Z</time>
      </trkpt>
      <trkpt lat="44.00716" lon="7.20992">
        <ele>1227.85498</ele>
        <time>2016-04-24T10:22:35Z</time>
      </trkpt>
      <trkpt lat="44.00713" lon="7.21002">
        <ele>1231.30957</ele>
        <time>2016-04-24T10:22:41Z</time>
      </trkpt>
      <trkpt lat="44.00712" lon="7.21007">
        <ele>1232.405029</ele>
        <time>2016-04-24T10:22:44Z</time>
      </trkpt>
      <trkpt lat="44.00709" lon="7.21014">
        <ele>1234.609985</ele>
        <time>2016-04-24T10:22:48Z</time>
      </trkpt>
      <trkpt lat="44.00705" lon="7.21021">
        <ele>1238.099976</ele>
        <time>2016-04-24T10:22:53Z</time>
      </trkpt>
      <trkpt lat="44.00704" lon="7.21025">
        <ele>1239.180054</ele>
        <time>2016-04-24T10:22:58Z</time>
      </trkpt>
      <trkpt lat="44.00703" lon="7.21025">
        <ele>1240.23999</ele>
        <time>2016-04-24T10:22:59Z</time>
      </trkpt>
      <trkpt lat="44.00703" lon="7.21023">
        <ele>1240.547485</ele>
        <time>2016-04-24T10:23:05Z</time>
      </trkpt>
      <trkpt lat="44.0071" lon="7.21018">
        <ele>1233.77002</ele>
        <time>2016-04-24T10:23:09Z</time>
      </trkpt>
      <trkpt lat="44.00712" lon="7.21011">
        <ele>1231.964966</ele>
        <time>2016-04-24T10:23:15Z</time>
      </trkpt>
      <trkpt lat="44.0071" lon="7.21006">
        <ele>1234.184204</ele>
        <time>2016-04-24T10:23:19Z</time>
      </trkpt>
      <trkpt lat="44.00708" lon="7.21003">
        <ele>1236.197876</ele>
        <time>2016-04-24T10:23:22Z</time>
      </trkpt>
      <trkpt lat="44.00706" lon="7.20998">
        <ele>1238.102905</ele>
        <time>2016-04-24T10:23:25Z</time>
      </trkpt>
      <trkpt lat="44.00705" lon="7.20993">
        <ele>1238.320557</ele>
        <time>2016-04-24T10:23:28Z</time>
      </trkpt>
      <trkpt lat="44.00704" lon="7.20989">
        <ele>1239.006714</ele>
        <time>2016-04-24T10:23:31Z</time>
      </trkpt>
      <trkpt lat="44.00702" lon="7.20984">
        <ele>1240.203125</ele>
        <time>2016-04-24T10:23:34Z</time>
      </trkpt>
      <trkpt lat="44.00702" lon="7.20982">
        <ele>1240.358276</ele>
        <time>2016-04-24T10:23:35Z</time>
      </trkpt>
      <trkpt lat="44.00699" lon="7.2097">
        <ele>1241.803955</ele>
        <time>2016-04-24T10:23:42Z</time>
      </trkpt>
      <trkpt lat="44.00698" lon="7.20964">
        <ele>1241.327026</ele>
        <time>2016-04-24T10:23:46Z</time>
      </trkpt>
      <trkpt lat="44.00697" lon="7.20961">
        <ele>1242.323608</ele>
        <time>2016-04-24T10:23:49Z</time>
      </trkpt>
      <trkpt lat="44.00692" lon="7.20954">
        <ele>1244.840332</ele>
        <time>2016-04-24T10:23:55Z</time>
      </trkpt>
      <trkpt lat="44.00687" lon="7.20949">
        <ele>1247.570435</ele>
        <time>2016-04-24T10:24:00Z</time>
      </trkpt>
      <trkpt lat="44.00683" lon="7.20943">
        <ele>1249.591797</ele>
        <time>2016-04-24T10:24:06Z</time>
      </trkpt>
      <trkpt lat="44.00679" lon="7.20938">
        <ele>1250.21814</ele>
        <time>2016-04-24T10:24:11Z</time>
      </trkpt>
      <trkpt lat="44.00676" lon="7.2093">
        <ele>1249.690308</ele>
        <time>2016-04-24T10:24:16Z</time>
      </trkpt>
      <trkpt lat="44.0067" lon="7.20925">
        <ele>1251.225098</ele>
        <time>2016-04-24T10:24:22Z</time>
      </trkpt>
      <trkpt lat="44.00664" lon="7.20925">
        <ele>1253.958252</ele>
        <time>2016-04-24T10:24:27Z</time>
      </trkpt>
      <trkpt lat="44.0066" lon="7.20925">
        <ele>1255.743896</ele>
        <time>2016-04-24T10:24:32Z</time>
      </trkpt>
      <trkpt lat="44.00654" lon="7.20925">
        <ele>1258.722168</ele>
        <time>2016-04-24T10:24:39Z</time>
      </trkpt>
      <trkpt lat="44.00653" lon="7.20925">
        <ele>1259.223877</ele>
        <time>2016-04-24T10:24:40Z</time>
      </trkpt>
      <trkpt lat="44.00644" lon="7.20923">
        <ele>1262.697144</ele>
        <time>2016-04-24T10:24:47Z</time>
      </trkpt>
      <trkpt lat="44.00637" lon="7.20922">
        <ele>1265.811279</ele>
        <time>2016-04-24T10:24:53Z</time>
      </trkpt>
      <trkpt lat="44.00632" lon="7.20919">
        <ele>1267.608887</ele>
        <time>2016-04-24T10:24:57Z</time>
      </trkpt>
      <trkpt lat="44.00623" lon="7.20915">
        <ele>1270.648682</ele>
        <time>2016-04-24T10:25:05Z</time>
      </trkpt>
      <trkpt lat="44.00617" lon="7.20915">
        <ele>1272.875244</ele>
        <time>2016-04-24T10:25:10Z</time>
      </trkpt>
      <trkpt lat="44.0061" lon="7.20915">
        <ele>1275.374756</ele>
        <time>2016-04-24T10:25:16Z</time>
      </trkpt>
      <trkpt lat="44.00606" lon="7.20915">
        <ele>1276.838745</ele>
        <time>2016-04-24T10:25:20Z</time>
      </trkpt>
      <trkpt lat="44.00604" lon="7.20917">
        <ele>1277.687012</ele>
        <time>2016-04-24T10:25:22Z</time>
      </trkpt>
      <trkpt lat="44.00599" lon="7.20919">
        <ele>1279.433838</ele>
        <time>2016-04-24T10:25:26Z</time>
      </trkpt>
      <trkpt lat="44.00596" lon="7.20914">
        <ele>1280.416626</ele>
        <time>2016-04-24T10:25:32Z</time>
      </trkpt>
      <trkpt lat="44.00596" lon="7.20913">
        <ele>1280.362305</ele>
        <time>2016-04-24T10:25:33Z</time>
      </trkpt>
      <trkpt lat="44.00599" lon="7.20901">
        <ele>1279.136841</ele>
        <time>2016-04-24T10:25:40Z</time>
      </trkpt>
      <trkpt lat="44.00603" lon="7.20889">
        <ele>1277.326416</ele>
        <time>2016-04-24T10:25:48Z</time>
      </trkpt>
      <trkpt lat="44.00607" lon="7.20881">
        <ele>1275.008423</ele>
        <time>2016-04-24T10:25:54Z</time>
      </trkpt>
      <trkpt lat="44.00607" lon="7.20878">
        <ele>1274.554932</ele>
        <time>2016-04-24T10:25:56Z</time>
      </trkpt>
      <trkpt lat="44.0061" lon="7.20865">
        <ele>1273.176758</ele>
        <time>2016-04-24T10:26:04Z</time>
      </trkpt>
      <trkpt lat="44.00613" lon="7.20858">
        <ele>1271.737427</ele>
        <time>2016-04-24T10:26:10Z</time>
      </trkpt>
      <trkpt lat="44.00616" lon="7.2085">
        <ele>1270.699097</ele>
        <time>2016-04-24T10:26:16Z</time>
      </trkpt>
      <trkpt lat="44.00617" lon="7.20843">
        <ele>1270.013428</ele>
        <time>2016-04-24T10:26:21Z</time>
      </trkpt>
      <trkpt lat="44.00618" lon="7.20841">
        <ele>1269.97644</ele>
        <time>2016-04-24T10:26:22Z</time>
      </trkpt>
      <trkpt lat="44.00618" lon="7.20839">
        <ele>1270.093018</ele>
        <time>2016-04-24T10:26:24Z</time>
      </trkpt>
      <trkpt lat="44.00618" lon="7.20836">
        <ele>1270.070923</ele>
        <time>2016-04-24T10:26:27Z</time>
      </trkpt>
      <trkpt lat="44.00618" lon="7.20835">
        <ele>1270.077637</ele>
        <time>2016-04-24T10:26:28Z</time>
      </trkpt>
      <trkpt lat="44.00618" lon="7.20834">
        <ele>1270.087524</ele>
        <time>2016-04-24T10:26:29Z</time>
      </trkpt>
      <trkpt lat="44.00616" lon="7.20829">
        <ele>1270.893921</ele>
        <time>2016-04-24T10:26:33Z</time>
      </trkpt>
      <trkpt lat="44.00614" lon="7.20828">
        <ele>1271.796631</ele>
        <time>2016-04-24T10:26:35Z</time>
      </trkpt>
      <trkpt lat="44.00613" lon="7.20828">
        <ele>1272.378906</ele>
        <time>2016-04-24T10:26:36Z</time>
      </trkpt>
      <trkpt lat="44.00603" lon="7.20826">
        <ele>1276.219727</ele>
        <time>2016-04-24T10:26:43Z</time>
      </trkpt>
      <trkpt lat="44.00596" lon="7.20823">
        <ele>1278.990723</ele>
        <time>2016-04-24T10:26:49Z</time>
      </trkpt>
      <trkpt lat="44.00588" lon="7.20819">
        <ele>1282.300415</ele>
        <time>2016-04-24T10:26:56Z</time>
      </trkpt>
      <trkpt lat="44.00584" lon="7.20816">
        <ele>1284.086792</ele>
        <time>2016-04-24T10:26:59Z</time>
      </trkpt>
      <trkpt lat="44.00579" lon="7.20814">
        <ele>1286.108032</ele>
        <time>2016-04-24T10:27:05Z</time>
      </trkpt>
      <trkpt lat="44.00578" lon="7.20814">
        <ele>1286.6073</ele>
        <time>2016-04-24T10:27:07Z</time>
      </trkpt>
      <trkpt lat="44.00575" lon="7.20811">
        <ele>1287.859497</ele>
        <time>2016-04-24T10:27:10Z</time>
      </trkpt>
      <trkpt lat="44.00574" lon="7.20809">
        <ele>1288.132813</ele>
        <time>2016-04-24T10:27:12Z</time>
      </trkpt>
      <trkpt lat="44.00574" lon="7.20807">
        <ele>1288.127441</ele>
        <time>2016-04-24T10:27:13Z</time>
      </trkpt>
      <trkpt lat="44.00574" lon="7.20797">
        <ele>1287.684692</ele>
        <time>2016-04-24T10:27:19Z</time>
      </trkpt>
      <trkpt lat="44.00572" lon="7.20791">
        <ele>1288.368774</ele>
        <time>2016-04-24T10:27:23Z</time>
      </trkpt>
      <trkpt lat="44.00557" lon="7.2078">
        <ele>1294.395386</ele>
        <time>2016-04-24T10:27:32Z</time>
      </trkpt>
      <trkpt lat="44.00555" lon="7.20775">
        <ele>1294.908203</ele>
        <time>2016-04-24T10:27:34Z</time>
      </trkpt>
      <trkpt lat="44.00562" lon="7.20766">
        <ele>1291.174683</ele>
        <time>2016-04-24T10:27:41Z</time>
      </trkpt>
      <trkpt lat="44.00566" lon="7.20764">
        <ele>1289.513184</ele>
        <time>2016-04-24T10:27:44Z</time>
      </trkpt>
      <trkpt lat="44.00569" lon="7.20759">
        <ele>1287.702148</ele>
        <time>2016-04-24T10:27:49Z</time>
      </trkpt>
      <trkpt lat="44.00569" lon="7.20757">
        <ele>1287.533936</ele>
        <time>2016-04-24T10:27:50Z</time>
      </trkpt>
      <trkpt lat="44.00572" lon="7.20748">
        <ele>1286.048096</ele>
        <time>2016-04-24T10:27:55Z</time>
      </trkpt>
      <trkpt lat="44.00574" lon="7.20736">
        <ele>1285.689697</ele>
        <time>2016-04-24T10:28:02Z</time>
      </trkpt>
      <trkpt lat="44.00576" lon="7.20724">
        <ele>1285.730835</ele>
        <time>2016-04-24T10:28:10Z</time>
      </trkpt>
      <trkpt lat="44.00572" lon="7.20716">
        <ele>1287.808472</ele>
        <time>2016-04-24T10:28:16Z</time>
      </trkpt>
      <trkpt lat="44.00568" lon="7.20712">
        <ele>1289.718506</ele>
        <time>2016-04-24T10:28:21Z</time>
      </trkpt>
      <trkpt lat="44.00567" lon="7.20709">
        <ele>1290.650146</ele>
        <time>2016-04-24T10:28:25Z</time>
      </trkpt>
      <trkpt lat="44.00565" lon="7.20708">
        <ele>1291.460449</ele>
        <time>2016-04-24T10:28:27Z</time>
      </trkpt>
      <trkpt lat="44.00561" lon="7.20695">
        <ele>1294.356812</ele>
        <time>2016-04-24T10:28:33Z</time>
      </trkpt>
      <trkpt lat="44.00562" lon="7.20693">
        <ele>1294.488892</ele>
        <time>2016-04-24T10:28:34Z</time>
      </trkpt>
      <trkpt lat="44.00562" lon="7.20691">
        <ele>1294.488892</ele>
        <time>2016-04-24T10:28:35Z</time>
      </trkpt>
      <trkpt lat="44.00561" lon="7.20687">
        <ele>1295.473022</ele>
        <time>2016-04-24T10:28:37Z</time>
      </trkpt>
      <trkpt lat="44.00559" lon="7.20683">
        <ele>1296.970581</ele>
        <time>2016-04-24T10:28:39Z</time>
      </trkpt>
      <trkpt lat="44.00557" lon="7.20677">
        <ele>1299.314087</ele>
        <time>2016-04-24T10:28:42Z</time>
      </trkpt>
      <trkpt lat="44.00558" lon="7.20674">
        <ele>1299.514771</ele>
        <time>2016-04-24T10:28:44Z</time>
      </trkpt>
      <trkpt lat="44.00559" lon="7.20673">
        <ele>1299.283813</ele>
        <time>2016-04-24T10:28:45Z</time>
      </trkpt>
      <trkpt lat="44.00564" lon="7.20671">
        <ele>1297.600708</ele>
        <time>2016-04-24T10:28:49Z</time>
      </trkpt>
      <trkpt lat="44.00567" lon="7.20668">
        <ele>1296.840698</ele>
        <time>2016-04-24T10:28:52Z</time>
      </trkpt>
      <trkpt lat="44.00569" lon="7.20667">
        <ele>1296.161011</ele>
        <time>2016-04-24T10:28:55Z</time>
      </trkpt>
      <trkpt lat="44.00572" lon="7.20664">
        <ele>1295.366943</ele>
        <time>2016-04-24T10:28:58Z</time>
      </trkpt>
      <trkpt lat="44.00575" lon="7.2066">
        <ele>1294.756836</ele>
        <time>2016-04-24T10:29:01Z</time>
      </trkpt>
      <trkpt lat="44.00578" lon="7.20656">
        <ele>1294.588989</ele>
        <time>2016-04-24T10:29:04Z</time>
      </trkpt>
      <trkpt lat="44.0058" lon="7.20653">
        <ele>1294.669922</ele>
        <time>2016-04-24T10:29:06Z</time>
      </trkpt>
      <trkpt lat="44.00582" lon="7.2065">
        <ele>1294.737793</ele>
        <time>2016-04-24T10:29:08Z</time>
      </trkpt>
      <trkpt lat="44.00583" lon="7.20648">
        <ele>1294.56604</ele>
        <time>2016-04-24T10:29:10Z</time>
      </trkpt>
      <trkpt lat="44.00584" lon="7.20647">
        <ele>1294.558838</ele>
        <time>2016-04-24T10:29:12Z</time>
      </trkpt>
      <trkpt lat="44.00586" lon="7.20639">
        <ele>1295.877808</ele>
        <time>2016-04-24T10:29:17Z</time>
      </trkpt>
      <trkpt lat="44.00588" lon="7.20635">
        <ele>1296.199097</ele>
        <time>2016-04-24T10:29:20Z</time>
      </trkpt>
      <trkpt lat="44.00588" lon="7.20632">
        <ele>1296.841309</ele>
        <time>2016-04-24T10:29:22Z</time>
      </trkpt>
      <trkpt lat="44.00589" lon="7.20623">
        <ele>1298.925537</ele>
        <time>2016-04-24T10:29:27Z</time>
      </trkpt>
      <trkpt lat="44.00591" lon="7.20619">
        <ele>1299.071899</ele>
        <time>2016-04-24T10:29:30Z</time>
      </trkpt>
      <trkpt lat="44.00592" lon="7.20618">
        <ele>1299.384644</ele>
        <time>2016-04-24T10:29:31Z</time>
      </trkpt>
      <trkpt lat="44.00593" lon="7.20612">
        <ele>1300.538818</ele>
        <time>2016-04-24T10:29:34Z</time>
      </trkpt>
      <trkpt lat="44.00595" lon="7.20606">
        <ele>1301.426025</ele>
        <time>2016-04-24T10:29:37Z</time>
      </trkpt>
      <trkpt lat="44.00597" lon="7.20601">
        <ele>1301.875</ele>
        <time>2016-04-24T10:29:40Z</time>
      </trkpt>
      <trkpt lat="44.00599" lon="7.20599">
        <ele>1301.705811</ele>
        <time>2016-04-24T10:29:42Z</time>
      </trkpt>
      <trkpt lat="44.00604" lon="7.20592">
        <ele>1301.58252</ele>
        <time>2016-04-24T10:29:46Z</time>
      </trkpt>
      <trkpt lat="44.00605" lon="7.20589">
        <ele>1301.60498</ele>
        <time>2016-04-24T10:29:48Z</time>
      </trkpt>
      <trkpt lat="44.00608" lon="7.20583">
        <ele>1301.963745</ele>
        <time>2016-04-24T10:29:51Z</time>
      </trkpt>
      <trkpt lat="44.00613" lon="7.2057">
        <ele>1302.879761</ele>
        <time>2016-04-24T10:29:58Z</time>
      </trkpt>
      <trkpt lat="44.00612" lon="7.20564">
        <ele>1304.374268</ele>
        <time>2016-04-24T10:30:01Z</time>
      </trkpt>
      <trkpt lat="44.00613" lon="7.2056">
        <ele>1303.760986</ele>
        <time>2016-04-24T10:30:03Z</time>
      </trkpt>
      <trkpt lat="44.00613" lon="7.20557">
        <ele>1303.241211</ele>
        <time>2016-04-24T10:30:05Z</time>
      </trkpt>
      <trkpt lat="44.00613" lon="7.20555">
        <ele>1303.239624</ele>
        <time>2016-04-24T10:30:08Z</time>
      </trkpt>
      <trkpt lat="44.00613" lon="7.20554">
        <ele>1303.384521</ele>
        <time>2016-04-24T10:30:09Z</time>
      </trkpt>
      <trkpt lat="44.00611" lon="7.20551">
        <ele>1304.014526</ele>
        <time>2016-04-24T10:30:11Z</time>
      </trkpt>
      <trkpt lat="44.00611" lon="7.20549">
        <ele>1304.106934</ele>
        <time>2016-04-24T10:30:12Z</time>
      </trkpt>
      <trkpt lat="44.0061" lon="7.20547">
        <ele>1304.667236</ele>
        <time>2016-04-24T10:30:14Z</time>
      </trkpt>
      <trkpt lat="44.0061" lon="7.20545">
        <ele>1304.189209</ele>
        <time>2016-04-24T10:30:16Z</time>
      </trkpt>
      <trkpt lat="44.00612" lon="7.20543">
        <ele>1302.874023</ele>
        <time>2016-04-24T10:30:18Z</time>
      </trkpt>
      <trkpt lat="44.00613" lon="7.20542">
        <ele>1302.478882</ele>
        <time>2016-04-24T10:30:19Z</time>
      </trkpt>
      <trkpt lat="44.00612" lon="7.20536">
        <ele>1302.4729</ele>
        <time>2016-04-24T10:30:23Z</time>
      </trkpt>
      <trkpt lat="44.00612" lon="7.20533">
        <ele>1302.370239</ele>
        <time>2016-04-24T10:30:25Z</time>
      </trkpt>
      <trkpt lat="44.00612" lon="7.2053">
        <ele>1302.26062</ele>
        <time>2016-04-24T10:30:27Z</time>
      </trkpt>
      <trkpt lat="44.00611" lon="7.20527">
        <ele>1302.32312</ele>
        <time>2016-04-24T10:30:29Z</time>
      </trkpt>
      <trkpt lat="44.0061" lon="7.20526">
        <ele>1303.021362</ele>
        <time>2016-04-24T10:30:30Z</time>
      </trkpt>
      <trkpt lat="44.00605" lon="7.20523">
        <ele>1305.396118</ele>
        <time>2016-04-24T10:30:34Z</time>
      </trkpt>
      <trkpt lat="44.00603" lon="7.20513">
        <ele>1306.460938</ele>
        <time>2016-04-24T10:30:40Z</time>
      </trkpt>
      <trkpt lat="44.00602" lon="7.20502">
        <ele>1306.182373</ele>
        <time>2016-04-24T10:30:45Z</time>
      </trkpt>
      <trkpt lat="44.006" lon="7.20498">
        <ele>1307.962402</ele>
        <time>2016-04-24T10:30:47Z</time>
      </trkpt>
      <trkpt lat="44.00595" lon="7.20492">
        <ele>1311.269165</ele>
        <time>2016-04-24T10:30:50Z</time>
      </trkpt>
      <trkpt lat="44.00593" lon="7.20485">
        <ele>1312.898804</ele>
        <time>2016-04-24T10:30:54Z</time>
      </trkpt>
      <trkpt lat="44.00593" lon="7.20483">
        <ele>1313.308716</ele>
        <time>2016-04-24T10:30:55Z</time>
      </trkpt>
      <trkpt lat="44.00593" lon="7.20474">
        <ele>1313.868042</ele>
        <time>2016-04-24T10:30:59Z</time>
      </trkpt>
      <trkpt lat="44.00592" lon="7.20472">
        <ele>1314.205566</ele>
        <time>2016-04-24T10:31:00Z</time>
      </trkpt>
      <trkpt lat="44.00591" lon="7.20469">
        <ele>1315.441772</ele>
        <time>2016-04-24T10:31:02Z</time>
      </trkpt>
      <trkpt lat="44.0059" lon="7.20465">
        <ele>1316.045044</ele>
        <time>2016-04-24T10:31:04Z</time>
      </trkpt>
      <trkpt lat="44.00588" lon="7.20462">
        <ele>1318.017822</ele>
        <time>2016-04-24T10:31:06Z</time>
      </trkpt>
      <trkpt lat="44.00585" lon="7.20459">
        <ele>1320.064331</ele>
        <time>2016-04-24T10:31:08Z</time>
      </trkpt>
      <trkpt lat="44.00584" lon="7.20458">
        <ele>1320.652466</ele>
        <time>2016-04-24T10:31:09Z</time>
      </trkpt>
      <trkpt lat="44.00583" lon="7.20455">
        <ele>1321.677124</ele>
        <time>2016-04-24T10:31:12Z</time>
      </trkpt>
      <trkpt lat="44.00581" lon="7.20452">
        <ele>1322.942871</ele>
        <time>2016-04-24T10:31:16Z</time>
      </trkpt>
      <trkpt lat="44.00581" lon="7.20448">
        <ele>1323.265015</ele>
        <time>2016-04-24T10:31:19Z</time>
      </trkpt>
      <trkpt lat="44.00581" lon="7.20447">
        <ele>1323.200928</ele>
        <time>2016-04-24T10:31:20Z</time>
      </trkpt>
      <trkpt lat="44.00584" lon="7.20433">
        <ele>1321.970337</ele>
        <time>2016-04-24T10:31:29Z</time>
      </trkpt>
      <trkpt lat="44.00585" lon="7.20431">
        <ele>1321.835327</ele>
        <time>2016-04-24T10:31:30Z</time>
      </trkpt>
      <trkpt lat="44.00586" lon="7.20427">
        <ele>1321.560791</ele>
        <time>2016-04-24T10:31:32Z</time>
      </trkpt>
      <trkpt lat="44.00587" lon="7.20422">
        <ele>1320.886841</ele>
        <time>2016-04-24T10:31:34Z</time>
      </trkpt>
      <trkpt lat="44.00588" lon="7.20419">
        <ele>1320.720703</ele>
        <time>2016-04-24T10:31:35Z</time>
      </trkpt>
      <trkpt lat="44.00593" lon="7.20407">
        <ele>1317.913818</ele>
        <time>2016-04-24T10:31:41Z</time>
      </trkpt>
      <trkpt lat="44.00597" lon="7.20397">
        <ele>1316.39917</ele>
        <time>2016-04-24T10:31:46Z</time>
      </trkpt>
      <trkpt lat="44.00597" lon="7.20392">
        <ele>1317.010986</ele>
        <time>2016-04-24T10:31:48Z</time>
      </trkpt>
      <trkpt lat="44.00596" lon="7.20387">
        <ele>1317.709961</ele>
        <time>2016-04-24T10:31:50Z</time>
      </trkpt>
      <trkpt lat="44.00592" lon="7.20379">
        <ele>1321.125732</ele>
        <time>2016-04-24T10:31:53Z</time>
      </trkpt>
      <trkpt lat="44.00588" lon="7.20371">
        <ele>1323.32959</ele>
        <time>2016-04-24T10:31:56Z</time>
      </trkpt>
      <trkpt lat="44.00585" lon="7.20363">
        <ele>1323.544067</ele>
        <time>2016-04-24T10:32:00Z</time>
      </trkpt>
      <trkpt lat="44.00584" lon="7.2036">
        <ele>1323.626953</ele>
        <time>2016-04-24T10:32:01Z</time>
      </trkpt>
      <trkpt lat="44.00583" lon="7.20357">
        <ele>1323.747803</ele>
        <time>2016-04-24T10:32:02Z</time>
      </trkpt>
      <trkpt lat="44.00582" lon="7.20342">
        <ele>1321.528809</ele>
        <time>2016-04-24T10:32:07Z</time>
      </trkpt>
      <trkpt lat="44.00578" lon="7.20328">
        <ele>1321.36853</ele>
        <time>2016-04-24T10:32:13Z</time>
      </trkpt>
      <trkpt lat="44.00577" lon="7.20326">
        <ele>1321.334961</ele>
        <time>2016-04-24T10:32:14Z</time>
      </trkpt>
      <trkpt lat="44.00577" lon="7.20321">
        <ele>1320.656616</ele>
        <time>2016-04-24T10:32:16Z</time>
      </trkpt>
      <trkpt lat="44.00575" lon="7.20315">
        <ele>1320.779907</ele>
        <time>2016-04-24T10:32:19Z</time>
      </trkpt>
      <trkpt lat="44.00569" lon="7.20306">
        <ele>1324.316895</ele>
        <time>2016-04-24T10:32:24Z</time>
      </trkpt>
      <trkpt lat="44.00568" lon="7.20297">
        <ele>1326.446045</ele>
        <time>2016-04-24T10:32:30Z</time>
      </trkpt>
      <trkpt lat="44.00572" lon="7.20287">
        <ele>1324.432739</ele>
        <time>2016-04-24T10:32:36Z</time>
      </trkpt>
      <trkpt lat="44.00572" lon="7.20285">
        <ele>1325.014404</ele>
        <time>2016-04-24T10:32:37Z</time>
      </trkpt>
      <trkpt lat="44.00571" lon="7.2028">
        <ele>1326.223877</ele>
        <time>2016-04-24T10:32:40Z</time>
      </trkpt>
      <trkpt lat="44.00569" lon="7.20275">
        <ele>1328.026245</ele>
        <time>2016-04-24T10:32:42Z</time>
      </trkpt>
      <trkpt lat="44.00567" lon="7.20263">
        <ele>1331.208252</ele>
        <time>2016-04-24T10:32:47Z</time>
      </trkpt>
      <trkpt lat="44.00564" lon="7.20252">
        <ele>1334.278687</ele>
        <time>2016-04-24T10:32:52Z</time>
      </trkpt>
      <trkpt lat="44.00563" lon="7.2025">
        <ele>1334.989258</ele>
        <time>2016-04-24T10:32:53Z</time>
      </trkpt>
      <trkpt lat="44.00561" lon="7.20244">
        <ele>1338.057251</ele>
        <time>2016-04-24T10:32:56Z</time>
      </trkpt>
      <trkpt lat="44.00561" lon="7.20237">
        <ele>1338.770264</ele>
        <time>2016-04-24T10:33:04Z</time>
      </trkpt>
      <trkpt lat="44.00564" lon="7.20232">
        <ele>1338.15686</ele>
        <time>2016-04-24T10:33:07Z</time>
      </trkpt>
      <trkpt lat="44.00563" lon="7.20228">
        <ele>1339.184814</ele>
        <time>2016-04-24T10:33:10Z</time>
      </trkpt>
      <trkpt lat="44.00563" lon="7.20227">
        <ele>1339.44165</ele>
        <time>2016-04-24T10:33:11Z</time>
      </trkpt>
      <trkpt lat="44.00563" lon="7.20225">
        <ele>1339.954102</ele>
        <time>2016-04-24T10:33:13Z</time>
      </trkpt>
      <trkpt lat="44.00564" lon="7.20222">
        <ele>1339.988281</ele>
        <time>2016-04-24T10:33:16Z</time>
      </trkpt>
      <trkpt lat="44.00566" lon="7.20219">
        <ele>1339.64856</ele>
        <time>2016-04-24T10:33:20Z</time>
      </trkpt>
      <trkpt lat="44.00566" lon="7.20217">
        <ele>1339.456543</ele>
        <time>2016-04-24T10:33:21Z</time>
      </trkpt>
      <trkpt lat="44.00566" lon="7.20214">
        <ele>1340.019653</ele>
        <time>2016-04-24T10:33:23Z</time>
      </trkpt>
      <trkpt lat="44.00567" lon="7.20207">
        <ele>1340.929443</ele>
        <time>2016-04-24T10:33:27Z</time>
      </trkpt>
      <trkpt lat="44.00572" lon="7.20196">
        <ele>1340.221069</ele>
        <time>2016-04-24T10:33:34Z</time>
      </trkpt>
      <trkpt lat="44.00574" lon="7.2019">
        <ele>1340.280029</ele>
        <time>2016-04-24T10:33:38Z</time>
      </trkpt>
      <trkpt lat="44.00574" lon="7.20189">
        <ele>1340.831909</ele>
        <time>2016-04-24T10:33:39Z</time>
      </trkpt>
      <trkpt lat="44.00574" lon="7.20184">
        <ele>1341.209961</ele>
        <time>2016-04-24T10:33:42Z</time>
      </trkpt>
      <trkpt lat="44.00574" lon="7.2018">
        <ele>1341.349976</ele>
        <time>2016-04-24T10:33:44Z</time>
      </trkpt>
      <trkpt lat="44.00574" lon="7.20168">
        <ele>1341.48999</ele>
        <time>2016-04-24T10:33:49Z</time>
      </trkpt>
      <trkpt lat="44.00573" lon="7.20166">
        <ele>1342.26001</ele>
        <time>2016-04-24T10:33:50Z</time>
      </trkpt>
      <trkpt lat="44.00572" lon="7.20163">
        <ele>1343.099976</ele>
        <time>2016-04-24T10:33:52Z</time>
      </trkpt>
      <trkpt lat="44.0057" lon="7.20158">
        <ele>1344.640015</ele>
        <time>2016-04-24T10:33:54Z</time>
      </trkpt>
      <trkpt lat="44.00563" lon="7.20145">
        <ele>1348.97998</ele>
        <time>2016-04-24T10:34:01Z</time>
      </trkpt>
      <trkpt lat="44.00563" lon="7.20141">
        <ele>1349.609985</ele>
        <time>2016-04-24T10:34:04Z</time>
      </trkpt>
      <trkpt lat="44.00562" lon="7.2014">
        <ele>1350.310059</ele>
        <time>2016-04-24T10:34:05Z</time>
      </trkpt>
      <trkpt lat="44.00559" lon="7.20132">
        <ele>1351.849976</ele>
        <time>2016-04-24T10:34:09Z</time>
      </trkpt>
      <trkpt lat="44.00558" lon="7.20126">
        <ele>1352.829956</ele>
        <time>2016-04-24T10:34:12Z</time>
      </trkpt>
      <trkpt lat="44.00557" lon="7.20125">
        <ele>1353.459961</ele>
        <time>2016-04-24T10:34:13Z</time>
      </trkpt>
      <trkpt lat="44.00554" lon="7.20119">
        <ele>1354.751465</ele>
        <time>2016-04-24T10:34:16Z</time>
      </trkpt>
      <trkpt lat="44.00553" lon="7.20115">
        <ele>1354.839233</ele>
        <time>2016-04-24T10:34:18Z</time>
      </trkpt>
      <trkpt lat="44.00552" lon="7.2011">
        <ele>1354.858154</ele>
        <time>2016-04-24T10:34:21Z</time>
      </trkpt>
      <trkpt lat="44.00552" lon="7.20107">
        <ele>1354.727417</ele>
        <time>2016-04-24T10:34:23Z</time>
      </trkpt>
      <trkpt lat="44.00552" lon="7.20106">
        <ele>1354.477417</ele>
        <time>2016-04-24T10:34:24Z</time>
      </trkpt>
      <trkpt lat="44.00549" lon="7.20098">
        <ele>1354.724365</ele>
        <time>2016-04-24T10:34:28Z</time>
      </trkpt>
      <trkpt lat="44.00549" lon="7.20096">
        <ele>1354.720459</ele>
        <time>2016-04-24T10:34:29Z</time>
      </trkpt>
      <trkpt lat="44.00548" lon="7.20094">
        <ele>1354.726318</ele>
        <time>2016-04-24T10:34:30Z</time>
      </trkpt>
      <trkpt lat="44.00547" lon="7.2009">
        <ele>1354.605347</ele>
        <time>2016-04-24T10:34:33Z</time>
      </trkpt>
      <trkpt lat="44.00546" lon="7.20089">
        <ele>1354.793213</ele>
        <time>2016-04-24T10:34:34Z</time>
      </trkpt>
      <trkpt lat="44.00545" lon="7.20087">
        <ele>1355.53479</ele>
        <time>2016-04-24T10:34:36Z</time>
      </trkpt>
      <trkpt lat="44.00543" lon="7.20086">
        <ele>1356.155029</ele>
        <time>2016-04-24T10:34:38Z</time>
      </trkpt>
      <trkpt lat="44.00539" lon="7.20077">
        <ele>1356.477051</ele>
        <time>2016-04-24T10:34:43Z</time>
      </trkpt>
      <trkpt lat="44.00536" lon="7.20072">
        <ele>1357.339355</ele>
        <time>2016-04-24T10:34:45Z</time>
      </trkpt>
      <trkpt lat="44.00493" lon="7.20022">
        <ele>1354.05127</ele>
        <time>2016-04-24T10:34:59Z</time>
      </trkpt>
      <trkpt lat="44.00485" lon="7.20015">
        <ele>1354.812256</ele>
        <time>2016-04-24T10:35:01Z</time>
      </trkpt>
      <trkpt lat="44.0046" lon="7.19983">
        <ele>1354.759033</ele>
        <time>2016-04-24T10:35:08Z</time>
      </trkpt>
      <trkpt lat="44.00456" lon="7.19973">
        <ele>1354.733154</ele>
        <time>2016-04-24T10:35:10Z</time>
      </trkpt>
      <trkpt lat="44.00453" lon="7.19961">
        <ele>1354.258423</ele>
        <time>2016-04-24T10:35:12Z</time>
      </trkpt>
      <trkpt lat="44.00451" lon="7.19949">
        <ele>1353.760986</ele>
        <time>2016-04-24T10:35:14Z</time>
      </trkpt>
      <trkpt lat="44.00449" lon="7.19944">
        <ele>1353.361694</ele>
        <time>2016-04-24T10:35:15Z</time>
      </trkpt>
      <trkpt lat="44.00446" lon="7.19932">
        <ele>1352.606567</ele>
        <time>2016-04-24T10:35:17Z</time>
      </trkpt>
      <trkpt lat="44.0044" lon="7.19922">
        <ele>1353.185913</ele>
        <time>2016-04-24T10:35:19Z</time>
      </trkpt>
      <trkpt lat="44.00421" lon="7.19902">
        <ele>1355.203735</ele>
        <time>2016-04-24T10:35:23Z</time>
      </trkpt>
      <trkpt lat="44.00417" lon="7.19896">
        <ele>1355.279541</ele>
        <time>2016-04-24T10:35:24Z</time>
      </trkpt>
      <trkpt lat="44.00413" lon="7.19891">
        <ele>1355.390259</ele>
        <time>2016-04-24T10:35:25Z</time>
      </trkpt>
      <trkpt lat="44.00409" lon="7.19887">
        <ele>1355.540527</ele>
        <time>2016-04-24T10:35:26Z</time>
      </trkpt>
      <trkpt lat="44.00406" lon="7.19881">
        <ele>1355.575439</ele>
        <time>2016-04-24T10:35:27Z</time>
      </trkpt>
      <trkpt lat="44.00394" lon="7.19865">
        <ele>1355.060425</ele>
        <time>2016-04-24T10:35:30Z</time>
      </trkpt>
      <trkpt lat="44.00378" lon="7.19841">
        <ele>1354.123779</ele>
        <time>2016-04-24T10:35:34Z</time>
      </trkpt>
      <trkpt lat="44.00352" lon="7.19806">
        <ele>1351.400391</ele>
        <time>2016-04-24T10:35:40Z</time>
      </trkpt>
      <trkpt lat="44.00333" lon="7.19797">
        <ele>1351.969482</ele>
        <time>2016-04-24T10:35:43Z</time>
      </trkpt>
      <trkpt lat="44.00299" lon="7.19783">
        <ele>1350.973511</ele>
        <time>2016-04-24T10:35:49Z</time>
      </trkpt>
      <trkpt lat="44.00294" lon="7.19781">
        <ele>1350.650513</ele>
        <time>2016-04-24T10:35:50Z</time>
      </trkpt>
      <trkpt lat="44.00289" lon="7.1978">
        <ele>1350.352783</ele>
        <time>2016-04-24T10:35:51Z</time>
      </trkpt>
      <trkpt lat="44.00284" lon="7.19779">
        <ele>1350.313965</ele>
        <time>2016-04-24T10:35:52Z</time>
      </trkpt>
      <trkpt lat="44.00271" lon="7.19779">
        <ele>1350.126831</ele>
        <time>2016-04-24T10:35:54Z</time>
      </trkpt>
      <trkpt lat="44.00256" lon="7.19778">
        <ele>1348.182251</ele>
        <time>2016-04-24T10:35:56Z</time>
      </trkpt>
      <trkpt lat="44.00248" lon="7.19767">
        <ele>1344.496094</ele>
        <time>2016-04-24T10:35:58Z</time>
      </trkpt>
      <trkpt lat="44.00245" lon="7.19759">
        <ele>1342.204102</ele>
        <time>2016-04-24T10:35:59Z</time>
      </trkpt>
      <trkpt lat="44.00243" lon="7.19753">
        <ele>1340.477783</ele>
        <time>2016-04-24T10:36:00Z</time>
      </trkpt>
      <trkpt lat="44.00238" lon="7.19748">
        <ele>1338.802002</ele>
        <time>2016-04-24T10:36:01Z</time>
      </trkpt>
      <trkpt lat="44.00233" lon="7.19745">
        <ele>1337.956543</ele>
        <time>2016-04-24T10:36:02Z</time>
      </trkpt>
      <trkpt lat="44.00227" lon="7.19744">
        <ele>1337.62439</ele>
        <time>2016-04-24T10:36:03Z</time>
      </trkpt>
      <trkpt lat="44.00215" lon="7.19738">
        <ele>1336.407471</ele>
        <time>2016-04-24T10:36:05Z</time>
      </trkpt>
      <trkpt lat="44.00209" lon="7.19734">
        <ele>1335.517944</ele>
        <time>2016-04-24T10:36:06Z</time>
      </trkpt>
      <trkpt lat="44.00199" lon="7.19723">
        <ele>1333.279297</ele>
        <time>2016-04-24T10:36:08Z</time>
      </trkpt>
      <trkpt lat="44.00196" lon="7.1972">
        <ele>1332.512085</ele>
        <time>2016-04-24T10:36:09Z</time>
      </trkpt>
      <trkpt lat="44.00193" lon="7.19717">
        <ele>1332</ele>
        <time>2016-04-24T10:36:10Z</time>
      </trkpt>
      <trkpt lat="44.00191" lon="7.19716">
        <ele>1331.679077</ele>
        <time>2016-04-24T10:36:11Z</time>
      </trkpt>
      <trkpt lat="44.00189" lon="7.19714">
        <ele>1331.462402</ele>
        <time>2016-04-24T10:36:12Z</time>
      </trkpt>
      <trkpt lat="44.00188" lon="7.19712">
        <ele>1331.153564</ele>
        <time>2016-04-24T10:36:13Z</time>
      </trkpt>
      <trkpt lat="44.00186" lon="7.19709">
        <ele>1330.693726</ele>
        <time>2016-04-24T10:36:14Z</time>
      </trkpt>
      <trkpt lat="44.00186" lon="7.19705">
        <ele>1329.558716</ele>
        <time>2016-04-24T10:36:15Z</time>
      </trkpt>
      <trkpt lat="44.00186" lon="7.19695">
        <ele>1327.23877</ele>
        <time>2016-04-24T10:36:17Z</time>
      </trkpt>
      <trkpt lat="44.00185" lon="7.1969">
        <ele>1326.109497</ele>
        <time>2016-04-24T10:36:18Z</time>
      </trkpt>
      <trkpt lat="44.00185" lon="7.19686">
        <ele>1325.289307</ele>
        <time>2016-04-24T10:36:19Z</time>
      </trkpt>
      <trkpt lat="44.00183" lon="7.19683">
        <ele>1324.722534</ele>
        <time>2016-04-24T10:36:20Z</time>
      </trkpt>
      <trkpt lat="44.00174" lon="7.19675">
        <ele>1324.254883</ele>
        <time>2016-04-24T10:36:22Z</time>
      </trkpt>
      <trkpt lat="44.0017" lon="7.1967">
        <ele>1324.023926</ele>
        <time>2016-04-24T10:36:23Z</time>
      </trkpt>
      <trkpt lat="44.00167" lon="7.19667">
        <ele>1323.737793</ele>
        <time>2016-04-24T10:36:24Z</time>
      </trkpt>
      <trkpt lat="44.00165" lon="7.19663">
        <ele>1323.345093</ele>
        <time>2016-04-24T10:36:25Z</time>
      </trkpt>
      <trkpt lat="44.00162" lon="7.19656">
        <ele>1322.456177</ele>
        <time>2016-04-24T10:36:27Z</time>
      </trkpt>
      <trkpt lat="44.00162" lon="7.19652">
        <ele>1321.612183</ele>
        <time>2016-04-24T10:36:28Z</time>
      </trkpt>
      <trkpt lat="44.00162" lon="7.19643">
        <ele>1318.437866</ele>
        <time>2016-04-24T10:36:30Z</time>
      </trkpt>
      <trkpt lat="44.00162" lon="7.19633">
        <ele>1315.17749</ele>
        <time>2016-04-24T10:36:32Z</time>
      </trkpt>
      <trkpt lat="44.00162" lon="7.19629">
        <ele>1313.80835</ele>
        <time>2016-04-24T10:36:33Z</time>
      </trkpt>
      <trkpt lat="44.00163" lon="7.19627">
        <ele>1312.959595</ele>
        <time>2016-04-24T10:36:34Z</time>
      </trkpt>
      <trkpt lat="44.00165" lon="7.19626">
        <ele>1312.015259</ele>
        <time>2016-04-24T10:36:35Z</time>
      </trkpt>
      <trkpt lat="44.00168" lon="7.19625">
        <ele>1311.391235</ele>
        <time>2016-04-24T10:36:37Z</time>
      </trkpt>
      <trkpt lat="44.00169" lon="7.19621">
        <ele>1309.438477</ele>
        <time>2016-04-24T10:36:39Z</time>
      </trkpt>
      <trkpt lat="44.00168" lon="7.19613">
        <ele>1307.236938</ele>
        <time>2016-04-24T10:36:41Z</time>
      </trkpt>
      <trkpt lat="44.0017" lon="7.1961">
        <ele>1305.626343</ele>
        <time>2016-04-24T10:36:43Z</time>
      </trkpt>
      <trkpt lat="44.00173" lon="7.19609">
        <ele>1304.819458</ele>
        <time>2016-04-24T10:36:45Z</time>
      </trkpt>
      <trkpt lat="44.00177" lon="7.1961">
        <ele>1304.009521</ele>
        <time>2016-04-24T10:36:47Z</time>
      </trkpt>
      <trkpt lat="44.00181" lon="7.19613">
        <ele>1304.105103</ele>
        <time>2016-04-24T10:36:49Z</time>
      </trkpt>
      <trkpt lat="44.00184" lon="7.19615">
        <ele>1304.504761</ele>
        <time>2016-04-24T10:36:51Z</time>
      </trkpt>
      <trkpt lat="44.00185" lon="7.19613">
        <ele>1303.325195</ele>
        <time>2016-04-24T10:36:53Z</time>
      </trkpt>
      <trkpt lat="44.00185" lon="7.1961">
        <ele>1302.432373</ele>
        <time>2016-04-24T10:36:54Z</time>
      </trkpt>
      <trkpt lat="44.00185" lon="7.19606">
        <ele>1301.240356</ele>
        <time>2016-04-24T10:36:55Z</time>
      </trkpt>
      <trkpt lat="44.00185" lon="7.19597">
        <ele>1298.073853</ele>
        <time>2016-04-24T10:36:57Z</time>
      </trkpt>
      <trkpt lat="44.00186" lon="7.19588">
        <ele>1294.677002</ele>
        <time>2016-04-24T10:36:59Z</time>
      </trkpt>
      <trkpt lat="44.0019" lon="7.19579">
        <ele>1291.145508</ele>
        <time>2016-04-24T10:37:01Z</time>
      </trkpt>
      <trkpt lat="44.00191" lon="7.19576">
        <ele>1289.656982</ele>
        <time>2016-04-24T10:37:02Z</time>
      </trkpt>
      <trkpt lat="44.00193" lon="7.19573">
        <ele>1288.571167</ele>
        <time>2016-04-24T10:37:03Z</time>
      </trkpt>
      <trkpt lat="44.00196" lon="7.19572">
        <ele>1287.616943</ele>
        <time>2016-04-24T10:37:04Z</time>
      </trkpt>
      <trkpt lat="44.00198" lon="7.1957">
        <ele>1286.742432</ele>
        <time>2016-04-24T10:37:05Z</time>
      </trkpt>
      <trkpt lat="44.002" lon="7.19567">
        <ele>1285.62439</ele>
        <time>2016-04-24T10:37:06Z</time>
      </trkpt>
      <trkpt lat="44.00199" lon="7.19558">
        <ele>1282.794556</ele>
        <time>2016-04-24T10:37:08Z</time>
      </trkpt>
      <trkpt lat="44.00198" lon="7.19553">
        <ele>1281.295776</ele>
        <time>2016-04-24T10:37:09Z</time>
      </trkpt>
      <trkpt lat="44.00196" lon="7.19548">
        <ele>1280.065308</ele>
        <time>2016-04-24T10:37:10Z</time>
      </trkpt>
      <trkpt lat="44.00194" lon="7.19538">
        <ele>1277.299805</ele>
        <time>2016-04-24T10:37:12Z</time>
      </trkpt>
      <trkpt lat="44.00195" lon="7.19535">
        <ele>1275.972046</ele>
        <time>2016-04-24T10:37:13Z</time>
      </trkpt>
      <trkpt lat="44.00197" lon="7.19532">
        <ele>1274.864746</ele>
        <time>2016-04-24T10:37:14Z</time>
      </trkpt>
      <trkpt lat="44.002" lon="7.19528">
        <ele>1273.232422</ele>
        <time>2016-04-24T10:37:16Z</time>
      </trkpt>
      <trkpt lat="44.00202" lon="7.19528">
        <ele>1272.760376</ele>
        <time>2016-04-24T10:37:17Z</time>
      </trkpt>
      <trkpt lat="44.00204" lon="7.19526">
        <ele>1272.084839</ele>
        <time>2016-04-24T10:37:18Z</time>
      </trkpt>
      <trkpt lat="44.00206" lon="7.19518">
        <ele>1269.595459</ele>
        <time>2016-04-24T10:37:20Z</time>
      </trkpt>
      <trkpt lat="44.00206" lon="7.19513">
        <ele>1268.175171</ele>
        <time>2016-04-24T10:37:21Z</time>
      </trkpt>
      <trkpt lat="44.00206" lon="7.19508">
        <ele>1266.78833</ele>
        <time>2016-04-24T10:37:22Z</time>
      </trkpt>
      <trkpt lat="44.00205" lon="7.19504">
        <ele>1265.787964</ele>
        <time>2016-04-24T10:37:23Z</time>
      </trkpt>
      <trkpt lat="44.00204" lon="7.195">
        <ele>1265.061768</ele>
        <time>2016-04-24T10:37:24Z</time>
      </trkpt>
      <trkpt lat="44.00202" lon="7.19491">
        <ele>1262.940308</ele>
        <time>2016-04-24T10:37:26Z</time>
      </trkpt>
      <trkpt lat="44.002" lon="7.19487">
        <ele>1262.148804</ele>
        <time>2016-04-24T10:37:27Z</time>
      </trkpt>
      <trkpt lat="44.00196" lon="7.19484">
        <ele>1261.943726</ele>
        <time>2016-04-24T10:37:28Z</time>
      </trkpt>
      <trkpt lat="44.00194" lon="7.19481">
        <ele>1261.486206</ele>
        <time>2016-04-24T10:37:29Z</time>
      </trkpt>
      <trkpt lat="44.00194" lon="7.19477">
        <ele>1260.571289</ele>
        <time>2016-04-24T10:37:30Z</time>
      </trkpt>
      <trkpt lat="44.00195" lon="7.19472">
        <ele>1259.17749</ele>
        <time>2016-04-24T10:37:31Z</time>
      </trkpt>
      <trkpt lat="44.00195" lon="7.19462">
        <ele>1256.746216</ele>
        <time>2016-04-24T10:37:33Z</time>
      </trkpt>
      <trkpt lat="44.00193" lon="7.1945">
        <ele>1254.796265</ele>
        <time>2016-04-24T10:37:35Z</time>
      </trkpt>
      <trkpt lat="44.00188" lon="7.19436">
        <ele>1252.838745</ele>
        <time>2016-04-24T10:37:37Z</time>
      </trkpt>
      <trkpt lat="44.00182" lon="7.19426">
        <ele>1251.741211</ele>
        <time>2016-04-24T10:37:39Z</time>
      </trkpt>
      <trkpt lat="44.0018" lon="7.19422">
        <ele>1251.39624</ele>
        <time>2016-04-24T10:37:40Z</time>
      </trkpt>
      <trkpt lat="44.00174" lon="7.19415">
        <ele>1251.040039</ele>
        <time>2016-04-24T10:37:42Z</time>
      </trkpt>
      <trkpt lat="44.00172" lon="7.19408">
        <ele>1249.94873</ele>
        <time>2016-04-24T10:37:44Z</time>
      </trkpt>
      <trkpt lat="44.0017" lon="7.19404">
        <ele>1249.377441</ele>
        <time>2016-04-24T10:37:45Z</time>
      </trkpt>
      <trkpt lat="44.0017" lon="7.194">
        <ele>1248.427368</ele>
        <time>2016-04-24T10:37:46Z</time>
      </trkpt>
      <trkpt lat="44.00171" lon="7.19396">
        <ele>1247.336914</ele>
        <time>2016-04-24T10:37:47Z</time>
      </trkpt>
      <trkpt lat="44.00172" lon="7.19393">
        <ele>1246.312988</ele>
        <time>2016-04-24T10:37:48Z</time>
      </trkpt>
      <trkpt lat="44.00174" lon="7.19391">
        <ele>1245.281006</ele>
        <time>2016-04-24T10:37:49Z</time>
      </trkpt>
      <trkpt lat="44.00172" lon="7.19385">
        <ele>1244.17749</ele>
        <time>2016-04-24T10:37:51Z</time>
      </trkpt>
      <trkpt lat="44.00171" lon="7.19383">
        <ele>1243.990479</ele>
        <time>2016-04-24T10:37:52Z</time>
      </trkpt>
      <trkpt lat="44.00169" lon="7.1938">
        <ele>1243.415649</ele>
        <time>2016-04-24T10:37:53Z</time>
      </trkpt>
      <trkpt lat="44.00167" lon="7.19374">
        <ele>1242.299927</ele>
        <time>2016-04-24T10:37:54Z</time>
      </trkpt>
      <trkpt lat="44.00166" lon="7.1937">
        <ele>1241.676147</ele>
        <time>2016-04-24T10:37:55Z</time>
      </trkpt>
      <trkpt lat="44.00163" lon="7.19369">
        <ele>1241.887207</ele>
        <time>2016-04-24T10:37:56Z</time>
      </trkpt>
      <trkpt lat="44.00161" lon="7.19366">
        <ele>1241.630737</ele>
        <time>2016-04-24T10:37:57Z</time>
      </trkpt>
      <trkpt lat="44.00159" lon="7.19363">
        <ele>1240.936523</ele>
        <time>2016-04-24T10:37:58Z</time>
      </trkpt>
      <trkpt lat="44.00158" lon="7.1936">
        <ele>1240.122681</ele>
        <time>2016-04-24T10:37:59Z</time>
      </trkpt>
      <trkpt lat="44.00161" lon="7.19354">
        <ele>1238.566406</ele>
        <time>2016-04-24T10:38:01Z</time>
      </trkpt>
      <trkpt lat="44.00162" lon="7.19352">
        <ele>1237.918579</ele>
        <time>2016-04-24T10:38:02Z</time>
      </trkpt>
      <trkpt lat="44.00164" lon="7.19351">
        <ele>1237.062744</ele>
        <time>2016-04-24T10:38:03Z</time>
      </trkpt>
      <trkpt lat="44.00168" lon="7.19346">
        <ele>1235.087036</ele>
        <time>2016-04-24T10:38:05Z</time>
      </trkpt>
      <trkpt lat="44.00169" lon="7.19346">
        <ele>1234.778564</ele>
        <time>2016-04-24T10:38:06Z</time>
      </trkpt>
      <trkpt lat="44.0017" lon="7.19347">
        <ele>1234.584106</ele>
        <time>2016-04-24T10:38:07Z</time>
      </trkpt>
      <trkpt lat="44.00171" lon="7.19346">
        <ele>1234.216919</ele>
        <time>2016-04-24T10:38:08Z</time>
      </trkpt>
      <trkpt lat="44.00171" lon="7.19344">
        <ele>1233.623657</ele>
        <time>2016-04-24T10:38:09Z</time>
      </trkpt>
      <trkpt lat="44.00171" lon="7.19341">
        <ele>1232.94165</ele>
        <time>2016-04-24T10:38:10Z</time>
      </trkpt>
      <trkpt lat="44.00171" lon="7.19334">
        <ele>1230.520264</ele>
        <time>2016-04-24T10:38:12Z</time>
      </trkpt>
      <trkpt lat="44.00169" lon="7.19329">
        <ele>1229.584961</ele>
        <time>2016-04-24T10:38:13Z</time>
      </trkpt>
      <trkpt lat="44.00166" lon="7.19319">
        <ele>1227.06665</ele>
        <time>2016-04-24T10:38:15Z</time>
      </trkpt>
      <trkpt lat="44.00165" lon="7.19315">
        <ele>1225.884888</ele>
        <time>2016-04-24T10:38:16Z</time>
      </trkpt>
      <trkpt lat="44.00165" lon="7.19312">
        <ele>1224.916138</ele>
        <time>2016-04-24T10:38:17Z</time>
      </trkpt>
      <trkpt lat="44.00163" lon="7.19308">
        <ele>1224.181396</ele>
        <time>2016-04-24T10:38:18Z</time>
      </trkpt>
      <trkpt lat="44.0016" lon="7.19305">
        <ele>1223.260376</ele>
        <time>2016-04-24T10:38:19Z</time>
      </trkpt>
      <trkpt lat="44.00153" lon="7.19301">
        <ele>1221.939697</ele>
        <time>2016-04-24T10:38:21Z</time>
      </trkpt>
      <trkpt lat="44.0015" lon="7.19299">
        <ele>1221.369873</ele>
        <time>2016-04-24T10:38:22Z</time>
      </trkpt>
      <trkpt lat="44.00148" lon="7.19297">
        <ele>1220.685425</ele>
        <time>2016-04-24T10:38:23Z</time>
      </trkpt>
      <trkpt lat="44.00149" lon="7.19293">
        <ele>1219.424561</ele>
        <time>2016-04-24T10:38:25Z</time>
      </trkpt>
      <trkpt lat="44.0015" lon="7.19291">
        <ele>1218.862671</ele>
        <time>2016-04-24T10:38:26Z</time>
      </trkpt>
      <trkpt lat="44.00153" lon="7.19291">
        <ele>1218.641113</ele>
        <time>2016-04-24T10:38:28Z</time>
      </trkpt>
      <trkpt lat="44.00154" lon="7.19291">
        <ele>1218.569946</ele>
        <time>2016-04-24T10:38:29Z</time>
      </trkpt>
      <trkpt lat="44.00156" lon="7.19289">
        <ele>1218.085449</ele>
        <time>2016-04-24T10:38:30Z</time>
      </trkpt>
      <trkpt lat="44.00159" lon="7.1929">
        <ele>1218.071655</ele>
        <time>2016-04-24T10:38:31Z</time>
      </trkpt>
      <trkpt lat="44.00166" lon="7.19289">
        <ele>1217.387695</ele>
        <time>2016-04-24T10:38:33Z</time>
      </trkpt>
      <trkpt lat="44.00172" lon="7.1929">
        <ele>1215.501465</ele>
        <time>2016-04-24T10:38:35Z</time>
      </trkpt>
      <trkpt lat="44.00178" lon="7.19286">
        <ele>1212.229736</ele>
        <time>2016-04-24T10:38:37Z</time>
      </trkpt>
      <trkpt lat="44.00177" lon="7.19281">
        <ele>1211.033936</ele>
        <time>2016-04-24T10:38:38Z</time>
      </trkpt>
      <trkpt lat="44.00176" lon="7.19276">
        <ele>1209.695557</ele>
        <time>2016-04-24T10:38:39Z</time>
      </trkpt>
      <trkpt lat="44.00179" lon="7.19264">
        <ele>1205.748901</ele>
        <time>2016-04-24T10:38:42Z</time>
      </trkpt>
      <trkpt lat="44.00185" lon="7.19255">
        <ele>1201.320313</ele>
        <time>2016-04-24T10:38:44Z</time>
      </trkpt>
      <trkpt lat="44.00188" lon="7.1925">
        <ele>1198.925903</ele>
        <time>2016-04-24T10:38:45Z</time>
      </trkpt>
      <trkpt lat="44.00193" lon="7.19237">
        <ele>1193.710449</ele>
        <time>2016-04-24T10:38:47Z</time>
      </trkpt>
      <trkpt lat="44.00198" lon="7.19222">
        <ele>1187.894165</ele>
        <time>2016-04-24T10:38:49Z</time>
      </trkpt>
      <trkpt lat="44.00203" lon="7.19212">
        <ele>1183.918945</ele>
        <time>2016-04-24T10:38:51Z</time>
      </trkpt>
      <trkpt lat="44.00205" lon="7.19205">
        <ele>1181.677734</ele>
        <time>2016-04-24T10:38:53Z</time>
      </trkpt>
      <trkpt lat="44.00206" lon="7.19199">
        <ele>1180.17749</ele>
        <time>2016-04-24T10:38:54Z</time>
      </trkpt>
      <trkpt lat="44.00207" lon="7.19194">
        <ele>1178.884033</ele>
        <time>2016-04-24T10:38:55Z</time>
      </trkpt>
      <trkpt lat="44.00209" lon="7.19187">
        <ele>1176.98877</ele>
        <time>2016-04-24T10:38:56Z</time>
      </trkpt>
      <trkpt lat="44.00211" lon="7.19181">
        <ele>1175.368286</ele>
        <time>2016-04-24T10:38:57Z</time>
      </trkpt>
      <trkpt lat="44.00213" lon="7.19172">
        <ele>1173.315796</ele>
        <time>2016-04-24T10:38:58Z</time>
      </trkpt>
      <trkpt lat="44.00214" lon="7.19164">
        <ele>1171.479858</ele>
        <time>2016-04-24T10:38:59Z</time>
      </trkpt>
      <trkpt lat="44.00215" lon="7.19157">
        <ele>1170.049683</ele>
        <time>2016-04-24T10:39:00Z</time>
      </trkpt>
      <trkpt lat="44.00216" lon="7.19152">
        <ele>1168.816162</ele>
        <time>2016-04-24T10:39:01Z</time>
      </trkpt>
      <trkpt lat="44.00217" lon="7.19146">
        <ele>1167.734375</ele>
        <time>2016-04-24T10:39:02Z</time>
      </trkpt>
      <trkpt lat="44.00218" lon="7.19142">
        <ele>1166.575562</ele>
        <time>2016-04-24T10:39:03Z</time>
      </trkpt>
      <trkpt lat="44.00219" lon="7.19141">
        <ele>1165.181152</ele>
        <time>2016-04-24T10:39:05Z</time>
      </trkpt>
      <trkpt lat="44.0022" lon="7.19145">
        <ele>1164.945435</ele>
        <time>2016-04-24T10:39:07Z</time>
      </trkpt>
      <trkpt lat="44.00221" lon="7.19147">
        <ele>1164.615723</ele>
        <time>2016-04-24T10:39:09Z</time>
      </trkpt>
      <trkpt lat="44.00222" lon="7.19144">
        <ele>1163.228027</ele>
        <time>2016-04-24T10:39:11Z</time>
      </trkpt>
      <trkpt lat="44.00223" lon="7.1914">
        <ele>1162.156982</ele>
        <time>2016-04-24T10:39:12Z</time>
      </trkpt>
      <trkpt lat="44.00223" lon="7.19135">
        <ele>1161.718018</ele>
        <time>2016-04-24T10:39:13Z</time>
      </trkpt>
      <trkpt lat="44.00225" lon="7.19123">
        <ele>1158.911377</ele>
        <time>2016-04-24T10:39:16Z</time>
      </trkpt>
      <trkpt lat="44.00227" lon="7.19111">
        <ele>1156.846802</ele>
        <time>2016-04-24T10:39:18Z</time>
      </trkpt>
      <trkpt lat="44.00229" lon="7.191">
        <ele>1154.185913</ele>
        <time>2016-04-24T10:39:20Z</time>
      </trkpt>
      <trkpt lat="44.0023" lon="7.19092">
        <ele>1152.037842</ele>
        <time>2016-04-24T10:39:22Z</time>
      </trkpt>
      <trkpt lat="44.00229" lon="7.19084">
        <ele>1151.393188</ele>
        <time>2016-04-24T10:39:24Z</time>
      </trkpt>
      <trkpt lat="44.00227" lon="7.19081">
        <ele>1151.79248</ele>
        <time>2016-04-24T10:39:25Z</time>
      </trkpt>
      <trkpt lat="44.00224" lon="7.19079">
        <ele>1153.994751</ele>
        <time>2016-04-24T10:39:26Z</time>
      </trkpt>
      <trkpt lat="44.00214" lon="7.19077">
        <ele>1156.751343</ele>
        <time>2016-04-24T10:39:29Z</time>
      </trkpt>
      <trkpt lat="44.00212" lon="7.19076">
        <ele>1156.505737</ele>
        <time>2016-04-24T10:39:31Z</time>
      </trkpt>
      <trkpt lat="44.00214" lon="7.19074">
        <ele>1156.046509</ele>
        <time>2016-04-24T10:39:33Z</time>
      </trkpt>
      <trkpt lat="44.00216" lon="7.1907">
        <ele>1155.196899</ele>
        <time>2016-04-24T10:39:35Z</time>
      </trkpt>
      <trkpt lat="44.00219" lon="7.19062">
        <ele>1153.459961</ele>
        <time>2016-04-24T10:39:38Z</time>
      </trkpt>
      <trkpt lat="44.00217" lon="7.19059">
        <ele>1152.536743</ele>
        <time>2016-04-24T10:39:40Z</time>
      </trkpt>
      <trkpt lat="44.00215" lon="7.1906">
        <ele>1152.324341</ele>
        <time>2016-04-24T10:39:41Z</time>
      </trkpt>
      <trkpt lat="44.00212" lon="7.1906">
        <ele>1152.046753</ele>
        <time>2016-04-24T10:39:43Z</time>
      </trkpt>
      <trkpt lat="44.00211" lon="7.1906">
        <ele>1151.802246</ele>
        <time>2016-04-24T10:39:44Z</time>
      </trkpt>
      <trkpt lat="44.00208" lon="7.19054">
        <ele>1150.006958</ele>
        <time>2016-04-24T10:39:46Z</time>
      </trkpt>
      <trkpt lat="44.00204" lon="7.19053">
        <ele>1149.268188</ele>
        <time>2016-04-24T10:39:48Z</time>
      </trkpt>
      <trkpt lat="44.002" lon="7.19053">
        <ele>1148.513062</ele>
        <time>2016-04-24T10:39:50Z</time>
      </trkpt>
      <trkpt lat="44.00198" lon="7.19051">
        <ele>1147.900024</ele>
        <time>2016-04-24T10:39:52Z</time>
      </trkpt>
      <trkpt lat="44.002" lon="7.19048">
        <ele>1147.213501</ele>
        <time>2016-04-24T10:39:54Z</time>
      </trkpt>
      <trkpt lat="44.00201" lon="7.19046">
        <ele>1146.8125</ele>
        <time>2016-04-24T10:39:55Z</time>
      </trkpt>
      <trkpt lat="44.00204" lon="7.19041">
        <ele>1145.761108</ele>
        <time>2016-04-24T10:39:57Z</time>
      </trkpt>
      <trkpt lat="44.00207" lon="7.19039">
        <ele>1145.637207</ele>
        <time>2016-04-24T10:39:58Z</time>
      </trkpt>
      <trkpt lat="44.00211" lon="7.19038">
        <ele>1145.957886</ele>
        <time>2016-04-24T10:39:59Z</time>
      </trkpt>
      <trkpt lat="44.00219" lon="7.19034">
        <ele>1145.822021</ele>
        <time>2016-04-24T10:40:01Z</time>
      </trkpt>
      <trkpt lat="44.00222" lon="7.19028">
        <ele>1143.876099</ele>
        <time>2016-04-24T10:40:03Z</time>
      </trkpt>
      <trkpt lat="44.0022" lon="7.19028">
        <ele>1144.068481</ele>
        <time>2016-04-24T10:40:04Z</time>
      </trkpt>
      <trkpt lat="44.00213" lon="7.19026">
        <ele>1142.567261</ele>
        <time>2016-04-24T10:40:06Z</time>
      </trkpt>
      <trkpt lat="44.00206" lon="7.19024">
        <ele>1140.841187</ele>
        <time>2016-04-24T10:40:08Z</time>
      </trkpt>
      <trkpt lat="44.00204" lon="7.19024">
        <ele>1140.264648</ele>
        <time>2016-04-24T10:40:09Z</time>
      </trkpt>
      <trkpt lat="44.00204" lon="7.19022">
        <ele>1139.572144</ele>
        <time>2016-04-24T10:40:10Z</time>
      </trkpt>
      <trkpt lat="44.00204" lon="7.1902">
        <ele>1139.161011</ele>
        <time>2016-04-24T10:40:11Z</time>
      </trkpt>
      <trkpt lat="44.00207" lon="7.19018">
        <ele>1138.649902</ele>
        <time>2016-04-24T10:40:13Z</time>
      </trkpt>
      <trkpt lat="44.00207" lon="7.19016">
        <ele>1138.056274</ele>
        <time>2016-04-24T10:40:14Z</time>
      </trkpt>
      <trkpt lat="44.00208" lon="7.19013">
        <ele>1137.147095</ele>
        <time>2016-04-24T10:40:16Z</time>
      </trkpt>
      <trkpt lat="44.00209" lon="7.19011">
        <ele>1136.771606</ele>
        <time>2016-04-24T10:40:17Z</time>
      </trkpt>
      <trkpt lat="44.00211" lon="7.1901">
        <ele>1136.627197</ele>
        <time>2016-04-24T10:40:18Z</time>
      </trkpt>
      <trkpt lat="44.00212" lon="7.19008">
        <ele>1136.29187</ele>
        <time>2016-04-24T10:40:20Z</time>
      </trkpt>
      <trkpt lat="44.00212" lon="7.19006">
        <ele>1135.36145</ele>
        <time>2016-04-24T10:40:22Z</time>
      </trkpt>
      <trkpt lat="44.00213" lon="7.19004">
        <ele>1134.92627</ele>
        <time>2016-04-24T10:40:23Z</time>
      </trkpt>
      <trkpt lat="44.00215" lon="7.19001">
        <ele>1134.432495</ele>
        <time>2016-04-24T10:40:24Z</time>
      </trkpt>
      <trkpt lat="44.0022" lon="7.18996">
        <ele>1133.46167</ele>
        <time>2016-04-24T10:40:26Z</time>
      </trkpt>
      <trkpt lat="44.00226" lon="7.18988">
        <ele>1129.498169</ele>
        <time>2016-04-24T10:40:28Z</time>
      </trkpt>
      <trkpt lat="44.00228" lon="7.18987">
        <ele>1128.253418</ele>
        <time>2016-04-24T10:40:29Z</time>
      </trkpt>
      <trkpt lat="44.00232" lon="7.18987">
        <ele>1126.048584</ele>
        <time>2016-04-24T10:40:31Z</time>
      </trkpt>
      <trkpt lat="44.00237" lon="7.18989">
        <ele>1124.057007</ele>
        <time>2016-04-24T10:40:33Z</time>
      </trkpt>
      <trkpt lat="44.00238" lon="7.18982">
        <ele>1121.653076</ele>
        <time>2016-04-24T10:40:35Z</time>
      </trkpt>
      <trkpt lat="44.00237" lon="7.18974">
        <ele>1119.954956</ele>
        <time>2016-04-24T10:40:37Z</time>
      </trkpt>
      <trkpt lat="44.00236" lon="7.18972">
        <ele>1119.728882</ele>
        <time>2016-04-24T10:40:38Z</time>
      </trkpt>
      <trkpt lat="44.00235" lon="7.1897">
        <ele>1119.411255</ele>
        <time>2016-04-24T10:40:39Z</time>
      </trkpt>
      <trkpt lat="44.00235" lon="7.18968">
        <ele>1118.21582</ele>
        <time>2016-04-24T10:40:41Z</time>
      </trkpt>
      <trkpt lat="44.0024" lon="7.1897">
        <ele>1116.567993</ele>
        <time>2016-04-24T10:40:43Z</time>
      </trkpt>
      <trkpt lat="44.00242" lon="7.18972">
        <ele>1116.486694</ele>
        <time>2016-04-24T10:40:44Z</time>
      </trkpt>
      <trkpt lat="44.00243" lon="7.18973">
        <ele>1116.452271</ele>
        <time>2016-04-24T10:40:45Z</time>
      </trkpt>
      <trkpt lat="44.00244" lon="7.1897">
        <ele>1114.786011</ele>
        <time>2016-04-24T10:40:47Z</time>
      </trkpt>
      <trkpt lat="44.00246" lon="7.18964">
        <ele>1110.633911</ele>
        <time>2016-04-24T10:40:49Z</time>
      </trkpt>
      <trkpt lat="44.00247" lon="7.18944">
        <ele>1100.391235</ele>
        <time>2016-04-24T10:40:53Z</time>
      </trkpt>
      <trkpt lat="44.00246" lon="7.18939">
        <ele>1098.838623</ele>
        <time>2016-04-24T10:40:54Z</time>
      </trkpt>
      <trkpt lat="44.00242" lon="7.18937">
        <ele>1099.124634</ele>
        <time>2016-04-24T10:40:55Z</time>
      </trkpt>
      <trkpt lat="44.00239" lon="7.18935">
        <ele>1099.280029</ele>
        <time>2016-04-24T10:40:56Z</time>
      </trkpt>
      <trkpt lat="44.00237" lon="7.18933">
        <ele>1099.120239</ele>
        <time>2016-04-24T10:40:57Z</time>
      </trkpt>
      <trkpt lat="44.00234" lon="7.18931">
        <ele>1099.248901</ele>
        <time>2016-04-24T10:40:58Z</time>
      </trkpt>
      <trkpt lat="44.00232" lon="7.1893">
        <ele>1099.551636</ele>
        <time>2016-04-24T10:40:59Z</time>
      </trkpt>
      <trkpt lat="44.00229" lon="7.1893">
        <ele>1100.497314</ele>
        <time>2016-04-24T10:41:00Z</time>
      </trkpt>
      <trkpt lat="44.00219" lon="7.1893">
        <ele>1101.356323</ele>
        <time>2016-04-24T10:41:02Z</time>
      </trkpt>
      <trkpt lat="44.00212" lon="7.18932">
        <ele>1101.401733</ele>
        <time>2016-04-24T10:41:04Z</time>
      </trkpt>
      <trkpt lat="44.00207" lon="7.18933">
        <ele>1101.46228</ele>
        <time>2016-04-24T10:41:06Z</time>
      </trkpt>
      <trkpt lat="44.00206" lon="7.18932">
        <ele>1100.689331</ele>
        <time>2016-04-24T10:41:08Z</time>
      </trkpt>
      <trkpt lat="44.00211" lon="7.18926">
        <ele>1097.645386</ele>
        <time>2016-04-24T10:41:12Z</time>
      </trkpt>
      <trkpt lat="44.00218" lon="7.18921">
        <ele>1096.024414</ele>
        <time>2016-04-24T10:41:14Z</time>
      </trkpt>
      <trkpt lat="44.00226" lon="7.18918">
        <ele>1095.141479</ele>
        <time>2016-04-24T10:41:16Z</time>
      </trkpt>
      <trkpt lat="44.00254" lon="7.18915">
        <ele>1084.13623</ele>
        <time>2016-04-24T10:41:22Z</time>
      </trkpt>
      <trkpt lat="44.00256" lon="7.18914">
        <ele>1083.456299</ele>
        <time>2016-04-24T10:41:23Z</time>
      </trkpt>
      <trkpt lat="44.00258" lon="7.18912">
        <ele>1081.823486</ele>
        <time>2016-04-24T10:41:25Z</time>
      </trkpt>
      <trkpt lat="44.00259" lon="7.18906">
        <ele>1079.072998</ele>
        <time>2016-04-24T10:41:28Z</time>
      </trkpt>
      <trkpt lat="44.00256" lon="7.18905">
        <ele>1079.487793</ele>
        <time>2016-04-24T10:41:30Z</time>
      </trkpt>
      <trkpt lat="44.00252" lon="7.18905">
        <ele>1080.532837</ele>
        <time>2016-04-24T10:41:32Z</time>
      </trkpt>
      <trkpt lat="44.00248" lon="7.18902">
        <ele>1080.033325</ele>
        <time>2016-04-24T10:41:34Z</time>
      </trkpt>
      <trkpt lat="44.00245" lon="7.189">
        <ele>1079.928711</ele>
        <time>2016-04-24T10:41:36Z</time>
      </trkpt>
      <trkpt lat="44.00247" lon="7.18899">
        <ele>1079.191284</ele>
        <time>2016-04-24T10:41:38Z</time>
      </trkpt>
      <trkpt lat="44.00252" lon="7.18898">
        <ele>1077.377441</ele>
        <time>2016-04-24T10:41:40Z</time>
      </trkpt>
      <trkpt lat="44.00261" lon="7.18894">
        <ele>1073.515869</ele>
        <time>2016-04-24T10:41:42Z</time>
      </trkpt>
      <trkpt lat="44.00272" lon="7.1889">
        <ele>1069.719971</ele>
        <time>2016-04-24T10:41:44Z</time>
      </trkpt>
      <trkpt lat="44.00281" lon="7.18884">
        <ele>1061.919067</ele>
        <time>2016-04-24T10:41:46Z</time>
      </trkpt>
      <trkpt lat="44.00281" lon="7.18881">
        <ele>1061.023315</ele>
        <time>2016-04-24T10:41:47Z</time>
      </trkpt>
      <trkpt lat="44.00278" lon="7.1888">
        <ele>1062.407837</ele>
        <time>2016-04-24T10:41:48Z</time>
      </trkpt>
      <trkpt lat="44.00267" lon="7.18878">
        <ele>1066.201172</ele>
        <time>2016-04-24T10:41:50Z</time>
      </trkpt>
      <trkpt lat="44.00258" lon="7.18876">
        <ele>1066.624146</ele>
        <time>2016-04-24T10:41:52Z</time>
      </trkpt>
      <trkpt lat="44.00256" lon="7.18875">
        <ele>1066.631836</ele>
        <time>2016-04-24T10:41:53Z</time>
      </trkpt>
      <trkpt lat="44.00254" lon="7.18874">
        <ele>1066.689087</ele>
        <time>2016-04-24T10:41:54Z</time>
      </trkpt>
      <trkpt lat="44.00254" lon="7.18874">
        <ele>1066.310791</ele>
        <time>2016-04-24T10:41:55Z</time>
      </trkpt>
      <trkpt lat="44.00255" lon="7.18872">
        <ele>1065.679077</ele>
        <time>2016-04-24T10:41:57Z</time>
      </trkpt>
      <trkpt lat="44.00256" lon="7.18874">
        <ele>1066.002197</ele>
        <time>2016-04-24T10:42:00Z</time>
      </trkpt>
      <trkpt lat="44.00259" lon="7.1887">
        <ele>1064.209106</ele>
        <time>2016-04-24T10:42:03Z</time>
      </trkpt>
      <trkpt lat="44.0026" lon="7.1887">
        <ele>1063.811523</ele>
        <time>2016-04-24T10:42:04Z</time>
      </trkpt>
      <trkpt lat="44.0026" lon="7.18868">
        <ele>1063.256226</ele>
        <time>2016-04-24T10:42:05Z</time>
      </trkpt>
      <trkpt lat="44.0026" lon="7.18867">
        <ele>1062.75415</ele>
        <time>2016-04-24T10:42:06Z</time>
      </trkpt>
      <trkpt lat="44.00257" lon="7.18866">
        <ele>1062.784058</ele>
        <time>2016-04-24T10:42:08Z</time>
      </trkpt>
      <trkpt lat="44.00254" lon="7.18865">
        <ele>1062.675537</ele>
        <time>2016-04-24T10:42:09Z</time>
      </trkpt>
      <trkpt lat="44.00252" lon="7.18863">
        <ele>1062.142334</ele>
        <time>2016-04-24T10:42:10Z</time>
      </trkpt>
      <trkpt lat="44.00246" lon="7.18861">
        <ele>1061.613281</ele>
        <time>2016-04-24T10:42:12Z</time>
      </trkpt>
      <trkpt lat="44.00241" lon="7.18859">
        <ele>1061.502197</ele>
        <time>2016-04-24T10:42:13Z</time>
      </trkpt>
      <trkpt lat="44.00237" lon="7.18858">
        <ele>1061.161987</ele>
        <time>2016-04-24T10:42:14Z</time>
      </trkpt>
      <trkpt lat="44.00233" lon="7.18856">
        <ele>1060.930664</ele>
        <time>2016-04-24T10:42:15Z</time>
      </trkpt>
      <trkpt lat="44.00227" lon="7.18855">
        <ele>1060.257568</ele>
        <time>2016-04-24T10:42:17Z</time>
      </trkpt>
      <trkpt lat="44.00225" lon="7.18854">
        <ele>1059.708618</ele>
        <time>2016-04-24T10:42:19Z</time>
      </trkpt>
      <trkpt lat="44.00225" lon="7.18853">
        <ele>1059.112183</ele>
        <time>2016-04-24T10:42:20Z</time>
      </trkpt>
      <trkpt lat="44.00225" lon="7.18852">
        <ele>1058.176758</ele>
        <time>2016-04-24T10:42:21Z</time>
      </trkpt>
      <trkpt lat="44.00225" lon="7.18849">
        <ele>1056.965942</ele>
        <time>2016-04-24T10:42:25Z</time>
      </trkpt>
      <trkpt lat="44.00225" lon="7.18849">
        <ele>1056.813599</ele>
        <time>2016-04-24T10:42:29Z</time>
      </trkpt>
      <trkpt lat="44.00234" lon="7.18846">
        <ele>1055.602539</ele>
        <time>2016-04-24T10:42:41Z</time>
      </trkpt>
      <trkpt lat="44.00242" lon="7.18843">
        <ele>1053.299316</ele>
        <time>2016-04-24T10:42:43Z</time>
      </trkpt>
      <trkpt lat="44.00245" lon="7.18842">
        <ele>1052.724365</ele>
        <time>2016-04-24T10:42:44Z</time>
      </trkpt>
      <trkpt lat="44.00249" lon="7.18842">
        <ele>1052.398926</ele>
        <time>2016-04-24T10:42:45Z</time>
      </trkpt>
      <trkpt lat="44.0026" lon="7.18836">
        <ele>1049.31897</ele>
        <time>2016-04-24T10:42:49Z</time>
      </trkpt>
      <trkpt lat="44.00259" lon="7.18834">
        <ele>1048.160034</ele>
        <time>2016-04-24T10:42:51Z</time>
      </trkpt>
      <trkpt lat="44.00254" lon="7.18832">
        <ele>1047.372192</ele>
        <time>2016-04-24T10:42:53Z</time>
      </trkpt>
      <trkpt lat="44.00249" lon="7.18829">
        <ele>1046.050781</ele>
        <time>2016-04-24T10:42:55Z</time>
      </trkpt>
      <trkpt lat="44.00247" lon="7.18828">
        <ele>1045.523315</ele>
        <time>2016-04-24T10:42:57Z</time>
      </trkpt>
      <trkpt lat="44.00247" lon="7.18827">
        <ele>1045.093628</ele>
        <time>2016-04-24T10:42:58Z</time>
      </trkpt>
      <trkpt lat="44.00248" lon="7.18827">
        <ele>1045.038696</ele>
        <time>2016-04-24T10:43:00Z</time>
      </trkpt>
      <trkpt lat="44.00255" lon="7.18826">
        <ele>1044.495483</ele>
        <time>2016-04-24T10:43:03Z</time>
      </trkpt>
      <trkpt lat="44.00258" lon="7.18824">
        <ele>1043.842041</ele>
        <time>2016-04-24T10:43:04Z</time>
      </trkpt>
      <trkpt lat="44.00261" lon="7.18822">
        <ele>1042.791382</ele>
        <time>2016-04-24T10:43:05Z</time>
      </trkpt>
      <trkpt lat="44.00271" lon="7.18817">
        <ele>1040.837158</ele>
        <time>2016-04-24T10:43:07Z</time>
      </trkpt>
      <trkpt lat="44.00287" lon="7.18815">
        <ele>1036.789063</ele>
        <time>2016-04-24T10:43:10Z</time>
      </trkpt>
      <trkpt lat="44.00305" lon="7.1882">
        <ele>1033.316895</ele>
        <time>2016-04-24T10:43:14Z</time>
      </trkpt>
      <trkpt lat="44.00307" lon="7.18821">
        <ele>1032.944702</ele>
        <time>2016-04-24T10:43:15Z</time>
      </trkpt>
      <trkpt lat="44.00308" lon="7.18821">
        <ele>1032.494263</ele>
        <time>2016-04-24T10:43:16Z</time>
      </trkpt>
      <trkpt lat="44.00309" lon="7.18817">
        <ele>1031.60498</ele>
        <time>2016-04-24T10:43:18Z</time>
      </trkpt>
      <trkpt lat="44.00308" lon="7.18809">
        <ele>1029.752075</ele>
        <time>2016-04-24T10:43:20Z</time>
      </trkpt>
      <trkpt lat="44.00307" lon="7.18797">
        <ele>1027.136841</ele>
        <time>2016-04-24T10:43:23Z</time>
      </trkpt>
      <trkpt lat="44.00307" lon="7.18792">
        <ele>1025.830566</ele>
        <time>2016-04-24T10:43:25Z</time>
      </trkpt>
      <trkpt lat="44.00307" lon="7.1879">
        <ele>1025.156006</ele>
        <time>2016-04-24T10:43:26Z</time>
      </trkpt>
      <trkpt lat="44.00305" lon="7.18788">
        <ele>1024.682495</ele>
        <time>2016-04-24T10:43:27Z</time>
      </trkpt>
      <trkpt lat="44.003" lon="7.18784">
        <ele>1023.420532</ele>
        <time>2016-04-24T10:43:29Z</time>
      </trkpt>
      <trkpt lat="44.00296" lon="7.18781">
        <ele>1022.524658</ele>
        <time>2016-04-24T10:43:31Z</time>
      </trkpt>
      <trkpt lat="44.00294" lon="7.18779">
        <ele>1021.890747</ele>
        <time>2016-04-24T10:43:33Z</time>
      </trkpt>
      <trkpt lat="44.00294" lon="7.18778">
        <ele>1021.238281</ele>
        <time>2016-04-24T10:43:35Z</time>
      </trkpt>
      <trkpt lat="44.00299" lon="7.18776">
        <ele>1019.685913</ele>
        <time>2016-04-24T10:43:37Z</time>
      </trkpt>
      <trkpt lat="44.00302" lon="7.18776">
        <ele>1019.245667</ele>
        <time>2016-04-24T10:43:38Z</time>
      </trkpt>
      <trkpt lat="44.00303" lon="7.18773">
        <ele>1017.417542</ele>
        <time>2016-04-24T10:43:40Z</time>
      </trkpt>
      <trkpt lat="44.003" lon="7.18766">
        <ele>1014.635498</ele>
        <time>2016-04-24T10:43:42Z</time>
      </trkpt>
      <trkpt lat="44.00297" lon="7.18763">
        <ele>1013.391663</ele>
        <time>2016-04-24T10:43:43Z</time>
      </trkpt>
      <trkpt lat="44.00293" lon="7.1876">
        <ele>1012.308594</ele>
        <time>2016-04-24T10:43:44Z</time>
      </trkpt>
      <trkpt lat="44.00284" lon="7.18755">
        <ele>1010.568726</ele>
        <time>2016-04-24T10:43:46Z</time>
      </trkpt>
      <trkpt lat="44.00278" lon="7.18752">
        <ele>1009.885437</ele>
        <time>2016-04-24T10:43:47Z</time>
      </trkpt>
      <trkpt lat="44.00273" lon="7.1875">
        <ele>1008.04126</ele>
        <time>2016-04-24T10:43:48Z</time>
      </trkpt>
      <trkpt lat="44.00268" lon="7.18748">
        <ele>1006.411255</ele>
        <time>2016-04-24T10:43:49Z</time>
      </trkpt>
      <trkpt lat="44.00263" lon="7.18747">
        <ele>1005.193726</ele>
        <time>2016-04-24T10:43:50Z</time>
      </trkpt>
      <trkpt lat="44.00258" lon="7.18747">
        <ele>1004.588745</ele>
        <time>2016-04-24T10:43:51Z</time>
      </trkpt>
      <trkpt lat="44.00254" lon="7.18747">
        <ele>1004.588745</ele>
        <time>2016-04-24T10:43:52Z</time>
      </trkpt>
      <trkpt lat="44.00251" lon="7.18747">
        <ele>1004.01001</ele>
        <time>2016-04-24T10:43:54Z</time>
      </trkpt>
      <trkpt lat="44.00254" lon="7.18745">
        <ele>1003.033752</ele>
        <time>2016-04-24T10:43:56Z</time>
      </trkpt>
      <trkpt lat="44.00259" lon="7.1874">
        <ele>1001.469971</ele>
        <time>2016-04-24T10:43:58Z</time>
      </trkpt>
      <trkpt lat="44.00265" lon="7.18736">
        <ele>999.60498</ele>
        <time>2016-04-24T10:44:00Z</time>
      </trkpt>
      <trkpt lat="44.00268" lon="7.18733">
        <ele>998.546265</ele>
        <time>2016-04-24T10:44:01Z</time>
      </trkpt>
      <trkpt lat="44.0027" lon="7.18731">
        <ele>997.352478</ele>
        <time>2016-04-24T10:44:02Z</time>
      </trkpt>
      <trkpt lat="44.00271" lon="7.18728">
        <ele>996.248779</ele>
        <time>2016-04-24T10:44:03Z</time>
      </trkpt>
      <trkpt lat="44.00272" lon="7.18726">
        <ele>995.33374</ele>
        <time>2016-04-24T10:44:04Z</time>
      </trkpt>
      <trkpt lat="44.00274" lon="7.18724">
        <ele>994.460266</ele>
        <time>2016-04-24T10:44:05Z</time>
      </trkpt>
      <trkpt lat="44.00275" lon="7.18722">
        <ele>993.390625</ele>
        <time>2016-04-24T10:44:06Z</time>
      </trkpt>
      <trkpt lat="44.00276" lon="7.1872">
        <ele>992.416199</ele>
        <time>2016-04-24T10:44:07Z</time>
      </trkpt>
      <trkpt lat="44.00275" lon="7.18718">
        <ele>991.376587</ele>
        <time>2016-04-24T10:44:08Z</time>
      </trkpt>
      <trkpt lat="44.00272" lon="7.18712">
        <ele>987.77301</ele>
        <time>2016-04-24T10:44:10Z</time>
      </trkpt>
      <trkpt lat="44.00271" lon="7.18708">
        <ele>985.467834</ele>
        <time>2016-04-24T10:44:12Z</time>
      </trkpt>
      <trkpt lat="44.00272" lon="7.18706">
        <ele>984.600708</ele>
        <time>2016-04-24T10:44:13Z</time>
      </trkpt>
      <trkpt lat="44.00273" lon="7.18704">
        <ele>983.825562</ele>
        <time>2016-04-24T10:44:14Z</time>
      </trkpt>
      <trkpt lat="44.00274" lon="7.18702">
        <ele>982.909363</ele>
        <time>2016-04-24T10:44:15Z</time>
      </trkpt>
      <trkpt lat="44.00273" lon="7.187">
        <ele>981.517029</ele>
        <time>2016-04-24T10:44:17Z</time>
      </trkpt>
      <trkpt lat="44.00268" lon="7.18696">
        <ele>979.141479</ele>
        <time>2016-04-24T10:44:19Z</time>
      </trkpt>
      <trkpt lat="44.00261" lon="7.18694">
        <ele>977.674011</ele>
        <time>2016-04-24T10:44:21Z</time>
      </trkpt>
      <trkpt lat="44.00259" lon="7.18692">
        <ele>976.847839</ele>
        <time>2016-04-24T10:44:22Z</time>
      </trkpt>
      <trkpt lat="44.00257" lon="7.18691">
        <ele>975.933228</ele>
        <time>2016-04-24T10:44:23Z</time>
      </trkpt>
      <trkpt lat="44.00259" lon="7.18688">
        <ele>974.517395</ele>
        <time>2016-04-24T10:44:25Z</time>
      </trkpt>
      <trkpt lat="44.00264" lon="7.18685">
        <ele>973.465332</ele>
        <time>2016-04-24T10:44:27Z</time>
      </trkpt>
      <trkpt lat="44.00272" lon="7.18683">
        <ele>972.635315</ele>
        <time>2016-04-24T10:44:29Z</time>
      </trkpt>
      <trkpt lat="44.00279" lon="7.18681">
        <ele>972.143372</ele>
        <time>2016-04-24T10:44:31Z</time>
      </trkpt>
      <trkpt lat="44.00285" lon="7.1868">
        <ele>971.092285</ele>
        <time>2016-04-24T10:44:33Z</time>
      </trkpt>
      <trkpt lat="44.00285" lon="7.18678">
        <ele>970.002991</ele>
        <time>2016-04-24T10:44:35Z</time>
      </trkpt>
      <trkpt lat="44.0028" lon="7.18675">
        <ele>968.826416</ele>
        <time>2016-04-24T10:44:37Z</time>
      </trkpt>
      <trkpt lat="44.00272" lon="7.1867">
        <ele>966.04187</ele>
        <time>2016-04-24T10:44:40Z</time>
      </trkpt>
      <trkpt lat="44.00271" lon="7.18667">
        <ele>964.620911</ele>
        <time>2016-04-24T10:44:42Z</time>
      </trkpt>
      <trkpt lat="44.00272" lon="7.18666">
        <ele>963.785156</ele>
        <time>2016-04-24T10:44:43Z</time>
      </trkpt>
      <trkpt lat="44.00274" lon="7.18664">
        <ele>963.02063</ele>
        <time>2016-04-24T10:44:44Z</time>
      </trkpt>
      <trkpt lat="44.00277" lon="7.18661">
        <ele>961.806091</ele>
        <time>2016-04-24T10:44:46Z</time>
      </trkpt>
      <trkpt lat="44.00278" lon="7.18659">
        <ele>960.781555</ele>
        <time>2016-04-24T10:44:47Z</time>
      </trkpt>
      <trkpt lat="44.00279" lon="7.18656">
        <ele>959.537415</ele>
        <time>2016-04-24T10:44:48Z</time>
      </trkpt>
      <trkpt lat="44.00281" lon="7.18654">
        <ele>958.447754</ele>
        <time>2016-04-24T10:44:49Z</time>
      </trkpt>
      <trkpt lat="44.00283" lon="7.18652">
        <ele>957.521729</ele>
        <time>2016-04-24T10:44:50Z</time>
      </trkpt>
      <trkpt lat="44.00285" lon="7.1865">
        <ele>956.471985</ele>
        <time>2016-04-24T10:44:51Z</time>
      </trkpt>
      <trkpt lat="44.00288" lon="7.1865">
        <ele>956.162048</ele>
        <time>2016-04-24T10:44:52Z</time>
      </trkpt>
      <trkpt lat="44.00291" lon="7.18651">
        <ele>955.950623</ele>
        <time>2016-04-24T10:44:53Z</time>
      </trkpt>
      <trkpt lat="44.00297" lon="7.18651">
        <ele>955.541504</ele>
        <time>2016-04-24T10:44:55Z</time>
      </trkpt>
      <trkpt lat="44.00317" lon="7.18656">
        <ele>955.737366</ele>
        <time>2016-04-24T10:45:00Z</time>
      </trkpt>
      <trkpt lat="44.00323" lon="7.1866">
        <ele>956.815002</ele>
        <time>2016-04-24T10:45:02Z</time>
      </trkpt>
      <trkpt lat="44.00324" lon="7.18661">
        <ele>957.197327</ele>
        <time>2016-04-24T10:45:04Z</time>
      </trkpt>
      <trkpt lat="44.00324" lon="7.1866">
        <ele>956.924194</ele>
        <time>2016-04-24T10:45:06Z</time>
      </trkpt>
      <trkpt lat="44.00323" lon="7.18658">
        <ele>955.963989</ele>
        <time>2016-04-24T10:45:09Z</time>
      </trkpt>
      <trkpt lat="44.0032" lon="7.18653">
        <ele>953.324829</ele>
        <time>2016-04-24T10:45:12Z</time>
      </trkpt>
      <trkpt lat="44.00311" lon="7.18646">
        <ele>950.783875</ele>
        <time>2016-04-24T10:45:16Z</time>
      </trkpt>
      <trkpt lat="44.00313" lon="7.18645">
        <ele>949.978394</ele>
        <time>2016-04-24T10:45:17Z</time>
      </trkpt>
      <trkpt lat="44.00315" lon="7.18644">
        <ele>949.292053</ele>
        <time>2016-04-24T10:45:18Z</time>
      </trkpt>
      <trkpt lat="44.00318" lon="7.18644">
        <ele>948.89386</ele>
        <time>2016-04-24T10:45:19Z</time>
      </trkpt>
      <trkpt lat="44.0032" lon="7.18643">
        <ele>948.079773</ele>
        <time>2016-04-24T10:45:20Z</time>
      </trkpt>
      <trkpt lat="44.00324" lon="7.18641">
        <ele>946.318298</ele>
        <time>2016-04-24T10:45:22Z</time>
      </trkpt>
      <trkpt lat="44.00328" lon="7.18641">
        <ele>945.381104</ele>
        <time>2016-04-24T10:45:24Z</time>
      </trkpt>
      <trkpt lat="44.00331" lon="7.1864">
        <ele>943.945007</ele>
        <time>2016-04-24T10:45:26Z</time>
      </trkpt>
      <trkpt lat="44.00335" lon="7.1864">
        <ele>943.247498</ele>
        <time>2016-04-24T10:45:28Z</time>
      </trkpt>
      <trkpt lat="44.0034" lon="7.1864">
        <ele>941.807495</ele>
        <time>2016-04-24T10:45:30Z</time>
      </trkpt>
      <trkpt lat="44.00347" lon="7.1864">
        <ele>940.547485</ele>
        <time>2016-04-24T10:45:32Z</time>
      </trkpt>
      <trkpt lat="44.00354" lon="7.18643">
        <ele>940.164978</ele>
        <time>2016-04-24T10:45:34Z</time>
      </trkpt>
      <trkpt lat="44.00362" lon="7.18648">
        <ele>941.132507</ele>
        <time>2016-04-24T10:45:36Z</time>
      </trkpt>
      <trkpt lat="44.00369" lon="7.18654">
        <ele>942.617493</ele>
        <time>2016-04-24T10:45:38Z</time>
      </trkpt>
      <trkpt lat="44.00377" lon="7.18661">
        <ele>941.804321</ele>
        <time>2016-04-24T10:45:40Z</time>
      </trkpt>
      <trkpt lat="44.00384" lon="7.18667">
        <ele>939.728149</ele>
        <time>2016-04-24T10:45:42Z</time>
      </trkpt>
      <trkpt lat="44.00389" lon="7.18671">
        <ele>937.752136</ele>
        <time>2016-04-24T10:45:44Z</time>
      </trkpt>
      <trkpt lat="44.00393" lon="7.18674">
        <ele>935.112488</ele>
        <time>2016-04-24T10:45:45Z</time>
      </trkpt>
      <trkpt lat="44.00396" lon="7.18677">
        <ele>933.547974</ele>
        <time>2016-04-24T10:45:46Z</time>
      </trkpt>
      <trkpt lat="44.00398" lon="7.1868">
        <ele>932.853271</ele>
        <time>2016-04-24T10:45:47Z</time>
      </trkpt>
      <trkpt lat="44.00399" lon="7.18685">
        <ele>933.525146</ele>
        <time>2016-04-24T10:45:48Z</time>
      </trkpt>
      <trkpt lat="44.004" lon="7.18702">
        <ele>935.521606</ele>
        <time>2016-04-24T10:45:52Z</time>
      </trkpt>
      <trkpt lat="44.00398" lon="7.18737">
        <ele>943.560913</ele>
        <time>2016-04-24T10:45:59Z</time>
      </trkpt>
      <trkpt lat="44.00401" lon="7.18743">
        <ele>942.384827</ele>
        <time>2016-04-24T10:46:00Z</time>
      </trkpt>
      <trkpt lat="44.00403" lon="7.18761">
        <ele>942.750244</ele>
        <time>2016-04-24T10:46:04Z</time>
      </trkpt>
      <trkpt lat="44.00406" lon="7.18773">
        <ele>942.492615</ele>
        <time>2016-04-24T10:46:07Z</time>
      </trkpt>
      <trkpt lat="44.00408" lon="7.18784">
        <ele>942.89386</ele>
        <time>2016-04-24T10:46:10Z</time>
      </trkpt>
      <trkpt lat="44.00409" lon="7.18791">
        <ele>943.245361</ele>
        <time>2016-04-24T10:46:12Z</time>
      </trkpt>
      <trkpt lat="44.00411" lon="7.18811">
        <ele>944.419983</ele>
        <time>2016-04-24T10:46:17Z</time>
      </trkpt>
      <trkpt lat="44.00412" lon="7.18818">
        <ele>944.124573</ele>
        <time>2016-04-24T10:46:19Z</time>
      </trkpt>
      <trkpt lat="44.00414" lon="7.18834">
        <ele>943.889343</ele>
        <time>2016-04-24T10:46:23Z</time>
      </trkpt>
      <trkpt lat="44.00414" lon="7.18847">
        <ele>944.735413</ele>
        <time>2016-04-24T10:46:26Z</time>
      </trkpt>
      <trkpt lat="44.00408" lon="7.18859">
        <ele>951.22052</ele>
        <time>2016-04-24T10:46:29Z</time>
      </trkpt>
      <trkpt lat="44.00405" lon="7.1887">
        <ele>955.949829</ele>
        <time>2016-04-24T10:46:31Z</time>
      </trkpt>
      <trkpt lat="44.00406" lon="7.18876">
        <ele>955.828125</ele>
        <time>2016-04-24T10:46:32Z</time>
      </trkpt>
      <trkpt lat="44.00408" lon="7.18889">
        <ele>955.218384</ele>
        <time>2016-04-24T10:46:34Z</time>
      </trkpt>
      <trkpt lat="44.00415" lon="7.18908">
        <ele>951.696899</ele>
        <time>2016-04-24T10:46:37Z</time>
      </trkpt>
      <trkpt lat="44.0042" lon="7.18936">
        <ele>954.174622</ele>
        <time>2016-04-24T10:46:42Z</time>
      </trkpt>
      <trkpt lat="44.00421" lon="7.1895">
        <ele>959.438965</ele>
        <time>2016-04-24T10:46:44Z</time>
      </trkpt>
      <trkpt lat="44.00426" lon="7.18959">
        <ele>960.850403</ele>
        <time>2016-04-24T10:46:46Z</time>
      </trkpt>
      <trkpt lat="44.00469" lon="7.18958">
        <ele>948.778992</ele>
        <time>2016-04-24T10:46:53Z</time>
      </trkpt>
      <trkpt lat="44.00479" lon="7.18956">
        <ele>948.31488</ele>
        <time>2016-04-24T10:46:55Z</time>
      </trkpt>
      <trkpt lat="44.00483" lon="7.18954">
        <ele>947.451843</ele>
        <time>2016-04-24T10:46:56Z</time>
      </trkpt>
      <trkpt lat="44.00487" lon="7.18953">
        <ele>947.33728</ele>
        <time>2016-04-24T10:46:57Z</time>
      </trkpt>
      <trkpt lat="44.00495" lon="7.18955">
        <ele>948.570374</ele>
        <time>2016-04-24T10:46:59Z</time>
      </trkpt>
      <trkpt lat="44.00503" lon="7.18962">
        <ele>949.004456</ele>
        <time>2016-04-24T10:47:01Z</time>
      </trkpt>
      <trkpt lat="44.00505" lon="7.18966">
        <ele>949.708435</ele>
        <time>2016-04-24T10:47:02Z</time>
      </trkpt>
      <trkpt lat="44.00507" lon="7.1897">
        <ele>951.042114</ele>
        <time>2016-04-24T10:47:03Z</time>
      </trkpt>
      <trkpt lat="44.00509" lon="7.18981">
        <ele>955.094238</ele>
        <time>2016-04-24T10:47:05Z</time>
      </trkpt>
      <trkpt lat="44.0051" lon="7.1899">
        <ele>958.631104</ele>
        <time>2016-04-24T10:47:07Z</time>
      </trkpt>
      <trkpt lat="44.00511" lon="7.18994">
        <ele>960.217773</ele>
        <time>2016-04-24T10:47:08Z</time>
      </trkpt>
      <trkpt lat="44.00512" lon="7.18998">
        <ele>961.225464</ele>
        <time>2016-04-24T10:47:09Z</time>
      </trkpt>
      <trkpt lat="44.00514" lon="7.19008">
        <ele>963.815979</ele>
        <time>2016-04-24T10:47:12Z</time>
      </trkpt>
      <trkpt lat="44.00514" lon="7.19012">
        <ele>964.655029</ele>
        <time>2016-04-24T10:47:13Z</time>
      </trkpt>
      <trkpt lat="44.00515" lon="7.19021">
        <ele>967.384705</ele>
        <time>2016-04-24T10:47:16Z</time>
      </trkpt>
      <trkpt lat="44.00516" lon="7.19025">
        <ele>968.12323</ele>
        <time>2016-04-24T10:47:17Z</time>
      </trkpt>
      <trkpt lat="44.00517" lon="7.19033">
        <ele>970.363953</ele>
        <time>2016-04-24T10:47:19Z</time>
      </trkpt>
      <trkpt lat="44.00518" lon="7.19038">
        <ele>971.850464</ele>
        <time>2016-04-24T10:47:21Z</time>
      </trkpt>
      <trkpt lat="44.00521" lon="7.19042">
        <ele>971.209778</ele>
        <time>2016-04-24T10:47:23Z</time>
      </trkpt>
      <trkpt lat="44.00523" lon="7.19044">
        <ele>969.948792</ele>
        <time>2016-04-24T10:47:24Z</time>
      </trkpt>
      <trkpt lat="44.00531" lon="7.19045">
        <ele>965.271545</ele>
        <time>2016-04-24T10:47:27Z</time>
      </trkpt>
      <trkpt lat="44.00545" lon="7.1904">
        <ele>958.567871</ele>
        <time>2016-04-24T10:47:32Z</time>
      </trkpt>
      <trkpt lat="44.00558" lon="7.19032">
        <ele>951.805969</ele>
        <time>2016-04-24T10:47:37Z</time>
      </trkpt>
      <trkpt lat="44.00566" lon="7.19029">
        <ele>947.608215</ele>
        <time>2016-04-24T10:47:41Z</time>
      </trkpt>
      <trkpt lat="44.00577" lon="7.19031">
        <ele>945.340515</ele>
        <time>2016-04-24T10:47:46Z</time>
      </trkpt>
      <trkpt lat="44.00587" lon="7.19052">
        <ele>952.777283</ele>
        <time>2016-04-24T10:47:52Z</time>
      </trkpt>
      <trkpt lat="44.0059" lon="7.19066">
        <ele>959.381531</ele>
        <time>2016-04-24T10:47:56Z</time>
      </trkpt>
      <trkpt lat="44.00594" lon="7.19071">
        <ele>960.557129</ele>
        <time>2016-04-24T10:47:58Z</time>
      </trkpt>
      <trkpt lat="44.00596" lon="7.19072">
        <ele>960.139282</ele>
        <time>2016-04-24T10:47:59Z</time>
      </trkpt>
      <trkpt lat="44.00601" lon="7.19073">
        <ele>958.923523</ele>
        <time>2016-04-24T10:48:01Z</time>
      </trkpt>
      <trkpt lat="44.00606" lon="7.19072">
        <ele>956.258728</ele>
        <time>2016-04-24T10:48:03Z</time>
      </trkpt>
      <trkpt lat="44.00619" lon="7.19084">
        <ele>957.945435</ele>
        <time>2016-04-24T10:48:07Z</time>
      </trkpt>
      <trkpt lat="44.00621" lon="7.19089">
        <ele>959.78186</ele>
        <time>2016-04-24T10:48:08Z</time>
      </trkpt>
      <trkpt lat="44.00622" lon="7.19093">
        <ele>961.532227</ele>
        <time>2016-04-24T10:48:09Z</time>
      </trkpt>
      <trkpt lat="44.00628" lon="7.1911">
        <ele>969.056885</ele>
        <time>2016-04-24T10:48:13Z</time>
      </trkpt>
      <trkpt lat="44.00635" lon="7.19128">
        <ele>975.861938</ele>
        <time>2016-04-24T10:48:18Z</time>
      </trkpt>
      <trkpt lat="44.00635" lon="7.19138">
        <ele>979.706238</ele>
        <time>2016-04-24T10:48:21Z</time>
      </trkpt>
      <trkpt lat="44.00635" lon="7.19141">
        <ele>980.82251</ele>
        <time>2016-04-24T10:48:22Z</time>
      </trkpt>
      <trkpt lat="44.00636" lon="7.19156">
        <ele>985.910217</ele>
        <time>2016-04-24T10:48:27Z</time>
      </trkpt>
      <trkpt lat="44.00638" lon="7.19159">
        <ele>986.367004</ele>
        <time>2016-04-24T10:48:28Z</time>
      </trkpt>
      <trkpt lat="44.00644" lon="7.19168">
        <ele>987.651245</ele>
        <time>2016-04-24T10:48:31Z</time>
      </trkpt>
      <trkpt lat="44.00647" lon="7.19169">
        <ele>986.941162</ele>
        <time>2016-04-24T10:48:32Z</time>
      </trkpt>
      <trkpt lat="44.00657" lon="7.19171">
        <ele>984.438293</ele>
        <time>2016-04-24T10:48:35Z</time>
      </trkpt>
      <trkpt lat="44.0067" lon="7.19174">
        <ele>980.616882</ele>
        <time>2016-04-24T10:48:39Z</time>
      </trkpt>
      <trkpt lat="44.00688" lon="7.19175">
        <ele>972.273315</ele>
        <time>2016-04-24T10:48:45Z</time>
      </trkpt>
      <trkpt lat="44.00705" lon="7.19178">
        <ele>964.990051</ele>
        <time>2016-04-24T10:48:51Z</time>
      </trkpt>
      <trkpt lat="44.00707" lon="7.1918">
        <ele>964.960327</ele>
        <time>2016-04-24T10:48:52Z</time>
      </trkpt>
      <trkpt lat="44.00708" lon="7.19187">
        <ele>966.32312</ele>
        <time>2016-04-24T10:48:54Z</time>
      </trkpt>
      <trkpt lat="44.0071" lon="7.19194">
        <ele>968.094727</ele>
        <time>2016-04-24T10:48:56Z</time>
      </trkpt>
      <trkpt lat="44.00712" lon="7.19208">
        <ele>972.512512</ele>
        <time>2016-04-24T10:49:00Z</time>
      </trkpt>
      <trkpt lat="44.00712" lon="7.19223">
        <ele>977.695007</ele>
        <time>2016-04-24T10:49:04Z</time>
      </trkpt>
      <trkpt lat="44.00713" lon="7.19227">
        <ele>979.027527</ele>
        <time>2016-04-24T10:49:05Z</time>
      </trkpt>
      <trkpt lat="44.00713" lon="7.19235">
        <ele>981.549988</ele>
        <time>2016-04-24T10:49:07Z</time>
      </trkpt>
      <trkpt lat="44.0072" lon="7.19236">
        <ele>981.059998</ele>
        <time>2016-04-24T10:49:09Z</time>
      </trkpt>
      <trkpt lat="44.00723" lon="7.19235">
        <ele>980.05249</ele>
        <time>2016-04-24T10:49:10Z</time>
      </trkpt>
      <trkpt lat="44.00737" lon="7.19229">
        <ele>976.224976</ele>
        <time>2016-04-24T10:49:14Z</time>
      </trkpt>
      <trkpt lat="44.00754" lon="7.19216">
        <ele>969.623535</ele>
        <time>2016-04-24T10:49:20Z</time>
      </trkpt>
      <trkpt lat="44.00778" lon="7.19204">
        <ele>970.166626</ele>
        <time>2016-04-24T10:49:27Z</time>
      </trkpt>
      <trkpt lat="44.008" lon="7.19208">
        <ele>975.96875</ele>
        <time>2016-04-24T10:49:33Z</time>
      </trkpt>
      <trkpt lat="44.00825" lon="7.19211">
        <ele>975.265015</ele>
        <time>2016-04-24T10:49:40Z</time>
      </trkpt>
      <trkpt lat="44.00846" lon="7.19246">
        <ele>985.629517</ele>
        <time>2016-04-24T10:49:46Z</time>
      </trkpt>
      <trkpt lat="44.00866" lon="7.19279">
        <ele>990.986206</ele>
        <time>2016-04-24T10:49:53Z</time>
      </trkpt>
      <trkpt lat="44.00878" lon="7.19296">
        <ele>992.625549</ele>
        <time>2016-04-24T10:49:57Z</time>
      </trkpt>
      <trkpt lat="44.0089" lon="7.19314">
        <ele>993.076416</ele>
        <time>2016-04-24T10:50:01Z</time>
      </trkpt>
      <trkpt lat="44.00895" lon="7.19325">
        <ele>993.859619</ele>
        <time>2016-04-24T10:50:03Z</time>
      </trkpt>
      <trkpt lat="44.00905" lon="7.19352">
        <ele>996.690063</ele>
        <time>2016-04-24T10:50:08Z</time>
      </trkpt>
      <trkpt lat="44.00909" lon="7.19364">
        <ele>998.007324</ele>
        <time>2016-04-24T10:50:10Z</time>
      </trkpt>
      <trkpt lat="44.00915" lon="7.1938">
        <ele>999.026184</ele>
        <time>2016-04-24T10:50:13Z</time>
      </trkpt>
      <trkpt lat="44.00917" lon="7.19386">
        <ele>999.066833</ele>
        <time>2016-04-24T10:50:14Z</time>
      </trkpt>
      <trkpt lat="44.0092" lon="7.19391">
        <ele>998.483826</ele>
        <time>2016-04-24T10:50:15Z</time>
      </trkpt>
      <trkpt lat="44.00926" lon="7.19396">
        <ele>995.652527</ele>
        <time>2016-04-24T10:50:17Z</time>
      </trkpt>
      <trkpt lat="44.00933" lon="7.19394">
        <ele>992.387512</ele>
        <time>2016-04-24T10:50:20Z</time>
      </trkpt>
      <trkpt lat="44.0094" lon="7.19393">
        <ele>989.36499</ele>
        <time>2016-04-24T10:50:24Z</time>
      </trkpt>
      <trkpt lat="44.00939" lon="7.19391">
        <ele>989.244995</ele>
        <time>2016-04-24T10:50:26Z</time>
      </trkpt>
      <trkpt lat="44.00938" lon="7.19386">
        <ele>988.08252</ele>
        <time>2016-04-24T10:50:29Z</time>
      </trkpt>
      <trkpt lat="44.00943" lon="7.19387">
        <ele>986.497498</ele>
        <time>2016-04-24T10:50:31Z</time>
      </trkpt>
      <trkpt lat="44.00951" lon="7.1939">
        <ele>984.25</ele>
        <time>2016-04-24T10:50:34Z</time>
      </trkpt>
      <trkpt lat="44.00954" lon="7.19391">
        <ele>983.214966</ele>
        <time>2016-04-24T10:50:36Z</time>
      </trkpt>
      <trkpt lat="44.00954" lon="7.19389">
        <ele>982.547485</ele>
        <time>2016-04-24T10:50:37Z</time>
      </trkpt>
      <trkpt lat="44.00954" lon="7.19381">
        <ele>980.61499</ele>
        <time>2016-04-24T10:50:39Z</time>
      </trkpt>
      <trkpt lat="44.00953" lon="7.19375">
        <ele>979.192505</ele>
        <time>2016-04-24T10:50:41Z</time>
      </trkpt>
      <trkpt lat="44.00953" lon="7.19373">
        <ele>978.80249</ele>
        <time>2016-04-24T10:50:42Z</time>
      </trkpt>
      <trkpt lat="44.00954" lon="7.19372">
        <ele>978.30249</ele>
        <time>2016-04-24T10:50:44Z</time>
      </trkpt>
      <trkpt lat="44.00956" lon="7.19373">
        <ele>977.767517</ele>
        <time>2016-04-24T10:50:46Z</time>
      </trkpt>
      <trkpt lat="44.00957" lon="7.19373">
        <ele>977.137512</ele>
        <time>2016-04-24T10:50:48Z</time>
      </trkpt>
      <trkpt lat="44.00958" lon="7.19368">
        <ele>975.55249</ele>
        <time>2016-04-24T10:50:52Z</time>
      </trkpt>
      <trkpt lat="44.00959" lon="7.19368">
        <ele>975.152527</ele>
        <time>2016-04-24T10:50:55Z</time>
      </trkpt>
      <trkpt lat="44.0096" lon="7.1937">
        <ele>975.002502</ele>
        <time>2016-04-24T10:50:57Z</time>
      </trkpt>
      <trkpt lat="44.00962" lon="7.19371">
        <ele>974.527527</ele>
        <time>2016-04-24T10:50:58Z</time>
      </trkpt>
      <trkpt lat="44.00964" lon="7.19372">
        <ele>974</ele>
        <time>2016-04-24T10:50:59Z</time>
      </trkpt>
      <trkpt lat="44.00967" lon="7.19375">
        <ele>973.869995</ele>
        <time>2016-04-24T10:51:00Z</time>
      </trkpt>
      <trkpt lat="44.00968" lon="7.19378">
        <ele>973.97998</ele>
        <time>2016-04-24T10:51:01Z</time>
      </trkpt>
      <trkpt lat="44.00973" lon="7.19383">
        <ele>973.759155</ele>
        <time>2016-04-24T10:51:03Z</time>
      </trkpt>
      <trkpt lat="44.00976" lon="7.19385">
        <ele>972.860168</ele>
        <time>2016-04-24T10:51:04Z</time>
      </trkpt>
      <trkpt lat="44.0098" lon="7.19387">
        <ele>971.953064</ele>
        <time>2016-04-24T10:51:05Z</time>
      </trkpt>
      <trkpt lat="44.00986" lon="7.19389">
        <ele>970.437012</ele>
        <time>2016-04-24T10:51:06Z</time>
      </trkpt>
      <trkpt lat="44.00992" lon="7.19391">
        <ele>968.902832</ele>
        <time>2016-04-24T10:51:07Z</time>
      </trkpt>
      <trkpt lat="44.01002" lon="7.19397">
        <ele>966.352844</ele>
        <time>2016-04-24T10:51:09Z</time>
      </trkpt>
      <trkpt lat="44.01009" lon="7.19405">
        <ele>965.002502</ele>
        <time>2016-04-24T10:51:11Z</time>
      </trkpt>
      <trkpt lat="44.01013" lon="7.19408">
        <ele>964.03302</ele>
        <time>2016-04-24T10:51:12Z</time>
      </trkpt>
      <trkpt lat="44.01018" lon="7.19415">
        <ele>964.077087</ele>
        <time>2016-04-24T10:51:14Z</time>
      </trkpt>
      <trkpt lat="44.0102" lon="7.19418">
        <ele>964.489746</ele>
        <time>2016-04-24T10:51:15Z</time>
      </trkpt>
      <trkpt lat="44.01021" lon="7.19419">
        <ele>964.635986</ele>
        <time>2016-04-24T10:51:16Z</time>
      </trkpt>
      <trkpt lat="44.01022" lon="7.19417">
        <ele>963.934875</ele>
        <time>2016-04-24T10:51:18Z</time>
      </trkpt>
      <trkpt lat="44.01022" lon="7.19414">
        <ele>962.73999</ele>
        <time>2016-04-24T10:51:20Z</time>
      </trkpt>
      <trkpt lat="44.01022" lon="7.19411">
        <ele>962.288818</ele>
        <time>2016-04-24T10:51:21Z</time>
      </trkpt>
      <trkpt lat="44.01024" lon="7.19408">
        <ele>961.648254</ele>
        <time>2016-04-24T10:51:22Z</time>
      </trkpt>
      <trkpt lat="44.01025" lon="7.19404">
        <ele>961.052612</ele>
        <time>2016-04-24T10:51:23Z</time>
      </trkpt>
      <trkpt lat="44.01025" lon="7.19401">
        <ele>960.768433</ele>
        <time>2016-04-24T10:51:24Z</time>
      </trkpt>
      <trkpt lat="44.01024" lon="7.19392">
        <ele>959.880005</ele>
        <time>2016-04-24T10:51:26Z</time>
      </trkpt>
      <trkpt lat="44.01023" lon="7.19385">
        <ele>959.089233</ele>
        <time>2016-04-24T10:51:28Z</time>
      </trkpt>
      <trkpt lat="44.01023" lon="7.19382">
        <ele>958.777344</ele>
        <time>2016-04-24T10:51:29Z</time>
      </trkpt>
      <trkpt lat="44.01024" lon="7.19379">
        <ele>958.40686</ele>
        <time>2016-04-24T10:51:31Z</time>
      </trkpt>
      <trkpt lat="44.01026" lon="7.1938">
        <ele>958.397705</ele>
        <time>2016-04-24T10:51:34Z</time>
      </trkpt>
      <trkpt lat="44.0103" lon="7.19385">
        <ele>958.888062</ele>
        <time>2016-04-24T10:51:45Z</time>
      </trkpt>
      <trkpt lat="44.01031" lon="7.19388">
        <ele>958.984497</ele>
        <time>2016-04-24T10:51:48Z</time>
      </trkpt>
      <trkpt lat="44.01033" lon="7.1939">
        <ele>959.116333</ele>
        <time>2016-04-24T10:51:50Z</time>
      </trkpt>
      <trkpt lat="44.01035" lon="7.19395">
        <ele>959.228882</ele>
        <time>2016-04-24T10:51:53Z</time>
      </trkpt>
      <trkpt lat="44.01036" lon="7.194">
        <ele>959.38855</ele>
        <time>2016-04-24T10:51:57Z</time>
      </trkpt>
      <trkpt lat="44.0104" lon="7.19413">
        <ele>959.350525</ele>
        <time>2016-04-24T10:52:06Z</time>
      </trkpt>
      <trkpt lat="44.01041" lon="7.19415">
        <ele>959.256042</ele>
        <time>2016-04-24T10:52:07Z</time>
      </trkpt>
      <trkpt lat="44.01041" lon="7.19418">
        <ele>959.711182</ele>
        <time>2016-04-24T10:52:09Z</time>
      </trkpt>
      <trkpt lat="44.01048" lon="7.19431">
        <ele>960.731995</ele>
        <time>2016-04-24T10:52:17Z</time>
      </trkpt>
      <trkpt lat="44.01051" lon="7.19437">
        <ele>961.018188</ele>
        <time>2016-04-24T10:52:22Z</time>
      </trkpt>
      <trkpt lat="44.01052" lon="7.19438">
        <ele>960.674072</ele>
        <time>2016-04-24T10:52:23Z</time>
      </trkpt>
      <trkpt lat="44.01055" lon="7.19442">
        <ele>960.219421</ele>
        <time>2016-04-24T10:52:25Z</time>
      </trkpt>
      <trkpt lat="44.01059" lon="7.19445">
        <ele>959.745789</ele>
        <time>2016-04-24T10:52:28Z</time>
      </trkpt>
      <trkpt lat="44.01064" lon="7.19449">
        <ele>960.822449</ele>
        <time>2016-04-24T10:52:34Z</time>
      </trkpt>
      <trkpt lat="44.01066" lon="7.1945">
        <ele>961.128784</ele>
        <time>2016-04-24T10:52:38Z</time>
      </trkpt>
      <trkpt lat="44.01066" lon="7.1945">
        <ele>961.240601</ele>
        <time>2016-04-24T10:52:39Z</time>
      </trkpt>
      <trkpt lat="44.01068" lon="7.19451">
        <ele>961.564209</ele>
        <time>2016-04-24T10:52:42Z</time>
      </trkpt>
      <trkpt lat="44.01069" lon="7.19452">
        <ele>961.69281</ele>
        <time>2016-04-24T10:52:43Z</time>
      </trkpt>
      <trkpt lat="44.01071" lon="7.19455">
        <ele>962.062195</ele>
        <time>2016-04-24T10:52:47Z</time>
      </trkpt>
      <trkpt lat="44.01072" lon="7.19456">
        <ele>962.140442</ele>
        <time>2016-04-24T10:52:48Z</time>
      </trkpt>
      <trkpt lat="44.01073" lon="7.19457">
        <ele>962.304932</ele>
        <time>2016-04-24T10:52:50Z</time>
      </trkpt>
      <trkpt lat="44.01075" lon="7.19456">
        <ele>962.473755</ele>
        <time>2016-04-24T10:52:55Z</time>
      </trkpt>
      <trkpt lat="44.0107" lon="7.19448">
        <ele>961.639282</ele>
        <time>2016-04-24T10:53:02Z</time>
      </trkpt>
      <trkpt lat="44.01071" lon="7.19443">
        <ele>961.372864</ele>
        <time>2016-04-24T10:53:04Z</time>
      </trkpt>
      <trkpt lat="44.01072" lon="7.19428">
        <ele>960.855408</ele>
        <time>2016-04-24T10:53:08Z</time>
      </trkpt>
      <trkpt lat="44.01074" lon="7.1942">
        <ele>960.889648</ele>
        <time>2016-04-24T10:53:10Z</time>
      </trkpt>
      <trkpt lat="44.01074" lon="7.19415">
        <ele>961.27301</ele>
        <time>2016-04-24T10:53:11Z</time>
      </trkpt>
      <trkpt lat="44.01072" lon="7.19398">
        <ele>962.398376</ele>
        <time>2016-04-24T10:53:16Z</time>
      </trkpt>
      <trkpt lat="44.01062" lon="7.19371">
        <ele>959.181458</ele>
        <time>2016-04-24T10:53:29Z</time>
      </trkpt>
      <trkpt lat="44.01062" lon="7.19368">
        <ele>959.335693</ele>
        <time>2016-04-24T10:53:30Z</time>
      </trkpt>
      <trkpt lat="44.01061" lon="7.19361">
        <ele>959.552429</ele>
        <time>2016-04-24T10:53:32Z</time>
      </trkpt>
      <trkpt lat="44.0106" lon="7.19356">
        <ele>959.695496</ele>
        <time>2016-04-24T10:53:34Z</time>
      </trkpt>
      <trkpt lat="44.01061" lon="7.19353">
        <ele>960.249451</ele>
        <time>2016-04-24T10:53:35Z</time>
      </trkpt>
      <trkpt lat="44.01061" lon="7.19352">
        <ele>960.665588</ele>
        <time>2016-04-24T10:53:36Z</time>
      </trkpt>
      <trkpt lat="44.0106" lon="7.19343">
        <ele>963.257385</ele>
        <time>2016-04-24T10:53:43Z</time>
      </trkpt>
      <trkpt lat="44.0106" lon="7.19336">
        <ele>965.202026</ele>
        <time>2016-04-24T10:53:48Z</time>
      </trkpt>
      <trkpt lat="44.01057" lon="7.19329">
        <ele>966.305847</ele>
        <time>2016-04-24T10:53:53Z</time>
      </trkpt>
      <trkpt lat="44.01055" lon="7.19323">
        <ele>967.442505</ele>
        <time>2016-04-24T10:53:58Z</time>
      </trkpt>
      <trkpt lat="44.01054" lon="7.19317">
        <ele>968.285706</ele>
        <time>2016-04-24T10:54:03Z</time>
      </trkpt>
      <trkpt lat="44.01054" lon="7.19314">
        <ele>969.23877</ele>
        <time>2016-04-24T10:54:09Z</time>
      </trkpt>
      <trkpt lat="44.01053" lon="7.19311">
        <ele>969.274536</ele>
        <time>2016-04-24T10:54:11Z</time>
      </trkpt>
      <trkpt lat="44.01051" lon="7.19305">
        <ele>969.976013</ele>
        <time>2016-04-24T10:54:15Z</time>
      </trkpt>
      <trkpt lat="44.01048" lon="7.19299">
        <ele>969.34375</ele>
        <time>2016-04-24T10:54:18Z</time>
      </trkpt>
      <trkpt lat="44.01046" lon="7.19297">
        <ele>969.039978</ele>
        <time>2016-04-24T10:54:19Z</time>
      </trkpt>
      <trkpt lat="44.01044" lon="7.19295">
        <ele>968.255249</ele>
        <time>2016-04-24T10:54:20Z</time>
      </trkpt>
      <trkpt lat="44.01042" lon="7.1929">
        <ele>967.77002</ele>
        <time>2016-04-24T10:54:22Z</time>
      </trkpt>
      <trkpt lat="44.01042" lon="7.19284">
        <ele>969.438477</ele>
        <time>2016-04-24T10:54:24Z</time>
      </trkpt>
      <trkpt lat="44.01039" lon="7.19273">
        <ele>970.483459</ele>
        <time>2016-04-24T10:54:28Z</time>
      </trkpt>
      <trkpt lat="44.01038" lon="7.1927">
        <ele>970.31781</ele>
        <time>2016-04-24T10:54:29Z</time>
      </trkpt>
      <trkpt lat="44.01034" lon="7.19253">
        <ele>971.63678</ele>
        <time>2016-04-24T10:54:34Z</time>
      </trkpt>
      <trkpt lat="44.01029" lon="7.19237">
        <ele>970.999939</ele>
        <time>2016-04-24T10:54:37Z</time>
      </trkpt>
      <trkpt lat="44.01027" lon="7.19223">
        <ele>973.276306</ele>
        <time>2016-04-24T10:54:39Z</time>
      </trkpt>
      <trkpt lat="44.01027" lon="7.19216">
        <ele>975.533875</ele>
        <time>2016-04-24T10:54:40Z</time>
      </trkpt>
      <trkpt lat="44.01026" lon="7.19209">
        <ele>977.239136</ele>
        <time>2016-04-24T10:54:41Z</time>
      </trkpt>
      <trkpt lat="44.0101" lon="7.19199">
        <ele>970.947021</ele>
        <time>2016-04-24T10:54:45Z</time>
      </trkpt>
      <trkpt lat="44.01001" lon="7.19191">
        <ele>968.101746</ele>
        <time>2016-04-24T10:54:47Z</time>
      </trkpt>
      <trkpt lat="44.00991" lon="7.19179">
        <ele>966.282715</ele>
        <time>2016-04-24T10:54:49Z</time>
      </trkpt>
      <trkpt lat="44.00987" lon="7.19172">
        <ele>965.375977</ele>
        <time>2016-04-24T10:54:50Z</time>
      </trkpt>
      <trkpt lat="44.00977" lon="7.19157">
        <ele>963.687744</ele>
        <time>2016-04-24T10:54:52Z</time>
      </trkpt>
      <trkpt lat="44.00974" lon="7.19149">
        <ele>964.155701</ele>
        <time>2016-04-24T10:54:53Z</time>
      </trkpt>
      <trkpt lat="44.00969" lon="7.19134">
        <ele>966.726929</ele>
        <time>2016-04-24T10:54:55Z</time>
      </trkpt>
      <trkpt lat="44.00954" lon="7.19119">
        <ele>963.596802</ele>
        <time>2016-04-24T10:55:00Z</time>
      </trkpt>
      <trkpt lat="44.00949" lon="7.19114">
        <ele>962.717346</ele>
        <time>2016-04-24T10:55:02Z</time>
      </trkpt>
      <trkpt lat="44.00944" lon="7.19104">
        <ele>964.625</ele>
        <time>2016-04-24T10:55:04Z</time>
      </trkpt>
      <trkpt lat="44.00938" lon="7.19096">
        <ele>965.971619</ele>
        <time>2016-04-24T10:55:06Z</time>
      </trkpt>
      <trkpt lat="44.00928" lon="7.19091">
        <ele>960.770264</ele>
        <time>2016-04-24T10:55:08Z</time>
      </trkpt>
      <trkpt lat="44.00919" lon="7.19081">
        <ele>959.381653</ele>
        <time>2016-04-24T10:55:10Z</time>
      </trkpt>
      <trkpt lat="44.00906" lon="7.19056">
        <ele>963.951111</ele>
        <time>2016-04-24T10:55:14Z</time>
      </trkpt>
      <trkpt lat="44.00902" lon="7.19051">
        <ele>964.102722</ele>
        <time>2016-04-24T10:55:15Z</time>
      </trkpt>
      <trkpt lat="44.00898" lon="7.19047">
        <ele>963.986206</ele>
        <time>2016-04-24T10:55:16Z</time>
      </trkpt>
      <trkpt lat="44.00881" lon="7.19029">
        <ele>962.160828</ele>
        <time>2016-04-24T10:55:20Z</time>
      </trkpt>
      <trkpt lat="44.00876" lon="7.19026">
        <ele>959.854858</ele>
        <time>2016-04-24T10:55:21Z</time>
      </trkpt>
      <trkpt lat="44.00871" lon="7.19023">
        <ele>957.229431</ele>
        <time>2016-04-24T10:55:22Z</time>
      </trkpt>
      <trkpt lat="44.00864" lon="7.19015">
        <ele>954.274902</ele>
        <time>2016-04-24T10:55:24Z</time>
      </trkpt>
      <trkpt lat="44.00863" lon="7.19009">
        <ele>954.407593</ele>
        <time>2016-04-24T10:55:25Z</time>
      </trkpt>
      <trkpt lat="44.00862" lon="7.19003">
        <ele>955.115173</ele>
        <time>2016-04-24T10:55:26Z</time>
      </trkpt>
      <trkpt lat="44.0086" lon="7.18975">
        <ele>960.125854</ele>
        <time>2016-04-24T10:55:30Z</time>
      </trkpt>
      <trkpt lat="44.00859" lon="7.18958">
        <ele>962.225464</ele>
        <time>2016-04-24T10:55:32Z</time>
      </trkpt>
      <trkpt lat="44.00858" lon="7.1895">
        <ele>962.173462</ele>
        <time>2016-04-24T10:55:33Z</time>
      </trkpt>
      <trkpt lat="44.00857" lon="7.18937">
        <ele>963.283997</ele>
        <time>2016-04-24T10:55:35Z</time>
      </trkpt>
      <trkpt lat="44.00857" lon="7.18933">
        <ele>963.870239</ele>
        <time>2016-04-24T10:55:36Z</time>
      </trkpt>
      <trkpt lat="44.00856" lon="7.18914">
        <ele>965.75</ele>
        <time>2016-04-24T10:55:40Z</time>
      </trkpt>
      <trkpt lat="44.00858" lon="7.18894">
        <ele>971.857666</ele>
        <time>2016-04-24T10:55:51Z</time>
      </trkpt>
      <trkpt lat="44.00858" lon="7.18894">
        <ele>971.450623</ele>
        <time>2016-04-24T10:55:57Z</time>
      </trkpt>
      <trkpt lat="44.0085" lon="7.18894">
        <ele>971.038696</ele>
        <time>2016-04-24T10:56:01Z</time>
      </trkpt>
      <trkpt lat="44.00841" lon="7.18896">
        <ele>970.015076</ele>
        <time>2016-04-24T10:56:05Z</time>
      </trkpt>
      <trkpt lat="44.0083" lon="7.18899">
        <ele>968.790527</ele>
        <time>2016-04-24T10:56:09Z</time>
      </trkpt>
      <trkpt lat="44.00826" lon="7.18901">
        <ele>968.137817</ele>
        <time>2016-04-24T10:56:10Z</time>
      </trkpt>
      <trkpt lat="44.0082" lon="7.18903">
        <ele>967.304504</ele>
        <time>2016-04-24T10:56:12Z</time>
      </trkpt>
      <trkpt lat="44.00816" lon="7.18902">
        <ele>967.431274</ele>
        <time>2016-04-24T10:56:15Z</time>
      </trkpt>
      <trkpt lat="44.00809" lon="7.18903">
        <ele>966.230103</ele>
        <time>2016-04-24T10:56:21Z</time>
      </trkpt>
      <trkpt lat="44.00805" lon="7.18899">
        <ele>966.952393</ele>
        <time>2016-04-24T10:56:28Z</time>
      </trkpt>
      <trkpt lat="44.00802" lon="7.18899">
        <ele>966.457031</ele>
        <time>2016-04-24T10:56:32Z</time>
      </trkpt>
      <trkpt lat="44.008" lon="7.18898">
        <ele>966.484924</ele>
        <time>2016-04-24T10:56:35Z</time>
      </trkpt>
      <trkpt lat="44.008" lon="7.18897">
        <ele>966.698059</ele>
        <time>2016-04-24T10:56:36Z</time>
      </trkpt>
      <trkpt lat="44.00796" lon="7.18891">
        <ele>968.383728</ele>
        <time>2016-04-24T10:56:42Z</time>
      </trkpt>
      <trkpt lat="44.00793" lon="7.18886">
        <ele>970.106262</ele>
        <time>2016-04-24T10:56:46Z</time>
      </trkpt>
      <trkpt lat="44.00792" lon="7.18883">
        <ele>970.880371</ele>
        <time>2016-04-24T10:56:48Z</time>
      </trkpt>
      <trkpt lat="44.00786" lon="7.18876">
        <ele>972.188477</ele>
        <time>2016-04-24T10:56:55Z</time>
      </trkpt>
      <trkpt lat="44.00784" lon="7.1887">
        <ele>973.792358</ele>
        <time>2016-04-24T10:56:59Z</time>
      </trkpt>
      <trkpt lat="44.00783" lon="7.18866">
        <ele>974.9328</ele>
        <time>2016-04-24T10:57:01Z</time>
      </trkpt>
      <trkpt lat="44.00782" lon="7.18857">
        <ele>978.019592</ele>
        <time>2016-04-24T10:57:08Z</time>
      </trkpt>
      <trkpt lat="44.00781" lon="7.1885">
        <ele>980.426208</ele>
        <time>2016-04-24T10:57:13Z</time>
      </trkpt>
      <trkpt lat="44.0078" lon="7.18847">
        <ele>981.167419</ele>
        <time>2016-04-24T10:57:15Z</time>
      </trkpt>
      <trkpt lat="44.0078" lon="7.18825">
        <ele>987.335022</ele>
        <time>2016-04-24T10:57:28Z</time>
      </trkpt>
      <trkpt lat="44.0078" lon="7.18823">
        <ele>987.33252</ele>
        <time>2016-04-24T10:57:29Z</time>
      </trkpt>
      <trkpt lat="44.00779" lon="7.18819">
        <ele>987.5</ele>
        <time>2016-04-24T10:57:31Z</time>
      </trkpt>
      <trkpt lat="44.0078" lon="7.18816">
        <ele>987.85498</ele>
        <time>2016-04-24T10:57:33Z</time>
      </trkpt>
      <trkpt lat="44.00774" lon="7.18802">
        <ele>986.815002</ele>
        <time>2016-04-24T10:57:43Z</time>
      </trkpt>
      <trkpt lat="44.00774" lon="7.188">
        <ele>986.877502</ele>
        <time>2016-04-24T10:57:44Z</time>
      </trkpt>
      <trkpt lat="44.00772" lon="7.18798">
        <ele>986.359985</ele>
        <time>2016-04-24T10:57:45Z</time>
      </trkpt>
      <trkpt lat="44.00766" lon="7.18792">
        <ele>983.815552</ele>
        <time>2016-04-24T10:57:50Z</time>
      </trkpt>
      <trkpt lat="44.00764" lon="7.1879">
        <ele>982.696289</ele>
        <time>2016-04-24T10:57:52Z</time>
      </trkpt>
      <trkpt lat="44.00759" lon="7.18784">
        <ele>980.972961</ele>
        <time>2016-04-24T10:57:55Z</time>
      </trkpt>
      <trkpt lat="44.00762" lon="7.18765">
        <ele>983.622559</ele>
        <time>2016-04-24T10:58:01Z</time>
      </trkpt>
      <trkpt lat="44.00765" lon="7.1876">
        <ele>983.729797</ele>
        <time>2016-04-24T10:58:03Z</time>
      </trkpt>
      <trkpt lat="44.00766" lon="7.18755">
        <ele>983.412109</ele>
        <time>2016-04-24T10:58:06Z</time>
      </trkpt>
      <trkpt lat="44.00767" lon="7.18752">
        <ele>983.521179</ele>
        <time>2016-04-24T10:58:07Z</time>
      </trkpt>
      <trkpt lat="44.00775" lon="7.18736">
        <ele>984.630981</ele>
        <time>2016-04-24T10:58:13Z</time>
      </trkpt>
      <trkpt lat="44.00776" lon="7.18735">
        <ele>984.615234</ele>
        <time>2016-04-24T10:58:14Z</time>
      </trkpt>
      <trkpt lat="44.00778" lon="7.18732">
        <ele>984.811707</ele>
        <time>2016-04-24T10:58:17Z</time>
      </trkpt>
      <trkpt lat="44.00782" lon="7.1873">
        <ele>986.112915</ele>
        <time>2016-04-24T10:58:21Z</time>
      </trkpt>
      <trkpt lat="44.00789" lon="7.18726">
        <ele>987.921814</ele>
        <time>2016-04-24T10:58:24Z</time>
      </trkpt>
      <trkpt lat="44.00804" lon="7.18717">
        <ele>991.658264</ele>
        <time>2016-04-24T10:58:31Z</time>
      </trkpt>
      <trkpt lat="44.00813" lon="7.18703">
        <ele>994.628906</ele>
        <time>2016-04-24T10:58:36Z</time>
      </trkpt>
      <trkpt lat="44.00811" lon="7.18698">
        <ele>995.094421</ele>
        <time>2016-04-24T10:58:38Z</time>
      </trkpt>
      <trkpt lat="44.00797" lon="7.18685">
        <ele>991.889282</ele>
        <time>2016-04-24T10:58:45Z</time>
      </trkpt>
      <trkpt lat="44.00791" lon="7.18672">
        <ele>992.275146</ele>
        <time>2016-04-24T10:58:50Z</time>
      </trkpt>
      <trkpt lat="44.00791" lon="7.18666">
        <ele>993.08844</ele>
        <time>2016-04-24T10:58:52Z</time>
      </trkpt>
      <trkpt lat="44.0079" lon="7.18662">
        <ele>993.461853</ele>
        <time>2016-04-24T10:58:54Z</time>
      </trkpt>
      <trkpt lat="44.00788" lon="7.1866">
        <ele>992.987122</ele>
        <time>2016-04-24T10:58:55Z</time>
      </trkpt>
      <trkpt lat="44.00783" lon="7.18648">
        <ele>993.36792</ele>
        <time>2016-04-24T10:59:00Z</time>
      </trkpt>
      <trkpt lat="44.00782" lon="7.18644">
        <ele>993.274597</ele>
        <time>2016-04-24T10:59:02Z</time>
      </trkpt>
      <trkpt lat="44.00781" lon="7.18643">
        <ele>993.334595</ele>
        <time>2016-04-24T10:59:03Z</time>
      </trkpt>
      <trkpt lat="44.0078" lon="7.18642">
        <ele>993.479309</ele>
        <time>2016-04-24T10:59:04Z</time>
      </trkpt>
      <trkpt lat="44.0078" lon="7.18641">
        <ele>993.722168</ele>
        <time>2016-04-24T10:59:05Z</time>
      </trkpt>
      <trkpt lat="44.00776" lon="7.18632">
        <ele>994.561951</ele>
        <time>2016-04-24T10:59:10Z</time>
      </trkpt>
      <trkpt lat="44.00771" lon="7.18627">
        <ele>992.865112</ele>
        <time>2016-04-24T10:59:14Z</time>
      </trkpt>
      <trkpt lat="44.00769" lon="7.1862">
        <ele>993.799988</ele>
        <time>2016-04-24T10:59:18Z</time>
      </trkpt>
      <trkpt lat="44.00764" lon="7.18613">
        <ele>993.290466</ele>
        <time>2016-04-24T10:59:23Z</time>
      </trkpt>
      <trkpt lat="44.00758" lon="7.18606">
        <ele>992.258423</ele>
        <time>2016-04-24T10:59:28Z</time>
      </trkpt>
      <trkpt lat="44.00755" lon="7.18597">
        <ele>993.235046</ele>
        <time>2016-04-24T10:59:32Z</time>
      </trkpt>
      <trkpt lat="44.00756" lon="7.18585">
        <ele>997.99115</ele>
        <time>2016-04-24T10:59:37Z</time>
      </trkpt>
      <trkpt lat="44.00759" lon="7.18573">
        <ele>1001.754211</ele>
        <time>2016-04-24T10:59:43Z</time>
      </trkpt>
      <trkpt lat="44.0076" lon="7.18571">
        <ele>1002.139282</ele>
        <time>2016-04-24T10:59:44Z</time>
      </trkpt>
      <trkpt lat="44.00764" lon="7.18563">
        <ele>1004.04425</ele>
        <time>2016-04-24T10:59:48Z</time>
      </trkpt>
      <trkpt lat="44.00767" lon="7.18556">
        <ele>1005.691833</ele>
        <time>2016-04-24T10:59:52Z</time>
      </trkpt>
      <trkpt lat="44.00771" lon="7.18547">
        <ele>1007.887268</ele>
        <time>2016-04-24T10:59:56Z</time>
      </trkpt>
      <trkpt lat="44.00772" lon="7.18533">
        <ele>1008.444824</ele>
        <time>2016-04-24T11:00:03Z</time>
      </trkpt>
      <trkpt lat="44.00772" lon="7.18526">
        <ele>1008.56366</ele>
        <time>2016-04-24T11:00:07Z</time>
      </trkpt>
      <trkpt lat="44.00773" lon="7.18525">
        <ele>1008.789185</ele>
        <time>2016-04-24T11:00:08Z</time>
      </trkpt>
      <trkpt lat="44.00773" lon="7.18525">
        <ele>1009.080322</ele>
        <time>2016-04-24T11:00:09Z</time>
      </trkpt>
      <trkpt lat="44.00774" lon="7.1852">
        <ele>1009.737915</ele>
        <time>2016-04-24T11:00:17Z</time>
      </trkpt>
      <trkpt lat="44.00774" lon="7.18519">
        <ele>1009.619995</ele>
        <time>2016-04-24T11:00:18Z</time>
      </trkpt>
      <trkpt lat="44.00774" lon="7.18512">
        <ele>1009.171204</ele>
        <time>2016-04-24T11:00:23Z</time>
      </trkpt>
      <trkpt lat="44.00773" lon="7.18504">
        <ele>1007.961182</ele>
        <time>2016-04-24T11:00:28Z</time>
      </trkpt>
      <trkpt lat="44.00773" lon="7.18503">
        <ele>1007.771545</ele>
        <time>2016-04-24T11:00:29Z</time>
      </trkpt>
      <trkpt lat="44.00775" lon="7.18492">
        <ele>1008.55658</ele>
        <time>2016-04-24T11:00:35Z</time>
      </trkpt>
      <trkpt lat="44.0078" lon="7.18483">
        <ele>1011.874634</ele>
        <time>2016-04-24T11:00:41Z</time>
      </trkpt>
      <trkpt lat="44.00783" lon="7.18479">
        <ele>1013.386169</ele>
        <time>2016-04-24T11:00:44Z</time>
      </trkpt>
      <trkpt lat="44.00784" lon="7.18478">
        <ele>1013.815735</ele>
        <time>2016-04-24T11:00:45Z</time>
      </trkpt>
      <trkpt lat="44.00787" lon="7.18472">
        <ele>1015.525208</ele>
        <time>2016-04-24T11:00:53Z</time>
      </trkpt>
      <trkpt lat="44.0079" lon="7.18467">
        <ele>1017.76416</ele>
        <time>2016-04-24T11:00:59Z</time>
      </trkpt>
      <trkpt lat="44.00792" lon="7.18463">
        <ele>1018.597839</ele>
        <time>2016-04-24T11:01:04Z</time>
      </trkpt>
      <trkpt lat="44.00795" lon="7.18458">
        <ele>1020.323792</ele>
        <time>2016-04-24T11:01:08Z</time>
      </trkpt>
      <trkpt lat="44.00796" lon="7.18454">
        <ele>1020.825378</ele>
        <time>2016-04-24T11:01:11Z</time>
      </trkpt>
      <trkpt lat="44.00799" lon="7.18445">
        <ele>1022.406128</ele>
        <time>2016-04-24T11:01:17Z</time>
      </trkpt>
      <trkpt lat="44.008" lon="7.18443">
        <ele>1022.94928</ele>
        <time>2016-04-24T11:01:18Z</time>
      </trkpt>
      <trkpt lat="44.00801" lon="7.18441">
        <ele>1023.40387</ele>
        <time>2016-04-24T11:01:19Z</time>
      </trkpt>
      <trkpt lat="44.00802" lon="7.18437">
        <ele>1024.161377</ele>
        <time>2016-04-24T11:01:21Z</time>
      </trkpt>
      <trkpt lat="44.00805" lon="7.1843">
        <ele>1025.699219</ele>
        <time>2016-04-24T11:01:24Z</time>
      </trkpt>
      <trkpt lat="44.00812" lon="7.18417">
        <ele>1028.533081</ele>
        <time>2016-04-24T11:01:31Z</time>
      </trkpt>
      <trkpt lat="44.00812" lon="7.1841">
        <ele>1028.535767</ele>
        <time>2016-04-24T11:01:36Z</time>
      </trkpt>
      <trkpt lat="44.00813" lon="7.18408">
        <ele>1028.593628</ele>
        <time>2016-04-24T11:01:37Z</time>
      </trkpt>
      <trkpt lat="44.00817" lon="7.18401">
        <ele>1030.126953</ele>
        <time>2016-04-24T11:01:42Z</time>
      </trkpt>
      <trkpt lat="44.00818" lon="7.18399">
        <ele>1030.731689</ele>
        <time>2016-04-24T11:01:44Z</time>
      </trkpt>
      <trkpt lat="44.00817" lon="7.18396">
        <ele>1030.463379</ele>
        <time>2016-04-24T11:01:46Z</time>
      </trkpt>
      <trkpt lat="44.00811" lon="7.18392">
        <ele>1029.089844</ele>
        <time>2016-04-24T11:01:49Z</time>
      </trkpt>
      <trkpt lat="44.00804" lon="7.18389">
        <ele>1026.332642</ele>
        <time>2016-04-24T11:01:51Z</time>
      </trkpt>
      <trkpt lat="44.00796" lon="7.18391">
        <ele>1021.882935</ele>
        <time>2016-04-24T11:01:52Z</time>
      </trkpt>
      <trkpt lat="44.00775" lon="7.1839">
        <ele>1014.342041</ele>
        <time>2016-04-24T11:01:54Z</time>
      </trkpt>
      <trkpt lat="44.00759" lon="7.18385">
        <ele>1011.767212</ele>
        <time>2016-04-24T11:01:56Z</time>
      </trkpt>
      <trkpt lat="44.0075" lon="7.18383">
        <ele>1009.798706</ele>
        <time>2016-04-24T11:01:57Z</time>
      </trkpt>
      <trkpt lat="44.00742" lon="7.18381">
        <ele>1007.666443</ele>
        <time>2016-04-24T11:01:58Z</time>
      </trkpt>
      <trkpt lat="44.00736" lon="7.18378">
        <ele>1006.22998</ele>
        <time>2016-04-24T11:01:59Z</time>
      </trkpt>
      <trkpt lat="44.0073" lon="7.18365">
        <ele>1009.248535</ele>
        <time>2016-04-24T11:02:01Z</time>
      </trkpt>
      <trkpt lat="44.00729" lon="7.18358">
        <ele>1011.5047</ele>
        <time>2016-04-24T11:02:02Z</time>
      </trkpt>
      <trkpt lat="44.00728" lon="7.18351">
        <ele>1013.798889</ele>
        <time>2016-04-24T11:02:03Z</time>
      </trkpt>
      <trkpt lat="44.00725" lon="7.18346">
        <ele>1015.067871</ele>
        <time>2016-04-24T11:02:04Z</time>
      </trkpt>
      <trkpt lat="44.00716" lon="7.1834">
        <ele>1014.441101</ele>
        <time>2016-04-24T11:02:06Z</time>
      </trkpt>
      <trkpt lat="44.00708" lon="7.18338">
        <ele>1012.337341</ele>
        <time>2016-04-24T11:02:08Z</time>
      </trkpt>
      <trkpt lat="44.00703" lon="7.18337">
        <ele>1011.016663</ele>
        <time>2016-04-24T11:02:09Z</time>
      </trkpt>
      <trkpt lat="44.00699" lon="7.18338">
        <ele>1009.694336</ele>
        <time>2016-04-24T11:02:10Z</time>
      </trkpt>
      <trkpt lat="44.00693" lon="7.1834">
        <ele>1007.813293</ele>
        <time>2016-04-24T11:02:11Z</time>
      </trkpt>
      <trkpt lat="44.00688" lon="7.18341">
        <ele>1006.228943</ele>
        <time>2016-04-24T11:02:12Z</time>
      </trkpt>
      <trkpt lat="44.00666" lon="7.18342">
        <ele>1001.230713</ele>
        <time>2016-04-24T11:02:16Z</time>
      </trkpt>
      <trkpt lat="44.00653" lon="7.18337">
        <ele>1000.289795</ele>
        <time>2016-04-24T11:02:18Z</time>
      </trkpt>
      <trkpt lat="44.00648" lon="7.18332">
        <ele>1000.613342</ele>
        <time>2016-04-24T11:02:19Z</time>
      </trkpt>
      <trkpt lat="44.00642" lon="7.18326">
        <ele>1001.291565</ele>
        <time>2016-04-24T11:02:20Z</time>
      </trkpt>
      <trkpt lat="44.00636" lon="7.18319">
        <ele>1001.385925</ele>
        <time>2016-04-24T11:02:21Z</time>
      </trkpt>
      <trkpt lat="44.00623" lon="7.18305">
        <ele>998.651917</ele>
        <time>2016-04-24T11:02:23Z</time>
      </trkpt>
      <trkpt lat="44.00618" lon="7.18297">
        <ele>997.380798</ele>
        <time>2016-04-24T11:02:24Z</time>
      </trkpt>
      <trkpt lat="44.00613" lon="7.1829">
        <ele>995.991455</ele>
        <time>2016-04-24T11:02:25Z</time>
      </trkpt>
      <trkpt lat="44.00609" lon="7.18283">
        <ele>994.745361</ele>
        <time>2016-04-24T11:02:26Z</time>
      </trkpt>
      <trkpt lat="44.00606" lon="7.18276">
        <ele>993.943359</ele>
        <time>2016-04-24T11:02:27Z</time>
      </trkpt>
      <trkpt lat="44.00603" lon="7.18267">
        <ele>993.500854</ele>
        <time>2016-04-24T11:02:28Z</time>
      </trkpt>
      <trkpt lat="44.00601" lon="7.18258">
        <ele>993.102966</ele>
        <time>2016-04-24T11:02:29Z</time>
      </trkpt>
      <trkpt lat="44.00597" lon="7.1825">
        <ele>991.01001</ele>
        <time>2016-04-24T11:02:30Z</time>
      </trkpt>
      <trkpt lat="44.00593" lon="7.18242">
        <ele>987.827515</ele>
        <time>2016-04-24T11:02:31Z</time>
      </trkpt>
      <trkpt lat="44.00589" lon="7.18235">
        <ele>984.73999</ele>
        <time>2016-04-24T11:02:32Z</time>
      </trkpt>
      <trkpt lat="44.00586" lon="7.18228">
        <ele>982.1875</ele>
        <time>2016-04-24T11:02:33Z</time>
      </trkpt>
      <trkpt lat="44.00585" lon="7.18221">
        <ele>980.712524</ele>
        <time>2016-04-24T11:02:34Z</time>
      </trkpt>
      <trkpt lat="44.00585" lon="7.18213">
        <ele>980.539978</ele>
        <time>2016-04-24T11:02:35Z</time>
      </trkpt>
      <trkpt lat="44.00587" lon="7.18205">
        <ele>981.205017</ele>
        <time>2016-04-24T11:02:36Z</time>
      </trkpt>
      <trkpt lat="44.00589" lon="7.18197">
        <ele>982.039978</ele>
        <time>2016-04-24T11:02:37Z</time>
      </trkpt>
      <trkpt lat="44.00591" lon="7.18189">
        <ele>982.615112</ele>
        <time>2016-04-24T11:02:38Z</time>
      </trkpt>
      <trkpt lat="44.00593" lon="7.18181">
        <ele>982.437439</ele>
        <time>2016-04-24T11:02:39Z</time>
      </trkpt>
      <trkpt lat="44.00596" lon="7.18172">
        <ele>982.127563</ele>
        <time>2016-04-24T11:02:40Z</time>
      </trkpt>
      <trkpt lat="44.006" lon="7.18154">
        <ele>980.848206</ele>
        <time>2016-04-24T11:02:42Z</time>
      </trkpt>
      <trkpt lat="44.00602" lon="7.18146">
        <ele>980.437195</ele>
        <time>2016-04-24T11:02:43Z</time>
      </trkpt>
      <trkpt lat="44.00605" lon="7.18138">
        <ele>980.564514</ele>
        <time>2016-04-24T11:02:44Z</time>
      </trkpt>
      <trkpt lat="44.00609" lon="7.18129">
        <ele>980.902161</ele>
        <time>2016-04-24T11:02:45Z</time>
      </trkpt>
      <trkpt lat="44.00613" lon="7.1811">
        <ele>984.881226</ele>
        <time>2016-04-24T11:02:47Z</time>
      </trkpt>
      <trkpt lat="44.00612" lon="7.18103">
        <ele>984.593872</ele>
        <time>2016-04-24T11:02:48Z</time>
      </trkpt>
      <trkpt lat="44.00611" lon="7.18098">
        <ele>984.623718</ele>
        <time>2016-04-24T11:02:49Z</time>
      </trkpt>
      <trkpt lat="44.0061" lon="7.18092">
        <ele>984.42627</ele>
        <time>2016-04-24T11:02:51Z</time>
      </trkpt>
      <trkpt lat="44.00608" lon="7.18082">
        <ele>984.237976</ele>
        <time>2016-04-24T11:02:57Z</time>
      </trkpt>
      <trkpt lat="44.00605" lon="7.18075">
        <ele>983.470398</ele>
        <time>2016-04-24T11:03:00Z</time>
      </trkpt>
      <trkpt lat="44.00591" lon="7.18071">
        <ele>977.593262</ele>
        <time>2016-04-24T11:03:03Z</time>
      </trkpt>
      <trkpt lat="44.00581" lon="7.18062">
        <ele>974.911987</ele>
        <time>2016-04-24T11:03:05Z</time>
      </trkpt>
      <trkpt lat="44.00573" lon="7.18052">
        <ele>975.214294</ele>
        <time>2016-04-24T11:03:07Z</time>
      </trkpt>
      <trkpt lat="44.00568" lon="7.18049">
        <ele>974.621277</ele>
        <time>2016-04-24T11:03:08Z</time>
      </trkpt>
      <trkpt lat="44.00562" lon="7.18047">
        <ele>973.383728</ele>
        <time>2016-04-24T11:03:09Z</time>
      </trkpt>
      <trkpt lat="44.00543" lon="7.18041">
        <ele>968.244263</ele>
        <time>2016-04-24T11:03:12Z</time>
      </trkpt>
      <trkpt lat="44.00536" lon="7.18022">
        <ele>967.301147</ele>
        <time>2016-04-24T11:03:15Z</time>
      </trkpt>
      <trkpt lat="44.00543" lon="7.18001">
        <ele>972.194031</ele>
        <time>2016-04-24T11:03:18Z</time>
      </trkpt>
      <trkpt lat="44.00551" lon="7.17981">
        <ele>980</ele>
        <time>2016-04-24T11:03:21Z</time>
      </trkpt>
      <trkpt lat="44.00548" lon="7.17969">
        <ele>980.530762</ele>
        <time>2016-04-24T11:03:23Z</time>
      </trkpt>
      <trkpt lat="44.00535" lon="7.17957">
        <ele>974.90094</ele>
        <time>2016-04-24T11:03:26Z</time>
      </trkpt>
      <trkpt lat="44.0053" lon="7.17944">
        <ele>973.731018</ele>
        <time>2016-04-24T11:03:28Z</time>
      </trkpt>
      <trkpt lat="44.00527" lon="7.17927">
        <ele>974.329956</ele>
        <time>2016-04-24T11:03:30Z</time>
      </trkpt>
      <trkpt lat="44.00523" lon="7.17911">
        <ele>974.890015</ele>
        <time>2016-04-24T11:03:32Z</time>
      </trkpt>
      <trkpt lat="44.00518" lon="7.17899">
        <ele>973.876038</ele>
        <time>2016-04-24T11:03:34Z</time>
      </trkpt>
      <trkpt lat="44.00515" lon="7.17894">
        <ele>972.764099</ele>
        <time>2016-04-24T11:03:35Z</time>
      </trkpt>
      <trkpt lat="44.00508" lon="7.17882">
        <ele>970.890869</ele>
        <time>2016-04-24T11:03:37Z</time>
      </trkpt>
      <trkpt lat="44.00506" lon="7.17868">
        <ele>971.856812</ele>
        <time>2016-04-24T11:03:39Z</time>
      </trkpt>
      <trkpt lat="44.00512" lon="7.17856">
        <ele>977.401184</ele>
        <time>2016-04-24T11:03:41Z</time>
      </trkpt>
      <trkpt lat="44.00517" lon="7.17846">
        <ele>982.054382</ele>
        <time>2016-04-24T11:03:43Z</time>
      </trkpt>
      <trkpt lat="44.00514" lon="7.1784">
        <ele>981.257019</ele>
        <time>2016-04-24T11:03:45Z</time>
      </trkpt>
      <trkpt lat="44.005" lon="7.17835">
        <ele>973.706543</ele>
        <time>2016-04-24T11:03:48Z</time>
      </trkpt>
      <trkpt lat="44.00475" lon="7.17823">
        <ele>965.809814</ele>
        <time>2016-04-24T11:03:53Z</time>
      </trkpt>
      <trkpt lat="44.00469" lon="7.17813">
        <ele>965.857422</ele>
        <time>2016-04-24T11:03:55Z</time>
      </trkpt>
      <trkpt lat="44.00468" lon="7.17797">
        <ele>966.737854</ele>
        <time>2016-04-24T11:03:57Z</time>
      </trkpt>
      <trkpt lat="44.00467" lon="7.1778">
        <ele>965.190979</ele>
        <time>2016-04-24T11:03:59Z</time>
      </trkpt>
      <trkpt lat="44.00469" lon="7.17762">
        <ele>964.246033</ele>
        <time>2016-04-24T11:04:01Z</time>
      </trkpt>
      <trkpt lat="44.00472" lon="7.17754">
        <ele>965.394165</ele>
        <time>2016-04-24T11:04:02Z</time>
      </trkpt>
      <trkpt lat="44.00478" lon="7.17741">
        <ele>968.484375</ele>
        <time>2016-04-24T11:04:04Z</time>
      </trkpt>
      <trkpt lat="44.0048" lon="7.17726">
        <ele>967.980042</ele>
        <time>2016-04-24T11:04:06Z</time>
      </trkpt>
      <trkpt lat="44.00479" lon="7.17707">
        <ele>966.04303</ele>
        <time>2016-04-24T11:04:08Z</time>
      </trkpt>
      <trkpt lat="44.00481" lon="7.17688">
        <ele>965.191223</ele>
        <time>2016-04-24T11:04:10Z</time>
      </trkpt>
      <trkpt lat="44.00481" lon="7.17678">
        <ele>964.291504</ele>
        <time>2016-04-24T11:04:11Z</time>
      </trkpt>
      <trkpt lat="44.00477" lon="7.17657">
        <ele>959.929199</ele>
        <time>2016-04-24T11:04:13Z</time>
      </trkpt>
      <trkpt lat="44.00474" lon="7.17648">
        <ele>956.688293</ele>
        <time>2016-04-24T11:04:14Z</time>
      </trkpt>
      <trkpt lat="44.00472" lon="7.1764">
        <ele>955.088745</ele>
        <time>2016-04-24T11:04:15Z</time>
      </trkpt>
      <trkpt lat="44.00474" lon="7.17633">
        <ele>955.425049</ele>
        <time>2016-04-24T11:04:16Z</time>
      </trkpt>
      <trkpt lat="44.00476" lon="7.17625">
        <ele>956.319641</ele>
        <time>2016-04-24T11:04:17Z</time>
      </trkpt>
      <trkpt lat="44.00478" lon="7.17618">
        <ele>957.471863</ele>
        <time>2016-04-24T11:04:18Z</time>
      </trkpt>
      <trkpt lat="44.00482" lon="7.17606">
        <ele>962.973938</ele>
        <time>2016-04-24T11:04:20Z</time>
      </trkpt>
      <trkpt lat="44.00486" lon="7.17603">
        <ele>965.896729</ele>
        <time>2016-04-24T11:04:21Z</time>
      </trkpt>
      <trkpt lat="44.0049" lon="7.176">
        <ele>968.148376</ele>
        <time>2016-04-24T11:04:22Z</time>
      </trkpt>
      <trkpt lat="44.00491" lon="7.17598">
        <ele>969.292175</ele>
        <time>2016-04-24T11:04:23Z</time>
      </trkpt>
      <trkpt lat="44.00492" lon="7.17597">
        <ele>969.781982</ele>
        <time>2016-04-24T11:04:24Z</time>
      </trkpt>
      <trkpt lat="44.00491" lon="7.17596">
        <ele>969.50177</ele>
        <time>2016-04-24T11:04:25Z</time>
      </trkpt>
      <trkpt lat="44.00488" lon="7.17594">
        <ele>968.49939</ele>
        <time>2016-04-24T11:04:26Z</time>
      </trkpt>
      <trkpt lat="44.00481" lon="7.1759">
        <ele>965.994385</ele>
        <time>2016-04-24T11:04:28Z</time>
      </trkpt>
      <trkpt lat="44.00477" lon="7.17588">
        <ele>964.47229</ele>
        <time>2016-04-24T11:04:29Z</time>
      </trkpt>
      <trkpt lat="44.00467" lon="7.17583">
        <ele>961.621704</ele>
        <time>2016-04-24T11:04:31Z</time>
      </trkpt>
      <trkpt lat="44.00458" lon="7.17578">
        <ele>960.53186</ele>
        <time>2016-04-24T11:04:33Z</time>
      </trkpt>
      <trkpt lat="44.00445" lon="7.17577">
        <ele>957.363037</ele>
        <time>2016-04-24T11:04:36Z</time>
      </trkpt>
      <trkpt lat="44.00439" lon="7.17579">
        <ele>955.00293</ele>
        <time>2016-04-24T11:04:37Z</time>
      </trkpt>
      <trkpt lat="44.00433" lon="7.17579">
        <ele>953.019531</ele>
        <time>2016-04-24T11:04:38Z</time>
      </trkpt>
      <trkpt lat="44.00426" lon="7.17579">
        <ele>951.223755</ele>
        <time>2016-04-24T11:04:39Z</time>
      </trkpt>
      <trkpt lat="44.00413" lon="7.17577">
        <ele>948.668762</ele>
        <time>2016-04-24T11:04:41Z</time>
      </trkpt>
      <trkpt lat="44.00399" lon="7.17577">
        <ele>945.931213</ele>
        <time>2016-04-24T11:04:43Z</time>
      </trkpt>
      <trkpt lat="44.00372" lon="7.17558">
        <ele>949.870544</ele>
        <time>2016-04-24T11:04:49Z</time>
      </trkpt>
      <trkpt lat="44.00354" lon="7.17551">
        <ele>945.320557</ele>
        <time>2016-04-24T11:04:52Z</time>
      </trkpt>
      <trkpt lat="44.00341" lon="7.17547">
        <ele>941.128418</ele>
        <time>2016-04-24T11:04:54Z</time>
      </trkpt>
      <trkpt lat="44.00333" lon="7.17535">
        <ele>938.946045</ele>
        <time>2016-04-24T11:04:56Z</time>
      </trkpt>
      <trkpt lat="44.00337" lon="7.17518">
        <ele>941.327942</ele>
        <time>2016-04-24T11:04:58Z</time>
      </trkpt>
      <trkpt lat="44.00341" lon="7.17499">
        <ele>945.032349</ele>
        <time>2016-04-24T11:05:00Z</time>
      </trkpt>
      <trkpt lat="44.00343" lon="7.17489">
        <ele>946.578613</ele>
        <time>2016-04-24T11:05:01Z</time>
      </trkpt>
      <trkpt lat="44.00341" lon="7.1748">
        <ele>945.176514</ele>
        <time>2016-04-24T11:05:02Z</time>
      </trkpt>
      <trkpt lat="44.00338" lon="7.17472">
        <ele>941.988647</ele>
        <time>2016-04-24T11:05:03Z</time>
      </trkpt>
      <trkpt lat="44.00333" lon="7.17459">
        <ele>937.713562</ele>
        <time>2016-04-24T11:05:05Z</time>
      </trkpt>
      <trkpt lat="44.00336" lon="7.17448">
        <ele>938.409851</ele>
        <time>2016-04-24T11:05:07Z</time>
      </trkpt>
      <trkpt lat="44.00343" lon="7.17435">
        <ele>942.601685</ele>
        <time>2016-04-24T11:05:09Z</time>
      </trkpt>
      <trkpt lat="44.00345" lon="7.17422">
        <ele>942.396423</ele>
        <time>2016-04-24T11:05:11Z</time>
      </trkpt>
      <trkpt lat="44.00343" lon="7.17416">
        <ele>941.455383</ele>
        <time>2016-04-24T11:05:12Z</time>
      </trkpt>
      <trkpt lat="44.00342" lon="7.1741">
        <ele>941.918091</ele>
        <time>2016-04-24T11:05:13Z</time>
      </trkpt>
      <trkpt lat="44.00345" lon="7.17399">
        <ele>945.411743</ele>
        <time>2016-04-24T11:05:15Z</time>
      </trkpt>
      <trkpt lat="44.0035" lon="7.17385">
        <ele>949.261597</ele>
        <time>2016-04-24T11:05:18Z</time>
      </trkpt>
      <trkpt lat="44.00311" lon="7.17368">
        <ele>940.459412</ele>
        <time>2016-04-24T11:05:29Z</time>
      </trkpt>
      <trkpt lat="44.00304" lon="7.17369">
        <ele>938.553162</ele>
        <time>2016-04-24T11:05:30Z</time>
      </trkpt>
      <trkpt lat="44.00279" lon="7.17374">
        <ele>931.207275</ele>
        <time>2016-04-24T11:05:33Z</time>
      </trkpt>
      <trkpt lat="44.0027" lon="7.17375">
        <ele>929.01532</ele>
        <time>2016-04-24T11:05:34Z</time>
      </trkpt>
      <trkpt lat="44.00248" lon="7.17377">
        <ele>923.605225</ele>
        <time>2016-04-24T11:05:37Z</time>
      </trkpt>
      <trkpt lat="44.00233" lon="7.17378">
        <ele>918.839294</ele>
        <time>2016-04-24T11:05:39Z</time>
      </trkpt>
      <trkpt lat="44.00226" lon="7.17377">
        <ele>917.076172</ele>
        <time>2016-04-24T11:05:40Z</time>
      </trkpt>
      <trkpt lat="44.00219" lon="7.17376">
        <ele>915.914001</ele>
        <time>2016-04-24T11:05:41Z</time>
      </trkpt>
      <trkpt lat="44.00214" lon="7.17373">
        <ele>915.422852</ele>
        <time>2016-04-24T11:05:42Z</time>
      </trkpt>
      <trkpt lat="44.00212" lon="7.17367">
        <ele>916.156006</ele>
        <time>2016-04-24T11:05:43Z</time>
      </trkpt>
      <trkpt lat="44.0021" lon="7.17353">
        <ele>919.637939</ele>
        <time>2016-04-24T11:05:45Z</time>
      </trkpt>
      <trkpt lat="44.00208" lon="7.17335">
        <ele>921.678772</ele>
        <time>2016-04-24T11:05:47Z</time>
      </trkpt>
      <trkpt lat="44.00208" lon="7.17317">
        <ele>923.386414</ele>
        <time>2016-04-24T11:05:49Z</time>
      </trkpt>
      <trkpt lat="44.00196" lon="7.17287">
        <ele>917.937927</ele>
        <time>2016-04-24T11:05:53Z</time>
      </trkpt>
      <trkpt lat="44.00194" lon="7.17279">
        <ele>916.403931</ele>
        <time>2016-04-24T11:05:54Z</time>
      </trkpt>
      <trkpt lat="44.00194" lon="7.17261">
        <ele>914.909607</ele>
        <time>2016-04-24T11:05:56Z</time>
      </trkpt>
      <trkpt lat="44.00195" lon="7.17242">
        <ele>914.472168</ele>
        <time>2016-04-24T11:05:58Z</time>
      </trkpt>
      <trkpt lat="44.00196" lon="7.17232">
        <ele>914.635132</ele>
        <time>2016-04-24T11:05:59Z</time>
      </trkpt>
      <trkpt lat="44.00197" lon="7.17223">
        <ele>915.357178</ele>
        <time>2016-04-24T11:06:00Z</time>
      </trkpt>
      <trkpt lat="44.00205" lon="7.17208">
        <ele>919.098389</ele>
        <time>2016-04-24T11:06:02Z</time>
      </trkpt>
      <trkpt lat="44.00212" lon="7.17197">
        <ele>921.581848</ele>
        <time>2016-04-24T11:06:04Z</time>
      </trkpt>
      <trkpt lat="44.00217" lon="7.17181">
        <ele>922.132751</ele>
        <time>2016-04-24T11:06:07Z</time>
      </trkpt>
      <trkpt lat="44.00222" lon="7.17169">
        <ele>923.085571</ele>
        <time>2016-04-24T11:06:09Z</time>
      </trkpt>
      <trkpt lat="44.00222" lon="7.17156">
        <ele>922.827087</ele>
        <time>2016-04-24T11:06:11Z</time>
      </trkpt>
      <trkpt lat="44.00218" lon="7.17151">
        <ele>921.778687</ele>
        <time>2016-04-24T11:06:12Z</time>
      </trkpt>
      <trkpt lat="44.00214" lon="7.17147">
        <ele>920.851013</ele>
        <time>2016-04-24T11:06:13Z</time>
      </trkpt>
      <trkpt lat="44.002" lon="7.17133">
        <ele>921.442383</ele>
        <time>2016-04-24T11:06:16Z</time>
      </trkpt>
      <trkpt lat="44.00184" lon="7.17124">
        <ele>920.778625</ele>
        <time>2016-04-24T11:06:19Z</time>
      </trkpt>
      <trkpt lat="44.00158" lon="7.17115">
        <ele>919.243286</ele>
        <time>2016-04-24T11:06:24Z</time>
      </trkpt>
      <trkpt lat="44.00146" lon="7.17115">
        <ele>917.044067</ele>
        <time>2016-04-24T11:06:26Z</time>
      </trkpt>
      <trkpt lat="44.00119" lon="7.17126">
        <ele>907.824951</ele>
        <time>2016-04-24T11:06:30Z</time>
      </trkpt>
      <trkpt lat="44.00104" lon="7.17128">
        <ele>904.448303</ele>
        <time>2016-04-24T11:06:32Z</time>
      </trkpt>
      <trkpt lat="44.00097" lon="7.17127">
        <ele>903.575439</ele>
        <time>2016-04-24T11:06:33Z</time>
      </trkpt>
      <trkpt lat="44.00075" lon="7.17123">
        <ele>899.531128</ele>
        <time>2016-04-24T11:06:36Z</time>
      </trkpt>
      <trkpt lat="44.0007" lon="7.1712">
        <ele>897.555481</ele>
        <time>2016-04-24T11:06:37Z</time>
      </trkpt>
      <trkpt lat="44.00068" lon="7.17115">
        <ele>896.976135</ele>
        <time>2016-04-24T11:06:38Z</time>
      </trkpt>
      <trkpt lat="44.00078" lon="7.17095">
        <ele>903.909607</ele>
        <time>2016-04-24T11:06:41Z</time>
      </trkpt>
      <trkpt lat="44.00082" lon="7.17089">
        <ele>906.780701</ele>
        <time>2016-04-24T11:06:42Z</time>
      </trkpt>
      <trkpt lat="44.00089" lon="7.17077">
        <ele>908.751221</ele>
        <time>2016-04-24T11:06:44Z</time>
      </trkpt>
      <trkpt lat="44.00093" lon="7.17063">
        <ele>908.815735</ele>
        <time>2016-04-24T11:06:46Z</time>
      </trkpt>
      <trkpt lat="44.00092" lon="7.17055">
        <ele>907.437622</ele>
        <time>2016-04-24T11:06:47Z</time>
      </trkpt>
      <trkpt lat="44.00091" lon="7.17047">
        <ele>906.053284</ele>
        <time>2016-04-24T11:06:48Z</time>
      </trkpt>
      <trkpt lat="44.00088" lon="7.17034">
        <ele>902.781982</ele>
        <time>2016-04-24T11:06:50Z</time>
      </trkpt>
      <trkpt lat="44.00092" lon="7.17021">
        <ele>902.639954</ele>
        <time>2016-04-24T11:06:52Z</time>
      </trkpt>
      <trkpt lat="44.00095" lon="7.17015">
        <ele>903.216431</ele>
        <time>2016-04-24T11:06:53Z</time>
      </trkpt>
      <trkpt lat="44.001" lon="7.17">
        <ele>902.776245</ele>
        <time>2016-04-24T11:06:55Z</time>
      </trkpt>
      <trkpt lat="44.00105" lon="7.16986">
        <ele>901.237793</ele>
        <time>2016-04-24T11:06:57Z</time>
      </trkpt>
      <trkpt lat="44.00113" lon="7.16979">
        <ele>903.552734</ele>
        <time>2016-04-24T11:06:59Z</time>
      </trkpt>
      <trkpt lat="44.0012" lon="7.16972">
        <ele>904.624634</ele>
        <time>2016-04-24T11:07:01Z</time>
      </trkpt>
      <trkpt lat="44.00124" lon="7.16966">
        <ele>904.171265</ele>
        <time>2016-04-24T11:07:02Z</time>
      </trkpt>
      <trkpt lat="44.00127" lon="7.16961">
        <ele>903.762695</ele>
        <time>2016-04-24T11:07:03Z</time>
      </trkpt>
      <trkpt lat="44.00133" lon="7.16949">
        <ele>902.103638</ele>
        <time>2016-04-24T11:07:05Z</time>
      </trkpt>
      <trkpt lat="44.00145" lon="7.16937">
        <ele>906.145813</ele>
        <time>2016-04-24T11:07:08Z</time>
      </trkpt>
      <trkpt lat="44.00148" lon="7.16933">
        <ele>906.674011</ele>
        <time>2016-04-24T11:07:09Z</time>
      </trkpt>
      <trkpt lat="44.00155" lon="7.16919">
        <ele>907.037476</ele>
        <time>2016-04-24T11:07:11Z</time>
      </trkpt>
      <trkpt lat="44.00158" lon="7.16912">
        <ele>906.888855</ele>
        <time>2016-04-24T11:07:12Z</time>
      </trkpt>
      <trkpt lat="44.00158" lon="7.169">
        <ele>907.125854</ele>
        <time>2016-04-24T11:07:14Z</time>
      </trkpt>
      <trkpt lat="44.00148" lon="7.16891">
        <ele>903.763977</ele>
        <time>2016-04-24T11:07:16Z</time>
      </trkpt>
      <trkpt lat="44.00116" lon="7.16869">
        <ele>895.937317</ele>
        <time>2016-04-24T11:07:21Z</time>
      </trkpt>
      <trkpt lat="44.00065" lon="7.16838">
        <ele>891.75647</ele>
        <time>2016-04-24T11:07:28Z</time>
      </trkpt>
      <trkpt lat="44.00045" lon="7.16829">
        <ele>885.869629</ele>
        <time>2016-04-24T11:07:31Z</time>
      </trkpt>
      <trkpt lat="44.00039" lon="7.16818">
        <ele>883.512512</ele>
        <time>2016-04-24T11:07:33Z</time>
      </trkpt>
      <trkpt lat="44.00039" lon="7.16804">
        <ele>885.295837</ele>
        <time>2016-04-24T11:07:35Z</time>
      </trkpt>
      <trkpt lat="44.00043" lon="7.16791">
        <ele>889.208008</ele>
        <time>2016-04-24T11:07:37Z</time>
      </trkpt>
      <trkpt lat="44.00048" lon="7.16769">
        <ele>895.508606</ele>
        <time>2016-04-24T11:07:40Z</time>
      </trkpt>
      <trkpt lat="44.00047" lon="7.16763">
        <ele>896.304749</ele>
        <time>2016-04-24T11:07:41Z</time>
      </trkpt>
      <trkpt lat="44.00023" lon="7.16745">
        <ele>884.641846</ele>
        <time>2016-04-24T11:07:47Z</time>
      </trkpt>
      <trkpt lat="44.00018" lon="7.16734">
        <ele>883.956787</ele>
        <time>2016-04-24T11:07:49Z</time>
      </trkpt>
      <trkpt lat="44.00014" lon="7.1672">
        <ele>883.667297</ele>
        <time>2016-04-24T11:07:51Z</time>
      </trkpt>
      <trkpt lat="44.00014" lon="7.16713">
        <ele>884.512756</ele>
        <time>2016-04-24T11:07:52Z</time>
      </trkpt>
      <trkpt lat="44.00015" lon="7.16707">
        <ele>886.34729</ele>
        <time>2016-04-24T11:07:53Z</time>
      </trkpt>
      <trkpt lat="44.0002" lon="7.16694">
        <ele>883.831543</ele>
        <time>2016-04-24T11:07:55Z</time>
      </trkpt>
      <trkpt lat="44.00024" lon="7.16688">
        <ele>883.960571</ele>
        <time>2016-04-24T11:07:56Z</time>
      </trkpt>
      <trkpt lat="44.00033" lon="7.16675">
        <ele>884.886108</ele>
        <time>2016-04-24T11:07:58Z</time>
      </trkpt>
      <trkpt lat="44.00037" lon="7.16667">
        <ele>884.340637</ele>
        <time>2016-04-24T11:07:59Z</time>
      </trkpt>
      <trkpt lat="44.0004" lon="7.16659">
        <ele>883.801208</ele>
        <time>2016-04-24T11:08:00Z</time>
      </trkpt>
      <trkpt lat="44.00043" lon="7.16653">
        <ele>884.172424</ele>
        <time>2016-04-24T11:08:01Z</time>
      </trkpt>
      <trkpt lat="44.00046" lon="7.16647">
        <ele>884.499268</ele>
        <time>2016-04-24T11:08:02Z</time>
      </trkpt>
      <trkpt lat="44.00052" lon="7.16632">
        <ele>882.136658</ele>
        <time>2016-04-24T11:08:04Z</time>
      </trkpt>
      <trkpt lat="44.00055" lon="7.16624">
        <ele>879.9328</ele>
        <time>2016-04-24T11:08:05Z</time>
      </trkpt>
      <trkpt lat="44.00056" lon="7.16616">
        <ele>876.634033</ele>
        <time>2016-04-24T11:08:06Z</time>
      </trkpt>
      <trkpt lat="44.0006" lon="7.16602">
        <ele>872.259277</ele>
        <time>2016-04-24T11:08:08Z</time>
      </trkpt>
      <trkpt lat="44.00067" lon="7.16588">
        <ele>867.41333</ele>
        <time>2016-04-24T11:08:10Z</time>
      </trkpt>
      <trkpt lat="44.00071" lon="7.16581">
        <ele>866.607056</ele>
        <time>2016-04-24T11:08:11Z</time>
      </trkpt>
      <trkpt lat="44.00081" lon="7.16569">
        <ele>865.488403</ele>
        <time>2016-04-24T11:08:13Z</time>
      </trkpt>
      <trkpt lat="44.00087" lon="7.16562">
        <ele>864.947693</ele>
        <time>2016-04-24T11:08:14Z</time>
      </trkpt>
      <trkpt lat="44.00092" lon="7.16555">
        <ele>863.822021</ele>
        <time>2016-04-24T11:08:15Z</time>
      </trkpt>
      <trkpt lat="44.00096" lon="7.16547">
        <ele>862.202148</ele>
        <time>2016-04-24T11:08:16Z</time>
      </trkpt>
      <trkpt lat="44.00099" lon="7.16539">
        <ele>860.158997</ele>
        <time>2016-04-24T11:08:17Z</time>
      </trkpt>
      <trkpt lat="44.00101" lon="7.16531">
        <ele>857.192505</ele>
        <time>2016-04-24T11:08:18Z</time>
      </trkpt>
      <trkpt lat="44.00103" lon="7.16524">
        <ele>856.046326</ele>
        <time>2016-04-24T11:08:19Z</time>
      </trkpt>
      <trkpt lat="44.00104" lon="7.16519">
        <ele>856.460999</ele>
        <time>2016-04-24T11:08:20Z</time>
      </trkpt>
      <trkpt lat="44.00103" lon="7.16515">
        <ele>855.96759</ele>
        <time>2016-04-24T11:08:21Z</time>
      </trkpt>
      <trkpt lat="44.00101" lon="7.16511">
        <ele>854.733215</ele>
        <time>2016-04-24T11:08:22Z</time>
      </trkpt>
      <trkpt lat="44.00098" lon="7.16504">
        <ele>853.684814</ele>
        <time>2016-04-24T11:08:23Z</time>
      </trkpt>
      <trkpt lat="44.00098" lon="7.16498">
        <ele>853.490967</ele>
        <time>2016-04-24T11:08:24Z</time>
      </trkpt>
      <trkpt lat="44.001" lon="7.16492">
        <ele>854.410339</ele>
        <time>2016-04-24T11:08:25Z</time>
      </trkpt>
      <trkpt lat="44.00107" lon="7.16485">
        <ele>857.464417</ele>
        <time>2016-04-24T11:08:27Z</time>
      </trkpt>
      <trkpt lat="44.00112" lon="7.1648">
        <ele>859.874207</ele>
        <time>2016-04-24T11:08:30Z</time>
      </trkpt>
      <trkpt lat="44.00112" lon="7.16477">
        <ele>859.947388</ele>
        <time>2016-04-24T11:08:33Z</time>
      </trkpt>
      <trkpt lat="44.00106" lon="7.16465">
        <ele>857.041504</ele>
        <time>2016-04-24T11:08:37Z</time>
      </trkpt>
      <trkpt lat="44.00103" lon="7.16461">
        <ele>857.993347</ele>
        <time>2016-04-24T11:08:38Z</time>
      </trkpt>
      <trkpt lat="44.00094" lon="7.16458">
        <ele>856.111816</ele>
        <time>2016-04-24T11:08:40Z</time>
      </trkpt>
      <trkpt lat="44.00077" lon="7.16456">
        <ele>849.942139</ele>
        <time>2016-04-24T11:08:43Z</time>
      </trkpt>
      <trkpt lat="44.00062" lon="7.16451">
        <ele>845.476135</ele>
        <time>2016-04-24T11:08:46Z</time>
      </trkpt>
      <trkpt lat="44.00054" lon="7.1644">
        <ele>847.122375</ele>
        <time>2016-04-24T11:08:48Z</time>
      </trkpt>
      <trkpt lat="44.00051" lon="7.16418">
        <ele>857.021423</ele>
        <time>2016-04-24T11:08:51Z</time>
      </trkpt>
      <trkpt lat="44.00046" lon="7.16402">
        <ele>862.741333</ele>
        <time>2016-04-24T11:08:56Z</time>
      </trkpt>
      <trkpt lat="44.00041" lon="7.164">
        <ele>861.423401</ele>
        <time>2016-04-24T11:08:58Z</time>
      </trkpt>
      <trkpt lat="44.00037" lon="7.16399">
        <ele>860.132629</ele>
        <time>2016-04-24T11:08:59Z</time>
      </trkpt>
      <trkpt lat="44.00026" lon="7.16397">
        <ele>856.795105</ele>
        <time>2016-04-24T11:09:01Z</time>
      </trkpt>
      <trkpt lat="44.00008" lon="7.16396">
        <ele>853.203125</ele>
        <time>2016-04-24T11:09:04Z</time>
      </trkpt>
      <trkpt lat="43.99995" lon="7.1639">
        <ele>854.765991</ele>
        <time>2016-04-24T11:09:06Z</time>
      </trkpt>
      <trkpt lat="43.99984" lon="7.16382">
        <ele>859.553345</ele>
        <time>2016-04-24T11:09:08Z</time>
      </trkpt>
      <trkpt lat="43.99966" lon="7.16374">
        <ele>863.403625</ele>
        <time>2016-04-24T11:09:12Z</time>
      </trkpt>
      <trkpt lat="43.99947" lon="7.16381">
        <ele>855.894104</ele>
        <time>2016-04-24T11:09:15Z</time>
      </trkpt>
      <trkpt lat="43.99892" lon="7.16384">
        <ele>851.226013</ele>
        <time>2016-04-24T11:09:23Z</time>
      </trkpt>
      <trkpt lat="43.99886" lon="7.16385">
        <ele>850.24823</ele>
        <time>2016-04-24T11:09:24Z</time>
      </trkpt>
      <trkpt lat="43.99873" lon="7.1639">
        <ele>846.722046</ele>
        <time>2016-04-24T11:09:26Z</time>
      </trkpt>
      <trkpt lat="43.99859" lon="7.16395">
        <ele>842.995422</ele>
        <time>2016-04-24T11:09:28Z</time>
      </trkpt>
      <trkpt lat="43.99844" lon="7.16396">
        <ele>841.204529</ele>
        <time>2016-04-24T11:09:30Z</time>
      </trkpt>
      <trkpt lat="43.99836" lon="7.16395">
        <ele>838.92395</ele>
        <time>2016-04-24T11:09:31Z</time>
      </trkpt>
      <trkpt lat="43.99829" lon="7.16392">
        <ele>837.416199</ele>
        <time>2016-04-24T11:09:32Z</time>
      </trkpt>
      <trkpt lat="43.99813" lon="7.16383">
        <ele>835.601318</ele>
        <time>2016-04-24T11:09:34Z</time>
      </trkpt>
      <trkpt lat="43.99806" lon="7.1638">
        <ele>834.483215</ele>
        <time>2016-04-24T11:09:35Z</time>
      </trkpt>
      <trkpt lat="43.99798" lon="7.16376">
        <ele>833.030029</ele>
        <time>2016-04-24T11:09:36Z</time>
      </trkpt>
      <trkpt lat="43.99791" lon="7.16371">
        <ele>830.365723</ele>
        <time>2016-04-24T11:09:37Z</time>
      </trkpt>
      <trkpt lat="43.99785" lon="7.16366">
        <ele>828.162292</ele>
        <time>2016-04-24T11:09:38Z</time>
      </trkpt>
      <trkpt lat="43.99781" lon="7.1636">
        <ele>826.693787</ele>
        <time>2016-04-24T11:09:39Z</time>
      </trkpt>
      <trkpt lat="43.99779" lon="7.16352">
        <ele>826.233215</ele>
        <time>2016-04-24T11:09:40Z</time>
      </trkpt>
      <trkpt lat="43.99779" lon="7.16343">
        <ele>826.485901</ele>
        <time>2016-04-24T11:09:41Z</time>
      </trkpt>
      <trkpt lat="43.99781" lon="7.16335">
        <ele>827.651489</ele>
        <time>2016-04-24T11:09:42Z</time>
      </trkpt>
      <trkpt lat="43.99783" lon="7.16326">
        <ele>829.174438</ele>
        <time>2016-04-24T11:09:43Z</time>
      </trkpt>
      <trkpt lat="43.99786" lon="7.16318">
        <ele>831.174988</ele>
        <time>2016-04-24T11:09:44Z</time>
      </trkpt>
      <trkpt lat="43.9979" lon="7.1631">
        <ele>832.62146</ele>
        <time>2016-04-24T11:09:45Z</time>
      </trkpt>
      <trkpt lat="43.99792" lon="7.16302">
        <ele>832.193909</ele>
        <time>2016-04-24T11:09:46Z</time>
      </trkpt>
      <trkpt lat="43.99797" lon="7.16287">
        <ele>832.006897</ele>
        <time>2016-04-24T11:09:48Z</time>
      </trkpt>
      <trkpt lat="43.998" lon="7.16269">
        <ele>830.708374</ele>
        <time>2016-04-24T11:09:50Z</time>
      </trkpt>
      <trkpt lat="43.99797" lon="7.16252">
        <ele>826.204773</ele>
        <time>2016-04-24T11:09:52Z</time>
      </trkpt>
      <trkpt lat="43.99791" lon="7.16238">
        <ele>823.013916</ele>
        <time>2016-04-24T11:09:54Z</time>
      </trkpt>
      <trkpt lat="43.99788" lon="7.16232">
        <ele>821.357422</ele>
        <time>2016-04-24T11:09:55Z</time>
      </trkpt>
      <trkpt lat="43.99783" lon="7.16225">
        <ele>819.25647</ele>
        <time>2016-04-24T11:09:56Z</time>
      </trkpt>
      <trkpt lat="43.99778" lon="7.16218">
        <ele>816.840881</ele>
        <time>2016-04-24T11:09:57Z</time>
      </trkpt>
      <trkpt lat="43.99767" lon="7.16205">
        <ele>812.804382</ele>
        <time>2016-04-24T11:09:59Z</time>
      </trkpt>
      <trkpt lat="43.99763" lon="7.16199">
        <ele>811.808838</ele>
        <time>2016-04-24T11:10:00Z</time>
      </trkpt>
      <trkpt lat="43.99759" lon="7.16193">
        <ele>810.683838</ele>
        <time>2016-04-24T11:10:01Z</time>
      </trkpt>
      <trkpt lat="43.99751" lon="7.16181">
        <ele>807.028076</ele>
        <time>2016-04-24T11:10:03Z</time>
      </trkpt>
      <trkpt lat="43.99747" lon="7.16175">
        <ele>804.591431</ele>
        <time>2016-04-24T11:10:04Z</time>
      </trkpt>
      <trkpt lat="43.99744" lon="7.16167">
        <ele>802.469849</ele>
        <time>2016-04-24T11:10:05Z</time>
      </trkpt>
      <trkpt lat="43.99741" lon="7.16156">
        <ele>799.969177</ele>
        <time>2016-04-24T11:10:07Z</time>
      </trkpt>
      <trkpt lat="43.99743" lon="7.16151">
        <ele>800.004456</ele>
        <time>2016-04-24T11:10:08Z</time>
      </trkpt>
      <trkpt lat="43.99746" lon="7.16147">
        <ele>800.679382</ele>
        <time>2016-04-24T11:10:09Z</time>
      </trkpt>
      <trkpt lat="43.9975" lon="7.16145">
        <ele>801.63208</ele>
        <time>2016-04-24T11:10:10Z</time>
      </trkpt>
      <trkpt lat="43.99753" lon="7.16143">
        <ele>802.572144</ele>
        <time>2016-04-24T11:10:11Z</time>
      </trkpt>
      <trkpt lat="43.99758" lon="7.1614">
        <ele>803.586487</ele>
        <time>2016-04-24T11:10:13Z</time>
      </trkpt>
      <trkpt lat="43.99756" lon="7.16138">
        <ele>802.863586</ele>
        <time>2016-04-24T11:10:15Z</time>
      </trkpt>
      <trkpt lat="43.99754" lon="7.16139">
        <ele>802.251526</ele>
        <time>2016-04-24T11:10:16Z</time>
      </trkpt>
      <trkpt lat="43.99741" lon="7.16143">
        <ele>798.375427</ele>
        <time>2016-04-24T11:10:20Z</time>
      </trkpt>
      <trkpt lat="43.99731" lon="7.16148">
        <ele>795.401978</ele>
        <time>2016-04-24T11:10:23Z</time>
      </trkpt>
      <trkpt lat="43.99728" lon="7.16149">
        <ele>794.560425</ele>
        <time>2016-04-24T11:10:24Z</time>
      </trkpt>
      <trkpt lat="43.99733" lon="7.1614">
        <ele>795.357788</ele>
        <time>2016-04-24T11:10:27Z</time>
      </trkpt>
      <trkpt lat="43.99738" lon="7.16137">
        <ele>796.746399</ele>
        <time>2016-04-24T11:10:29Z</time>
      </trkpt>
      <trkpt lat="43.99738" lon="7.16135">
        <ele>796.548889</ele>
        <time>2016-04-24T11:10:31Z</time>
      </trkpt>
      <trkpt lat="43.99736" lon="7.16135">
        <ele>796.060425</ele>
        <time>2016-04-24T11:10:32Z</time>
      </trkpt>
      <trkpt lat="43.99724" lon="7.16135">
        <ele>792.251892</ele>
        <time>2016-04-24T11:10:35Z</time>
      </trkpt>
      <trkpt lat="43.9972" lon="7.16135">
        <ele>790.663879</ele>
        <time>2016-04-24T11:10:36Z</time>
      </trkpt>
      <trkpt lat="43.99712" lon="7.16136">
        <ele>788.484558</ele>
        <time>2016-04-24T11:10:38Z</time>
      </trkpt>
      <trkpt lat="43.99706" lon="7.16137">
        <ele>787.083862</ele>
        <time>2016-04-24T11:10:40Z</time>
      </trkpt>
      <trkpt lat="43.99705" lon="7.16134">
        <ele>786.651672</ele>
        <time>2016-04-24T11:10:43Z</time>
      </trkpt>
      <trkpt lat="43.99707" lon="7.16128">
        <ele>787.072998</ele>
        <time>2016-04-24T11:10:46Z</time>
      </trkpt>
      <trkpt lat="43.99719" lon="7.16117">
        <ele>788.262573</ele>
        <time>2016-04-24T11:10:50Z</time>
      </trkpt>
      <trkpt lat="43.99728" lon="7.1611">
        <ele>787.077026</ele>
        <time>2016-04-24T11:10:52Z</time>
      </trkpt>
      <trkpt lat="43.99733" lon="7.16107">
        <ele>786.86438</ele>
        <time>2016-04-24T11:10:53Z</time>
      </trkpt>
      <trkpt lat="43.99738" lon="7.16103">
        <ele>786.315247</ele>
        <time>2016-04-24T11:10:54Z</time>
      </trkpt>
      <trkpt lat="43.99744" lon="7.161">
        <ele>785.803833</ele>
        <time>2016-04-24T11:10:55Z</time>
      </trkpt>
      <trkpt lat="43.9975" lon="7.16096">
        <ele>785.265259</ele>
        <time>2016-04-24T11:10:56Z</time>
      </trkpt>
      <trkpt lat="43.99755" lon="7.16092">
        <ele>784.182556</ele>
        <time>2016-04-24T11:10:57Z</time>
      </trkpt>
      <trkpt lat="43.9976" lon="7.16089">
        <ele>783.162354</ele>
        <time>2016-04-24T11:10:58Z</time>
      </trkpt>
      <trkpt lat="43.99765" lon="7.16085">
        <ele>782.074402</ele>
        <time>2016-04-24T11:10:59Z</time>
      </trkpt>
      <trkpt lat="43.99775" lon="7.16077">
        <ele>780.202759</ele>
        <time>2016-04-24T11:11:01Z</time>
      </trkpt>
      <trkpt lat="43.99779" lon="7.16073">
        <ele>779.373169</ele>
        <time>2016-04-24T11:11:02Z</time>
      </trkpt>
      <trkpt lat="43.99782" lon="7.1607">
        <ele>778.224426</ele>
        <time>2016-04-24T11:11:03Z</time>
      </trkpt>
      <trkpt lat="43.99785" lon="7.16066">
        <ele>776.937439</ele>
        <time>2016-04-24T11:11:04Z</time>
      </trkpt>
      <trkpt lat="43.99788" lon="7.16062">
        <ele>776.606873</ele>
        <time>2016-04-24T11:11:05Z</time>
      </trkpt>
      <trkpt lat="43.99792" lon="7.1606">
        <ele>776.978577</ele>
        <time>2016-04-24T11:11:06Z</time>
      </trkpt>
      <trkpt lat="43.99796" lon="7.16056">
        <ele>777.126343</ele>
        <time>2016-04-24T11:11:07Z</time>
      </trkpt>
      <trkpt lat="43.99806" lon="7.16047">
        <ele>776.868347</ele>
        <time>2016-04-24T11:11:09Z</time>
      </trkpt>
      <trkpt lat="43.99816" lon="7.16036">
        <ele>776.225525</ele>
        <time>2016-04-24T11:11:11Z</time>
      </trkpt>
      <trkpt lat="43.99824" lon="7.16027">
        <ele>776.668091</ele>
        <time>2016-04-24T11:11:13Z</time>
      </trkpt>
      <trkpt lat="43.99828" lon="7.16022">
        <ele>776.589966</ele>
        <time>2016-04-24T11:11:14Z</time>
      </trkpt>
      <trkpt lat="43.99831" lon="7.16018">
        <ele>776.276062</ele>
        <time>2016-04-24T11:11:15Z</time>
      </trkpt>
      <trkpt lat="43.99833" lon="7.16013">
        <ele>775.376526</ele>
        <time>2016-04-24T11:11:16Z</time>
      </trkpt>
      <trkpt lat="43.9983" lon="7.16011">
        <ele>773.793091</ele>
        <time>2016-04-24T11:11:17Z</time>
      </trkpt>
      <trkpt lat="43.99823" lon="7.16008">
        <ele>769.838745</ele>
        <time>2016-04-24T11:11:19Z</time>
      </trkpt>
      <trkpt lat="43.99809" lon="7.16005">
        <ele>764.107788</ele>
        <time>2016-04-24T11:11:22Z</time>
      </trkpt>
      <trkpt lat="43.99803" lon="7.16003">
        <ele>762.635498</ele>
        <time>2016-04-24T11:11:23Z</time>
      </trkpt>
      <trkpt lat="43.99799" lon="7.16001">
        <ele>762.055725</ele>
        <time>2016-04-24T11:11:24Z</time>
      </trkpt>
      <trkpt lat="43.99794" lon="7.15998">
        <ele>762.15094</ele>
        <time>2016-04-24T11:11:25Z</time>
      </trkpt>
      <trkpt lat="43.9979" lon="7.15994">
        <ele>762.539856</ele>
        <time>2016-04-24T11:11:26Z</time>
      </trkpt>
      <trkpt lat="43.99785" lon="7.15989">
        <ele>763.529785</ele>
        <time>2016-04-24T11:11:27Z</time>
      </trkpt>
      <trkpt lat="43.9978" lon="7.15982">
        <ele>764.833984</ele>
        <time>2016-04-24T11:11:28Z</time>
      </trkpt>
      <trkpt lat="43.99765" lon="7.15951">
        <ele>769.949097</ele>
        <time>2016-04-24T11:11:32Z</time>
      </trkpt>
      <trkpt lat="43.99749" lon="7.15933">
        <ele>769.113281</ele>
        <time>2016-04-24T11:11:37Z</time>
      </trkpt>
      <trkpt lat="43.99743" lon="7.15924">
        <ele>769.829956</ele>
        <time>2016-04-24T11:11:40Z</time>
      </trkpt>
      <trkpt lat="43.99737" lon="7.15914">
        <ele>770.812622</ele>
        <time>2016-04-24T11:11:43Z</time>
      </trkpt>
      <trkpt lat="43.99731" lon="7.15906">
        <ele>771.366394</ele>
        <time>2016-04-24T11:11:46Z</time>
      </trkpt>
      <trkpt lat="43.99724" lon="7.15896">
        <ele>770.897156</ele>
        <time>2016-04-24T11:11:49Z</time>
      </trkpt>
      <trkpt lat="43.99716" lon="7.15887">
        <ele>769.366516</ele>
        <time>2016-04-24T11:11:52Z</time>
      </trkpt>
      <trkpt lat="43.99708" lon="7.15871">
        <ele>769.260559</ele>
        <time>2016-04-24T11:11:56Z</time>
      </trkpt>
      <trkpt lat="43.99707" lon="7.15859">
        <ele>771.478638</ele>
        <time>2016-04-24T11:11:59Z</time>
      </trkpt>
      <trkpt lat="43.99706" lon="7.15842">
        <ele>774.475647</ele>
        <time>2016-04-24T11:12:03Z</time>
      </trkpt>
      <trkpt lat="43.99705" lon="7.15832">
        <ele>775.467712</ele>
        <time>2016-04-24T11:12:05Z</time>
      </trkpt>
      <trkpt lat="43.99701" lon="7.15809">
        <ele>777.014038</ele>
        <time>2016-04-24T11:12:10Z</time>
      </trkpt>
      <trkpt lat="43.99701" lon="7.15781">
        <ele>775.646118</ele>
        <time>2016-04-24T11:12:16Z</time>
      </trkpt>
      <trkpt lat="43.99706" lon="7.15759">
        <ele>778.080627</ele>
        <time>2016-04-24T11:12:21Z</time>
      </trkpt>
      <trkpt lat="43.99712" lon="7.15742">
        <ele>780.474915</ele>
        <time>2016-04-24T11:12:25Z</time>
      </trkpt>
      <trkpt lat="43.99716" lon="7.1573">
        <ele>780.108154</ele>
        <time>2016-04-24T11:12:28Z</time>
      </trkpt>
      <trkpt lat="43.99725" lon="7.15713">
        <ele>781.631409</ele>
        <time>2016-04-24T11:12:32Z</time>
      </trkpt>
      <trkpt lat="43.99732" lon="7.15696">
        <ele>781.719116</ele>
        <time>2016-04-24T11:12:36Z</time>
      </trkpt>
      <trkpt lat="43.99736" lon="7.15686">
        <ele>781.096497</ele>
        <time>2016-04-24T11:12:38Z</time>
      </trkpt>
      <trkpt lat="43.99746" lon="7.15661">
        <ele>781.661011</ele>
        <time>2016-04-24T11:12:43Z</time>
      </trkpt>
      <trkpt lat="43.99759" lon="7.1563">
        <ele>781.880981</ele>
        <time>2016-04-24T11:12:49Z</time>
      </trkpt>
      <trkpt lat="43.99772" lon="7.15597">
        <ele>786.016724</ele>
        <time>2016-04-24T11:12:55Z</time>
      </trkpt>
      <trkpt lat="43.99775" lon="7.15583">
        <ele>786.326111</ele>
        <time>2016-04-24T11:12:57Z</time>
      </trkpt>
      <trkpt lat="43.99778" lon="7.15571">
        <ele>786.43634</ele>
        <time>2016-04-24T11:12:59Z</time>
      </trkpt>
      <trkpt lat="43.99779" lon="7.15552">
        <ele>787.784973</ele>
        <time>2016-04-24T11:13:02Z</time>
      </trkpt>
      <trkpt lat="43.99775" lon="7.1554">
        <ele>787.803711</ele>
        <time>2016-04-24T11:13:04Z</time>
      </trkpt>
      <trkpt lat="43.99772" lon="7.15534">
        <ele>787.415894</ele>
        <time>2016-04-24T11:13:05Z</time>
      </trkpt>
      <trkpt lat="43.99765" lon="7.15524">
        <ele>786.465881</ele>
        <time>2016-04-24T11:13:07Z</time>
      </trkpt>
      <trkpt lat="43.99757" lon="7.15514">
        <ele>784.724487</ele>
        <time>2016-04-24T11:13:09Z</time>
      </trkpt>
      <trkpt lat="43.99746" lon="7.15506">
        <ele>782.119385</ele>
        <time>2016-04-24T11:13:11Z</time>
      </trkpt>
      <trkpt lat="43.99732" lon="7.15492">
        <ele>779.649841</ele>
        <time>2016-04-24T11:13:14Z</time>
      </trkpt>
      <trkpt lat="43.99722" lon="7.1548">
        <ele>777.623596</ele>
        <time>2016-04-24T11:13:16Z</time>
      </trkpt>
      <trkpt lat="43.99717" lon="7.15464">
        <ele>776.783386</ele>
        <time>2016-04-24T11:13:18Z</time>
      </trkpt>
      <trkpt lat="43.99713" lon="7.15437">
        <ele>777.039673</ele>
        <time>2016-04-24T11:13:21Z</time>
      </trkpt>
      <trkpt lat="43.99714" lon="7.15421">
        <ele>776.662415</ele>
        <time>2016-04-24T11:13:23Z</time>
      </trkpt>
      <trkpt lat="43.99716" lon="7.15405">
        <ele>776.938293</ele>
        <time>2016-04-24T11:13:25Z</time>
      </trkpt>
      <trkpt lat="43.99718" lon="7.15399">
        <ele>777.259338</ele>
        <time>2016-04-24T11:13:26Z</time>
      </trkpt>
      <trkpt lat="43.9972" lon="7.15392">
        <ele>777.53302</ele>
        <time>2016-04-24T11:13:27Z</time>
      </trkpt>
      <trkpt lat="43.99726" lon="7.15374">
        <ele>778.459473</ele>
        <time>2016-04-24T11:13:30Z</time>
      </trkpt>
      <trkpt lat="43.99729" lon="7.15368">
        <ele>778.429382</ele>
        <time>2016-04-24T11:13:31Z</time>
      </trkpt>
      <trkpt lat="43.99732" lon="7.15363">
        <ele>778.421997</ele>
        <time>2016-04-24T11:13:32Z</time>
      </trkpt>
      <trkpt lat="43.99749" lon="7.15345">
        <ele>779.271973</ele>
        <time>2016-04-24T11:13:36Z</time>
      </trkpt>
      <trkpt lat="43.99753" lon="7.15339">
        <ele>779.257568</ele>
        <time>2016-04-24T11:13:37Z</time>
      </trkpt>
      <trkpt lat="43.99761" lon="7.15329">
        <ele>778.084595</ele>
        <time>2016-04-24T11:13:39Z</time>
      </trkpt>
      <trkpt lat="43.99768" lon="7.15322">
        <ele>777.335266</ele>
        <time>2016-04-24T11:13:41Z</time>
      </trkpt>
      <trkpt lat="43.9977" lon="7.1532">
        <ele>776.956604</ele>
        <time>2016-04-24T11:13:42Z</time>
      </trkpt>
      <trkpt lat="43.99771" lon="7.15317">
        <ele>776.329041</ele>
        <time>2016-04-24T11:13:43Z</time>
      </trkpt>
      <trkpt lat="43.9977" lon="7.15315">
        <ele>775.718018</ele>
        <time>2016-04-24T11:13:44Z</time>
      </trkpt>
      <trkpt lat="43.99768" lon="7.15315">
        <ele>775.405701</ele>
        <time>2016-04-24T11:13:45Z</time>
      </trkpt>
      <trkpt lat="43.99765" lon="7.15316">
        <ele>775.135498</ele>
        <time>2016-04-24T11:13:46Z</time>
      </trkpt>
      <trkpt lat="43.99764" lon="7.15314">
        <ele>774.629456</ele>
        <time>2016-04-24T11:13:47Z</time>
      </trkpt>
      <trkpt lat="43.99764" lon="7.15313">
        <ele>774.299316</ele>
        <time>2016-04-24T11:13:48Z</time>
      </trkpt>
      <trkpt lat="43.99766" lon="7.1531">
        <ele>773.56897</ele>
        <time>2016-04-24T11:13:50Z</time>
      </trkpt>
      <trkpt lat="43.99766" lon="7.15309">
        <ele>773.27533</ele>
        <time>2016-04-24T11:13:51Z</time>
      </trkpt>
      <trkpt lat="43.99764" lon="7.15309">
        <ele>773.116577</ele>
        <time>2016-04-24T11:13:52Z</time>
      </trkpt>
      <trkpt lat="43.99762" lon="7.15308">
        <ele>772.288879</ele>
        <time>2016-04-24T11:13:54Z</time>
      </trkpt>
      <trkpt lat="43.99764" lon="7.15305">
        <ele>771.688904</ele>
        <time>2016-04-24T11:13:57Z</time>
      </trkpt>
      <trkpt lat="43.99765" lon="7.15299">
        <ele>769.714539</ele>
        <time>2016-04-24T11:14:00Z</time>
      </trkpt>
      <trkpt lat="43.99763" lon="7.15296">
        <ele>768.805725</ele>
        <time>2016-04-24T11:14:01Z</time>
      </trkpt>
      <trkpt lat="43.99757" lon="7.15291">
        <ele>766.518921</ele>
        <time>2016-04-24T11:14:03Z</time>
      </trkpt>
      <trkpt lat="43.99753" lon="7.15288">
        <ele>764.754578</ele>
        <time>2016-04-24T11:14:04Z</time>
      </trkpt>
      <trkpt lat="43.99748" lon="7.15287">
        <ele>763.209595</ele>
        <time>2016-04-24T11:14:05Z</time>
      </trkpt>
      <trkpt lat="43.99743" lon="7.15288">
        <ele>762.000977</ele>
        <time>2016-04-24T11:14:06Z</time>
      </trkpt>
      <trkpt lat="43.99739" lon="7.15288">
        <ele>761.029358</ele>
        <time>2016-04-24T11:14:07Z</time>
      </trkpt>
      <trkpt lat="43.99732" lon="7.15287">
        <ele>758.885132</ele>
        <time>2016-04-24T11:14:09Z</time>
      </trkpt>
      <trkpt lat="43.99729" lon="7.15287">
        <ele>758.340454</ele>
        <time>2016-04-24T11:14:10Z</time>
      </trkpt>
      <trkpt lat="43.99724" lon="7.15287">
        <ele>757.159363</ele>
        <time>2016-04-24T11:14:12Z</time>
      </trkpt>
      <trkpt lat="43.99725" lon="7.15285">
        <ele>756.513916</ele>
        <time>2016-04-24T11:14:13Z</time>
      </trkpt>
      <trkpt lat="43.99726" lon="7.15282">
        <ele>755.804871</ele>
        <time>2016-04-24T11:14:14Z</time>
      </trkpt>
      <trkpt lat="43.99726" lon="7.15279">
        <ele>754.943665</ele>
        <time>2016-04-24T11:14:15Z</time>
      </trkpt>
      <trkpt lat="43.99724" lon="7.15277">
        <ele>754.148865</ele>
        <time>2016-04-24T11:14:16Z</time>
      </trkpt>
      <trkpt lat="43.99718" lon="7.15277">
        <ele>752.350342</ele>
        <time>2016-04-24T11:14:18Z</time>
      </trkpt>
      <trkpt lat="43.99712" lon="7.15274">
        <ele>749.855896</ele>
        <time>2016-04-24T11:14:20Z</time>
      </trkpt>
      <trkpt lat="43.99707" lon="7.15274">
        <ele>748.081909</ele>
        <time>2016-04-24T11:14:22Z</time>
      </trkpt>
      <trkpt lat="43.99706" lon="7.15272">
        <ele>747.101929</ele>
        <time>2016-04-24T11:14:23Z</time>
      </trkpt>
      <trkpt lat="43.99705" lon="7.15268">
        <ele>745.920288</ele>
        <time>2016-04-24T11:14:24Z</time>
      </trkpt>
      <trkpt lat="43.99708" lon="7.15258">
        <ele>743.771301</ele>
        <time>2016-04-24T11:14:26Z</time>
      </trkpt>
      <trkpt lat="43.9971" lon="7.15252">
        <ele>742.640503</ele>
        <time>2016-04-24T11:14:27Z</time>
      </trkpt>
      <trkpt lat="43.99711" lon="7.15248">
        <ele>741.659607</ele>
        <time>2016-04-24T11:14:28Z</time>
      </trkpt>
      <trkpt lat="43.99713" lon="7.15243">
        <ele>740.882874</ele>
        <time>2016-04-24T11:14:29Z</time>
      </trkpt>
      <trkpt lat="43.99716" lon="7.1524">
        <ele>740.195374</ele>
        <time>2016-04-24T11:14:30Z</time>
      </trkpt>
      <trkpt lat="43.99719" lon="7.15236">
        <ele>739.700378</ele>
        <time>2016-04-24T11:14:31Z</time>
      </trkpt>
      <trkpt lat="43.99722" lon="7.15233">
        <ele>739.095825</ele>
        <time>2016-04-24T11:14:32Z</time>
      </trkpt>
      <trkpt lat="43.99725" lon="7.15229">
        <ele>738.199707</ele>
        <time>2016-04-24T11:14:33Z</time>
      </trkpt>
      <trkpt lat="43.99727" lon="7.15226">
        <ele>737.30011</ele>
        <time>2016-04-24T11:14:34Z</time>
      </trkpt>
      <trkpt lat="43.99728" lon="7.15223">
        <ele>736.371643</ele>
        <time>2016-04-24T11:14:35Z</time>
      </trkpt>
      <trkpt lat="43.99729" lon="7.15221">
        <ele>735.830872</ele>
        <time>2016-04-24T11:14:36Z</time>
      </trkpt>
      <trkpt lat="43.99731" lon="7.15218">
        <ele>735.214478</ele>
        <time>2016-04-24T11:14:37Z</time>
      </trkpt>
      <trkpt lat="43.99734" lon="7.15212">
        <ele>733.454224</ele>
        <time>2016-04-24T11:14:39Z</time>
      </trkpt>
      <trkpt lat="43.99735" lon="7.15208">
        <ele>731.751343</ele>
        <time>2016-04-24T11:14:41Z</time>
      </trkpt>
      <trkpt lat="43.99734" lon="7.15207">
        <ele>731.216553</ele>
        <time>2016-04-24T11:14:43Z</time>
      </trkpt>
      <trkpt lat="43.99731" lon="7.15207">
        <ele>730.781616</ele>
        <time>2016-04-24T11:14:46Z</time>
      </trkpt>
      <trkpt lat="43.99732" lon="7.15204">
        <ele>729.915222</ele>
        <time>2016-04-24T11:14:48Z</time>
      </trkpt>
      <trkpt lat="43.99733" lon="7.15203">
        <ele>729.616882</ele>
        <time>2016-04-24T11:14:49Z</time>
      </trkpt>
      <trkpt lat="43.99735" lon="7.15199">
        <ele>728.235901</ele>
        <time>2016-04-24T11:14:51Z</time>
      </trkpt>
      <trkpt lat="43.99731" lon="7.15196">
        <ele>726.791504</ele>
        <time>2016-04-24T11:14:53Z</time>
      </trkpt>
      <trkpt lat="43.99728" lon="7.15196">
        <ele>726.26123</ele>
        <time>2016-04-24T11:14:54Z</time>
      </trkpt>
      <trkpt lat="43.99726" lon="7.15195">
        <ele>725.913818</ele>
        <time>2016-04-24T11:14:55Z</time>
      </trkpt>
      <trkpt lat="43.99724" lon="7.15195">
        <ele>725.64093</ele>
        <time>2016-04-24T11:14:57Z</time>
      </trkpt>
      <trkpt lat="43.99724" lon="7.15191">
        <ele>724.208618</ele>
        <time>2016-04-24T11:14:59Z</time>
      </trkpt>
      <trkpt lat="43.99724" lon="7.15189">
        <ele>723.345642</ele>
        <time>2016-04-24T11:15:00Z</time>
      </trkpt>
      <trkpt lat="43.99724" lon="7.15186">
        <ele>722.458435</ele>
        <time>2016-04-24T11:15:01Z</time>
      </trkpt>
      <trkpt lat="43.99722" lon="7.15185">
        <ele>721.923889</ele>
        <time>2016-04-24T11:15:02Z</time>
      </trkpt>
      <trkpt lat="43.99716" lon="7.15185">
        <ele>721.274353</ele>
        <time>2016-04-24T11:15:04Z</time>
      </trkpt>
      <trkpt lat="43.99713" lon="7.15182">
        <ele>719.328857</ele>
        <time>2016-04-24T11:15:06Z</time>
      </trkpt>
      <trkpt lat="43.99715" lon="7.15176">
        <ele>718.432861</ele>
        <time>2016-04-24T11:15:08Z</time>
      </trkpt>
      <trkpt lat="43.99718" lon="7.15167">
        <ele>716.600586</ele>
        <time>2016-04-24T11:15:10Z</time>
      </trkpt>
      <trkpt lat="43.99717" lon="7.15164">
        <ele>715.780518</ele>
        <time>2016-04-24T11:15:11Z</time>
      </trkpt>
      <trkpt lat="43.99712" lon="7.15158">
        <ele>713.248596</ele>
        <time>2016-04-24T11:15:13Z</time>
      </trkpt>
      <trkpt lat="43.99705" lon="7.15148">
        <ele>709.690857</ele>
        <time>2016-04-24T11:15:15Z</time>
      </trkpt>
      <trkpt lat="43.99698" lon="7.15141">
        <ele>707.183472</ele>
        <time>2016-04-24T11:15:17Z</time>
      </trkpt>
      <trkpt lat="43.99695" lon="7.15137">
        <ele>706.097351</ele>
        <time>2016-04-24T11:15:18Z</time>
      </trkpt>
      <trkpt lat="43.99694" lon="7.15132">
        <ele>705.193054</ele>
        <time>2016-04-24T11:15:19Z</time>
      </trkpt>
      <trkpt lat="43.99693" lon="7.15128">
        <ele>704.434998</ele>
        <time>2016-04-24T11:15:20Z</time>
      </trkpt>
      <trkpt lat="43.99693" lon="7.15122">
        <ele>703.6651</ele>
        <time>2016-04-24T11:15:21Z</time>
      </trkpt>
      <trkpt lat="43.99693" lon="7.15107">
        <ele>701.502869</ele>
        <time>2016-04-24T11:15:23Z</time>
      </trkpt>
      <trkpt lat="43.99693" lon="7.15099">
        <ele>700.372864</ele>
        <time>2016-04-24T11:15:24Z</time>
      </trkpt>
      <trkpt lat="43.99693" lon="7.15092">
        <ele>699.324585</ele>
        <time>2016-04-24T11:15:25Z</time>
      </trkpt>
      <trkpt lat="43.99691" lon="7.15084">
        <ele>698.431152</ele>
        <time>2016-04-24T11:15:26Z</time>
      </trkpt>
      <trkpt lat="43.99687" lon="7.15078">
        <ele>697.930359</ele>
        <time>2016-04-24T11:15:27Z</time>
      </trkpt>
      <trkpt lat="43.99675" lon="7.15069">
        <ele>697.942261</ele>
        <time>2016-04-24T11:15:29Z</time>
      </trkpt>
      <trkpt lat="43.99668" lon="7.15065">
        <ele>697.14917</ele>
        <time>2016-04-24T11:15:30Z</time>
      </trkpt>
      <trkpt lat="43.99663" lon="7.15058">
        <ele>696.493774</ele>
        <time>2016-04-24T11:15:31Z</time>
      </trkpt>
      <trkpt lat="43.99659" lon="7.1505">
        <ele>695.74707</ele>
        <time>2016-04-24T11:15:32Z</time>
      </trkpt>
      <trkpt lat="43.99656" lon="7.15043">
        <ele>695.070984</ele>
        <time>2016-04-24T11:15:33Z</time>
      </trkpt>
      <trkpt lat="43.99651" lon="7.15029">
        <ele>694.12384</ele>
        <time>2016-04-24T11:15:36Z</time>
      </trkpt>
      <trkpt lat="43.99646" lon="7.15016">
        <ele>693.667664</ele>
        <time>2016-04-24T11:15:40Z</time>
      </trkpt>
      <trkpt lat="43.9965" lon="7.15008">
        <ele>692.868225</ele>
        <time>2016-04-24T11:15:47Z</time>
      </trkpt>
    </trkseg>
  </trk>
</gpx>